<?xml version="1.0" encoding="UTF-8" standalone="no" ?>
<gpx xmlns="http://www.topografix.com/GPX/1/1" xmlns:xsi="http://www.w3.org/2001/XMLSchema-instance" xsi:schemaLocation="http://www.topografix.com/GPX/1/1 http://www.topografix.com/GPX/1/1/gpx.xsd" version="1.1" creator="VisuGPX - https://www.visugpx.com">
  <metadata>
    <name>FCSAD Journée 1</name>
    <desc><![CDATA[Boucle de 51 km de [b]Vallon-Pont-d\\\'Arc[/b] à [b]Uzer[/b]]]></desc>
  </metadata>
  <trk>
    <name><![CDATA[2011-05-27 Uzer]]></name>
    <trkseg>
      <trkpt lat="44.44649" lon="4.36748">
        <ele>187.5943604</ele>
        <time>2011-05-27T06:25:42Z</time>
      </trkpt>
      <trkpt lat="44.44645" lon="4.3676">
        <ele>187.1137695</ele>
        <time>2011-05-27T06:25:54Z</time>
      </trkpt>
      <trkpt lat="44.44638" lon="4.3677">
        <ele>188.0750732</ele>
        <time>2011-05-27T06:25:59Z</time>
      </trkpt>
      <trkpt lat="44.44632" lon="4.36779">
        <ele>187.1137695</ele>
        <time>2011-05-27T06:26:03Z</time>
      </trkpt>
      <trkpt lat="44.44625" lon="4.36789">
        <ele>187.1137695</ele>
        <time>2011-05-27T06:26:07Z</time>
      </trkpt>
      <trkpt lat="44.4462" lon="4.368">
        <ele>187.5943604</ele>
        <time>2011-05-27T06:26:11Z</time>
      </trkpt>
      <trkpt lat="44.44618" lon="4.36812">
        <ele>188.0750732</ele>
        <time>2011-05-27T06:26:15Z</time>
      </trkpt>
      <trkpt lat="44.44615" lon="4.36826">
        <ele>188.0750732</ele>
        <time>2011-05-27T06:26:19Z</time>
      </trkpt>
      <trkpt lat="44.44612" lon="4.36839">
        <ele>188.0750732</ele>
        <time>2011-05-27T06:26:23Z</time>
      </trkpt>
      <trkpt lat="44.4461" lon="4.36853">
        <ele>188.0750732</ele>
        <time>2011-05-27T06:26:27Z</time>
      </trkpt>
      <trkpt lat="44.4461" lon="4.36866">
        <ele>189.5169678</ele>
        <time>2011-05-27T06:26:31Z</time>
      </trkpt>
      <trkpt lat="44.44612" lon="4.3688">
        <ele>190.9589844</ele>
        <time>2011-05-27T06:26:35Z</time>
      </trkpt>
      <trkpt lat="44.44604" lon="4.36883">
        <ele>191.4395752</ele>
        <time>2011-05-27T06:26:40Z</time>
      </trkpt>
      <trkpt lat="44.44596" lon="4.36878">
        <ele>189.5169678</ele>
        <time>2011-05-27T06:26:44Z</time>
      </trkpt>
      <trkpt lat="44.44585" lon="4.36876">
        <ele>189.036377</ele>
        <time>2011-05-27T06:26:48Z</time>
      </trkpt>
      <trkpt lat="44.44577" lon="4.36883">
        <ele>189.5169678</ele>
        <time>2011-05-27T06:26:52Z</time>
      </trkpt>
      <trkpt lat="44.44573" lon="4.36898">
        <ele>190.9589844</ele>
        <time>2011-05-27T06:26:58Z</time>
      </trkpt>
      <trkpt lat="44.44567" lon="4.36911">
        <ele>191.9202881</ele>
        <time>2011-05-27T06:27:04Z</time>
      </trkpt>
      <trkpt lat="44.4456" lon="4.36923">
        <ele>192.8817139</ele>
        <time>2011-05-27T06:27:09Z</time>
      </trkpt>
      <trkpt lat="44.4455" lon="4.36927">
        <ele>194.8043213</ele>
        <time>2011-05-27T06:27:13Z</time>
      </trkpt>
      <trkpt lat="44.44539" lon="4.36922">
        <ele>194.3237305</ele>
        <time>2011-05-27T06:27:17Z</time>
      </trkpt>
      <trkpt lat="44.4453" lon="4.3692">
        <ele>194.3237305</ele>
        <time>2011-05-27T06:27:20Z</time>
      </trkpt>
      <trkpt lat="44.4452" lon="4.36921">
        <ele>193.8430176</ele>
        <time>2011-05-27T06:27:23Z</time>
      </trkpt>
      <trkpt lat="44.4451" lon="4.36925">
        <ele>194.3237305</ele>
        <time>2011-05-27T06:27:26Z</time>
      </trkpt>
      <trkpt lat="44.44501" lon="4.36924">
        <ele>194.8043213</ele>
        <time>2011-05-27T06:27:29Z</time>
      </trkpt>
      <trkpt lat="44.44491" lon="4.36917">
        <ele>195.2849121</ele>
        <time>2011-05-27T06:27:32Z</time>
      </trkpt>
      <trkpt lat="44.4448" lon="4.3691">
        <ele>194.8043213</ele>
        <time>2011-05-27T06:27:35Z</time>
      </trkpt>
      <trkpt lat="44.44469" lon="4.36902">
        <ele>195.765625</ele>
        <time>2011-05-27T06:27:38Z</time>
      </trkpt>
      <trkpt lat="44.44458" lon="4.36895">
        <ele>195.765625</ele>
        <time>2011-05-27T06:27:41Z</time>
      </trkpt>
      <trkpt lat="44.44447" lon="4.36888">
        <ele>195.765625</ele>
        <time>2011-05-27T06:27:44Z</time>
      </trkpt>
      <trkpt lat="44.44436" lon="4.36882">
        <ele>195.765625</ele>
        <time>2011-05-27T06:27:47Z</time>
      </trkpt>
      <trkpt lat="44.44426" lon="4.36877">
        <ele>196.2463379</ele>
        <time>2011-05-27T06:27:50Z</time>
      </trkpt>
      <trkpt lat="44.44415" lon="4.36872">
        <ele>196.2463379</ele>
        <time>2011-05-27T06:27:53Z</time>
      </trkpt>
      <trkpt lat="44.44408" lon="4.36862">
        <ele>196.7269287</ele>
        <time>2011-05-27T06:27:56Z</time>
      </trkpt>
      <trkpt lat="44.44407" lon="4.36847">
        <ele>196.7269287</ele>
        <time>2011-05-27T06:27:59Z</time>
      </trkpt>
      <trkpt lat="44.44408" lon="4.36832">
        <ele>196.7269287</ele>
        <time>2011-05-27T06:28:02Z</time>
      </trkpt>
      <trkpt lat="44.44406" lon="4.36817">
        <ele>196.7269287</ele>
        <time>2011-05-27T06:28:05Z</time>
      </trkpt>
      <trkpt lat="44.44398" lon="4.36804">
        <ele>197.2075195</ele>
        <time>2011-05-27T06:28:08Z</time>
      </trkpt>
      <trkpt lat="44.44391" lon="4.36794">
        <ele>197.2075195</ele>
        <time>2011-05-27T06:28:11Z</time>
      </trkpt>
      <trkpt lat="44.44382" lon="4.36786">
        <ele>198.1689453</ele>
        <time>2011-05-27T06:28:14Z</time>
      </trkpt>
      <trkpt lat="44.44374" lon="4.36777">
        <ele>197.6882324</ele>
        <time>2011-05-27T06:28:17Z</time>
      </trkpt>
      <trkpt lat="44.44364" lon="4.36769">
        <ele>197.6882324</ele>
        <time>2011-05-27T06:28:20Z</time>
      </trkpt>
      <trkpt lat="44.44353" lon="4.3676">
        <ele>197.6882324</ele>
        <time>2011-05-27T06:28:23Z</time>
      </trkpt>
      <trkpt lat="44.44342" lon="4.36751">
        <ele>197.6882324</ele>
        <time>2011-05-27T06:28:26Z</time>
      </trkpt>
      <trkpt lat="44.44333" lon="4.36739">
        <ele>197.6882324</ele>
        <time>2011-05-27T06:28:29Z</time>
      </trkpt>
      <trkpt lat="44.44321" lon="4.36727">
        <ele>197.6882324</ele>
        <time>2011-05-27T06:28:32Z</time>
      </trkpt>
      <trkpt lat="44.44314" lon="4.36718">
        <ele>198.1689453</ele>
        <time>2011-05-27T06:28:34Z</time>
      </trkpt>
      <trkpt lat="44.44307" lon="4.36709">
        <ele>198.6495361</ele>
        <time>2011-05-27T06:28:36Z</time>
      </trkpt>
      <trkpt lat="44.44301" lon="4.36699">
        <ele>198.1689453</ele>
        <time>2011-05-27T06:28:38Z</time>
      </trkpt>
      <trkpt lat="44.44292" lon="4.36686">
        <ele>199.6108398</ele>
        <time>2011-05-27T06:28:41Z</time>
      </trkpt>
      <trkpt lat="44.44284" lon="4.36676">
        <ele>199.130127</ele>
        <time>2011-05-27T06:28:44Z</time>
      </trkpt>
      <trkpt lat="44.44277" lon="4.36666">
        <ele>200.0916748</ele>
        <time>2011-05-27T06:28:47Z</time>
      </trkpt>
      <trkpt lat="44.44267" lon="4.36666">
        <ele>200.5722656</ele>
        <time>2011-05-27T06:28:52Z</time>
      </trkpt>
      <trkpt lat="44.44263" lon="4.36678">
        <ele>200.5722656</ele>
        <time>2011-05-27T06:28:58Z</time>
      </trkpt>
      <trkpt lat="44.44262" lon="4.36694">
        <ele>200.0916748</ele>
        <time>2011-05-27T06:29:03Z</time>
      </trkpt>
      <trkpt lat="44.44268" lon="4.36708">
        <ele>200.0916748</ele>
        <time>2011-05-27T06:29:08Z</time>
      </trkpt>
      <trkpt lat="44.44264" lon="4.3672">
        <ele>199.6108398</ele>
        <time>2011-05-27T06:29:11Z</time>
      </trkpt>
      <trkpt lat="44.44251" lon="4.36724">
        <ele>200.0916748</ele>
        <time>2011-05-27T06:29:14Z</time>
      </trkpt>
      <trkpt lat="44.44238" lon="4.36725">
        <ele>200.0916748</ele>
        <time>2011-05-27T06:29:17Z</time>
      </trkpt>
      <trkpt lat="44.44225" lon="4.36721">
        <ele>199.130127</ele>
        <time>2011-05-27T06:29:20Z</time>
      </trkpt>
      <trkpt lat="44.44217" lon="4.36715">
        <ele>200.5722656</ele>
        <time>2011-05-27T06:29:23Z</time>
      </trkpt>
      <trkpt lat="44.44209" lon="4.36707">
        <ele>200.5722656</ele>
        <time>2011-05-27T06:29:26Z</time>
      </trkpt>
      <trkpt lat="44.44201" lon="4.36699">
        <ele>201.5335693</ele>
        <time>2011-05-27T06:29:29Z</time>
      </trkpt>
      <trkpt lat="44.44191" lon="4.3669">
        <ele>202.0142822</ele>
        <time>2011-05-27T06:29:33Z</time>
      </trkpt>
      <trkpt lat="44.44182" lon="4.36682">
        <ele>202.9754639</ele>
        <time>2011-05-27T06:29:37Z</time>
      </trkpt>
      <trkpt lat="44.44175" lon="4.36672">
        <ele>204.4174805</ele>
        <time>2011-05-27T06:29:41Z</time>
      </trkpt>
      <trkpt lat="44.44178" lon="4.36656">
        <ele>206.3400879</ele>
        <time>2011-05-27T06:29:46Z</time>
      </trkpt>
      <trkpt lat="44.44183" lon="4.36642">
        <ele>207.3013916</ele>
        <time>2011-05-27T06:29:51Z</time>
      </trkpt>
      <trkpt lat="44.44185" lon="4.36626">
        <ele>207.7821045</ele>
        <time>2011-05-27T06:29:56Z</time>
      </trkpt>
      <trkpt lat="44.44185" lon="4.36611">
        <ele>208.7434082</ele>
        <time>2011-05-27T06:30:00Z</time>
      </trkpt>
      <trkpt lat="44.44186" lon="4.36596">
        <ele>210.1854248</ele>
        <time>2011-05-27T06:30:04Z</time>
      </trkpt>
      <trkpt lat="44.44188" lon="4.36581">
        <ele>210.6660156</ele>
        <time>2011-05-27T06:30:08Z</time>
      </trkpt>
      <trkpt lat="44.4419" lon="4.36567">
        <ele>212.1080322</ele>
        <time>2011-05-27T06:30:12Z</time>
      </trkpt>
      <trkpt lat="44.4419" lon="4.36552">
        <ele>213.5500488</ele>
        <time>2011-05-27T06:30:16Z</time>
      </trkpt>
      <trkpt lat="44.44188" lon="4.36537">
        <ele>214.5112305</ele>
        <time>2011-05-27T06:30:22Z</time>
      </trkpt>
      <trkpt lat="44.44179" lon="4.36532">
        <ele>214.9919434</ele>
        <time>2011-05-27T06:30:27Z</time>
      </trkpt>
      <trkpt lat="44.44167" lon="4.36531">
        <ele>216.43396</ele>
        <time>2011-05-27T06:30:33Z</time>
      </trkpt>
      <trkpt lat="44.44159" lon="4.36542">
        <ele>217.3953857</ele>
        <time>2011-05-27T06:30:39Z</time>
      </trkpt>
      <trkpt lat="44.44151" lon="4.36556">
        <ele>217.3953857</ele>
        <time>2011-05-27T06:30:44Z</time>
      </trkpt>
      <trkpt lat="44.44143" lon="4.36568">
        <ele>217.8759766</ele>
        <time>2011-05-27T06:30:48Z</time>
      </trkpt>
      <trkpt lat="44.44134" lon="4.36579">
        <ele>218.3565674</ele>
        <time>2011-05-27T06:30:52Z</time>
      </trkpt>
      <trkpt lat="44.44125" lon="4.3659">
        <ele>218.8372803</ele>
        <time>2011-05-27T06:30:56Z</time>
      </trkpt>
      <trkpt lat="44.44115" lon="4.36602">
        <ele>217.8759766</ele>
        <time>2011-05-27T06:31:00Z</time>
      </trkpt>
      <trkpt lat="44.44105" lon="4.3661">
        <ele>217.3953857</ele>
        <time>2011-05-27T06:31:03Z</time>
      </trkpt>
      <trkpt lat="44.44093" lon="4.36619">
        <ele>216.9146729</ele>
        <time>2011-05-27T06:31:06Z</time>
      </trkpt>
      <trkpt lat="44.4408" lon="4.36629">
        <ele>214.5112305</ele>
        <time>2011-05-27T06:31:09Z</time>
      </trkpt>
      <trkpt lat="44.44069" lon="4.36639">
        <ele>214.0306396</ele>
        <time>2011-05-27T06:31:11Z</time>
      </trkpt>
      <trkpt lat="44.44058" lon="4.36648">
        <ele>213.0693359</ele>
        <time>2011-05-27T06:31:13Z</time>
      </trkpt>
      <trkpt lat="44.44048" lon="4.36655">
        <ele>213.5500488</ele>
        <time>2011-05-27T06:31:15Z</time>
      </trkpt>
      <trkpt lat="44.44038" lon="4.3666">
        <ele>213.0693359</ele>
        <time>2011-05-27T06:31:17Z</time>
      </trkpt>
      <trkpt lat="44.44027" lon="4.36666">
        <ele>213.0693359</ele>
        <time>2011-05-27T06:31:19Z</time>
      </trkpt>
      <trkpt lat="44.44017" lon="4.36669">
        <ele>213.5500488</ele>
        <time>2011-05-27T06:31:21Z</time>
      </trkpt>
      <trkpt lat="44.44004" lon="4.36672">
        <ele>214.0306396</ele>
        <time>2011-05-27T06:31:24Z</time>
      </trkpt>
      <trkpt lat="44.43994" lon="4.36675">
        <ele>213.5500488</ele>
        <time>2011-05-27T06:31:28Z</time>
      </trkpt>
      <trkpt lat="44.43985" lon="4.36671">
        <ele>213.5500488</ele>
        <time>2011-05-27T06:31:35Z</time>
      </trkpt>
      <trkpt lat="44.43975" lon="4.36662">
        <ele>211.6274414</ele>
        <time>2011-05-27T06:31:42Z</time>
      </trkpt>
      <trkpt lat="44.43963" lon="4.36657">
        <ele>210.6660156</ele>
        <time>2011-05-27T06:31:46Z</time>
      </trkpt>
      <trkpt lat="44.43953" lon="4.36655">
        <ele>208.2628174</ele>
        <time>2011-05-27T06:31:51Z</time>
      </trkpt>
      <trkpt lat="44.43942" lon="4.36649">
        <ele>205.3787842</ele>
        <time>2011-05-27T06:31:56Z</time>
      </trkpt>
      <trkpt lat="44.43932" lon="4.36641">
        <ele>205.3787842</ele>
        <time>2011-05-27T06:31:59Z</time>
      </trkpt>
      <trkpt lat="44.43922" lon="4.36634">
        <ele>204.4174805</ele>
        <time>2011-05-27T06:32:03Z</time>
      </trkpt>
      <trkpt lat="44.43913" lon="4.36622">
        <ele>204.8980713</ele>
        <time>2011-05-27T06:32:13Z</time>
      </trkpt>
      <trkpt lat="44.43901" lon="4.36617">
        <ele>203.4561768</ele>
        <time>2011-05-27T06:32:18Z</time>
      </trkpt>
      <trkpt lat="44.4389" lon="4.36612">
        <ele>202.0142822</ele>
        <time>2011-05-27T06:32:22Z</time>
      </trkpt>
      <trkpt lat="44.43879" lon="4.36609">
        <ele>200.5722656</ele>
        <time>2011-05-27T06:32:25Z</time>
      </trkpt>
      <trkpt lat="44.43867" lon="4.36603">
        <ele>199.130127</ele>
        <time>2011-05-27T06:32:28Z</time>
      </trkpt>
      <trkpt lat="44.43857" lon="4.36594">
        <ele>198.1689453</ele>
        <time>2011-05-27T06:32:31Z</time>
      </trkpt>
      <trkpt lat="44.43848" lon="4.3658">
        <ele>197.6882324</ele>
        <time>2011-05-27T06:32:34Z</time>
      </trkpt>
      <trkpt lat="44.43843" lon="4.36567">
        <ele>197.6882324</ele>
        <time>2011-05-27T06:32:37Z</time>
      </trkpt>
      <trkpt lat="44.43838" lon="4.36552">
        <ele>197.6882324</ele>
        <time>2011-05-27T06:32:40Z</time>
      </trkpt>
      <trkpt lat="44.43833" lon="4.36538">
        <ele>197.6882324</ele>
        <time>2011-05-27T06:32:43Z</time>
      </trkpt>
      <trkpt lat="44.4383" lon="4.36526">
        <ele>198.1689453</ele>
        <time>2011-05-27T06:32:46Z</time>
      </trkpt>
      <trkpt lat="44.43832" lon="4.36513">
        <ele>198.6495361</ele>
        <time>2011-05-27T06:32:50Z</time>
      </trkpt>
      <trkpt lat="44.43837" lon="4.36501">
        <ele>199.130127</ele>
        <time>2011-05-27T06:32:54Z</time>
      </trkpt>
      <trkpt lat="44.43841" lon="4.36487">
        <ele>199.6108398</ele>
        <time>2011-05-27T06:33:00Z</time>
      </trkpt>
      <trkpt lat="44.43845" lon="4.36473">
        <ele>200.0916748</ele>
        <time>2011-05-27T06:33:10Z</time>
      </trkpt>
      <trkpt lat="44.43842" lon="4.36457">
        <ele>199.6108398</ele>
        <time>2011-05-27T06:33:20Z</time>
      </trkpt>
      <trkpt lat="44.43835" lon="4.36446">
        <ele>200.5722656</ele>
        <time>2011-05-27T06:33:24Z</time>
      </trkpt>
      <trkpt lat="44.43824" lon="4.36439">
        <ele>201.0528564</ele>
        <time>2011-05-27T06:33:28Z</time>
      </trkpt>
      <trkpt lat="44.43814" lon="4.36441">
        <ele>200.5722656</ele>
        <time>2011-05-27T06:33:31Z</time>
      </trkpt>
      <trkpt lat="44.43803" lon="4.3644">
        <ele>199.6108398</ele>
        <time>2011-05-27T06:33:34Z</time>
      </trkpt>
      <trkpt lat="44.43794" lon="4.36431">
        <ele>200.0916748</ele>
        <time>2011-05-27T06:33:37Z</time>
      </trkpt>
      <trkpt lat="44.43787" lon="4.36419">
        <ele>200.0916748</ele>
        <time>2011-05-27T06:33:40Z</time>
      </trkpt>
      <trkpt lat="44.43779" lon="4.36408">
        <ele>200.0916748</ele>
        <time>2011-05-27T06:33:43Z</time>
      </trkpt>
      <trkpt lat="44.43773" lon="4.36395">
        <ele>199.130127</ele>
        <time>2011-05-27T06:33:46Z</time>
      </trkpt>
      <trkpt lat="44.43766" lon="4.36383">
        <ele>200.0916748</ele>
        <time>2011-05-27T06:33:49Z</time>
      </trkpt>
      <trkpt lat="44.43758" lon="4.36371">
        <ele>200.0916748</ele>
        <time>2011-05-27T06:33:53Z</time>
      </trkpt>
      <trkpt lat="44.43752" lon="4.36359">
        <ele>198.6495361</ele>
        <time>2011-05-27T06:33:57Z</time>
      </trkpt>
      <trkpt lat="44.43746" lon="4.36345">
        <ele>198.1689453</ele>
        <time>2011-05-27T06:34:01Z</time>
      </trkpt>
      <trkpt lat="44.43741" lon="4.3633">
        <ele>199.130127</ele>
        <time>2011-05-27T06:34:05Z</time>
      </trkpt>
      <trkpt lat="44.43735" lon="4.3632">
        <ele>199.130127</ele>
        <time>2011-05-27T06:34:08Z</time>
      </trkpt>
      <trkpt lat="44.43727" lon="4.36307">
        <ele>198.1689453</ele>
        <time>2011-05-27T06:34:11Z</time>
      </trkpt>
      <trkpt lat="44.4372" lon="4.36296">
        <ele>198.1689453</ele>
        <time>2011-05-27T06:34:14Z</time>
      </trkpt>
      <trkpt lat="44.43714" lon="4.36282">
        <ele>199.130127</ele>
        <time>2011-05-27T06:34:17Z</time>
      </trkpt>
      <trkpt lat="44.43712" lon="4.36268">
        <ele>199.6108398</ele>
        <time>2011-05-27T06:34:20Z</time>
      </trkpt>
      <trkpt lat="44.43716" lon="4.36256">
        <ele>198.6495361</ele>
        <time>2011-05-27T06:34:23Z</time>
      </trkpt>
      <trkpt lat="44.43725" lon="4.3625">
        <ele>198.1689453</ele>
        <time>2011-05-27T06:34:28Z</time>
      </trkpt>
      <trkpt lat="44.43735" lon="4.36247">
        <ele>197.2075195</ele>
        <time>2011-05-27T06:34:35Z</time>
      </trkpt>
      <trkpt lat="44.43744" lon="4.36244">
        <ele>196.7269287</ele>
        <time>2011-05-27T06:34:41Z</time>
      </trkpt>
      <trkpt lat="44.43753" lon="4.36238">
        <ele>196.7269287</ele>
        <time>2011-05-27T06:34:44Z</time>
      </trkpt>
      <trkpt lat="44.43763" lon="4.36229">
        <ele>197.2075195</ele>
        <time>2011-05-27T06:34:47Z</time>
      </trkpt>
      <trkpt lat="44.43771" lon="4.36222">
        <ele>195.765625</ele>
        <time>2011-05-27T06:34:49Z</time>
      </trkpt>
      <trkpt lat="44.4378" lon="4.36214">
        <ele>195.2849121</ele>
        <time>2011-05-27T06:34:51Z</time>
      </trkpt>
      <trkpt lat="44.43791" lon="4.36209">
        <ele>194.3237305</ele>
        <time>2011-05-27T06:34:53Z</time>
      </trkpt>
      <trkpt lat="44.43802" lon="4.36205">
        <ele>193.8430176</ele>
        <time>2011-05-27T06:34:55Z</time>
      </trkpt>
      <trkpt lat="44.43813" lon="4.36202">
        <ele>194.3237305</ele>
        <time>2011-05-27T06:34:57Z</time>
      </trkpt>
      <trkpt lat="44.43824" lon="4.36201">
        <ele>193.8430176</ele>
        <time>2011-05-27T06:34:59Z</time>
      </trkpt>
      <trkpt lat="44.43835" lon="4.362">
        <ele>193.3623047</ele>
        <time>2011-05-27T06:35:01Z</time>
      </trkpt>
      <trkpt lat="44.43847" lon="4.36197">
        <ele>191.4395752</ele>
        <time>2011-05-27T06:35:03Z</time>
      </trkpt>
      <trkpt lat="44.43859" lon="4.36195">
        <ele>189.9976807</ele>
        <time>2011-05-27T06:35:05Z</time>
      </trkpt>
      <trkpt lat="44.43871" lon="4.36194">
        <ele>190.4783936</ele>
        <time>2011-05-27T06:35:07Z</time>
      </trkpt>
      <trkpt lat="44.43883" lon="4.36193">
        <ele>189.5169678</ele>
        <time>2011-05-27T06:35:09Z</time>
      </trkpt>
      <trkpt lat="44.43894" lon="4.36193">
        <ele>189.9976807</ele>
        <time>2011-05-27T06:35:11Z</time>
      </trkpt>
      <trkpt lat="44.43905" lon="4.36194">
        <ele>189.9976807</ele>
        <time>2011-05-27T06:35:13Z</time>
      </trkpt>
      <trkpt lat="44.43916" lon="4.36195">
        <ele>189.5169678</ele>
        <time>2011-05-27T06:35:15Z</time>
      </trkpt>
      <trkpt lat="44.43926" lon="4.36196">
        <ele>189.5169678</ele>
        <time>2011-05-27T06:35:17Z</time>
      </trkpt>
      <trkpt lat="44.43936" lon="4.362">
        <ele>189.5169678</ele>
        <time>2011-05-27T06:35:19Z</time>
      </trkpt>
      <trkpt lat="44.43945" lon="4.36206">
        <ele>189.5169678</ele>
        <time>2011-05-27T06:35:21Z</time>
      </trkpt>
      <trkpt lat="44.43953" lon="4.36212">
        <ele>189.5169678</ele>
        <time>2011-05-27T06:35:23Z</time>
      </trkpt>
      <trkpt lat="44.43962" lon="4.36218">
        <ele>189.5169678</ele>
        <time>2011-05-27T06:35:25Z</time>
      </trkpt>
      <trkpt lat="44.43971" lon="4.36222">
        <ele>188.0750732</ele>
        <time>2011-05-27T06:35:27Z</time>
      </trkpt>
      <trkpt lat="44.4398" lon="4.36213">
        <ele>187.5943604</ele>
        <time>2011-05-27T06:35:30Z</time>
      </trkpt>
      <trkpt lat="44.43981" lon="4.36199">
        <ele>187.5943604</ele>
        <time>2011-05-27T06:35:33Z</time>
      </trkpt>
      <trkpt lat="44.4398" lon="4.36183">
        <ele>189.5169678</ele>
        <time>2011-05-27T06:35:37Z</time>
      </trkpt>
      <trkpt lat="44.4398" lon="4.36168">
        <ele>190.4783936</ele>
        <time>2011-05-27T06:35:41Z</time>
      </trkpt>
      <trkpt lat="44.43979" lon="4.36153">
        <ele>190.9589844</ele>
        <time>2011-05-27T06:35:45Z</time>
      </trkpt>
      <trkpt lat="44.43979" lon="4.3614">
        <ele>191.4395752</ele>
        <time>2011-05-27T06:35:49Z</time>
      </trkpt>
      <trkpt lat="44.4398" lon="4.36124">
        <ele>191.4395752</ele>
        <time>2011-05-27T06:35:55Z</time>
      </trkpt>
      <trkpt lat="44.43986" lon="4.36111">
        <ele>192.8817139</ele>
        <time>2011-05-27T06:36:00Z</time>
      </trkpt>
      <trkpt lat="44.43994" lon="4.36102">
        <ele>193.3623047</ele>
        <time>2011-05-27T06:36:04Z</time>
      </trkpt>
      <trkpt lat="44.44005" lon="4.36099">
        <ele>194.3237305</ele>
        <time>2011-05-27T06:36:09Z</time>
      </trkpt>
      <trkpt lat="44.44015" lon="4.361">
        <ele>195.2849121</ele>
        <time>2011-05-27T06:36:13Z</time>
      </trkpt>
      <trkpt lat="44.44025" lon="4.36102">
        <ele>197.6882324</ele>
        <time>2011-05-27T06:36:17Z</time>
      </trkpt>
      <trkpt lat="44.44035" lon="4.36104">
        <ele>198.1689453</ele>
        <time>2011-05-27T06:36:21Z</time>
      </trkpt>
      <trkpt lat="44.44045" lon="4.36106">
        <ele>198.6495361</ele>
        <time>2011-05-27T06:36:25Z</time>
      </trkpt>
      <trkpt lat="44.44056" lon="4.36108">
        <ele>199.130127</ele>
        <time>2011-05-27T06:36:29Z</time>
      </trkpt>
      <trkpt lat="44.44066" lon="4.3611">
        <ele>199.130127</ele>
        <time>2011-05-27T06:36:33Z</time>
      </trkpt>
      <trkpt lat="44.44077" lon="4.36113">
        <ele>200.0916748</ele>
        <time>2011-05-27T06:36:38Z</time>
      </trkpt>
      <trkpt lat="44.44088" lon="4.36113">
        <ele>201.0528564</ele>
        <time>2011-05-27T06:36:43Z</time>
      </trkpt>
      <trkpt lat="44.44099" lon="4.3611">
        <ele>201.0528564</ele>
        <time>2011-05-27T06:36:48Z</time>
      </trkpt>
      <trkpt lat="44.44106" lon="4.36103">
        <ele>201.0528564</ele>
        <time>2011-05-27T06:36:52Z</time>
      </trkpt>
      <trkpt lat="44.44113" lon="4.36091">
        <ele>201.5335693</ele>
        <time>2011-05-27T06:36:57Z</time>
      </trkpt>
      <trkpt lat="44.44118" lon="4.3608">
        <ele>202.0142822</ele>
        <time>2011-05-27T06:37:01Z</time>
      </trkpt>
      <trkpt lat="44.44124" lon="4.36068">
        <ele>202.494873</ele>
        <time>2011-05-27T06:37:05Z</time>
      </trkpt>
      <trkpt lat="44.4413" lon="4.36059">
        <ele>202.0142822</ele>
        <time>2011-05-27T06:37:09Z</time>
      </trkpt>
      <trkpt lat="44.44137" lon="4.36047">
        <ele>201.5335693</ele>
        <time>2011-05-27T06:37:14Z</time>
      </trkpt>
      <trkpt lat="44.44144" lon="4.36037">
        <ele>202.0142822</ele>
        <time>2011-05-27T06:37:19Z</time>
      </trkpt>
      <trkpt lat="44.44152" lon="4.36028">
        <ele>201.0528564</ele>
        <time>2011-05-27T06:37:24Z</time>
      </trkpt>
      <trkpt lat="44.44159" lon="4.36019">
        <ele>201.5335693</ele>
        <time>2011-05-27T06:37:29Z</time>
      </trkpt>
      <trkpt lat="44.44166" lon="4.36008">
        <ele>201.0528564</ele>
        <time>2011-05-27T06:37:36Z</time>
      </trkpt>
      <trkpt lat="44.44171" lon="4.35998">
        <ele>198.6495361</ele>
        <time>2011-05-27T06:38:52Z</time>
      </trkpt>
      <trkpt lat="44.4418" lon="4.35989">
        <ele>198.1689453</ele>
        <time>2011-05-27T06:38:57Z</time>
      </trkpt>
      <trkpt lat="44.44187" lon="4.3598">
        <ele>197.6882324</ele>
        <time>2011-05-27T06:39:01Z</time>
      </trkpt>
      <trkpt lat="44.44197" lon="4.35971">
        <ele>196.7269287</ele>
        <time>2011-05-27T06:39:04Z</time>
      </trkpt>
      <trkpt lat="44.44205" lon="4.35961">
        <ele>196.2463379</ele>
        <time>2011-05-27T06:39:06Z</time>
      </trkpt>
      <trkpt lat="44.44217" lon="4.35951">
        <ele>194.8043213</ele>
        <time>2011-05-27T06:39:08Z</time>
      </trkpt>
      <trkpt lat="44.4423" lon="4.35941">
        <ele>194.3237305</ele>
        <time>2011-05-27T06:39:10Z</time>
      </trkpt>
      <trkpt lat="44.44244" lon="4.35932">
        <ele>192.401123</ele>
        <time>2011-05-27T06:39:12Z</time>
      </trkpt>
      <trkpt lat="44.44258" lon="4.35924">
        <ele>190.4783936</ele>
        <time>2011-05-27T06:39:14Z</time>
      </trkpt>
      <trkpt lat="44.44272" lon="4.35916">
        <ele>189.036377</ele>
        <time>2011-05-27T06:39:16Z</time>
      </trkpt>
      <trkpt lat="44.44286" lon="4.35909">
        <ele>189.036377</ele>
        <time>2011-05-27T06:39:18Z</time>
      </trkpt>
      <trkpt lat="44.443" lon="4.35903">
        <ele>189.5169678</ele>
        <time>2011-05-27T06:39:20Z</time>
      </trkpt>
      <trkpt lat="44.44313" lon="4.35896">
        <ele>189.036377</ele>
        <time>2011-05-27T06:39:22Z</time>
      </trkpt>
      <trkpt lat="44.44326" lon="4.35888">
        <ele>189.036377</ele>
        <time>2011-05-27T06:39:24Z</time>
      </trkpt>
      <trkpt lat="44.44337" lon="4.3588">
        <ele>187.5943604</ele>
        <time>2011-05-27T06:39:26Z</time>
      </trkpt>
      <trkpt lat="44.44347" lon="4.35871">
        <ele>188.0750732</ele>
        <time>2011-05-27T06:39:28Z</time>
      </trkpt>
      <trkpt lat="44.44354" lon="4.35858">
        <ele>187.1137695</ele>
        <time>2011-05-27T06:39:30Z</time>
      </trkpt>
      <trkpt lat="44.4436" lon="4.35841">
        <ele>186.6331787</ele>
        <time>2011-05-27T06:39:32Z</time>
      </trkpt>
      <trkpt lat="44.44367" lon="4.35825">
        <ele>185.6717529</ele>
        <time>2011-05-27T06:39:34Z</time>
      </trkpt>
      <trkpt lat="44.44374" lon="4.35809">
        <ele>184.7105713</ele>
        <time>2011-05-27T06:39:36Z</time>
      </trkpt>
      <trkpt lat="44.44381" lon="4.35791">
        <ele>184.7105713</ele>
        <time>2011-05-27T06:39:38Z</time>
      </trkpt>
      <trkpt lat="44.44387" lon="4.35774">
        <ele>183.7490234</ele>
        <time>2011-05-27T06:39:40Z</time>
      </trkpt>
      <trkpt lat="44.44394" lon="4.35756">
        <ele>182.7878418</ele>
        <time>2011-05-27T06:39:42Z</time>
      </trkpt>
      <trkpt lat="44.44404" lon="4.3574">
        <ele>181.3458252</ele>
        <time>2011-05-27T06:39:44Z</time>
      </trkpt>
      <trkpt lat="44.44415" lon="4.35723">
        <ele>179.4232178</ele>
        <time>2011-05-27T06:39:46Z</time>
      </trkpt>
      <trkpt lat="44.44427" lon="4.35707">
        <ele>179.4232178</ele>
        <time>2011-05-27T06:39:48Z</time>
      </trkpt>
      <trkpt lat="44.4444" lon="4.35694">
        <ele>178.942627</ele>
        <time>2011-05-27T06:39:50Z</time>
      </trkpt>
      <trkpt lat="44.44452" lon="4.35681">
        <ele>177.9812012</ele>
        <time>2011-05-27T06:39:52Z</time>
      </trkpt>
      <trkpt lat="44.44465" lon="4.35669">
        <ele>177.5006104</ele>
        <time>2011-05-27T06:39:54Z</time>
      </trkpt>
      <trkpt lat="44.44478" lon="4.35653">
        <ele>176.5393066</ele>
        <time>2011-05-27T06:39:56Z</time>
      </trkpt>
      <trkpt lat="44.44492" lon="4.35639">
        <ele>175.5778809</ele>
        <time>2011-05-27T06:39:58Z</time>
      </trkpt>
      <trkpt lat="44.44506" lon="4.3563">
        <ele>174.6165771</ele>
        <time>2011-05-27T06:40:00Z</time>
      </trkpt>
      <trkpt lat="44.4452" lon="4.35621">
        <ele>173.1746826</ele>
        <time>2011-05-27T06:40:02Z</time>
      </trkpt>
      <trkpt lat="44.44535" lon="4.35612">
        <ele>172.2132568</ele>
        <time>2011-05-27T06:40:04Z</time>
      </trkpt>
      <trkpt lat="44.44549" lon="4.35602">
        <ele>170.7713623</ele>
        <time>2011-05-27T06:40:06Z</time>
      </trkpt>
      <trkpt lat="44.44565" lon="4.35593">
        <ele>170.2906494</ele>
        <time>2011-05-27T06:40:08Z</time>
      </trkpt>
      <trkpt lat="44.44582" lon="4.3559">
        <ele>169.3294678</ele>
        <time>2011-05-27T06:40:10Z</time>
      </trkpt>
      <trkpt lat="44.44597" lon="4.35591">
        <ele>166.9260254</ele>
        <time>2011-05-27T06:40:12Z</time>
      </trkpt>
      <trkpt lat="44.44609" lon="4.35588">
        <ele>165.4841309</ele>
        <time>2011-05-27T06:40:14Z</time>
      </trkpt>
      <trkpt lat="44.44619" lon="4.35575">
        <ele>163.5615234</ele>
        <time>2011-05-27T06:40:16Z</time>
      </trkpt>
      <trkpt lat="44.44642" lon="4.35527">
        <ele>163.5615234</ele>
        <time>2011-05-27T06:40:21Z</time>
      </trkpt>
      <trkpt lat="44.44648" lon="4.35508">
        <ele>157.7935791</ele>
        <time>2011-05-27T06:40:23Z</time>
      </trkpt>
      <trkpt lat="44.44655" lon="4.35488">
        <ele>155.8709717</ele>
        <time>2011-05-27T06:40:25Z</time>
      </trkpt>
      <trkpt lat="44.44659" lon="4.35479">
        <ele>155.8709717</ele>
        <time>2011-05-27T06:40:26Z</time>
      </trkpt>
      <trkpt lat="44.44668" lon="4.35457">
        <ele>152.9869385</ele>
        <time>2011-05-27T06:40:28Z</time>
      </trkpt>
      <trkpt lat="44.44687" lon="4.35418">
        <ele>152.0257568</ele>
        <time>2011-05-27T06:40:32Z</time>
      </trkpt>
      <trkpt lat="44.44701" lon="4.35401">
        <ele>146.2578125</ele>
        <time>2011-05-27T06:40:34Z</time>
      </trkpt>
      <trkpt lat="44.44707" lon="4.35393">
        <ele>146.2578125</ele>
        <time>2011-05-27T06:40:35Z</time>
      </trkpt>
      <trkpt lat="44.44722" lon="4.3538">
        <ele>143.8543701</ele>
        <time>2011-05-27T06:40:37Z</time>
      </trkpt>
      <trkpt lat="44.4473" lon="4.35376">
        <ele>143.8543701</ele>
        <time>2011-05-27T06:40:38Z</time>
      </trkpt>
      <trkpt lat="44.44739" lon="4.35374">
        <ele>143.8543701</ele>
        <time>2011-05-27T06:40:39Z</time>
      </trkpt>
      <trkpt lat="44.44756" lon="4.3537">
        <ele>141.9317627</ele>
        <time>2011-05-27T06:40:41Z</time>
      </trkpt>
      <trkpt lat="44.44772" lon="4.35365">
        <ele>139.5284424</ele>
        <time>2011-05-27T06:40:43Z</time>
      </trkpt>
      <trkpt lat="44.44784" lon="4.35357">
        <ele>137.605835</ele>
        <time>2011-05-27T06:40:45Z</time>
      </trkpt>
      <trkpt lat="44.4479" lon="4.3534">
        <ele>135.2025146</ele>
        <time>2011-05-27T06:40:47Z</time>
      </trkpt>
      <trkpt lat="44.44793" lon="4.35318">
        <ele>133.2799072</ele>
        <time>2011-05-27T06:40:49Z</time>
      </trkpt>
      <trkpt lat="44.44795" lon="4.35294">
        <ele>130.3959961</ele>
        <time>2011-05-27T06:40:51Z</time>
      </trkpt>
      <trkpt lat="44.44796" lon="4.35281">
        <ele>129.9152832</ele>
        <time>2011-05-27T06:40:52Z</time>
      </trkpt>
      <trkpt lat="44.44794" lon="4.35256">
        <ele>128.9541016</ele>
        <time>2011-05-27T06:40:54Z</time>
      </trkpt>
      <trkpt lat="44.44794" lon="4.35243">
        <ele>128.9541016</ele>
        <time>2011-05-27T06:40:55Z</time>
      </trkpt>
      <trkpt lat="44.448" lon="4.35222">
        <ele>127.9925537</ele>
        <time>2011-05-27T06:40:57Z</time>
      </trkpt>
      <trkpt lat="44.4481" lon="4.35206">
        <ele>128.4733887</ele>
        <time>2011-05-27T06:40:59Z</time>
      </trkpt>
      <trkpt lat="44.44823" lon="4.35195">
        <ele>128.4733887</ele>
        <time>2011-05-27T06:41:01Z</time>
      </trkpt>
      <trkpt lat="44.44835" lon="4.35188">
        <ele>128.4733887</ele>
        <time>2011-05-27T06:41:03Z</time>
      </trkpt>
      <trkpt lat="44.44845" lon="4.3518">
        <ele>128.4733887</ele>
        <time>2011-05-27T06:41:05Z</time>
      </trkpt>
      <trkpt lat="44.44857" lon="4.35174">
        <ele>127.9925537</ele>
        <time>2011-05-27T06:41:08Z</time>
      </trkpt>
      <trkpt lat="44.44866" lon="4.35171">
        <ele>128.9541016</ele>
        <time>2011-05-27T06:41:12Z</time>
      </trkpt>
      <trkpt lat="44.44877" lon="4.35164">
        <ele>128.4733887</ele>
        <time>2011-05-27T06:41:17Z</time>
      </trkpt>
      <trkpt lat="44.44882" lon="4.35152">
        <ele>128.9541016</ele>
        <time>2011-05-27T06:41:21Z</time>
      </trkpt>
      <trkpt lat="44.44889" lon="4.35144">
        <ele>129.4346924</ele>
        <time>2011-05-27T06:41:26Z</time>
      </trkpt>
      <trkpt lat="44.44889" lon="4.35156">
        <ele>130.3959961</ele>
        <time>2011-05-27T06:41:34Z</time>
      </trkpt>
      <trkpt lat="44.4489" lon="4.35169">
        <ele>131.3572998</ele>
        <time>2011-05-27T06:41:45Z</time>
      </trkpt>
      <trkpt lat="44.44895" lon="4.35182">
        <ele>131.8378906</ele>
        <time>2011-05-27T06:41:55Z</time>
      </trkpt>
      <trkpt lat="44.44902" lon="4.35192">
        <ele>132.7993164</ele>
        <time>2011-05-27T06:42:02Z</time>
      </trkpt>
      <trkpt lat="44.44907" lon="4.35202">
        <ele>133.760498</ele>
        <time>2011-05-27T06:42:08Z</time>
      </trkpt>
      <trkpt lat="44.44911" lon="4.35215">
        <ele>134.7219238</ele>
        <time>2011-05-27T06:42:14Z</time>
      </trkpt>
      <trkpt lat="44.44912" lon="4.35229">
        <ele>136.1639404</ele>
        <time>2011-05-27T06:42:20Z</time>
      </trkpt>
      <trkpt lat="44.44913" lon="4.35242">
        <ele>137.1252441</ele>
        <time>2011-05-27T06:42:24Z</time>
      </trkpt>
      <trkpt lat="44.44915" lon="4.35255">
        <ele>137.605835</ele>
        <time>2011-05-27T06:42:28Z</time>
      </trkpt>
      <trkpt lat="44.44918" lon="4.35268">
        <ele>138.5672607</ele>
        <time>2011-05-27T06:42:32Z</time>
      </trkpt>
      <trkpt lat="44.44924" lon="4.35279">
        <ele>139.0478516</ele>
        <time>2011-05-27T06:42:36Z</time>
      </trkpt>
      <trkpt lat="44.4493" lon="4.3529">
        <ele>140.4898682</ele>
        <time>2011-05-27T06:42:40Z</time>
      </trkpt>
      <trkpt lat="44.44934" lon="4.35302">
        <ele>142.8930664</ele>
        <time>2011-05-27T06:42:44Z</time>
      </trkpt>
      <trkpt lat="44.44939" lon="4.35315">
        <ele>142.8930664</ele>
        <time>2011-05-27T06:42:48Z</time>
      </trkpt>
      <trkpt lat="44.44946" lon="4.35326">
        <ele>143.3736572</ele>
        <time>2011-05-27T06:42:52Z</time>
      </trkpt>
      <trkpt lat="44.44955" lon="4.35334">
        <ele>143.8543701</ele>
        <time>2011-05-27T06:42:56Z</time>
      </trkpt>
      <trkpt lat="44.44963" lon="4.35341">
        <ele>145.7770996</ele>
        <time>2011-05-27T06:43:00Z</time>
      </trkpt>
      <trkpt lat="44.44971" lon="4.35347">
        <ele>146.2578125</ele>
        <time>2011-05-27T06:43:04Z</time>
      </trkpt>
      <trkpt lat="44.44982" lon="4.35352">
        <ele>147.2189941</ele>
        <time>2011-05-27T06:43:09Z</time>
      </trkpt>
      <trkpt lat="44.44993" lon="4.35356">
        <ele>148.1804199</ele>
        <time>2011-05-27T06:43:14Z</time>
      </trkpt>
      <trkpt lat="44.45002" lon="4.35359">
        <ele>150.1030273</ele>
        <time>2011-05-27T06:43:18Z</time>
      </trkpt>
      <trkpt lat="44.45012" lon="4.35362">
        <ele>150.1030273</ele>
        <time>2011-05-27T06:43:22Z</time>
      </trkpt>
      <trkpt lat="44.45022" lon="4.35366">
        <ele>150.5836182</ele>
        <time>2011-05-27T06:43:26Z</time>
      </trkpt>
      <trkpt lat="44.45032" lon="4.35369">
        <ele>151.064209</ele>
        <time>2011-05-27T06:43:30Z</time>
      </trkpt>
      <trkpt lat="44.45041" lon="4.35372">
        <ele>151.064209</ele>
        <time>2011-05-27T06:43:34Z</time>
      </trkpt>
      <trkpt lat="44.45052" lon="4.35375">
        <ele>152.0257568</ele>
        <time>2011-05-27T06:43:39Z</time>
      </trkpt>
      <trkpt lat="44.45062" lon="4.35378">
        <ele>153.4676514</ele>
        <time>2011-05-27T06:43:44Z</time>
      </trkpt>
      <trkpt lat="44.45071" lon="4.3538">
        <ele>153.4676514</ele>
        <time>2011-05-27T06:43:49Z</time>
      </trkpt>
      <trkpt lat="44.45081" lon="4.35382">
        <ele>154.4289551</ele>
        <time>2011-05-27T06:43:55Z</time>
      </trkpt>
      <trkpt lat="44.45092" lon="4.35383">
        <ele>156.8321533</ele>
        <time>2011-05-27T06:44:01Z</time>
      </trkpt>
      <trkpt lat="44.45101" lon="4.35383">
        <ele>157.3128662</ele>
        <time>2011-05-27T06:44:06Z</time>
      </trkpt>
      <trkpt lat="44.45111" lon="4.35382">
        <ele>159.2354736</ele>
        <time>2011-05-27T06:44:12Z</time>
      </trkpt>
      <trkpt lat="44.4512" lon="4.3538">
        <ele>160.1968994</ele>
        <time>2011-05-27T06:44:17Z</time>
      </trkpt>
      <trkpt lat="44.45131" lon="4.35377">
        <ele>162.6000977</ele>
        <time>2011-05-27T06:44:23Z</time>
      </trkpt>
      <trkpt lat="44.45141" lon="4.35373">
        <ele>164.0421143</ele>
        <time>2011-05-27T06:44:29Z</time>
      </trkpt>
      <trkpt lat="44.4515" lon="4.35371">
        <ele>165.9647217</ele>
        <time>2011-05-27T06:44:35Z</time>
      </trkpt>
      <trkpt lat="44.45159" lon="4.3537">
        <ele>166.9260254</ele>
        <time>2011-05-27T06:44:41Z</time>
      </trkpt>
      <trkpt lat="44.4517" lon="4.35368">
        <ele>168.8487549</ele>
        <time>2011-05-27T06:44:47Z</time>
      </trkpt>
      <trkpt lat="44.4518" lon="4.35365">
        <ele>169.8100586</ele>
        <time>2011-05-27T06:44:53Z</time>
      </trkpt>
      <trkpt lat="44.4519" lon="4.35361">
        <ele>170.2906494</ele>
        <time>2011-05-27T06:44:59Z</time>
      </trkpt>
      <trkpt lat="44.452" lon="4.35357">
        <ele>170.7713623</ele>
        <time>2011-05-27T06:45:04Z</time>
      </trkpt>
      <trkpt lat="44.45209" lon="4.35354">
        <ele>170.7713623</ele>
        <time>2011-05-27T06:45:08Z</time>
      </trkpt>
      <trkpt lat="44.4522" lon="4.35349">
        <ele>170.2906494</ele>
        <time>2011-05-27T06:45:12Z</time>
      </trkpt>
      <trkpt lat="44.45228" lon="4.35342">
        <ele>170.7713623</ele>
        <time>2011-05-27T06:45:16Z</time>
      </trkpt>
      <trkpt lat="44.45239" lon="4.35337">
        <ele>170.2906494</ele>
        <time>2011-05-27T06:45:21Z</time>
      </trkpt>
      <trkpt lat="44.45249" lon="4.35335">
        <ele>170.7713623</ele>
        <time>2011-05-27T06:45:27Z</time>
      </trkpt>
      <trkpt lat="44.45253" lon="4.35328">
        <ele>171.2520752</ele>
        <time>2011-05-27T06:46:54Z</time>
      </trkpt>
      <trkpt lat="44.45263" lon="4.35325">
        <ele>171.732666</ele>
        <time>2011-05-27T06:46:58Z</time>
      </trkpt>
      <trkpt lat="44.45275" lon="4.35323">
        <ele>171.732666</ele>
        <time>2011-05-27T06:47:02Z</time>
      </trkpt>
      <trkpt lat="44.45284" lon="4.35327">
        <ele>172.6939697</ele>
        <time>2011-05-27T06:47:05Z</time>
      </trkpt>
      <trkpt lat="44.45293" lon="4.35334">
        <ele>173.1746826</ele>
        <time>2011-05-27T06:47:08Z</time>
      </trkpt>
      <trkpt lat="44.45303" lon="4.35335">
        <ele>174.6165771</ele>
        <time>2011-05-27T06:47:12Z</time>
      </trkpt>
      <trkpt lat="44.45314" lon="4.35339">
        <ele>176.0585938</ele>
        <time>2011-05-27T06:47:17Z</time>
      </trkpt>
      <trkpt lat="44.45324" lon="4.35345">
        <ele>176.0585938</ele>
        <time>2011-05-27T06:47:21Z</time>
      </trkpt>
      <trkpt lat="44.45335" lon="4.35354">
        <ele>177.9812012</ele>
        <time>2011-05-27T06:47:25Z</time>
      </trkpt>
      <trkpt lat="44.45343" lon="4.35361">
        <ele>178.4619141</ele>
        <time>2011-05-27T06:47:28Z</time>
      </trkpt>
      <trkpt lat="44.45352" lon="4.35368">
        <ele>178.942627</ele>
        <time>2011-05-27T06:47:31Z</time>
      </trkpt>
      <trkpt lat="44.45361" lon="4.35374">
        <ele>179.4232178</ele>
        <time>2011-05-27T06:47:34Z</time>
      </trkpt>
      <trkpt lat="44.45371" lon="4.35382">
        <ele>179.9038086</ele>
        <time>2011-05-27T06:47:38Z</time>
      </trkpt>
      <trkpt lat="44.4538" lon="4.35389">
        <ele>181.3458252</ele>
        <time>2011-05-27T06:47:42Z</time>
      </trkpt>
      <trkpt lat="44.45391" lon="4.35395">
        <ele>182.7878418</ele>
        <time>2011-05-27T06:47:46Z</time>
      </trkpt>
      <trkpt lat="44.454" lon="4.35402">
        <ele>183.2684326</ele>
        <time>2011-05-27T06:47:50Z</time>
      </trkpt>
      <trkpt lat="44.4541" lon="4.3541">
        <ele>185.1911621</ele>
        <time>2011-05-27T06:47:54Z</time>
      </trkpt>
      <trkpt lat="44.45422" lon="4.35415">
        <ele>185.6717529</ele>
        <time>2011-05-27T06:47:58Z</time>
      </trkpt>
      <trkpt lat="44.45431" lon="4.35419">
        <ele>186.1524658</ele>
        <time>2011-05-27T06:48:01Z</time>
      </trkpt>
      <trkpt lat="44.45443" lon="4.35423">
        <ele>186.6331787</ele>
        <time>2011-05-27T06:48:05Z</time>
      </trkpt>
      <trkpt lat="44.45452" lon="4.35424">
        <ele>186.6331787</ele>
        <time>2011-05-27T06:48:08Z</time>
      </trkpt>
      <trkpt lat="44.45464" lon="4.35426">
        <ele>187.5943604</ele>
        <time>2011-05-27T06:48:12Z</time>
      </trkpt>
      <trkpt lat="44.45475" lon="4.3543">
        <ele>187.5943604</ele>
        <time>2011-05-27T06:48:16Z</time>
      </trkpt>
      <trkpt lat="44.45486" lon="4.3543">
        <ele>188.0750732</ele>
        <time>2011-05-27T06:48:21Z</time>
      </trkpt>
      <trkpt lat="44.45496" lon="4.35429">
        <ele>189.036377</ele>
        <time>2011-05-27T06:48:25Z</time>
      </trkpt>
      <trkpt lat="44.45507" lon="4.35434">
        <ele>190.4783936</ele>
        <time>2011-05-27T06:48:30Z</time>
      </trkpt>
      <trkpt lat="44.45518" lon="4.35438">
        <ele>191.9202881</ele>
        <time>2011-05-27T06:48:35Z</time>
      </trkpt>
      <trkpt lat="44.45528" lon="4.35444">
        <ele>192.8817139</ele>
        <time>2011-05-27T06:48:41Z</time>
      </trkpt>
      <trkpt lat="44.45537" lon="4.35449">
        <ele>193.3623047</ele>
        <time>2011-05-27T06:48:45Z</time>
      </trkpt>
      <trkpt lat="44.45546" lon="4.35455">
        <ele>193.8430176</ele>
        <time>2011-05-27T06:48:49Z</time>
      </trkpt>
      <trkpt lat="44.45556" lon="4.35461">
        <ele>195.2849121</ele>
        <time>2011-05-27T06:48:53Z</time>
      </trkpt>
      <trkpt lat="44.45565" lon="4.35468">
        <ele>195.2849121</ele>
        <time>2011-05-27T06:48:57Z</time>
      </trkpt>
      <trkpt lat="44.45573" lon="4.35474">
        <ele>195.2849121</ele>
        <time>2011-05-27T06:49:01Z</time>
      </trkpt>
      <trkpt lat="44.45584" lon="4.35481">
        <ele>195.765625</ele>
        <time>2011-05-27T06:49:06Z</time>
      </trkpt>
      <trkpt lat="44.45593" lon="4.35484">
        <ele>196.2463379</ele>
        <time>2011-05-27T06:49:09Z</time>
      </trkpt>
      <trkpt lat="44.45603" lon="4.3549">
        <ele>196.7269287</ele>
        <time>2011-05-27T06:49:12Z</time>
      </trkpt>
      <trkpt lat="44.45611" lon="4.35499">
        <ele>196.7269287</ele>
        <time>2011-05-27T06:49:15Z</time>
      </trkpt>
      <trkpt lat="44.45619" lon="4.3551">
        <ele>198.6495361</ele>
        <time>2011-05-27T06:49:19Z</time>
      </trkpt>
      <trkpt lat="44.45628" lon="4.35519">
        <ele>199.130127</ele>
        <time>2011-05-27T06:49:23Z</time>
      </trkpt>
      <trkpt lat="44.45636" lon="4.35529">
        <ele>200.0916748</ele>
        <time>2011-05-27T06:49:27Z</time>
      </trkpt>
      <trkpt lat="44.45645" lon="4.35538">
        <ele>201.0528564</ele>
        <time>2011-05-27T06:49:31Z</time>
      </trkpt>
      <trkpt lat="44.45654" lon="4.35548">
        <ele>201.0528564</ele>
        <time>2011-05-27T06:49:35Z</time>
      </trkpt>
      <trkpt lat="44.45662" lon="4.35559">
        <ele>201.0528564</ele>
        <time>2011-05-27T06:49:39Z</time>
      </trkpt>
      <trkpt lat="44.45671" lon="4.35568">
        <ele>202.0142822</ele>
        <time>2011-05-27T06:49:43Z</time>
      </trkpt>
      <trkpt lat="44.45679" lon="4.35578">
        <ele>202.494873</ele>
        <time>2011-05-27T06:49:47Z</time>
      </trkpt>
      <trkpt lat="44.45687" lon="4.3559">
        <ele>202.9754639</ele>
        <time>2011-05-27T06:49:51Z</time>
      </trkpt>
      <trkpt lat="44.45692" lon="4.35603">
        <ele>204.4174805</ele>
        <time>2011-05-27T06:49:55Z</time>
      </trkpt>
      <trkpt lat="44.45699" lon="4.35614">
        <ele>204.4174805</ele>
        <time>2011-05-27T06:49:59Z</time>
      </trkpt>
      <trkpt lat="44.45706" lon="4.35623">
        <ele>204.8980713</ele>
        <time>2011-05-27T06:50:03Z</time>
      </trkpt>
      <trkpt lat="44.45713" lon="4.35635">
        <ele>205.3787842</ele>
        <time>2011-05-27T06:50:07Z</time>
      </trkpt>
      <trkpt lat="44.45718" lon="4.35646">
        <ele>206.8206787</ele>
        <time>2011-05-27T06:50:11Z</time>
      </trkpt>
      <trkpt lat="44.45725" lon="4.35656">
        <ele>207.7821045</ele>
        <time>2011-05-27T06:50:15Z</time>
      </trkpt>
      <trkpt lat="44.45731" lon="4.35666">
        <ele>208.2628174</ele>
        <time>2011-05-27T06:50:19Z</time>
      </trkpt>
      <trkpt lat="44.45738" lon="4.35674">
        <ele>208.7434082</ele>
        <time>2011-05-27T06:50:23Z</time>
      </trkpt>
      <trkpt lat="44.45745" lon="4.35684">
        <ele>209.2241211</ele>
        <time>2011-05-27T06:50:28Z</time>
      </trkpt>
      <trkpt lat="44.45751" lon="4.35694">
        <ele>211.6274414</ele>
        <time>2011-05-27T06:50:32Z</time>
      </trkpt>
      <trkpt lat="44.45758" lon="4.35704">
        <ele>211.1467285</ele>
        <time>2011-05-27T06:50:36Z</time>
      </trkpt>
      <trkpt lat="44.45764" lon="4.35714">
        <ele>212.588623</ele>
        <time>2011-05-27T06:50:40Z</time>
      </trkpt>
      <trkpt lat="44.45771" lon="4.35724">
        <ele>213.0693359</ele>
        <time>2011-05-27T06:50:44Z</time>
      </trkpt>
      <trkpt lat="44.45777" lon="4.35737">
        <ele>213.0693359</ele>
        <time>2011-05-27T06:50:49Z</time>
      </trkpt>
      <trkpt lat="44.45784" lon="4.35747">
        <ele>213.5500488</ele>
        <time>2011-05-27T06:50:53Z</time>
      </trkpt>
      <trkpt lat="44.4579" lon="4.35758">
        <ele>213.5500488</ele>
        <time>2011-05-27T06:50:57Z</time>
      </trkpt>
      <trkpt lat="44.45796" lon="4.35768">
        <ele>214.0306396</ele>
        <time>2011-05-27T06:51:01Z</time>
      </trkpt>
      <trkpt lat="44.45803" lon="4.35779">
        <ele>215.4726563</ele>
        <time>2011-05-27T06:51:07Z</time>
      </trkpt>
      <trkpt lat="44.45801" lon="4.3579">
        <ele>216.43396</ele>
        <time>2011-05-27T06:51:12Z</time>
      </trkpt>
      <trkpt lat="44.45794" lon="4.35799">
        <ele>217.3953857</ele>
        <time>2011-05-27T06:51:18Z</time>
      </trkpt>
      <trkpt lat="44.45788" lon="4.35809">
        <ele>217.8759766</ele>
        <time>2011-05-27T06:51:25Z</time>
      </trkpt>
      <trkpt lat="44.45786" lon="4.35822">
        <ele>219.3179932</ele>
        <time>2011-05-27T06:51:32Z</time>
      </trkpt>
      <trkpt lat="44.45784" lon="4.35834">
        <ele>220.7598877</ele>
        <time>2011-05-27T06:51:39Z</time>
      </trkpt>
      <trkpt lat="44.45787" lon="4.35847">
        <ele>222.2017822</ele>
        <time>2011-05-27T06:51:46Z</time>
      </trkpt>
      <trkpt lat="44.45795" lon="4.35857">
        <ele>223.6437988</ele>
        <time>2011-05-27T06:51:52Z</time>
      </trkpt>
      <trkpt lat="44.45803" lon="4.35868">
        <ele>223.6437988</ele>
        <time>2011-05-27T06:51:57Z</time>
      </trkpt>
      <trkpt lat="44.45811" lon="4.35878">
        <ele>224.6052246</ele>
        <time>2011-05-27T06:52:02Z</time>
      </trkpt>
      <trkpt lat="44.45817" lon="4.35887">
        <ele>224.6052246</ele>
        <time>2011-05-27T06:52:06Z</time>
      </trkpt>
      <trkpt lat="44.45825" lon="4.35899">
        <ele>225.5665283</ele>
        <time>2011-05-27T06:52:11Z</time>
      </trkpt>
      <trkpt lat="44.45831" lon="4.35909">
        <ele>225.5665283</ele>
        <time>2011-05-27T06:52:15Z</time>
      </trkpt>
      <trkpt lat="44.45838" lon="4.35919">
        <ele>226.0471191</ele>
        <time>2011-05-27T06:52:19Z</time>
      </trkpt>
      <trkpt lat="44.45846" lon="4.35929">
        <ele>226.0471191</ele>
        <time>2011-05-27T06:52:23Z</time>
      </trkpt>
      <trkpt lat="44.45852" lon="4.35941">
        <ele>227.0085449</ele>
        <time>2011-05-27T06:52:27Z</time>
      </trkpt>
      <trkpt lat="44.45857" lon="4.35951">
        <ele>227.0085449</ele>
        <time>2011-05-27T06:52:31Z</time>
      </trkpt>
      <trkpt lat="44.45862" lon="4.35963">
        <ele>227.4891357</ele>
        <time>2011-05-27T06:52:35Z</time>
      </trkpt>
      <trkpt lat="44.45868" lon="4.35975">
        <ele>228.4504395</ele>
        <time>2011-05-27T06:52:40Z</time>
      </trkpt>
      <trkpt lat="44.45873" lon="4.35988">
        <ele>229.4117432</ele>
        <time>2011-05-27T06:52:45Z</time>
      </trkpt>
      <trkpt lat="44.45876" lon="4.36002">
        <ele>229.892334</ele>
        <time>2011-05-27T06:52:50Z</time>
      </trkpt>
      <trkpt lat="44.45877" lon="4.36017">
        <ele>230.3730469</ele>
        <time>2011-05-27T06:52:55Z</time>
      </trkpt>
      <trkpt lat="44.45878" lon="4.36033">
        <ele>230.8537598</ele>
        <time>2011-05-27T06:53:00Z</time>
      </trkpt>
      <trkpt lat="44.4588" lon="4.36046">
        <ele>232.2957764</ele>
        <time>2011-05-27T06:53:04Z</time>
      </trkpt>
      <trkpt lat="44.45883" lon="4.3606">
        <ele>233.2570801</ele>
        <time>2011-05-27T06:53:09Z</time>
      </trkpt>
      <trkpt lat="44.45887" lon="4.36073">
        <ele>235.1796875</ele>
        <time>2011-05-27T06:53:14Z</time>
      </trkpt>
      <trkpt lat="44.45887" lon="4.36087">
        <ele>236.6217041</ele>
        <time>2011-05-27T06:53:19Z</time>
      </trkpt>
      <trkpt lat="44.45889" lon="4.36101">
        <ele>237.5828857</ele>
        <time>2011-05-27T06:53:25Z</time>
      </trkpt>
      <trkpt lat="44.45892" lon="4.36114">
        <ele>239.0249023</ele>
        <time>2011-05-27T06:53:31Z</time>
      </trkpt>
      <trkpt lat="44.45895" lon="4.36128">
        <ele>241.9089355</ele>
        <time>2011-05-27T06:53:37Z</time>
      </trkpt>
      <trkpt lat="44.45902" lon="4.3614">
        <ele>242.3896484</ele>
        <time>2011-05-27T06:53:43Z</time>
      </trkpt>
      <trkpt lat="44.45908" lon="4.3615">
        <ele>243.831543</ele>
        <time>2011-05-27T06:53:49Z</time>
      </trkpt>
      <trkpt lat="44.45906" lon="4.36156">
        <ele>243.831543</ele>
        <time>2011-05-27T06:55:14Z</time>
      </trkpt>
      <trkpt lat="44.45896" lon="4.36153">
        <ele>243.831543</ele>
        <time>2011-05-27T06:55:19Z</time>
      </trkpt>
      <trkpt lat="44.45886" lon="4.36156">
        <ele>244.3122559</ele>
        <time>2011-05-27T06:55:23Z</time>
      </trkpt>
      <trkpt lat="44.45878" lon="4.36164">
        <ele>245.7541504</ele>
        <time>2011-05-27T06:55:28Z</time>
      </trkpt>
      <trkpt lat="44.4587" lon="4.36171">
        <ele>247.1960449</ele>
        <time>2011-05-27T06:55:33Z</time>
      </trkpt>
      <trkpt lat="44.45861" lon="4.36178">
        <ele>247.1960449</ele>
        <time>2011-05-27T06:55:39Z</time>
      </trkpt>
      <trkpt lat="44.45853" lon="4.36187">
        <ele>248.1575928</ele>
        <time>2011-05-27T06:55:44Z</time>
      </trkpt>
      <trkpt lat="44.45846" lon="4.36199">
        <ele>248.6381836</ele>
        <time>2011-05-27T06:55:49Z</time>
      </trkpt>
      <trkpt lat="44.45839" lon="4.36208">
        <ele>248.6381836</ele>
        <time>2011-05-27T06:55:53Z</time>
      </trkpt>
      <trkpt lat="44.45831" lon="4.36214">
        <ele>248.6381836</ele>
        <time>2011-05-27T06:55:57Z</time>
      </trkpt>
      <trkpt lat="44.45823" lon="4.36223">
        <ele>248.6381836</ele>
        <time>2011-05-27T06:56:02Z</time>
      </trkpt>
      <trkpt lat="44.45816" lon="4.36234">
        <ele>248.1575928</ele>
        <time>2011-05-27T06:56:06Z</time>
      </trkpt>
      <trkpt lat="44.45808" lon="4.36245">
        <ele>247.6767578</ele>
        <time>2011-05-27T06:56:10Z</time>
      </trkpt>
      <trkpt lat="44.45802" lon="4.36255">
        <ele>247.1960449</ele>
        <time>2011-05-27T06:56:13Z</time>
      </trkpt>
      <trkpt lat="44.45794" lon="4.36262">
        <ele>247.1960449</ele>
        <time>2011-05-27T06:56:16Z</time>
      </trkpt>
      <trkpt lat="44.45784" lon="4.3627">
        <ele>246.7154541</ele>
        <time>2011-05-27T06:56:19Z</time>
      </trkpt>
      <trkpt lat="44.45775" lon="4.36279">
        <ele>245.7541504</ele>
        <time>2011-05-27T06:56:22Z</time>
      </trkpt>
      <trkpt lat="44.45766" lon="4.36288">
        <ele>245.2734375</ele>
        <time>2011-05-27T06:56:25Z</time>
      </trkpt>
      <trkpt lat="44.45757" lon="4.36298">
        <ele>245.2734375</ele>
        <time>2011-05-27T06:56:28Z</time>
      </trkpt>
      <trkpt lat="44.45749" lon="4.3631">
        <ele>245.7541504</ele>
        <time>2011-05-27T06:56:31Z</time>
      </trkpt>
      <trkpt lat="44.45741" lon="4.36322">
        <ele>245.7541504</ele>
        <time>2011-05-27T06:56:34Z</time>
      </trkpt>
      <trkpt lat="44.45736" lon="4.36335">
        <ele>244.7928467</ele>
        <time>2011-05-27T06:56:37Z</time>
      </trkpt>
      <trkpt lat="44.45731" lon="4.36348">
        <ele>245.2734375</ele>
        <time>2011-05-27T06:56:40Z</time>
      </trkpt>
      <trkpt lat="44.45728" lon="4.36362">
        <ele>244.3122559</ele>
        <time>2011-05-27T06:56:43Z</time>
      </trkpt>
      <trkpt lat="44.45727" lon="4.36375">
        <ele>243.831543</ele>
        <time>2011-05-27T06:56:46Z</time>
      </trkpt>
      <trkpt lat="44.45728" lon="4.3639">
        <ele>243.831543</ele>
        <time>2011-05-27T06:56:50Z</time>
      </trkpt>
      <trkpt lat="44.45728" lon="4.36404">
        <ele>244.7928467</ele>
        <time>2011-05-27T06:56:54Z</time>
      </trkpt>
      <trkpt lat="44.45727" lon="4.36418">
        <ele>245.7541504</ele>
        <time>2011-05-27T06:57:00Z</time>
      </trkpt>
      <trkpt lat="44.45724" lon="4.36429">
        <ele>247.1960449</ele>
        <time>2011-05-27T06:57:20Z</time>
      </trkpt>
      <trkpt lat="44.4572" lon="4.3644">
        <ele>249.1187744</ele>
        <time>2011-05-27T06:57:28Z</time>
      </trkpt>
      <trkpt lat="44.45718" lon="4.36454">
        <ele>249.1187744</ele>
        <time>2011-05-27T06:57:36Z</time>
      </trkpt>
      <trkpt lat="44.45717" lon="4.36467">
        <ele>250.560791</ele>
        <time>2011-05-27T06:57:45Z</time>
      </trkpt>
      <trkpt lat="44.45718" lon="4.3648">
        <ele>252.4833984</ele>
        <time>2011-05-27T06:57:53Z</time>
      </trkpt>
      <trkpt lat="44.45718" lon="4.36493">
        <ele>254.4060059</ele>
        <time>2011-05-27T06:58:01Z</time>
      </trkpt>
      <trkpt lat="44.45721" lon="4.36504">
        <ele>255.3673096</ele>
        <time>2011-05-27T06:58:09Z</time>
      </trkpt>
      <trkpt lat="44.45725" lon="4.36517">
        <ele>257.2900391</ele>
        <time>2011-05-27T06:58:17Z</time>
      </trkpt>
      <trkpt lat="44.45729" lon="4.36529">
        <ele>259.2126465</ele>
        <time>2011-05-27T06:58:25Z</time>
      </trkpt>
      <trkpt lat="44.45734" lon="4.3654">
        <ele>260.654541</ele>
        <time>2011-05-27T06:58:32Z</time>
      </trkpt>
      <trkpt lat="44.45741" lon="4.36551">
        <ele>262.5771484</ele>
        <time>2011-05-27T06:58:39Z</time>
      </trkpt>
      <trkpt lat="44.4575" lon="4.3656">
        <ele>263.0578613</ele>
        <time>2011-05-27T06:58:46Z</time>
      </trkpt>
      <trkpt lat="44.45757" lon="4.36569">
        <ele>264.0192871</ele>
        <time>2011-05-27T06:58:53Z</time>
      </trkpt>
      <trkpt lat="44.45765" lon="4.36578">
        <ele>264.4998779</ele>
        <time>2011-05-27T06:59:00Z</time>
      </trkpt>
      <trkpt lat="44.45773" lon="4.36587">
        <ele>264.9805908</ele>
        <time>2011-05-27T06:59:07Z</time>
      </trkpt>
      <trkpt lat="44.45777" lon="4.36598">
        <ele>264.9805908</ele>
        <time>2011-05-27T06:59:14Z</time>
      </trkpt>
      <trkpt lat="44.45779" lon="4.36611">
        <ele>265.4613037</ele>
        <time>2011-05-27T06:59:21Z</time>
      </trkpt>
      <trkpt lat="44.45776" lon="4.36623">
        <ele>265.4613037</ele>
        <time>2011-05-27T06:59:29Z</time>
      </trkpt>
      <trkpt lat="44.45773" lon="4.36636">
        <ele>265.4613037</ele>
        <time>2011-05-27T06:59:34Z</time>
      </trkpt>
      <trkpt lat="44.45771" lon="4.36651">
        <ele>264.4998779</ele>
        <time>2011-05-27T06:59:38Z</time>
      </trkpt>
      <trkpt lat="44.45769" lon="4.36663">
        <ele>263.0578613</ele>
        <time>2011-05-27T06:59:42Z</time>
      </trkpt>
      <trkpt lat="44.45766" lon="4.36678">
        <ele>260.654541</ele>
        <time>2011-05-27T06:59:48Z</time>
      </trkpt>
      <trkpt lat="44.45768" lon="4.36693">
        <ele>258.7319336</ele>
        <time>2011-05-27T06:59:54Z</time>
      </trkpt>
      <trkpt lat="44.45773" lon="4.36704">
        <ele>257.2900391</ele>
        <time>2011-05-27T06:59:59Z</time>
      </trkpt>
      <trkpt lat="44.45773" lon="4.36718">
        <ele>254.4060059</ele>
        <time>2011-05-27T07:00:05Z</time>
      </trkpt>
      <trkpt lat="44.45775" lon="4.36732">
        <ele>252.9639893</ele>
        <time>2011-05-27T07:00:11Z</time>
      </trkpt>
      <trkpt lat="44.45777" lon="4.36747">
        <ele>251.5220947</ele>
        <time>2011-05-27T07:00:16Z</time>
      </trkpt>
      <trkpt lat="44.45777" lon="4.36761">
        <ele>249.1187744</ele>
        <time>2011-05-27T07:00:19Z</time>
      </trkpt>
      <trkpt lat="44.45776" lon="4.3678">
        <ele>246.7154541</ele>
        <time>2011-05-27T07:00:22Z</time>
      </trkpt>
      <trkpt lat="44.45776" lon="4.36795">
        <ele>245.7541504</ele>
        <time>2011-05-27T07:00:24Z</time>
      </trkpt>
      <trkpt lat="44.45779" lon="4.36808">
        <ele>245.2734375</ele>
        <time>2011-05-27T07:00:26Z</time>
      </trkpt>
      <trkpt lat="44.45786" lon="4.36816">
        <ele>245.7541504</ele>
        <time>2011-05-27T07:00:29Z</time>
      </trkpt>
      <trkpt lat="44.45794" lon="4.36805">
        <ele>244.3122559</ele>
        <time>2011-05-27T07:00:33Z</time>
      </trkpt>
      <trkpt lat="44.458" lon="4.36792">
        <ele>242.8702393</ele>
        <time>2011-05-27T07:00:36Z</time>
      </trkpt>
      <trkpt lat="44.45808" lon="4.36779">
        <ele>240.467041</ele>
        <time>2011-05-27T07:00:39Z</time>
      </trkpt>
      <trkpt lat="44.45816" lon="4.36766">
        <ele>239.0249023</ele>
        <time>2011-05-27T07:00:42Z</time>
      </trkpt>
      <trkpt lat="44.45823" lon="4.36751">
        <ele>237.1022949</ele>
        <time>2011-05-27T07:00:45Z</time>
      </trkpt>
      <trkpt lat="44.45833" lon="4.36743">
        <ele>236.1409912</ele>
        <time>2011-05-27T07:00:48Z</time>
      </trkpt>
      <trkpt lat="44.45844" lon="4.3674">
        <ele>234.2183838</ele>
        <time>2011-05-27T07:00:51Z</time>
      </trkpt>
      <trkpt lat="44.45855" lon="4.36741">
        <ele>233.2570801</ele>
        <time>2011-05-27T07:00:54Z</time>
      </trkpt>
      <trkpt lat="44.45866" lon="4.36741">
        <ele>230.8537598</ele>
        <time>2011-05-27T07:00:57Z</time>
      </trkpt>
      <trkpt lat="44.45877" lon="4.36741">
        <ele>229.892334</ele>
        <time>2011-05-27T07:01:00Z</time>
      </trkpt>
      <trkpt lat="44.45887" lon="4.36739">
        <ele>228.4504395</ele>
        <time>2011-05-27T07:01:03Z</time>
      </trkpt>
      <trkpt lat="44.45898" lon="4.36739">
        <ele>227.4891357</ele>
        <time>2011-05-27T07:01:07Z</time>
      </trkpt>
      <trkpt lat="44.45908" lon="4.36739">
        <ele>226.0471191</ele>
        <time>2011-05-27T07:01:12Z</time>
      </trkpt>
      <trkpt lat="44.45919" lon="4.36737">
        <ele>223.6437988</ele>
        <time>2011-05-27T07:01:17Z</time>
      </trkpt>
      <trkpt lat="44.45926" lon="4.3674">
        <ele>224.1245117</ele>
        <time>2011-05-27T07:01:23Z</time>
      </trkpt>
      <trkpt lat="44.45919" lon="4.3675">
        <ele>223.163208</ele>
        <time>2011-05-27T07:01:30Z</time>
      </trkpt>
      <trkpt lat="44.4591" lon="4.3676">
        <ele>221.2406006</ele>
        <time>2011-05-27T07:01:35Z</time>
      </trkpt>
      <trkpt lat="44.45903" lon="4.36769">
        <ele>220.7598877</ele>
        <time>2011-05-27T07:01:38Z</time>
      </trkpt>
      <trkpt lat="44.45895" lon="4.36779">
        <ele>220.2791748</ele>
        <time>2011-05-27T07:01:41Z</time>
      </trkpt>
      <trkpt lat="44.45886" lon="4.36786">
        <ele>220.2791748</ele>
        <time>2011-05-27T07:01:44Z</time>
      </trkpt>
      <trkpt lat="44.45877" lon="4.36792">
        <ele>220.7598877</ele>
        <time>2011-05-27T07:01:47Z</time>
      </trkpt>
      <trkpt lat="44.45871" lon="4.36798">
        <ele>220.7598877</ele>
        <time>2011-05-27T07:01:53Z</time>
      </trkpt>
      <trkpt lat="44.45881" lon="4.368">
        <ele>217.3953857</ele>
        <time>2011-05-27T07:01:58Z</time>
      </trkpt>
      <trkpt lat="44.45891" lon="4.36802">
        <ele>216.43396</ele>
        <time>2011-05-27T07:02:02Z</time>
      </trkpt>
      <trkpt lat="44.45902" lon="4.36801">
        <ele>213.5500488</ele>
        <time>2011-05-27T07:02:06Z</time>
      </trkpt>
      <trkpt lat="44.45912" lon="4.36799">
        <ele>213.5500488</ele>
        <time>2011-05-27T07:02:09Z</time>
      </trkpt>
      <trkpt lat="44.45923" lon="4.36798">
        <ele>211.6274414</ele>
        <time>2011-05-27T07:02:13Z</time>
      </trkpt>
      <trkpt lat="44.45933" lon="4.36799">
        <ele>208.7434082</ele>
        <time>2011-05-27T07:02:16Z</time>
      </trkpt>
      <trkpt lat="44.45944" lon="4.36799">
        <ele>207.7821045</ele>
        <time>2011-05-27T07:02:20Z</time>
      </trkpt>
      <trkpt lat="44.45954" lon="4.36797">
        <ele>207.3013916</ele>
        <time>2011-05-27T07:02:24Z</time>
      </trkpt>
      <trkpt lat="44.45967" lon="4.36799">
        <ele>203.4561768</ele>
        <time>2011-05-27T07:02:28Z</time>
      </trkpt>
      <trkpt lat="44.45979" lon="4.36804">
        <ele>201.0528564</ele>
        <time>2011-05-27T07:02:31Z</time>
      </trkpt>
      <trkpt lat="44.45991" lon="4.36804">
        <ele>200.5722656</ele>
        <time>2011-05-27T07:02:34Z</time>
      </trkpt>
      <trkpt lat="44.46001" lon="4.36804">
        <ele>200.5722656</ele>
        <time>2011-05-27T07:02:37Z</time>
      </trkpt>
      <trkpt lat="44.46011" lon="4.36805">
        <ele>200.0916748</ele>
        <time>2011-05-27T07:02:40Z</time>
      </trkpt>
      <trkpt lat="44.46023" lon="4.36807">
        <ele>200.0916748</ele>
        <time>2011-05-27T07:02:43Z</time>
      </trkpt>
      <trkpt lat="44.46035" lon="4.36806">
        <ele>199.130127</ele>
        <time>2011-05-27T07:02:46Z</time>
      </trkpt>
      <trkpt lat="44.46046" lon="4.3681">
        <ele>197.6882324</ele>
        <time>2011-05-27T07:02:49Z</time>
      </trkpt>
      <trkpt lat="44.46056" lon="4.36814">
        <ele>197.2075195</ele>
        <time>2011-05-27T07:02:52Z</time>
      </trkpt>
      <trkpt lat="44.46062" lon="4.36804">
        <ele>197.2075195</ele>
        <time>2011-05-27T07:02:55Z</time>
      </trkpt>
      <trkpt lat="44.46069" lon="4.36792">
        <ele>197.6882324</ele>
        <time>2011-05-27T07:02:59Z</time>
      </trkpt>
      <trkpt lat="44.46077" lon="4.36781">
        <ele>198.1689453</ele>
        <time>2011-05-27T07:03:03Z</time>
      </trkpt>
      <trkpt lat="44.46084" lon="4.36772">
        <ele>198.1689453</ele>
        <time>2011-05-27T07:03:08Z</time>
      </trkpt>
      <trkpt lat="44.46091" lon="4.3677">
        <ele>196.2463379</ele>
        <time>2011-05-27T07:08:27Z</time>
      </trkpt>
      <trkpt lat="44.46098" lon="4.36763">
        <ele>194.8043213</ele>
        <time>2011-05-27T07:08:30Z</time>
      </trkpt>
      <trkpt lat="44.46109" lon="4.36749">
        <ele>192.8817139</ele>
        <time>2011-05-27T07:08:33Z</time>
      </trkpt>
      <trkpt lat="44.46118" lon="4.36736">
        <ele>191.9202881</ele>
        <time>2011-05-27T07:08:35Z</time>
      </trkpt>
      <trkpt lat="44.46127" lon="4.36724">
        <ele>190.9589844</ele>
        <time>2011-05-27T07:08:37Z</time>
      </trkpt>
      <trkpt lat="44.46137" lon="4.36711">
        <ele>189.036377</ele>
        <time>2011-05-27T07:08:39Z</time>
      </trkpt>
      <trkpt lat="44.46147" lon="4.367">
        <ele>186.6331787</ele>
        <time>2011-05-27T07:08:41Z</time>
      </trkpt>
      <trkpt lat="44.46156" lon="4.36693">
        <ele>185.1911621</ele>
        <time>2011-05-27T07:08:43Z</time>
      </trkpt>
      <trkpt lat="44.46168" lon="4.36688">
        <ele>182.3071289</ele>
        <time>2011-05-27T07:08:45Z</time>
      </trkpt>
      <trkpt lat="44.46181" lon="4.36682">
        <ele>181.826416</ele>
        <time>2011-05-27T07:08:47Z</time>
      </trkpt>
      <trkpt lat="44.46194" lon="4.36673">
        <ele>180.8652344</ele>
        <time>2011-05-27T07:08:49Z</time>
      </trkpt>
      <trkpt lat="44.46204" lon="4.36661">
        <ele>180.3845215</ele>
        <time>2011-05-27T07:08:51Z</time>
      </trkpt>
      <trkpt lat="44.46216" lon="4.36653">
        <ele>178.942627</ele>
        <time>2011-05-27T07:08:53Z</time>
      </trkpt>
      <trkpt lat="44.46229" lon="4.36652">
        <ele>177.9812012</ele>
        <time>2011-05-27T07:08:55Z</time>
      </trkpt>
      <trkpt lat="44.46242" lon="4.36653">
        <ele>176.5393066</ele>
        <time>2011-05-27T07:08:57Z</time>
      </trkpt>
      <trkpt lat="44.46255" lon="4.36655">
        <ele>175.5778809</ele>
        <time>2011-05-27T07:08:59Z</time>
      </trkpt>
      <trkpt lat="44.46268" lon="4.36659">
        <ele>174.6165771</ele>
        <time>2011-05-27T07:09:01Z</time>
      </trkpt>
      <trkpt lat="44.46278" lon="4.36657">
        <ele>175.09729</ele>
        <time>2011-05-27T07:09:03Z</time>
      </trkpt>
      <trkpt lat="44.46287" lon="4.36652">
        <ele>175.09729</ele>
        <time>2011-05-27T07:09:05Z</time>
      </trkpt>
      <trkpt lat="44.46298" lon="4.36647">
        <ele>174.6165771</ele>
        <time>2011-05-27T07:09:08Z</time>
      </trkpt>
      <trkpt lat="44.4631" lon="4.36644">
        <ele>175.09729</ele>
        <time>2011-05-27T07:09:11Z</time>
      </trkpt>
      <trkpt lat="44.46319" lon="4.3664">
        <ele>173.6552734</ele>
        <time>2011-05-27T07:09:13Z</time>
      </trkpt>
      <trkpt lat="44.46329" lon="4.36634">
        <ele>173.1746826</ele>
        <time>2011-05-27T07:09:15Z</time>
      </trkpt>
      <trkpt lat="44.46339" lon="4.36625">
        <ele>171.732666</ele>
        <time>2011-05-27T07:09:17Z</time>
      </trkpt>
      <trkpt lat="44.46349" lon="4.36616">
        <ele>170.7713623</ele>
        <time>2011-05-27T07:09:19Z</time>
      </trkpt>
      <trkpt lat="44.46358" lon="4.3661">
        <ele>170.2906494</ele>
        <time>2011-05-27T07:09:21Z</time>
      </trkpt>
      <trkpt lat="44.46369" lon="4.36601">
        <ele>169.3294678</ele>
        <time>2011-05-27T07:09:24Z</time>
      </trkpt>
      <trkpt lat="44.46379" lon="4.36588">
        <ele>167.4067383</ele>
        <time>2011-05-27T07:09:27Z</time>
      </trkpt>
      <trkpt lat="44.46385" lon="4.36578">
        <ele>166.4453125</ele>
        <time>2011-05-27T07:09:29Z</time>
      </trkpt>
      <trkpt lat="44.46393" lon="4.36569">
        <ele>165.4841309</ele>
        <time>2011-05-27T07:09:31Z</time>
      </trkpt>
      <trkpt lat="44.46405" lon="4.36562">
        <ele>165.003418</ele>
        <time>2011-05-27T07:09:34Z</time>
      </trkpt>
      <trkpt lat="44.46419" lon="4.36562">
        <ele>164.5227051</ele>
        <time>2011-05-27T07:09:37Z</time>
      </trkpt>
      <trkpt lat="44.46432" lon="4.36559">
        <ele>164.5227051</ele>
        <time>2011-05-27T07:09:40Z</time>
      </trkpt>
      <trkpt lat="44.46444" lon="4.36559">
        <ele>165.003418</ele>
        <time>2011-05-27T07:09:43Z</time>
      </trkpt>
      <trkpt lat="44.46454" lon="4.36564">
        <ele>166.4453125</ele>
        <time>2011-05-27T07:09:46Z</time>
      </trkpt>
      <trkpt lat="44.46463" lon="4.3657">
        <ele>167.4067383</ele>
        <time>2011-05-27T07:09:49Z</time>
      </trkpt>
      <trkpt lat="44.46473" lon="4.36576">
        <ele>168.368042</ele>
        <time>2011-05-27T07:09:53Z</time>
      </trkpt>
      <trkpt lat="44.46482" lon="4.36581">
        <ele>169.8100586</ele>
        <time>2011-05-27T07:09:57Z</time>
      </trkpt>
      <trkpt lat="44.46493" lon="4.36584">
        <ele>170.2906494</ele>
        <time>2011-05-27T07:10:01Z</time>
      </trkpt>
      <trkpt lat="44.46502" lon="4.3659">
        <ele>171.2520752</ele>
        <time>2011-05-27T07:10:05Z</time>
      </trkpt>
      <trkpt lat="44.46511" lon="4.36595">
        <ele>171.732666</ele>
        <time>2011-05-27T07:10:09Z</time>
      </trkpt>
      <trkpt lat="44.4652" lon="4.36601">
        <ele>172.2132568</ele>
        <time>2011-05-27T07:10:13Z</time>
      </trkpt>
      <trkpt lat="44.46529" lon="4.36605">
        <ele>173.1746826</ele>
        <time>2011-05-27T07:10:16Z</time>
      </trkpt>
      <trkpt lat="44.46538" lon="4.36609">
        <ele>174.1358643</ele>
        <time>2011-05-27T07:10:19Z</time>
      </trkpt>
      <trkpt lat="44.4655" lon="4.3661">
        <ele>175.5778809</ele>
        <time>2011-05-27T07:10:23Z</time>
      </trkpt>
      <trkpt lat="44.46561" lon="4.36613">
        <ele>176.5393066</ele>
        <time>2011-05-27T07:10:27Z</time>
      </trkpt>
      <trkpt lat="44.46572" lon="4.36617">
        <ele>177.0200195</ele>
        <time>2011-05-27T07:10:31Z</time>
      </trkpt>
      <trkpt lat="44.46583" lon="4.36622">
        <ele>178.942627</ele>
        <time>2011-05-27T07:10:35Z</time>
      </trkpt>
      <trkpt lat="44.46592" lon="4.36625">
        <ele>179.4232178</ele>
        <time>2011-05-27T07:10:39Z</time>
      </trkpt>
      <trkpt lat="44.46603" lon="4.36631">
        <ele>179.4232178</ele>
        <time>2011-05-27T07:10:43Z</time>
      </trkpt>
      <trkpt lat="44.46612" lon="4.36637">
        <ele>179.4232178</ele>
        <time>2011-05-27T07:10:47Z</time>
      </trkpt>
      <trkpt lat="44.46622" lon="4.3664">
        <ele>179.9038086</ele>
        <time>2011-05-27T07:10:51Z</time>
      </trkpt>
      <trkpt lat="44.46631" lon="4.36641">
        <ele>180.3845215</ele>
        <time>2011-05-27T07:10:55Z</time>
      </trkpt>
      <trkpt lat="44.46641" lon="4.36642">
        <ele>181.3458252</ele>
        <time>2011-05-27T07:10:59Z</time>
      </trkpt>
      <trkpt lat="44.4665" lon="4.36645">
        <ele>183.2684326</ele>
        <time>2011-05-27T07:11:03Z</time>
      </trkpt>
      <trkpt lat="44.46659" lon="4.3665">
        <ele>183.7490234</ele>
        <time>2011-05-27T07:11:07Z</time>
      </trkpt>
      <trkpt lat="44.46667" lon="4.36659">
        <ele>184.7105713</ele>
        <time>2011-05-27T07:11:11Z</time>
      </trkpt>
      <trkpt lat="44.46675" lon="4.36667">
        <ele>184.7105713</ele>
        <time>2011-05-27T07:11:16Z</time>
      </trkpt>
      <trkpt lat="44.46684" lon="4.36672">
        <ele>185.1911621</ele>
        <time>2011-05-27T07:11:23Z</time>
      </trkpt>
      <trkpt lat="44.46693" lon="4.36678">
        <ele>184.2298584</ele>
        <time>2011-05-27T07:11:30Z</time>
      </trkpt>
      <trkpt lat="44.46704" lon="4.36681">
        <ele>183.2684326</ele>
        <time>2011-05-27T07:11:35Z</time>
      </trkpt>
      <trkpt lat="44.46716" lon="4.36681">
        <ele>181.826416</ele>
        <time>2011-05-27T07:11:39Z</time>
      </trkpt>
      <trkpt lat="44.46728" lon="4.36683">
        <ele>180.8652344</ele>
        <time>2011-05-27T07:11:43Z</time>
      </trkpt>
      <trkpt lat="44.46739" lon="4.36684">
        <ele>179.9038086</ele>
        <time>2011-05-27T07:11:46Z</time>
      </trkpt>
      <trkpt lat="44.46751" lon="4.36685">
        <ele>179.4232178</ele>
        <time>2011-05-27T07:11:49Z</time>
      </trkpt>
      <trkpt lat="44.46765" lon="4.36685">
        <ele>178.4619141</ele>
        <time>2011-05-27T07:11:52Z</time>
      </trkpt>
      <trkpt lat="44.46775" lon="4.36685">
        <ele>178.4619141</ele>
        <time>2011-05-27T07:11:54Z</time>
      </trkpt>
      <trkpt lat="44.46785" lon="4.36687">
        <ele>178.4619141</ele>
        <time>2011-05-27T07:11:56Z</time>
      </trkpt>
      <trkpt lat="44.46795" lon="4.36689">
        <ele>177.9812012</ele>
        <time>2011-05-27T07:11:58Z</time>
      </trkpt>
      <trkpt lat="44.46805" lon="4.36689">
        <ele>177.9812012</ele>
        <time>2011-05-27T07:12:00Z</time>
      </trkpt>
      <trkpt lat="44.46814" lon="4.36688">
        <ele>177.9812012</ele>
        <time>2011-05-27T07:12:02Z</time>
      </trkpt>
      <trkpt lat="44.46825" lon="4.36686">
        <ele>177.9812012</ele>
        <time>2011-05-27T07:12:04Z</time>
      </trkpt>
      <trkpt lat="44.46836" lon="4.36684">
        <ele>177.5006104</ele>
        <time>2011-05-27T07:12:06Z</time>
      </trkpt>
      <trkpt lat="44.46848" lon="4.36683">
        <ele>177.5006104</ele>
        <time>2011-05-27T07:12:08Z</time>
      </trkpt>
      <trkpt lat="44.4686" lon="4.3668">
        <ele>177.0200195</ele>
        <time>2011-05-27T07:12:10Z</time>
      </trkpt>
      <trkpt lat="44.46873" lon="4.36678">
        <ele>176.5393066</ele>
        <time>2011-05-27T07:12:12Z</time>
      </trkpt>
      <trkpt lat="44.46886" lon="4.36674">
        <ele>175.09729</ele>
        <time>2011-05-27T07:12:14Z</time>
      </trkpt>
      <trkpt lat="44.46897" lon="4.36666">
        <ele>174.6165771</ele>
        <time>2011-05-27T07:12:16Z</time>
      </trkpt>
      <trkpt lat="44.46905" lon="4.36652">
        <ele>174.6165771</ele>
        <time>2011-05-27T07:12:18Z</time>
      </trkpt>
      <trkpt lat="44.4691" lon="4.36635">
        <ele>173.6552734</ele>
        <time>2011-05-27T07:12:20Z</time>
      </trkpt>
      <trkpt lat="44.46914" lon="4.36617">
        <ele>172.6939697</ele>
        <time>2011-05-27T07:12:22Z</time>
      </trkpt>
      <trkpt lat="44.46918" lon="4.36601">
        <ele>172.2132568</ele>
        <time>2011-05-27T07:12:24Z</time>
      </trkpt>
      <trkpt lat="44.46923" lon="4.36586">
        <ele>172.2132568</ele>
        <time>2011-05-27T07:12:26Z</time>
      </trkpt>
      <trkpt lat="44.46925" lon="4.36571">
        <ele>169.8100586</ele>
        <time>2011-05-27T07:12:28Z</time>
      </trkpt>
      <trkpt lat="44.46919" lon="4.36555">
        <ele>168.8487549</ele>
        <time>2011-05-27T07:12:31Z</time>
      </trkpt>
      <trkpt lat="44.46908" lon="4.36546">
        <ele>168.8487549</ele>
        <time>2011-05-27T07:12:34Z</time>
      </trkpt>
      <trkpt lat="44.469" lon="4.36539">
        <ele>167.8873291</ele>
        <time>2011-05-27T07:12:36Z</time>
      </trkpt>
      <trkpt lat="44.46888" lon="4.36537">
        <ele>168.368042</ele>
        <time>2011-05-27T07:12:39Z</time>
      </trkpt>
      <trkpt lat="44.46878" lon="4.36536">
        <ele>168.368042</ele>
        <time>2011-05-27T07:12:42Z</time>
      </trkpt>
      <trkpt lat="44.46869" lon="4.36533">
        <ele>168.368042</ele>
        <time>2011-05-27T07:12:45Z</time>
      </trkpt>
      <trkpt lat="44.4686" lon="4.36529">
        <ele>169.8100586</ele>
        <time>2011-05-27T07:12:48Z</time>
      </trkpt>
      <trkpt lat="44.46849" lon="4.36524">
        <ele>169.8100586</ele>
        <time>2011-05-27T07:12:51Z</time>
      </trkpt>
      <trkpt lat="44.46838" lon="4.36517">
        <ele>169.8100586</ele>
        <time>2011-05-27T07:12:54Z</time>
      </trkpt>
      <trkpt lat="44.46827" lon="4.36513">
        <ele>169.3294678</ele>
        <time>2011-05-27T07:12:57Z</time>
      </trkpt>
      <trkpt lat="44.46817" lon="4.3651">
        <ele>169.8100586</ele>
        <time>2011-05-27T07:13:00Z</time>
      </trkpt>
      <trkpt lat="44.46808" lon="4.36508">
        <ele>169.8100586</ele>
        <time>2011-05-27T07:13:03Z</time>
      </trkpt>
      <trkpt lat="44.46797" lon="4.36505">
        <ele>170.7713623</ele>
        <time>2011-05-27T07:13:07Z</time>
      </trkpt>
      <trkpt lat="44.46786" lon="4.36501">
        <ele>171.2520752</ele>
        <time>2011-05-27T07:13:11Z</time>
      </trkpt>
      <trkpt lat="44.46779" lon="4.36489">
        <ele>171.732666</ele>
        <time>2011-05-27T07:13:15Z</time>
      </trkpt>
      <trkpt lat="44.46771" lon="4.36476">
        <ele>172.2132568</ele>
        <time>2011-05-27T07:13:19Z</time>
      </trkpt>
      <trkpt lat="44.46766" lon="4.36465">
        <ele>171.732666</ele>
        <time>2011-05-27T07:13:22Z</time>
      </trkpt>
      <trkpt lat="44.46762" lon="4.36451">
        <ele>172.2132568</ele>
        <time>2011-05-27T07:13:25Z</time>
      </trkpt>
      <trkpt lat="44.46759" lon="4.36439">
        <ele>172.2132568</ele>
        <time>2011-05-27T07:13:28Z</time>
      </trkpt>
      <trkpt lat="44.46756" lon="4.36426">
        <ele>172.6939697</ele>
        <time>2011-05-27T07:13:31Z</time>
      </trkpt>
      <trkpt lat="44.46752" lon="4.36413">
        <ele>172.6939697</ele>
        <time>2011-05-27T07:13:34Z</time>
      </trkpt>
      <trkpt lat="44.46747" lon="4.364">
        <ele>174.1358643</ele>
        <time>2011-05-27T07:13:38Z</time>
      </trkpt>
      <trkpt lat="44.46737" lon="4.364">
        <ele>175.09729</ele>
        <time>2011-05-27T07:13:42Z</time>
      </trkpt>
      <trkpt lat="44.46727" lon="4.36404">
        <ele>175.5778809</ele>
        <time>2011-05-27T07:13:46Z</time>
      </trkpt>
      <trkpt lat="44.46716" lon="4.36407">
        <ele>175.5778809</ele>
        <time>2011-05-27T07:13:50Z</time>
      </trkpt>
      <trkpt lat="44.46707" lon="4.36409">
        <ele>175.5778809</ele>
        <time>2011-05-27T07:13:53Z</time>
      </trkpt>
      <trkpt lat="44.46695" lon="4.36413">
        <ele>177.0200195</ele>
        <time>2011-05-27T07:13:57Z</time>
      </trkpt>
      <trkpt lat="44.46685" lon="4.36416">
        <ele>177.9812012</ele>
        <time>2011-05-27T07:14:01Z</time>
      </trkpt>
      <trkpt lat="44.46675" lon="4.3642">
        <ele>179.4232178</ele>
        <time>2011-05-27T07:14:05Z</time>
      </trkpt>
      <trkpt lat="44.46665" lon="4.36422">
        <ele>180.3845215</ele>
        <time>2011-05-27T07:14:09Z</time>
      </trkpt>
      <trkpt lat="44.46654" lon="4.36423">
        <ele>181.3458252</ele>
        <time>2011-05-27T07:14:13Z</time>
      </trkpt>
      <trkpt lat="44.46643" lon="4.36423">
        <ele>182.3071289</ele>
        <time>2011-05-27T07:14:17Z</time>
      </trkpt>
      <trkpt lat="44.46632" lon="4.36419">
        <ele>183.2684326</ele>
        <time>2011-05-27T07:14:21Z</time>
      </trkpt>
      <trkpt lat="44.46624" lon="4.36414">
        <ele>182.3071289</ele>
        <time>2011-05-27T07:14:24Z</time>
      </trkpt>
      <trkpt lat="44.46615" lon="4.36409">
        <ele>181.3458252</ele>
        <time>2011-05-27T07:14:27Z</time>
      </trkpt>
      <trkpt lat="44.46605" lon="4.36402">
        <ele>180.8652344</ele>
        <time>2011-05-27T07:14:30Z</time>
      </trkpt>
      <trkpt lat="44.46597" lon="4.36386">
        <ele>180.8652344</ele>
        <time>2011-05-27T07:14:33Z</time>
      </trkpt>
      <trkpt lat="44.46585" lon="4.36376">
        <ele>178.4619141</ele>
        <time>2011-05-27T07:14:36Z</time>
      </trkpt>
      <trkpt lat="44.46576" lon="4.36372">
        <ele>177.0200195</ele>
        <time>2011-05-27T07:14:38Z</time>
      </trkpt>
      <trkpt lat="44.46566" lon="4.36368">
        <ele>176.0585938</ele>
        <time>2011-05-27T07:14:40Z</time>
      </trkpt>
      <trkpt lat="44.46548" lon="4.36356">
        <ele>176.0585938</ele>
        <time>2011-05-27T07:14:44Z</time>
      </trkpt>
      <trkpt lat="44.46535" lon="4.36342">
        <ele>173.1746826</ele>
        <time>2011-05-27T07:14:47Z</time>
      </trkpt>
      <trkpt lat="44.46527" lon="4.36329">
        <ele>171.732666</ele>
        <time>2011-05-27T07:14:49Z</time>
      </trkpt>
      <trkpt lat="44.46518" lon="4.36314">
        <ele>169.8100586</ele>
        <time>2011-05-27T07:14:51Z</time>
      </trkpt>
      <trkpt lat="44.46508" lon="4.363">
        <ele>168.368042</ele>
        <time>2011-05-27T07:14:53Z</time>
      </trkpt>
      <trkpt lat="44.46498" lon="4.36284">
        <ele>166.9260254</ele>
        <time>2011-05-27T07:14:55Z</time>
      </trkpt>
      <trkpt lat="44.46493" lon="4.36266">
        <ele>165.4841309</ele>
        <time>2011-05-27T07:14:57Z</time>
      </trkpt>
      <trkpt lat="44.46494" lon="4.36247">
        <ele>165.4841309</ele>
        <time>2011-05-27T07:14:59Z</time>
      </trkpt>
      <trkpt lat="44.46496" lon="4.3623">
        <ele>165.003418</ele>
        <time>2011-05-27T07:15:01Z</time>
      </trkpt>
      <trkpt lat="44.46498" lon="4.36215">
        <ele>165.4841309</ele>
        <time>2011-05-27T07:15:03Z</time>
      </trkpt>
      <trkpt lat="44.46499" lon="4.362">
        <ele>164.5227051</ele>
        <time>2011-05-27T07:15:05Z</time>
      </trkpt>
      <trkpt lat="44.46498" lon="4.36182">
        <ele>163.0808105</ele>
        <time>2011-05-27T07:15:07Z</time>
      </trkpt>
      <trkpt lat="44.46497" lon="4.36163">
        <ele>162.6000977</ele>
        <time>2011-05-27T07:15:09Z</time>
      </trkpt>
      <trkpt lat="44.46501" lon="4.36145">
        <ele>162.6000977</ele>
        <time>2011-05-27T07:15:11Z</time>
      </trkpt>
      <trkpt lat="44.46506" lon="4.36129">
        <ele>161.638916</ele>
        <time>2011-05-27T07:15:13Z</time>
      </trkpt>
      <trkpt lat="44.46511" lon="4.36114">
        <ele>162.1195068</ele>
        <time>2011-05-27T07:15:15Z</time>
      </trkpt>
      <trkpt lat="44.46516" lon="4.36098">
        <ele>162.1195068</ele>
        <time>2011-05-27T07:15:17Z</time>
      </trkpt>
      <trkpt lat="44.46522" lon="4.36084">
        <ele>160.6774902</ele>
        <time>2011-05-27T07:15:19Z</time>
      </trkpt>
      <trkpt lat="44.46528" lon="4.36073">
        <ele>161.638916</ele>
        <time>2011-05-27T07:15:21Z</time>
      </trkpt>
      <trkpt lat="44.46535" lon="4.36061">
        <ele>162.1195068</ele>
        <time>2011-05-27T07:15:24Z</time>
      </trkpt>
      <trkpt lat="44.46541" lon="4.36047">
        <ele>162.1195068</ele>
        <time>2011-05-27T07:15:27Z</time>
      </trkpt>
      <trkpt lat="44.46545" lon="4.36031">
        <ele>162.1195068</ele>
        <time>2011-05-27T07:15:30Z</time>
      </trkpt>
      <trkpt lat="44.46548" lon="4.36015">
        <ele>162.1195068</ele>
        <time>2011-05-27T07:15:33Z</time>
      </trkpt>
      <trkpt lat="44.4655" lon="4.35999">
        <ele>161.1582031</ele>
        <time>2011-05-27T07:15:36Z</time>
      </trkpt>
      <trkpt lat="44.46553" lon="4.35987">
        <ele>160.1968994</ele>
        <time>2011-05-27T07:15:39Z</time>
      </trkpt>
      <trkpt lat="44.46559" lon="4.35977">
        <ele>160.6774902</ele>
        <time>2011-05-27T07:15:43Z</time>
      </trkpt>
      <trkpt lat="44.46561" lon="4.35964">
        <ele>160.1968994</ele>
        <time>2011-05-27T07:15:50Z</time>
      </trkpt>
      <trkpt lat="44.46561" lon="4.35951">
        <ele>159.2354736</ele>
        <time>2011-05-27T07:15:55Z</time>
      </trkpt>
      <trkpt lat="44.46562" lon="4.35937">
        <ele>159.2354736</ele>
        <time>2011-05-27T07:15:59Z</time>
      </trkpt>
      <trkpt lat="44.46566" lon="4.35923">
        <ele>160.6774902</ele>
        <time>2011-05-27T07:16:04Z</time>
      </trkpt>
      <trkpt lat="44.4657" lon="4.35909">
        <ele>161.1582031</ele>
        <time>2011-05-27T07:16:09Z</time>
      </trkpt>
      <trkpt lat="44.46577" lon="4.35896">
        <ele>162.1195068</ele>
        <time>2011-05-27T07:16:14Z</time>
      </trkpt>
      <trkpt lat="44.46583" lon="4.35882">
        <ele>163.0808105</ele>
        <time>2011-05-27T07:16:19Z</time>
      </trkpt>
      <trkpt lat="44.4659" lon="4.35869">
        <ele>164.0421143</ele>
        <time>2011-05-27T07:16:24Z</time>
      </trkpt>
      <trkpt lat="44.46597" lon="4.35856">
        <ele>164.5227051</ele>
        <time>2011-05-27T07:16:28Z</time>
      </trkpt>
      <trkpt lat="44.46603" lon="4.35846">
        <ele>164.5227051</ele>
        <time>2011-05-27T07:16:31Z</time>
      </trkpt>
      <trkpt lat="44.46611" lon="4.35835">
        <ele>166.4453125</ele>
        <time>2011-05-27T07:16:35Z</time>
      </trkpt>
      <trkpt lat="44.46618" lon="4.35823">
        <ele>167.8873291</ele>
        <time>2011-05-27T07:16:40Z</time>
      </trkpt>
      <trkpt lat="44.46625" lon="4.35812">
        <ele>167.8873291</ele>
        <time>2011-05-27T07:16:44Z</time>
      </trkpt>
      <trkpt lat="44.46632" lon="4.35801">
        <ele>168.8487549</ele>
        <time>2011-05-27T07:16:48Z</time>
      </trkpt>
      <trkpt lat="44.46639" lon="4.35792">
        <ele>169.8100586</ele>
        <time>2011-05-27T07:16:52Z</time>
      </trkpt>
      <trkpt lat="44.46647" lon="4.3578">
        <ele>171.2520752</ele>
        <time>2011-05-27T07:16:57Z</time>
      </trkpt>
      <trkpt lat="44.46653" lon="4.3577">
        <ele>171.732666</ele>
        <time>2011-05-27T07:17:01Z</time>
      </trkpt>
      <trkpt lat="44.46659" lon="4.35759">
        <ele>172.2132568</ele>
        <time>2011-05-27T07:17:05Z</time>
      </trkpt>
      <trkpt lat="44.46665" lon="4.35751">
        <ele>172.6939697</ele>
        <time>2011-05-27T07:17:11Z</time>
      </trkpt>
      <trkpt lat="44.46667" lon="4.35748">
        <ele>174.6165771</ele>
        <time>2011-05-27T07:19:01Z</time>
      </trkpt>
      <trkpt lat="44.46678" lon="4.35749">
        <ele>178.942627</ele>
        <time>2011-05-27T07:19:15Z</time>
      </trkpt>
      <trkpt lat="44.46687" lon="4.35749">
        <ele>180.3845215</ele>
        <time>2011-05-27T07:19:36Z</time>
      </trkpt>
      <trkpt lat="44.46691" lon="4.35732">
        <ele>179.4232178</ele>
        <time>2011-05-27T07:19:41Z</time>
      </trkpt>
      <trkpt lat="44.46694" lon="4.35717">
        <ele>178.4619141</ele>
        <time>2011-05-27T07:19:44Z</time>
      </trkpt>
      <trkpt lat="44.46696" lon="4.35701">
        <ele>176.5393066</ele>
        <time>2011-05-27T07:19:47Z</time>
      </trkpt>
      <trkpt lat="44.46699" lon="4.35684">
        <ele>175.09729</ele>
        <time>2011-05-27T07:19:50Z</time>
      </trkpt>
      <trkpt lat="44.46702" lon="4.35668">
        <ele>173.6552734</ele>
        <time>2011-05-27T07:19:53Z</time>
      </trkpt>
      <trkpt lat="44.46704" lon="4.35651">
        <ele>171.2520752</ele>
        <time>2011-05-27T07:19:56Z</time>
      </trkpt>
      <trkpt lat="44.46705" lon="4.35633">
        <ele>170.7713623</ele>
        <time>2011-05-27T07:19:59Z</time>
      </trkpt>
      <trkpt lat="44.46706" lon="4.35616">
        <ele>170.2906494</ele>
        <time>2011-05-27T07:20:02Z</time>
      </trkpt>
      <trkpt lat="44.46708" lon="4.35599">
        <ele>169.8100586</ele>
        <time>2011-05-27T07:20:06Z</time>
      </trkpt>
      <trkpt lat="44.46709" lon="4.35584">
        <ele>167.8873291</ele>
        <time>2011-05-27T07:20:09Z</time>
      </trkpt>
      <trkpt lat="44.46709" lon="4.35569">
        <ele>166.9260254</ele>
        <time>2011-05-27T07:20:12Z</time>
      </trkpt>
      <trkpt lat="44.4671" lon="4.35553">
        <ele>165.4841309</ele>
        <time>2011-05-27T07:20:16Z</time>
      </trkpt>
      <trkpt lat="44.46715" lon="4.35538">
        <ele>163.0808105</ele>
        <time>2011-05-27T07:20:21Z</time>
      </trkpt>
      <trkpt lat="44.46717" lon="4.35524">
        <ele>161.638916</ele>
        <time>2011-05-27T07:20:25Z</time>
      </trkpt>
      <trkpt lat="44.46724" lon="4.35512">
        <ele>160.6774902</ele>
        <time>2011-05-27T07:20:30Z</time>
      </trkpt>
      <trkpt lat="44.46732" lon="4.35501">
        <ele>159.2354736</ele>
        <time>2011-05-27T07:20:34Z</time>
      </trkpt>
      <trkpt lat="44.46739" lon="4.35491">
        <ele>156.8321533</ele>
        <time>2011-05-27T07:20:39Z</time>
      </trkpt>
      <trkpt lat="44.46745" lon="4.35477">
        <ele>154.4289551</ele>
        <time>2011-05-27T07:20:43Z</time>
      </trkpt>
      <trkpt lat="44.4675" lon="4.35465">
        <ele>153.4676514</ele>
        <time>2011-05-27T07:20:46Z</time>
      </trkpt>
      <trkpt lat="44.46755" lon="4.35452">
        <ele>153.4676514</ele>
        <time>2011-05-27T07:20:50Z</time>
      </trkpt>
      <trkpt lat="44.46761" lon="4.3544">
        <ele>153.4676514</ele>
        <time>2011-05-27T07:21:24Z</time>
      </trkpt>
      <trkpt lat="44.46766" lon="4.35428">
        <ele>153.4676514</ele>
        <time>2011-05-27T07:21:30Z</time>
      </trkpt>
      <trkpt lat="44.46771" lon="4.35416">
        <ele>154.4289551</ele>
        <time>2011-05-27T07:21:35Z</time>
      </trkpt>
      <trkpt lat="44.46779" lon="4.35408">
        <ele>155.8709717</ele>
        <time>2011-05-27T07:21:39Z</time>
      </trkpt>
      <trkpt lat="44.4679" lon="4.35407">
        <ele>156.8321533</ele>
        <time>2011-05-27T07:21:44Z</time>
      </trkpt>
      <trkpt lat="44.46799" lon="4.35406">
        <ele>158.2741699</ele>
        <time>2011-05-27T07:21:48Z</time>
      </trkpt>
      <trkpt lat="44.46809" lon="4.35405">
        <ele>158.7547607</ele>
        <time>2011-05-27T07:21:53Z</time>
      </trkpt>
      <trkpt lat="44.46819" lon="4.35399">
        <ele>158.2741699</ele>
        <time>2011-05-27T07:22:00Z</time>
      </trkpt>
      <trkpt lat="44.46825" lon="4.35388">
        <ele>157.3128662</ele>
        <time>2011-05-27T07:22:05Z</time>
      </trkpt>
      <trkpt lat="44.46833" lon="4.3539">
        <ele>156.8321533</ele>
        <time>2011-05-27T07:22:12Z</time>
      </trkpt>
      <trkpt lat="44.46842" lon="4.35397">
        <ele>156.3515625</ele>
        <time>2011-05-27T07:22:16Z</time>
      </trkpt>
      <trkpt lat="44.46851" lon="4.35405">
        <ele>156.3515625</ele>
        <time>2011-05-27T07:22:20Z</time>
      </trkpt>
      <trkpt lat="44.46862" lon="4.35413">
        <ele>155.3902588</ele>
        <time>2011-05-27T07:22:24Z</time>
      </trkpt>
      <trkpt lat="44.46869" lon="4.35421">
        <ele>155.8709717</ele>
        <time>2011-05-27T07:22:27Z</time>
      </trkpt>
      <trkpt lat="44.46877" lon="4.35433">
        <ele>155.8709717</ele>
        <time>2011-05-27T07:22:31Z</time>
      </trkpt>
      <trkpt lat="44.46882" lon="4.35443">
        <ele>155.8709717</ele>
        <time>2011-05-27T07:22:34Z</time>
      </trkpt>
      <trkpt lat="44.46889" lon="4.35455">
        <ele>155.8709717</ele>
        <time>2011-05-27T07:22:38Z</time>
      </trkpt>
      <trkpt lat="44.46896" lon="4.35467">
        <ele>156.8321533</ele>
        <time>2011-05-27T07:22:42Z</time>
      </trkpt>
      <trkpt lat="44.46904" lon="4.35479">
        <ele>155.8709717</ele>
        <time>2011-05-27T07:22:46Z</time>
      </trkpt>
      <trkpt lat="44.4691" lon="4.35489">
        <ele>155.8709717</ele>
        <time>2011-05-27T07:22:50Z</time>
      </trkpt>
      <trkpt lat="44.46916" lon="4.35499">
        <ele>156.3515625</ele>
        <time>2011-05-27T07:22:54Z</time>
      </trkpt>
      <trkpt lat="44.46922" lon="4.35512">
        <ele>157.7935791</ele>
        <time>2011-05-27T07:22:59Z</time>
      </trkpt>
      <trkpt lat="44.4693" lon="4.35524">
        <ele>156.8321533</ele>
        <time>2011-05-27T07:23:03Z</time>
      </trkpt>
      <trkpt lat="44.46937" lon="4.35533">
        <ele>156.8321533</ele>
        <time>2011-05-27T07:23:06Z</time>
      </trkpt>
      <trkpt lat="44.46944" lon="4.35543">
        <ele>156.3515625</ele>
        <time>2011-05-27T07:23:09Z</time>
      </trkpt>
      <trkpt lat="44.4695" lon="4.35553">
        <ele>156.3515625</ele>
        <time>2011-05-27T07:23:12Z</time>
      </trkpt>
      <trkpt lat="44.46957" lon="4.35562">
        <ele>157.3128662</ele>
        <time>2011-05-27T07:23:15Z</time>
      </trkpt>
      <trkpt lat="44.46966" lon="4.35572">
        <ele>156.3515625</ele>
        <time>2011-05-27T07:23:18Z</time>
      </trkpt>
      <trkpt lat="44.46976" lon="4.35581">
        <ele>155.8709717</ele>
        <time>2011-05-27T07:23:21Z</time>
      </trkpt>
      <trkpt lat="44.46986" lon="4.35587">
        <ele>154.4289551</ele>
        <time>2011-05-27T07:23:24Z</time>
      </trkpt>
      <trkpt lat="44.46997" lon="4.35592">
        <ele>153.4676514</ele>
        <time>2011-05-27T07:23:27Z</time>
      </trkpt>
      <trkpt lat="44.47008" lon="4.35597">
        <ele>152.9869385</ele>
        <time>2011-05-27T07:23:30Z</time>
      </trkpt>
      <trkpt lat="44.47019" lon="4.35605">
        <ele>152.0257568</ele>
        <time>2011-05-27T07:23:33Z</time>
      </trkpt>
      <trkpt lat="44.47029" lon="4.35617">
        <ele>151.5449219</ele>
        <time>2011-05-27T07:23:36Z</time>
      </trkpt>
      <trkpt lat="44.47039" lon="4.35626">
        <ele>150.5836182</ele>
        <time>2011-05-27T07:23:38Z</time>
      </trkpt>
      <trkpt lat="44.47051" lon="4.35631">
        <ele>150.1030273</ele>
        <time>2011-05-27T07:23:40Z</time>
      </trkpt>
      <trkpt lat="44.47064" lon="4.35637">
        <ele>149.6223145</ele>
        <time>2011-05-27T07:23:42Z</time>
      </trkpt>
      <trkpt lat="44.47078" lon="4.35642">
        <ele>149.1416016</ele>
        <time>2011-05-27T07:23:44Z</time>
      </trkpt>
      <trkpt lat="44.47093" lon="4.35646">
        <ele>147.699707</ele>
        <time>2011-05-27T07:23:46Z</time>
      </trkpt>
      <trkpt lat="44.47106" lon="4.35651">
        <ele>146.7384033</ele>
        <time>2011-05-27T07:23:48Z</time>
      </trkpt>
      <trkpt lat="44.47119" lon="4.35656">
        <ele>145.7770996</ele>
        <time>2011-05-27T07:23:50Z</time>
      </trkpt>
      <trkpt lat="44.47132" lon="4.35659">
        <ele>145.2963867</ele>
        <time>2011-05-27T07:23:52Z</time>
      </trkpt>
      <trkpt lat="44.47144" lon="4.35662">
        <ele>145.2963867</ele>
        <time>2011-05-27T07:23:54Z</time>
      </trkpt>
      <trkpt lat="44.47155" lon="4.35664">
        <ele>144.8157959</ele>
        <time>2011-05-27T07:23:56Z</time>
      </trkpt>
      <trkpt lat="44.47166" lon="4.35663">
        <ele>143.8543701</ele>
        <time>2011-05-27T07:23:58Z</time>
      </trkpt>
      <trkpt lat="44.47174" lon="4.35658">
        <ele>143.3736572</ele>
        <time>2011-05-27T07:24:00Z</time>
      </trkpt>
      <trkpt lat="44.47183" lon="4.35655">
        <ele>142.4124756</ele>
        <time>2011-05-27T07:24:02Z</time>
      </trkpt>
      <trkpt lat="44.47192" lon="4.35658">
        <ele>142.4124756</ele>
        <time>2011-05-27T07:24:04Z</time>
      </trkpt>
      <trkpt lat="44.47197" lon="4.35671">
        <ele>142.8930664</ele>
        <time>2011-05-27T07:24:07Z</time>
      </trkpt>
      <trkpt lat="44.47201" lon="4.35684">
        <ele>142.4124756</ele>
        <time>2011-05-27T07:24:10Z</time>
      </trkpt>
      <trkpt lat="44.47206" lon="4.35697">
        <ele>142.4124756</ele>
        <time>2011-05-27T07:24:13Z</time>
      </trkpt>
      <trkpt lat="44.47211" lon="4.3571">
        <ele>142.4124756</ele>
        <time>2011-05-27T07:24:16Z</time>
      </trkpt>
      <trkpt lat="44.47216" lon="4.35724">
        <ele>142.8930664</ele>
        <time>2011-05-27T07:24:19Z</time>
      </trkpt>
      <trkpt lat="44.47221" lon="4.35738">
        <ele>142.4124756</ele>
        <time>2011-05-27T07:24:22Z</time>
      </trkpt>
      <trkpt lat="44.47226" lon="4.35753">
        <ele>142.4124756</ele>
        <time>2011-05-27T07:24:25Z</time>
      </trkpt>
      <trkpt lat="44.47232" lon="4.35767">
        <ele>142.4124756</ele>
        <time>2011-05-27T07:24:28Z</time>
      </trkpt>
      <trkpt lat="44.47237" lon="4.3578">
        <ele>142.4124756</ele>
        <time>2011-05-27T07:24:31Z</time>
      </trkpt>
      <trkpt lat="44.47243" lon="4.35794">
        <ele>141.4510498</ele>
        <time>2011-05-27T07:24:34Z</time>
      </trkpt>
      <trkpt lat="44.47249" lon="4.35811">
        <ele>141.4510498</ele>
        <time>2011-05-27T07:24:37Z</time>
      </trkpt>
      <trkpt lat="44.47253" lon="4.35823">
        <ele>140.970459</ele>
        <time>2011-05-27T07:24:39Z</time>
      </trkpt>
      <trkpt lat="44.47257" lon="4.35835">
        <ele>140.970459</ele>
        <time>2011-05-27T07:24:41Z</time>
      </trkpt>
      <trkpt lat="44.47261" lon="4.35848">
        <ele>141.4510498</ele>
        <time>2011-05-27T07:24:43Z</time>
      </trkpt>
      <trkpt lat="44.47265" lon="4.35861">
        <ele>140.0091553</ele>
        <time>2011-05-27T07:24:45Z</time>
      </trkpt>
      <trkpt lat="44.4727" lon="4.35877">
        <ele>139.5284424</ele>
        <time>2011-05-27T07:24:47Z</time>
      </trkpt>
      <trkpt lat="44.47274" lon="4.35894">
        <ele>138.0865479</ele>
        <time>2011-05-27T07:24:49Z</time>
      </trkpt>
      <trkpt lat="44.47279" lon="4.35912">
        <ele>137.605835</ele>
        <time>2011-05-27T07:24:51Z</time>
      </trkpt>
      <trkpt lat="44.47285" lon="4.35926">
        <ele>137.1252441</ele>
        <time>2011-05-27T07:24:53Z</time>
      </trkpt>
      <trkpt lat="44.47291" lon="4.35938">
        <ele>138.0865479</ele>
        <time>2011-05-27T07:24:55Z</time>
      </trkpt>
      <trkpt lat="44.47299" lon="4.35951">
        <ele>139.0478516</ele>
        <time>2011-05-27T07:24:58Z</time>
      </trkpt>
      <trkpt lat="44.47304" lon="4.35962">
        <ele>140.4898682</ele>
        <time>2011-05-27T07:25:01Z</time>
      </trkpt>
      <trkpt lat="44.47309" lon="4.35974">
        <ele>141.4510498</ele>
        <time>2011-05-27T07:25:04Z</time>
      </trkpt>
      <trkpt lat="44.47316" lon="4.35987">
        <ele>141.9317627</ele>
        <time>2011-05-27T07:25:07Z</time>
      </trkpt>
      <trkpt lat="44.47322" lon="4.36001">
        <ele>142.4124756</ele>
        <time>2011-05-27T07:25:10Z</time>
      </trkpt>
      <trkpt lat="44.47328" lon="4.36015">
        <ele>143.3736572</ele>
        <time>2011-05-27T07:25:13Z</time>
      </trkpt>
      <trkpt lat="44.47334" lon="4.36028">
        <ele>143.3736572</ele>
        <time>2011-05-27T07:25:16Z</time>
      </trkpt>
      <trkpt lat="44.4734" lon="4.36038">
        <ele>143.8543701</ele>
        <time>2011-05-27T07:25:19Z</time>
      </trkpt>
      <trkpt lat="44.47349" lon="4.36037">
        <ele>143.3736572</ele>
        <time>2011-05-27T07:25:25Z</time>
      </trkpt>
      <trkpt lat="44.47357" lon="4.36029">
        <ele>143.3736572</ele>
        <time>2011-05-27T07:25:30Z</time>
      </trkpt>
      <trkpt lat="44.47364" lon="4.3602">
        <ele>142.8930664</ele>
        <time>2011-05-27T07:25:33Z</time>
      </trkpt>
      <trkpt lat="44.47373" lon="4.3601">
        <ele>142.8930664</ele>
        <time>2011-05-27T07:25:36Z</time>
      </trkpt>
      <trkpt lat="44.47381" lon="4.36001">
        <ele>142.8930664</ele>
        <time>2011-05-27T07:25:39Z</time>
      </trkpt>
      <trkpt lat="44.47391" lon="4.36004">
        <ele>142.4124756</ele>
        <time>2011-05-27T07:25:43Z</time>
      </trkpt>
      <trkpt lat="44.47398" lon="4.36013">
        <ele>142.4124756</ele>
        <time>2011-05-27T07:25:46Z</time>
      </trkpt>
      <trkpt lat="44.47405" lon="4.36022">
        <ele>142.4124756</ele>
        <time>2011-05-27T07:25:49Z</time>
      </trkpt>
      <trkpt lat="44.47413" lon="4.36032">
        <ele>142.4124756</ele>
        <time>2011-05-27T07:25:53Z</time>
      </trkpt>
      <trkpt lat="44.4742" lon="4.3604">
        <ele>142.8930664</ele>
        <time>2011-05-27T07:25:58Z</time>
      </trkpt>
      <trkpt lat="44.47428" lon="4.36051">
        <ele>142.4124756</ele>
        <time>2011-05-27T07:26:03Z</time>
      </trkpt>
      <trkpt lat="44.47437" lon="4.3606">
        <ele>141.9317627</ele>
        <time>2011-05-27T07:26:07Z</time>
      </trkpt>
      <trkpt lat="44.47447" lon="4.36057">
        <ele>141.9317627</ele>
        <time>2011-05-27T07:26:11Z</time>
      </trkpt>
      <trkpt lat="44.47456" lon="4.36047">
        <ele>142.4124756</ele>
        <time>2011-05-27T07:26:16Z</time>
      </trkpt>
      <trkpt lat="44.47465" lon="4.36038">
        <ele>142.4124756</ele>
        <time>2011-05-27T07:26:20Z</time>
      </trkpt>
      <trkpt lat="44.47474" lon="4.3603">
        <ele>142.8930664</ele>
        <time>2011-05-27T07:26:24Z</time>
      </trkpt>
      <trkpt lat="44.47482" lon="4.36021">
        <ele>141.9317627</ele>
        <time>2011-05-27T07:26:27Z</time>
      </trkpt>
      <trkpt lat="44.47487" lon="4.36011">
        <ele>141.4510498</ele>
        <time>2011-05-27T07:26:30Z</time>
      </trkpt>
      <trkpt lat="44.47489" lon="4.35996">
        <ele>141.4510498</ele>
        <time>2011-05-27T07:26:33Z</time>
      </trkpt>
      <trkpt lat="44.47495" lon="4.35986">
        <ele>141.4510498</ele>
        <time>2011-05-27T07:26:36Z</time>
      </trkpt>
      <trkpt lat="44.47504" lon="4.35982">
        <ele>140.970459</ele>
        <time>2011-05-27T07:26:40Z</time>
      </trkpt>
      <trkpt lat="44.47513" lon="4.35992">
        <ele>140.970459</ele>
        <time>2011-05-27T07:26:44Z</time>
      </trkpt>
      <trkpt lat="44.47523" lon="4.35995">
        <ele>140.970459</ele>
        <time>2011-05-27T07:26:47Z</time>
      </trkpt>
      <trkpt lat="44.47536" lon="4.35995">
        <ele>140.970459</ele>
        <time>2011-05-27T07:26:50Z</time>
      </trkpt>
      <trkpt lat="44.47545" lon="4.35992">
        <ele>140.0091553</ele>
        <time>2011-05-27T07:26:52Z</time>
      </trkpt>
      <trkpt lat="44.47554" lon="4.35987">
        <ele>139.5284424</ele>
        <time>2011-05-27T07:26:54Z</time>
      </trkpt>
      <trkpt lat="44.47563" lon="4.3598">
        <ele>139.5284424</ele>
        <time>2011-05-27T07:26:56Z</time>
      </trkpt>
      <trkpt lat="44.47573" lon="4.35973">
        <ele>138.5672607</ele>
        <time>2011-05-27T07:26:58Z</time>
      </trkpt>
      <trkpt lat="44.47582" lon="4.35966">
        <ele>138.5672607</ele>
        <time>2011-05-27T07:27:00Z</time>
      </trkpt>
      <trkpt lat="44.47591" lon="4.35958">
        <ele>138.5672607</ele>
        <time>2011-05-27T07:27:02Z</time>
      </trkpt>
      <trkpt lat="44.476" lon="4.35949">
        <ele>138.5672607</ele>
        <time>2011-05-27T07:27:04Z</time>
      </trkpt>
      <trkpt lat="44.47608" lon="4.3594">
        <ele>138.0865479</ele>
        <time>2011-05-27T07:27:06Z</time>
      </trkpt>
      <trkpt lat="44.47612" lon="4.35927">
        <ele>138.0865479</ele>
        <time>2011-05-27T07:27:08Z</time>
      </trkpt>
      <trkpt lat="44.47611" lon="4.35912">
        <ele>138.0865479</ele>
        <time>2011-05-27T07:27:10Z</time>
      </trkpt>
      <trkpt lat="44.47608" lon="4.35899">
        <ele>138.5672607</ele>
        <time>2011-05-27T07:27:12Z</time>
      </trkpt>
      <trkpt lat="44.47603" lon="4.35886">
        <ele>138.5672607</ele>
        <time>2011-05-27T07:27:14Z</time>
      </trkpt>
      <trkpt lat="44.47598" lon="4.35875">
        <ele>138.0865479</ele>
        <time>2011-05-27T07:27:16Z</time>
      </trkpt>
      <trkpt lat="44.47592" lon="4.35864">
        <ele>138.5672607</ele>
        <time>2011-05-27T07:27:18Z</time>
      </trkpt>
      <trkpt lat="44.47586" lon="4.35854">
        <ele>138.5672607</ele>
        <time>2011-05-27T07:27:20Z</time>
      </trkpt>
      <trkpt lat="44.47579" lon="4.35844">
        <ele>138.5672607</ele>
        <time>2011-05-27T07:27:22Z</time>
      </trkpt>
      <trkpt lat="44.4757" lon="4.3583">
        <ele>139.0478516</ele>
        <time>2011-05-27T07:27:25Z</time>
      </trkpt>
      <trkpt lat="44.47563" lon="4.35821">
        <ele>138.0865479</ele>
        <time>2011-05-27T07:27:27Z</time>
      </trkpt>
      <trkpt lat="44.47552" lon="4.35809">
        <ele>139.5284424</ele>
        <time>2011-05-27T07:27:30Z</time>
      </trkpt>
      <trkpt lat="44.4754" lon="4.35803">
        <ele>138.5672607</ele>
        <time>2011-05-27T07:27:33Z</time>
      </trkpt>
      <trkpt lat="44.47527" lon="4.358">
        <ele>139.0478516</ele>
        <time>2011-05-27T07:27:36Z</time>
      </trkpt>
      <trkpt lat="44.47515" lon="4.35797">
        <ele>139.0478516</ele>
        <time>2011-05-27T07:27:39Z</time>
      </trkpt>
      <trkpt lat="44.47504" lon="4.35792">
        <ele>139.0478516</ele>
        <time>2011-05-27T07:27:42Z</time>
      </trkpt>
      <trkpt lat="44.47497" lon="4.35782">
        <ele>139.0478516</ele>
        <time>2011-05-27T07:27:45Z</time>
      </trkpt>
      <trkpt lat="44.47497" lon="4.35768">
        <ele>138.5672607</ele>
        <time>2011-05-27T07:27:48Z</time>
      </trkpt>
      <trkpt lat="44.47497" lon="4.35753">
        <ele>138.0865479</ele>
        <time>2011-05-27T07:27:53Z</time>
      </trkpt>
      <trkpt lat="44.47495" lon="4.35741">
        <ele>137.605835</ele>
        <time>2011-05-27T07:27:59Z</time>
      </trkpt>
      <trkpt lat="44.47497" lon="4.35728">
        <ele>136.1639404</ele>
        <time>2011-05-27T07:28:08Z</time>
      </trkpt>
      <trkpt lat="44.47503" lon="4.35717">
        <ele>134.2412109</ele>
        <time>2011-05-27T07:28:24Z</time>
      </trkpt>
      <trkpt lat="44.47507" lon="4.35704">
        <ele>133.760498</ele>
        <time>2011-05-27T07:28:40Z</time>
      </trkpt>
      <trkpt lat="44.47499" lon="4.35694">
        <ele>131.8378906</ele>
        <time>2011-05-27T07:28:45Z</time>
      </trkpt>
      <trkpt lat="44.47492" lon="4.35682">
        <ele>130.876709</ele>
        <time>2011-05-27T07:28:54Z</time>
      </trkpt>
      <trkpt lat="44.4748" lon="4.35667">
        <ele>130.876709</ele>
        <time>2011-05-27T07:30:09Z</time>
      </trkpt>
      <trkpt lat="44.47473" lon="4.35659">
        <ele>129.4346924</ele>
        <time>2011-05-27T07:30:18Z</time>
      </trkpt>
      <trkpt lat="44.47466" lon="4.35651">
        <ele>127.9925537</ele>
        <time>2011-05-27T07:30:23Z</time>
      </trkpt>
      <trkpt lat="44.47461" lon="4.3564">
        <ele>127.5119629</ele>
        <time>2011-05-27T07:30:28Z</time>
      </trkpt>
      <trkpt lat="44.47468" lon="4.35632">
        <ele>127.5119629</ele>
        <time>2011-05-27T07:30:38Z</time>
      </trkpt>
      <trkpt lat="44.4746" lon="4.35622">
        <ele>127.9925537</ele>
        <time>2011-05-27T07:30:44Z</time>
      </trkpt>
      <trkpt lat="44.47452" lon="4.35614">
        <ele>128.9541016</ele>
        <time>2011-05-27T07:30:48Z</time>
      </trkpt>
      <trkpt lat="44.47455" lon="4.35601">
        <ele>131.3572998</ele>
        <time>2011-05-27T07:30:53Z</time>
      </trkpt>
      <trkpt lat="44.47462" lon="4.35588">
        <ele>132.3186035</ele>
        <time>2011-05-27T07:30:57Z</time>
      </trkpt>
      <trkpt lat="44.47467" lon="4.35578">
        <ele>134.2412109</ele>
        <time>2011-05-27T07:31:00Z</time>
      </trkpt>
      <trkpt lat="44.4747" lon="4.35563">
        <ele>136.1639404</ele>
        <time>2011-05-27T07:31:05Z</time>
      </trkpt>
      <trkpt lat="44.47461" lon="4.35552">
        <ele>135.6831055</ele>
        <time>2011-05-27T07:31:09Z</time>
      </trkpt>
      <trkpt lat="44.47453" lon="4.35545">
        <ele>135.6831055</ele>
        <time>2011-05-27T07:31:12Z</time>
      </trkpt>
      <trkpt lat="44.47446" lon="4.35534">
        <ele>136.1639404</ele>
        <time>2011-05-27T07:31:15Z</time>
      </trkpt>
      <trkpt lat="44.47445" lon="4.35517">
        <ele>135.6831055</ele>
        <time>2011-05-27T07:31:18Z</time>
      </trkpt>
      <trkpt lat="44.47445" lon="4.35504">
        <ele>135.2025146</ele>
        <time>2011-05-27T07:31:20Z</time>
      </trkpt>
      <trkpt lat="44.47441" lon="4.35491">
        <ele>134.7219238</ele>
        <time>2011-05-27T07:31:22Z</time>
      </trkpt>
      <trkpt lat="44.47432" lon="4.35477">
        <ele>134.7219238</ele>
        <time>2011-05-27T07:31:25Z</time>
      </trkpt>
      <trkpt lat="44.47422" lon="4.35467">
        <ele>135.2025146</ele>
        <time>2011-05-27T07:31:28Z</time>
      </trkpt>
      <trkpt lat="44.47411" lon="4.35457">
        <ele>135.6831055</ele>
        <time>2011-05-27T07:31:31Z</time>
      </trkpt>
      <trkpt lat="44.47399" lon="4.35448">
        <ele>135.6831055</ele>
        <time>2011-05-27T07:31:34Z</time>
      </trkpt>
      <trkpt lat="44.47387" lon="4.35438">
        <ele>136.1639404</ele>
        <time>2011-05-27T07:31:37Z</time>
      </trkpt>
      <trkpt lat="44.47377" lon="4.35426">
        <ele>136.1639404</ele>
        <time>2011-05-27T07:31:40Z</time>
      </trkpt>
      <trkpt lat="44.47373" lon="4.3541">
        <ele>136.1639404</ele>
        <time>2011-05-27T07:31:43Z</time>
      </trkpt>
      <trkpt lat="44.47372" lon="4.35391">
        <ele>136.1639404</ele>
        <time>2011-05-27T07:31:46Z</time>
      </trkpt>
      <trkpt lat="44.47379" lon="4.35376">
        <ele>136.6446533</ele>
        <time>2011-05-27T07:31:49Z</time>
      </trkpt>
      <trkpt lat="44.47388" lon="4.35362">
        <ele>136.6446533</ele>
        <time>2011-05-27T07:31:52Z</time>
      </trkpt>
      <trkpt lat="44.47396" lon="4.35347">
        <ele>136.6446533</ele>
        <time>2011-05-27T07:31:55Z</time>
      </trkpt>
      <trkpt lat="44.47402" lon="4.35337">
        <ele>136.6446533</ele>
        <time>2011-05-27T07:31:57Z</time>
      </trkpt>
      <trkpt lat="44.47408" lon="4.35327">
        <ele>137.1252441</ele>
        <time>2011-05-27T07:31:59Z</time>
      </trkpt>
      <trkpt lat="44.47416" lon="4.35312">
        <ele>137.1252441</ele>
        <time>2011-05-27T07:32:02Z</time>
      </trkpt>
      <trkpt lat="44.47424" lon="4.35297">
        <ele>137.1252441</ele>
        <time>2011-05-27T07:32:05Z</time>
      </trkpt>
      <trkpt lat="44.47432" lon="4.35282">
        <ele>137.605835</ele>
        <time>2011-05-27T07:32:08Z</time>
      </trkpt>
      <trkpt lat="44.47439" lon="4.35268">
        <ele>137.605835</ele>
        <time>2011-05-27T07:32:11Z</time>
      </trkpt>
      <trkpt lat="44.47447" lon="4.35255">
        <ele>138.0865479</ele>
        <time>2011-05-27T07:32:14Z</time>
      </trkpt>
      <trkpt lat="44.47453" lon="4.35244">
        <ele>138.0865479</ele>
        <time>2011-05-27T07:32:17Z</time>
      </trkpt>
      <trkpt lat="44.4746" lon="4.35232">
        <ele>138.5672607</ele>
        <time>2011-05-27T07:32:21Z</time>
      </trkpt>
      <trkpt lat="44.47467" lon="4.35221">
        <ele>138.5672607</ele>
        <time>2011-05-27T07:32:26Z</time>
      </trkpt>
      <trkpt lat="44.47474" lon="4.35209">
        <ele>138.5672607</ele>
        <time>2011-05-27T07:32:32Z</time>
      </trkpt>
      <trkpt lat="44.47478" lon="4.35198">
        <ele>138.5672607</ele>
        <time>2011-05-27T07:32:40Z</time>
      </trkpt>
      <trkpt lat="44.47483" lon="4.3519">
        <ele>138.5672607</ele>
        <time>2011-05-27T07:35:23Z</time>
      </trkpt>
      <trkpt lat="44.4749" lon="4.35177">
        <ele>138.0865479</ele>
        <time>2011-05-27T07:35:27Z</time>
      </trkpt>
      <trkpt lat="44.47497" lon="4.35164">
        <ele>138.5672607</ele>
        <time>2011-05-27T07:35:31Z</time>
      </trkpt>
      <trkpt lat="44.47505" lon="4.35152">
        <ele>138.5672607</ele>
        <time>2011-05-27T07:35:35Z</time>
      </trkpt>
      <trkpt lat="44.47513" lon="4.35142">
        <ele>138.0865479</ele>
        <time>2011-05-27T07:35:39Z</time>
      </trkpt>
      <trkpt lat="44.47522" lon="4.35139">
        <ele>139.0478516</ele>
        <time>2011-05-27T07:35:43Z</time>
      </trkpt>
      <trkpt lat="44.47533" lon="4.35137">
        <ele>140.0091553</ele>
        <time>2011-05-27T07:35:49Z</time>
      </trkpt>
      <trkpt lat="44.47544" lon="4.35136">
        <ele>140.970459</ele>
        <time>2011-05-27T07:35:55Z</time>
      </trkpt>
      <trkpt lat="44.47555" lon="4.35135">
        <ele>141.4510498</ele>
        <time>2011-05-27T07:36:01Z</time>
      </trkpt>
      <trkpt lat="44.47565" lon="4.35134">
        <ele>142.8930664</ele>
        <time>2011-05-27T07:36:07Z</time>
      </trkpt>
      <trkpt lat="44.47574" lon="4.35133">
        <ele>143.3736572</ele>
        <time>2011-05-27T07:36:12Z</time>
      </trkpt>
      <trkpt lat="44.47584" lon="4.35131">
        <ele>145.2963867</ele>
        <time>2011-05-27T07:36:17Z</time>
      </trkpt>
      <trkpt lat="44.47595" lon="4.35129">
        <ele>145.7770996</ele>
        <time>2011-05-27T07:36:23Z</time>
      </trkpt>
      <trkpt lat="44.47605" lon="4.35127">
        <ele>146.2578125</ele>
        <time>2011-05-27T07:36:29Z</time>
      </trkpt>
      <trkpt lat="44.47616" lon="4.35126">
        <ele>147.699707</ele>
        <time>2011-05-27T07:36:35Z</time>
      </trkpt>
      <trkpt lat="44.47627" lon="4.35124">
        <ele>148.1804199</ele>
        <time>2011-05-27T07:36:41Z</time>
      </trkpt>
      <trkpt lat="44.47637" lon="4.3512">
        <ele>149.1416016</ele>
        <time>2011-05-27T07:36:47Z</time>
      </trkpt>
      <trkpt lat="44.47647" lon="4.3512">
        <ele>151.5449219</ele>
        <time>2011-05-27T07:36:53Z</time>
      </trkpt>
      <trkpt lat="44.47658" lon="4.35119">
        <ele>152.5063477</ele>
        <time>2011-05-27T07:36:59Z</time>
      </trkpt>
      <trkpt lat="44.47668" lon="4.35116">
        <ele>153.9483643</ele>
        <time>2011-05-27T07:37:05Z</time>
      </trkpt>
      <trkpt lat="44.47679" lon="4.35114">
        <ele>155.3902588</ele>
        <time>2011-05-27T07:37:11Z</time>
      </trkpt>
      <trkpt lat="44.47683" lon="4.35102">
        <ele>155.3902588</ele>
        <time>2011-05-27T07:37:16Z</time>
      </trkpt>
      <trkpt lat="44.47685" lon="4.35089">
        <ele>156.3515625</ele>
        <time>2011-05-27T07:37:21Z</time>
      </trkpt>
      <trkpt lat="44.47689" lon="4.35076">
        <ele>156.8321533</ele>
        <time>2011-05-27T07:37:27Z</time>
      </trkpt>
      <trkpt lat="44.47695" lon="4.35067">
        <ele>157.7935791</ele>
        <time>2011-05-27T07:37:34Z</time>
      </trkpt>
      <trkpt lat="44.47697" lon="4.35069">
        <ele>159.7161865</ele>
        <time>2011-05-27T07:43:49Z</time>
      </trkpt>
      <trkpt lat="44.47696" lon="4.35057">
        <ele>160.6774902</ele>
        <time>2011-05-27T07:49:22Z</time>
      </trkpt>
      <trkpt lat="44.47702" lon="4.35048">
        <ele>161.1582031</ele>
        <time>2011-05-27T07:49:29Z</time>
      </trkpt>
      <trkpt lat="44.47707" lon="4.35036">
        <ele>161.638916</ele>
        <time>2011-05-27T07:49:36Z</time>
      </trkpt>
      <trkpt lat="44.47711" lon="4.35024">
        <ele>161.638916</ele>
        <time>2011-05-27T07:49:43Z</time>
      </trkpt>
      <trkpt lat="44.47717" lon="4.35014">
        <ele>163.0808105</ele>
        <time>2011-05-27T07:49:51Z</time>
      </trkpt>
      <trkpt lat="44.47725" lon="4.35006">
        <ele>165.4841309</ele>
        <time>2011-05-27T07:49:58Z</time>
      </trkpt>
      <trkpt lat="44.47734" lon="4.35">
        <ele>166.4453125</ele>
        <time>2011-05-27T07:50:06Z</time>
      </trkpt>
      <trkpt lat="44.47742" lon="4.34994">
        <ele>167.8873291</ele>
        <time>2011-05-27T07:50:12Z</time>
      </trkpt>
      <trkpt lat="44.47745" lon="4.34981">
        <ele>168.368042</ele>
        <time>2011-05-27T07:50:18Z</time>
      </trkpt>
      <trkpt lat="44.4774" lon="4.34969">
        <ele>168.368042</ele>
        <time>2011-05-27T07:50:23Z</time>
      </trkpt>
      <trkpt lat="44.47735" lon="4.34956">
        <ele>168.368042</ele>
        <time>2011-05-27T07:50:29Z</time>
      </trkpt>
      <trkpt lat="44.47733" lon="4.34942">
        <ele>170.2906494</ele>
        <time>2011-05-27T07:50:35Z</time>
      </trkpt>
      <trkpt lat="44.47731" lon="4.34928">
        <ele>172.2132568</ele>
        <time>2011-05-27T07:50:42Z</time>
      </trkpt>
      <trkpt lat="44.47735" lon="4.34919">
        <ele>172.2132568</ele>
        <time>2011-05-27T07:51:22Z</time>
      </trkpt>
      <trkpt lat="44.47744" lon="4.34917">
        <ele>174.1358643</ele>
        <time>2011-05-27T07:51:30Z</time>
      </trkpt>
      <trkpt lat="44.47754" lon="4.34917">
        <ele>174.1358643</ele>
        <time>2011-05-27T07:51:37Z</time>
      </trkpt>
      <trkpt lat="44.47764" lon="4.34918">
        <ele>174.6165771</ele>
        <time>2011-05-27T07:51:43Z</time>
      </trkpt>
      <trkpt lat="44.47775" lon="4.34917">
        <ele>177.0200195</ele>
        <time>2011-05-27T07:51:50Z</time>
      </trkpt>
      <trkpt lat="44.47782" lon="4.34909">
        <ele>177.5006104</ele>
        <time>2011-05-27T07:51:55Z</time>
      </trkpt>
      <trkpt lat="44.4779" lon="4.349">
        <ele>177.5006104</ele>
        <time>2011-05-27T07:52:00Z</time>
      </trkpt>
      <trkpt lat="44.47797" lon="4.34889">
        <ele>177.0200195</ele>
        <time>2011-05-27T07:52:05Z</time>
      </trkpt>
      <trkpt lat="44.47803" lon="4.34879">
        <ele>177.5006104</ele>
        <time>2011-05-27T07:52:10Z</time>
      </trkpt>
      <trkpt lat="44.4781" lon="4.3487">
        <ele>177.0200195</ele>
        <time>2011-05-27T07:52:15Z</time>
      </trkpt>
      <trkpt lat="44.47812" lon="4.34869">
        <ele>177.5006104</ele>
        <time>2011-05-27T07:52:30Z</time>
      </trkpt>
      <trkpt lat="44.4781" lon="4.3487">
        <ele>176.0585938</ele>
        <time>2011-05-27T07:59:29Z</time>
      </trkpt>
      <trkpt lat="44.4782" lon="4.34867">
        <ele>177.5006104</ele>
        <time>2011-05-27T07:59:39Z</time>
      </trkpt>
      <trkpt lat="44.4783" lon="4.3487">
        <ele>177.9812012</ele>
        <time>2011-05-27T07:59:47Z</time>
      </trkpt>
      <trkpt lat="44.47839" lon="4.34875">
        <ele>177.9812012</ele>
        <time>2011-05-27T07:59:53Z</time>
      </trkpt>
      <trkpt lat="44.47847" lon="4.34881">
        <ele>177.9812012</ele>
        <time>2011-05-27T07:59:58Z</time>
      </trkpt>
      <trkpt lat="44.47855" lon="4.34892">
        <ele>178.4619141</ele>
        <time>2011-05-27T08:00:04Z</time>
      </trkpt>
      <trkpt lat="44.47863" lon="4.34903">
        <ele>179.9038086</ele>
        <time>2011-05-27T08:00:09Z</time>
      </trkpt>
      <trkpt lat="44.47866" lon="4.34916">
        <ele>181.3458252</ele>
        <time>2011-05-27T08:00:14Z</time>
      </trkpt>
      <trkpt lat="44.47872" lon="4.34929">
        <ele>181.826416</ele>
        <time>2011-05-27T08:00:19Z</time>
      </trkpt>
      <trkpt lat="44.47878" lon="4.34943">
        <ele>181.826416</ele>
        <time>2011-05-27T08:00:24Z</time>
      </trkpt>
      <trkpt lat="44.47884" lon="4.34955">
        <ele>181.826416</ele>
        <time>2011-05-27T08:00:29Z</time>
      </trkpt>
      <trkpt lat="44.4789" lon="4.34967">
        <ele>181.826416</ele>
        <time>2011-05-27T08:00:35Z</time>
      </trkpt>
      <trkpt lat="44.47893" lon="4.34981">
        <ele>180.8652344</ele>
        <time>2011-05-27T08:00:40Z</time>
      </trkpt>
      <trkpt lat="44.47899" lon="4.34995">
        <ele>180.8652344</ele>
        <time>2011-05-27T08:00:45Z</time>
      </trkpt>
      <trkpt lat="44.47902" lon="4.3501">
        <ele>180.8652344</ele>
        <time>2011-05-27T08:00:49Z</time>
      </trkpt>
      <trkpt lat="44.47903" lon="4.35024">
        <ele>181.3458252</ele>
        <time>2011-05-27T08:00:53Z</time>
      </trkpt>
      <trkpt lat="44.47901" lon="4.3504">
        <ele>182.3071289</ele>
        <time>2011-05-27T08:00:58Z</time>
      </trkpt>
      <trkpt lat="44.47899" lon="4.35053">
        <ele>182.7878418</ele>
        <time>2011-05-27T08:01:03Z</time>
      </trkpt>
      <trkpt lat="44.47897" lon="4.35067">
        <ele>184.2298584</ele>
        <time>2011-05-27T08:01:08Z</time>
      </trkpt>
      <trkpt lat="44.47897" lon="4.35081">
        <ele>184.7105713</ele>
        <time>2011-05-27T08:01:13Z</time>
      </trkpt>
      <trkpt lat="44.47897" lon="4.35096">
        <ele>184.7105713</ele>
        <time>2011-05-27T08:01:19Z</time>
      </trkpt>
      <trkpt lat="44.47898" lon="4.35111">
        <ele>185.1911621</ele>
        <time>2011-05-27T08:01:25Z</time>
      </trkpt>
      <trkpt lat="44.47899" lon="4.35125">
        <ele>186.1524658</ele>
        <time>2011-05-27T08:01:31Z</time>
      </trkpt>
      <trkpt lat="44.47904" lon="4.35136">
        <ele>186.1524658</ele>
        <time>2011-05-27T08:01:36Z</time>
      </trkpt>
      <trkpt lat="44.47908" lon="4.35148">
        <ele>186.1524658</ele>
        <time>2011-05-27T08:01:40Z</time>
      </trkpt>
      <trkpt lat="44.47914" lon="4.35159">
        <ele>186.6331787</ele>
        <time>2011-05-27T08:01:44Z</time>
      </trkpt>
      <trkpt lat="44.47922" lon="4.3517">
        <ele>186.1524658</ele>
        <time>2011-05-27T08:01:48Z</time>
      </trkpt>
      <trkpt lat="44.47926" lon="4.35182">
        <ele>186.1524658</ele>
        <time>2011-05-27T08:01:51Z</time>
      </trkpt>
      <trkpt lat="44.47927" lon="4.35193">
        <ele>186.1524658</ele>
        <time>2011-05-27T08:01:54Z</time>
      </trkpt>
      <trkpt lat="44.47929" lon="4.35214">
        <ele>186.1524658</ele>
        <time>2011-05-27T08:01:59Z</time>
      </trkpt>
      <trkpt lat="44.47924" lon="4.35229">
        <ele>185.1911621</ele>
        <time>2011-05-27T08:02:02Z</time>
      </trkpt>
      <trkpt lat="44.47921" lon="4.35242">
        <ele>185.1911621</ele>
        <time>2011-05-27T08:02:05Z</time>
      </trkpt>
      <trkpt lat="44.4792" lon="4.35258">
        <ele>185.1911621</ele>
        <time>2011-05-27T08:02:09Z</time>
      </trkpt>
      <trkpt lat="44.4793" lon="4.3527">
        <ele>185.6717529</ele>
        <time>2011-05-27T08:02:14Z</time>
      </trkpt>
      <trkpt lat="44.47939" lon="4.35276">
        <ele>184.7105713</ele>
        <time>2011-05-27T08:02:17Z</time>
      </trkpt>
      <trkpt lat="44.4795" lon="4.35283">
        <ele>185.6717529</ele>
        <time>2011-05-27T08:02:21Z</time>
      </trkpt>
      <trkpt lat="44.47958" lon="4.3529">
        <ele>186.1524658</ele>
        <time>2011-05-27T08:02:24Z</time>
      </trkpt>
      <trkpt lat="44.47969" lon="4.35298">
        <ele>185.1911621</ele>
        <time>2011-05-27T08:02:27Z</time>
      </trkpt>
      <trkpt lat="44.4798" lon="4.35309">
        <ele>185.6717529</ele>
        <time>2011-05-27T08:02:30Z</time>
      </trkpt>
      <trkpt lat="44.47987" lon="4.35323">
        <ele>185.1911621</ele>
        <time>2011-05-27T08:02:33Z</time>
      </trkpt>
      <trkpt lat="44.47986" lon="4.35336">
        <ele>185.6717529</ele>
        <time>2011-05-27T08:02:36Z</time>
      </trkpt>
      <trkpt lat="44.47987" lon="4.3535">
        <ele>186.6331787</ele>
        <time>2011-05-27T08:02:41Z</time>
      </trkpt>
      <trkpt lat="44.47996" lon="4.35361">
        <ele>185.6717529</ele>
        <time>2011-05-27T08:02:47Z</time>
      </trkpt>
      <trkpt lat="44.48005" lon="4.3537">
        <ele>185.1911621</ele>
        <time>2011-05-27T08:02:50Z</time>
      </trkpt>
      <trkpt lat="44.48015" lon="4.35378">
        <ele>183.7490234</ele>
        <time>2011-05-27T08:02:53Z</time>
      </trkpt>
      <trkpt lat="44.48028" lon="4.3539">
        <ele>183.2684326</ele>
        <time>2011-05-27T08:02:56Z</time>
      </trkpt>
      <trkpt lat="44.48037" lon="4.35398">
        <ele>181.826416</ele>
        <time>2011-05-27T08:02:58Z</time>
      </trkpt>
      <trkpt lat="44.48046" lon="4.35406">
        <ele>180.8652344</ele>
        <time>2011-05-27T08:03:00Z</time>
      </trkpt>
      <trkpt lat="44.48058" lon="4.35414">
        <ele>179.9038086</ele>
        <time>2011-05-27T08:03:02Z</time>
      </trkpt>
      <trkpt lat="44.48071" lon="4.35426">
        <ele>178.942627</ele>
        <time>2011-05-27T08:03:04Z</time>
      </trkpt>
      <trkpt lat="44.48082" lon="4.35441">
        <ele>176.0585938</ele>
        <time>2011-05-27T08:03:06Z</time>
      </trkpt>
      <trkpt lat="44.48094" lon="4.35455">
        <ele>174.1358643</ele>
        <time>2011-05-27T08:03:08Z</time>
      </trkpt>
      <trkpt lat="44.48103" lon="4.35466">
        <ele>172.2132568</ele>
        <time>2011-05-27T08:03:10Z</time>
      </trkpt>
      <trkpt lat="44.48111" lon="4.35474">
        <ele>171.732666</ele>
        <time>2011-05-27T08:03:12Z</time>
      </trkpt>
      <trkpt lat="44.4812" lon="4.35471">
        <ele>172.2132568</ele>
        <time>2011-05-27T08:03:16Z</time>
      </trkpt>
      <trkpt lat="44.48126" lon="4.35458">
        <ele>175.09729</ele>
        <time>2011-05-27T08:03:22Z</time>
      </trkpt>
      <trkpt lat="44.48133" lon="4.35447">
        <ele>177.0200195</ele>
        <time>2011-05-27T08:03:28Z</time>
      </trkpt>
      <trkpt lat="44.4814" lon="4.35436">
        <ele>178.4619141</ele>
        <time>2011-05-27T08:03:34Z</time>
      </trkpt>
      <trkpt lat="44.48148" lon="4.35424">
        <ele>179.9038086</ele>
        <time>2011-05-27T08:03:40Z</time>
      </trkpt>
      <trkpt lat="44.48155" lon="4.35414">
        <ele>180.3845215</ele>
        <time>2011-05-27T08:03:45Z</time>
      </trkpt>
      <trkpt lat="44.48162" lon="4.35402">
        <ele>181.826416</ele>
        <time>2011-05-27T08:03:50Z</time>
      </trkpt>
      <trkpt lat="44.4817" lon="4.35392">
        <ele>182.3071289</ele>
        <time>2011-05-27T08:03:54Z</time>
      </trkpt>
      <trkpt lat="44.48178" lon="4.35382">
        <ele>182.3071289</ele>
        <time>2011-05-27T08:03:58Z</time>
      </trkpt>
      <trkpt lat="44.48187" lon="4.35371">
        <ele>182.7878418</ele>
        <time>2011-05-27T08:04:02Z</time>
      </trkpt>
      <trkpt lat="44.48196" lon="4.3536">
        <ele>182.7878418</ele>
        <time>2011-05-27T08:04:06Z</time>
      </trkpt>
      <trkpt lat="44.48205" lon="4.35349">
        <ele>183.7490234</ele>
        <time>2011-05-27T08:04:10Z</time>
      </trkpt>
      <trkpt lat="44.48215" lon="4.35345">
        <ele>183.7490234</ele>
        <time>2011-05-27T08:04:14Z</time>
      </trkpt>
      <trkpt lat="44.48227" lon="4.35352">
        <ele>184.2298584</ele>
        <time>2011-05-27T08:04:18Z</time>
      </trkpt>
      <trkpt lat="44.48236" lon="4.35356">
        <ele>183.7490234</ele>
        <time>2011-05-27T08:04:21Z</time>
      </trkpt>
      <trkpt lat="44.48246" lon="4.35359">
        <ele>184.7105713</ele>
        <time>2011-05-27T08:04:24Z</time>
      </trkpt>
      <trkpt lat="44.48256" lon="4.35359">
        <ele>184.7105713</ele>
        <time>2011-05-27T08:04:27Z</time>
      </trkpt>
      <trkpt lat="44.48269" lon="4.35355">
        <ele>185.1911621</ele>
        <time>2011-05-27T08:04:31Z</time>
      </trkpt>
      <trkpt lat="44.48279" lon="4.3535">
        <ele>186.1524658</ele>
        <time>2011-05-27T08:04:35Z</time>
      </trkpt>
      <trkpt lat="44.48289" lon="4.35346">
        <ele>187.1137695</ele>
        <time>2011-05-27T08:04:39Z</time>
      </trkpt>
      <trkpt lat="44.48299" lon="4.35341">
        <ele>188.5557861</ele>
        <time>2011-05-27T08:04:43Z</time>
      </trkpt>
      <trkpt lat="44.48309" lon="4.35336">
        <ele>190.4783936</ele>
        <time>2011-05-27T08:04:47Z</time>
      </trkpt>
      <trkpt lat="44.48319" lon="4.35331">
        <ele>191.9202881</ele>
        <time>2011-05-27T08:04:51Z</time>
      </trkpt>
      <trkpt lat="44.48329" lon="4.35327">
        <ele>193.3623047</ele>
        <time>2011-05-27T08:04:55Z</time>
      </trkpt>
      <trkpt lat="44.48341" lon="4.35324">
        <ele>193.8430176</ele>
        <time>2011-05-27T08:04:59Z</time>
      </trkpt>
      <trkpt lat="44.48352" lon="4.35323">
        <ele>194.8043213</ele>
        <time>2011-05-27T08:05:03Z</time>
      </trkpt>
      <trkpt lat="44.48362" lon="4.35325">
        <ele>194.3237305</ele>
        <time>2011-05-27T08:05:06Z</time>
      </trkpt>
      <trkpt lat="44.48373" lon="4.3533">
        <ele>193.8430176</ele>
        <time>2011-05-27T08:05:09Z</time>
      </trkpt>
      <trkpt lat="44.48384" lon="4.35336">
        <ele>192.8817139</ele>
        <time>2011-05-27T08:05:12Z</time>
      </trkpt>
      <trkpt lat="44.48395" lon="4.35343">
        <ele>193.3623047</ele>
        <time>2011-05-27T08:05:15Z</time>
      </trkpt>
      <trkpt lat="44.48405" lon="4.35348">
        <ele>193.8430176</ele>
        <time>2011-05-27T08:05:18Z</time>
      </trkpt>
      <trkpt lat="44.48416" lon="4.35353">
        <ele>193.8430176</ele>
        <time>2011-05-27T08:05:21Z</time>
      </trkpt>
      <trkpt lat="44.48427" lon="4.35353">
        <ele>193.8430176</ele>
        <time>2011-05-27T08:05:24Z</time>
      </trkpt>
      <trkpt lat="44.48435" lon="4.35346">
        <ele>195.2849121</ele>
        <time>2011-05-27T08:05:27Z</time>
      </trkpt>
      <trkpt lat="44.4844" lon="4.35334">
        <ele>196.7269287</ele>
        <time>2011-05-27T08:05:31Z</time>
      </trkpt>
      <trkpt lat="44.48444" lon="4.35322">
        <ele>196.7269287</ele>
        <time>2011-05-27T08:05:35Z</time>
      </trkpt>
      <trkpt lat="44.48452" lon="4.35311">
        <ele>197.2075195</ele>
        <time>2011-05-27T08:05:40Z</time>
      </trkpt>
      <trkpt lat="44.48462" lon="4.3531">
        <ele>198.1689453</ele>
        <time>2011-05-27T08:05:44Z</time>
      </trkpt>
      <trkpt lat="44.48474" lon="4.35312">
        <ele>198.6495361</ele>
        <time>2011-05-27T08:05:48Z</time>
      </trkpt>
      <trkpt lat="44.48483" lon="4.35316">
        <ele>198.6495361</ele>
        <time>2011-05-27T08:05:51Z</time>
      </trkpt>
      <trkpt lat="44.48492" lon="4.35323">
        <ele>198.1689453</ele>
        <time>2011-05-27T08:05:54Z</time>
      </trkpt>
      <trkpt lat="44.485" lon="4.35334">
        <ele>198.6495361</ele>
        <time>2011-05-27T08:05:57Z</time>
      </trkpt>
      <trkpt lat="44.48504" lon="4.35348">
        <ele>198.6495361</ele>
        <time>2011-05-27T08:06:00Z</time>
      </trkpt>
      <trkpt lat="44.48509" lon="4.35362">
        <ele>198.1689453</ele>
        <time>2011-05-27T08:06:03Z</time>
      </trkpt>
      <trkpt lat="44.48516" lon="4.35371">
        <ele>198.6495361</ele>
        <time>2011-05-27T08:06:06Z</time>
      </trkpt>
      <trkpt lat="44.48522" lon="4.35381">
        <ele>199.130127</ele>
        <time>2011-05-27T08:06:10Z</time>
      </trkpt>
      <trkpt lat="44.4853" lon="4.35381">
        <ele>199.6108398</ele>
        <time>2011-05-27T08:06:16Z</time>
      </trkpt>
      <trkpt lat="44.48534" lon="4.35368">
        <ele>200.0916748</ele>
        <time>2011-05-27T08:06:20Z</time>
      </trkpt>
      <trkpt lat="44.4854" lon="4.35357">
        <ele>199.6108398</ele>
        <time>2011-05-27T08:06:23Z</time>
      </trkpt>
      <trkpt lat="44.48546" lon="4.35347">
        <ele>199.6108398</ele>
        <time>2011-05-27T08:06:26Z</time>
      </trkpt>
      <trkpt lat="44.48552" lon="4.35335">
        <ele>199.6108398</ele>
        <time>2011-05-27T08:06:29Z</time>
      </trkpt>
      <trkpt lat="44.48561" lon="4.35325">
        <ele>199.6108398</ele>
        <time>2011-05-27T08:06:32Z</time>
      </trkpt>
      <trkpt lat="44.4857" lon="4.35317">
        <ele>200.0916748</ele>
        <time>2011-05-27T08:06:35Z</time>
      </trkpt>
      <trkpt lat="44.48579" lon="4.35309">
        <ele>200.0916748</ele>
        <time>2011-05-27T08:06:38Z</time>
      </trkpt>
      <trkpt lat="44.48587" lon="4.353">
        <ele>200.5722656</ele>
        <time>2011-05-27T08:06:41Z</time>
      </trkpt>
      <trkpt lat="44.48593" lon="4.35287">
        <ele>201.5335693</ele>
        <time>2011-05-27T08:06:45Z</time>
      </trkpt>
      <trkpt lat="44.48599" lon="4.35274">
        <ele>202.0142822</ele>
        <time>2011-05-27T08:06:49Z</time>
      </trkpt>
      <trkpt lat="44.48604" lon="4.35261">
        <ele>202.9754639</ele>
        <time>2011-05-27T08:06:53Z</time>
      </trkpt>
      <trkpt lat="44.4861" lon="4.35249">
        <ele>204.4174805</ele>
        <time>2011-05-27T08:06:57Z</time>
      </trkpt>
      <trkpt lat="44.48616" lon="4.35238">
        <ele>205.8594971</ele>
        <time>2011-05-27T08:07:01Z</time>
      </trkpt>
      <trkpt lat="44.48621" lon="4.35226">
        <ele>206.8206787</ele>
        <time>2011-05-27T08:07:05Z</time>
      </trkpt>
      <trkpt lat="44.48625" lon="4.35215">
        <ele>208.2628174</ele>
        <time>2011-05-27T08:07:09Z</time>
      </trkpt>
      <trkpt lat="44.4863" lon="4.35203">
        <ele>209.2241211</ele>
        <time>2011-05-27T08:07:13Z</time>
      </trkpt>
      <trkpt lat="44.48633" lon="4.3519">
        <ele>210.1854248</ele>
        <time>2011-05-27T08:07:17Z</time>
      </trkpt>
      <trkpt lat="44.48636" lon="4.35176">
        <ele>210.6660156</ele>
        <time>2011-05-27T08:07:21Z</time>
      </trkpt>
      <trkpt lat="44.48636" lon="4.35163">
        <ele>212.588623</ele>
        <time>2011-05-27T08:07:25Z</time>
      </trkpt>
      <trkpt lat="44.48636" lon="4.35149">
        <ele>214.0306396</ele>
        <time>2011-05-27T08:07:30Z</time>
      </trkpt>
      <trkpt lat="44.48637" lon="4.35135">
        <ele>215.9532471</ele>
        <time>2011-05-27T08:07:36Z</time>
      </trkpt>
      <trkpt lat="44.48639" lon="4.35122">
        <ele>215.9532471</ele>
        <time>2011-05-27T08:07:41Z</time>
      </trkpt>
      <trkpt lat="44.48643" lon="4.35109">
        <ele>217.3953857</ele>
        <time>2011-05-27T08:07:47Z</time>
      </trkpt>
      <trkpt lat="44.48648" lon="4.35095">
        <ele>218.3565674</ele>
        <time>2011-05-27T08:07:53Z</time>
      </trkpt>
      <trkpt lat="44.48652" lon="4.35082">
        <ele>219.3179932</ele>
        <time>2011-05-27T08:07:59Z</time>
      </trkpt>
      <trkpt lat="44.48655" lon="4.35069">
        <ele>220.2791748</ele>
        <time>2011-05-27T08:08:04Z</time>
      </trkpt>
      <trkpt lat="44.48658" lon="4.35055">
        <ele>220.7598877</ele>
        <time>2011-05-27T08:08:09Z</time>
      </trkpt>
      <trkpt lat="44.48661" lon="4.35041">
        <ele>220.2791748</ele>
        <time>2011-05-27T08:08:13Z</time>
      </trkpt>
      <trkpt lat="44.48666" lon="4.35028">
        <ele>220.2791748</ele>
        <time>2011-05-27T08:08:17Z</time>
      </trkpt>
      <trkpt lat="44.4867" lon="4.35014">
        <ele>220.2791748</ele>
        <time>2011-05-27T08:08:21Z</time>
      </trkpt>
      <trkpt lat="44.48675" lon="4.35">
        <ele>219.3179932</ele>
        <time>2011-05-27T08:08:25Z</time>
      </trkpt>
      <trkpt lat="44.4868" lon="4.34987">
        <ele>219.3179932</ele>
        <time>2011-05-27T08:08:28Z</time>
      </trkpt>
      <trkpt lat="44.48685" lon="4.34973">
        <ele>218.8372803</ele>
        <time>2011-05-27T08:08:31Z</time>
      </trkpt>
      <trkpt lat="44.48691" lon="4.3496">
        <ele>218.3565674</ele>
        <time>2011-05-27T08:08:34Z</time>
      </trkpt>
      <trkpt lat="44.48697" lon="4.34948">
        <ele>219.3179932</ele>
        <time>2011-05-27T08:08:37Z</time>
      </trkpt>
      <trkpt lat="44.48704" lon="4.34938">
        <ele>219.3179932</ele>
        <time>2011-05-27T08:08:40Z</time>
      </trkpt>
      <trkpt lat="44.48711" lon="4.34929">
        <ele>219.798584</ele>
        <time>2011-05-27T08:08:43Z</time>
      </trkpt>
      <trkpt lat="44.4872" lon="4.3492">
        <ele>221.2406006</ele>
        <time>2011-05-27T08:08:47Z</time>
      </trkpt>
      <trkpt lat="44.48731" lon="4.34911">
        <ele>221.2406006</ele>
        <time>2011-05-27T08:08:51Z</time>
      </trkpt>
      <trkpt lat="44.48739" lon="4.34904">
        <ele>220.7598877</ele>
        <time>2011-05-27T08:08:54Z</time>
      </trkpt>
      <trkpt lat="44.48746" lon="4.34894">
        <ele>221.2406006</ele>
        <time>2011-05-27T08:08:57Z</time>
      </trkpt>
      <trkpt lat="44.48752" lon="4.34883">
        <ele>220.2791748</ele>
        <time>2011-05-27T08:09:00Z</time>
      </trkpt>
      <trkpt lat="44.48758" lon="4.34865">
        <ele>218.3565674</ele>
        <time>2011-05-27T08:09:03Z</time>
      </trkpt>
      <trkpt lat="44.48763" lon="4.3485">
        <ele>217.3953857</ele>
        <time>2011-05-27T08:09:05Z</time>
      </trkpt>
      <trkpt lat="44.48768" lon="4.34835">
        <ele>217.3953857</ele>
        <time>2011-05-27T08:09:07Z</time>
      </trkpt>
      <trkpt lat="44.48774" lon="4.3482">
        <ele>216.43396</ele>
        <time>2011-05-27T08:09:09Z</time>
      </trkpt>
      <trkpt lat="44.48779" lon="4.34804">
        <ele>215.9532471</ele>
        <time>2011-05-27T08:09:11Z</time>
      </trkpt>
      <trkpt lat="44.48783" lon="4.34788">
        <ele>215.9532471</ele>
        <time>2011-05-27T08:09:13Z</time>
      </trkpt>
      <trkpt lat="44.48786" lon="4.34773">
        <ele>214.9919434</ele>
        <time>2011-05-27T08:09:15Z</time>
      </trkpt>
      <trkpt lat="44.4879" lon="4.34758">
        <ele>213.5500488</ele>
        <time>2011-05-27T08:09:17Z</time>
      </trkpt>
      <trkpt lat="44.48795" lon="4.34744">
        <ele>214.0306396</ele>
        <time>2011-05-27T08:09:19Z</time>
      </trkpt>
      <trkpt lat="44.488" lon="4.3473">
        <ele>213.5500488</ele>
        <time>2011-05-27T08:09:21Z</time>
      </trkpt>
      <trkpt lat="44.48805" lon="4.34717">
        <ele>214.9919434</ele>
        <time>2011-05-27T08:09:23Z</time>
      </trkpt>
      <trkpt lat="44.48808" lon="4.34705">
        <ele>215.9532471</ele>
        <time>2011-05-27T08:09:25Z</time>
      </trkpt>
      <trkpt lat="44.48815" lon="4.3469">
        <ele>216.9146729</ele>
        <time>2011-05-27T08:09:28Z</time>
      </trkpt>
      <trkpt lat="44.48825" lon="4.34678">
        <ele>216.9146729</ele>
        <time>2011-05-27T08:09:31Z</time>
      </trkpt>
      <trkpt lat="44.48835" lon="4.34666">
        <ele>215.9532471</ele>
        <time>2011-05-27T08:09:34Z</time>
      </trkpt>
      <trkpt lat="44.48846" lon="4.34656">
        <ele>215.9532471</ele>
        <time>2011-05-27T08:09:37Z</time>
      </trkpt>
      <trkpt lat="44.48852" lon="4.34646">
        <ele>215.9532471</ele>
        <time>2011-05-27T08:09:39Z</time>
      </trkpt>
      <trkpt lat="44.48858" lon="4.34635">
        <ele>215.4726563</ele>
        <time>2011-05-27T08:09:41Z</time>
      </trkpt>
      <trkpt lat="44.48864" lon="4.34625">
        <ele>215.9532471</ele>
        <time>2011-05-27T08:09:43Z</time>
      </trkpt>
      <trkpt lat="44.48871" lon="4.34614">
        <ele>215.4726563</ele>
        <time>2011-05-27T08:09:45Z</time>
      </trkpt>
      <trkpt lat="44.48876" lon="4.34603">
        <ele>215.9532471</ele>
        <time>2011-05-27T08:09:47Z</time>
      </trkpt>
      <trkpt lat="44.48883" lon="4.34587">
        <ele>216.43396</ele>
        <time>2011-05-27T08:09:50Z</time>
      </trkpt>
      <trkpt lat="44.4889" lon="4.34571">
        <ele>216.43396</ele>
        <time>2011-05-27T08:09:53Z</time>
      </trkpt>
      <trkpt lat="44.48896" lon="4.34557">
        <ele>216.9146729</ele>
        <time>2011-05-27T08:09:56Z</time>
      </trkpt>
      <trkpt lat="44.48905" lon="4.34544">
        <ele>217.3953857</ele>
        <time>2011-05-27T08:09:59Z</time>
      </trkpt>
      <trkpt lat="44.48916" lon="4.34534">
        <ele>216.9146729</ele>
        <time>2011-05-27T08:10:02Z</time>
      </trkpt>
      <trkpt lat="44.48927" lon="4.34523">
        <ele>217.3953857</ele>
        <time>2011-05-27T08:10:05Z</time>
      </trkpt>
      <trkpt lat="44.48937" lon="4.34516">
        <ele>217.3953857</ele>
        <time>2011-05-27T08:10:08Z</time>
      </trkpt>
      <trkpt lat="44.48948" lon="4.34513">
        <ele>218.3565674</ele>
        <time>2011-05-27T08:10:12Z</time>
      </trkpt>
      <trkpt lat="44.48957" lon="4.34505">
        <ele>218.3565674</ele>
        <time>2011-05-27T08:10:16Z</time>
      </trkpt>
      <trkpt lat="44.48963" lon="4.34491">
        <ele>218.8372803</ele>
        <time>2011-05-27T08:10:20Z</time>
      </trkpt>
      <trkpt lat="44.48965" lon="4.34475">
        <ele>219.3179932</ele>
        <time>2011-05-27T08:10:24Z</time>
      </trkpt>
      <trkpt lat="44.48968" lon="4.3446">
        <ele>220.2791748</ele>
        <time>2011-05-27T08:10:29Z</time>
      </trkpt>
      <trkpt lat="44.48971" lon="4.34445">
        <ele>221.2406006</ele>
        <time>2011-05-27T08:10:34Z</time>
      </trkpt>
      <trkpt lat="44.48974" lon="4.34432">
        <ele>221.2406006</ele>
        <time>2011-05-27T08:10:38Z</time>
      </trkpt>
      <trkpt lat="44.48978" lon="4.3442">
        <ele>220.7598877</ele>
        <time>2011-05-27T08:10:42Z</time>
      </trkpt>
      <trkpt lat="44.48983" lon="4.34405">
        <ele>221.7211914</ele>
        <time>2011-05-27T08:10:46Z</time>
      </trkpt>
      <trkpt lat="44.48986" lon="4.3439">
        <ele>221.7211914</ele>
        <time>2011-05-27T08:10:50Z</time>
      </trkpt>
      <trkpt lat="44.48987" lon="4.34376">
        <ele>222.2017822</ele>
        <time>2011-05-27T08:10:54Z</time>
      </trkpt>
      <trkpt lat="44.48989" lon="4.34363">
        <ele>223.163208</ele>
        <time>2011-05-27T08:10:58Z</time>
      </trkpt>
      <trkpt lat="44.48993" lon="4.34349">
        <ele>223.6437988</ele>
        <time>2011-05-27T08:11:02Z</time>
      </trkpt>
      <trkpt lat="44.48997" lon="4.34338">
        <ele>225.0859375</ele>
        <time>2011-05-27T08:11:06Z</time>
      </trkpt>
      <trkpt lat="44.48998" lon="4.34322">
        <ele>226.0471191</ele>
        <time>2011-05-27T08:11:10Z</time>
      </trkpt>
      <trkpt lat="44.49" lon="4.34305">
        <ele>226.0471191</ele>
        <time>2011-05-27T08:11:14Z</time>
      </trkpt>
      <trkpt lat="44.49001" lon="4.34288">
        <ele>226.527832</ele>
        <time>2011-05-27T08:11:18Z</time>
      </trkpt>
      <trkpt lat="44.49003" lon="4.34275">
        <ele>227.0085449</ele>
        <time>2011-05-27T08:11:21Z</time>
      </trkpt>
      <trkpt lat="44.49006" lon="4.34263">
        <ele>227.0085449</ele>
        <time>2011-05-27T08:11:24Z</time>
      </trkpt>
      <trkpt lat="44.4901" lon="4.34249">
        <ele>227.4891357</ele>
        <time>2011-05-27T08:11:28Z</time>
      </trkpt>
      <trkpt lat="44.49016" lon="4.34237">
        <ele>227.0085449</ele>
        <time>2011-05-27T08:11:32Z</time>
      </trkpt>
      <trkpt lat="44.49021" lon="4.34226">
        <ele>227.9697266</ele>
        <time>2011-05-27T08:11:35Z</time>
      </trkpt>
      <trkpt lat="44.49029" lon="4.34213">
        <ele>227.4891357</ele>
        <time>2011-05-27T08:11:39Z</time>
      </trkpt>
      <trkpt lat="44.49035" lon="4.34203">
        <ele>228.4504395</ele>
        <time>2011-05-27T08:11:43Z</time>
      </trkpt>
      <trkpt lat="44.49042" lon="4.34192">
        <ele>229.892334</ele>
        <time>2011-05-27T08:11:48Z</time>
      </trkpt>
      <trkpt lat="44.49048" lon="4.34182">
        <ele>230.3730469</ele>
        <time>2011-05-27T08:11:53Z</time>
      </trkpt>
      <trkpt lat="44.49054" lon="4.34172">
        <ele>230.3730469</ele>
        <time>2011-05-27T08:11:57Z</time>
      </trkpt>
      <trkpt lat="44.4906" lon="4.34161">
        <ele>230.8537598</ele>
        <time>2011-05-27T08:12:01Z</time>
      </trkpt>
      <trkpt lat="44.49066" lon="4.3415">
        <ele>231.3343506</ele>
        <time>2011-05-27T08:12:05Z</time>
      </trkpt>
      <trkpt lat="44.49072" lon="4.34138">
        <ele>231.8149414</ele>
        <time>2011-05-27T08:12:10Z</time>
      </trkpt>
      <trkpt lat="44.49077" lon="4.34128">
        <ele>232.2957764</ele>
        <time>2011-05-27T08:12:15Z</time>
      </trkpt>
      <trkpt lat="44.49083" lon="4.34116">
        <ele>232.7764893</ele>
        <time>2011-05-27T08:12:20Z</time>
      </trkpt>
      <trkpt lat="44.49089" lon="4.34105">
        <ele>231.8149414</ele>
        <time>2011-05-27T08:12:24Z</time>
      </trkpt>
      <trkpt lat="44.49097" lon="4.34092">
        <ele>230.8537598</ele>
        <time>2011-05-27T08:12:27Z</time>
      </trkpt>
      <trkpt lat="44.49102" lon="4.34081">
        <ele>230.8537598</ele>
        <time>2011-05-27T08:12:29Z</time>
      </trkpt>
      <trkpt lat="44.49107" lon="4.34068">
        <ele>229.892334</ele>
        <time>2011-05-27T08:12:31Z</time>
      </trkpt>
      <trkpt lat="44.49111" lon="4.34054">
        <ele>229.4117432</ele>
        <time>2011-05-27T08:12:33Z</time>
      </trkpt>
      <trkpt lat="44.49111" lon="4.34039">
        <ele>228.9311523</ele>
        <time>2011-05-27T08:12:35Z</time>
      </trkpt>
      <trkpt lat="44.49111" lon="4.34025">
        <ele>228.4504395</ele>
        <time>2011-05-27T08:12:37Z</time>
      </trkpt>
      <trkpt lat="44.4911" lon="4.34012">
        <ele>226.527832</ele>
        <time>2011-05-27T08:12:39Z</time>
      </trkpt>
      <trkpt lat="44.49108" lon="4.33999">
        <ele>226.527832</ele>
        <time>2011-05-27T08:12:41Z</time>
      </trkpt>
      <trkpt lat="44.49109" lon="4.33985">
        <ele>225.0859375</ele>
        <time>2011-05-27T08:12:43Z</time>
      </trkpt>
      <trkpt lat="44.49109" lon="4.33971">
        <ele>224.6052246</ele>
        <time>2011-05-27T08:12:45Z</time>
      </trkpt>
      <trkpt lat="44.4911" lon="4.33957">
        <ele>223.6437988</ele>
        <time>2011-05-27T08:12:47Z</time>
      </trkpt>
      <trkpt lat="44.49114" lon="4.33943">
        <ele>223.6437988</ele>
        <time>2011-05-27T08:12:49Z</time>
      </trkpt>
      <trkpt lat="44.49117" lon="4.33929">
        <ele>222.2017822</ele>
        <time>2011-05-27T08:12:51Z</time>
      </trkpt>
      <trkpt lat="44.4912" lon="4.33916">
        <ele>221.2406006</ele>
        <time>2011-05-27T08:12:53Z</time>
      </trkpt>
      <trkpt lat="44.49122" lon="4.33901">
        <ele>220.7598877</ele>
        <time>2011-05-27T08:12:55Z</time>
      </trkpt>
      <trkpt lat="44.49124" lon="4.33885">
        <ele>220.2791748</ele>
        <time>2011-05-27T08:12:57Z</time>
      </trkpt>
      <trkpt lat="44.49127" lon="4.33867">
        <ele>218.3565674</ele>
        <time>2011-05-27T08:12:59Z</time>
      </trkpt>
      <trkpt lat="44.4913" lon="4.33849">
        <ele>216.43396</ele>
        <time>2011-05-27T08:13:01Z</time>
      </trkpt>
      <trkpt lat="44.49135" lon="4.33833">
        <ele>215.9532471</ele>
        <time>2011-05-27T08:13:03Z</time>
      </trkpt>
      <trkpt lat="44.49139" lon="4.33818">
        <ele>215.4726563</ele>
        <time>2011-05-27T08:13:06Z</time>
      </trkpt>
      <trkpt lat="44.4915" lon="4.3382">
        <ele>215.9532471</ele>
        <time>2011-05-27T08:13:10Z</time>
      </trkpt>
      <trkpt lat="44.4916" lon="4.33819">
        <ele>215.9532471</ele>
        <time>2011-05-27T08:13:14Z</time>
      </trkpt>
      <trkpt lat="44.49169" lon="4.33822">
        <ele>215.4726563</ele>
        <time>2011-05-27T08:13:17Z</time>
      </trkpt>
      <trkpt lat="44.49177" lon="4.33829">
        <ele>215.4726563</ele>
        <time>2011-05-27T08:13:20Z</time>
      </trkpt>
      <trkpt lat="44.49187" lon="4.33835">
        <ele>214.9919434</ele>
        <time>2011-05-27T08:13:23Z</time>
      </trkpt>
      <trkpt lat="44.49197" lon="4.33841">
        <ele>214.9919434</ele>
        <time>2011-05-27T08:13:26Z</time>
      </trkpt>
      <trkpt lat="44.49206" lon="4.33844">
        <ele>215.4726563</ele>
        <time>2011-05-27T08:13:29Z</time>
      </trkpt>
      <trkpt lat="44.49211" lon="4.3383">
        <ele>216.9146729</ele>
        <time>2011-05-27T08:13:33Z</time>
      </trkpt>
      <trkpt lat="44.49212" lon="4.33816">
        <ele>217.3953857</ele>
        <time>2011-05-27T08:13:37Z</time>
      </trkpt>
      <trkpt lat="44.49211" lon="4.33801">
        <ele>218.3565674</ele>
        <time>2011-05-27T08:13:43Z</time>
      </trkpt>
      <trkpt lat="44.49211" lon="4.33788">
        <ele>219.3179932</ele>
        <time>2011-05-27T08:13:47Z</time>
      </trkpt>
      <trkpt lat="44.4921" lon="4.33773">
        <ele>219.3179932</ele>
        <time>2011-05-27T08:13:51Z</time>
      </trkpt>
      <trkpt lat="44.49208" lon="4.33761">
        <ele>220.2791748</ele>
        <time>2011-05-27T08:13:54Z</time>
      </trkpt>
      <trkpt lat="44.49206" lon="4.33747">
        <ele>220.2791748</ele>
        <time>2011-05-27T08:13:57Z</time>
      </trkpt>
      <trkpt lat="44.49205" lon="4.33733">
        <ele>221.2406006</ele>
        <time>2011-05-27T08:14:00Z</time>
      </trkpt>
      <trkpt lat="44.49205" lon="4.33719">
        <ele>221.2406006</ele>
        <time>2011-05-27T08:14:03Z</time>
      </trkpt>
      <trkpt lat="44.49206" lon="4.33704">
        <ele>221.2406006</ele>
        <time>2011-05-27T08:14:06Z</time>
      </trkpt>
      <trkpt lat="44.49207" lon="4.33688">
        <ele>221.7211914</ele>
        <time>2011-05-27T08:14:09Z</time>
      </trkpt>
      <trkpt lat="44.4921" lon="4.33673">
        <ele>221.7211914</ele>
        <time>2011-05-27T08:14:12Z</time>
      </trkpt>
      <trkpt lat="44.49215" lon="4.3366">
        <ele>222.2017822</ele>
        <time>2011-05-27T08:14:15Z</time>
      </trkpt>
      <trkpt lat="44.49224" lon="4.3365">
        <ele>222.2017822</ele>
        <time>2011-05-27T08:14:18Z</time>
      </trkpt>
      <trkpt lat="44.49235" lon="4.33646">
        <ele>221.2406006</ele>
        <time>2011-05-27T08:14:21Z</time>
      </trkpt>
      <trkpt lat="44.49248" lon="4.33646">
        <ele>220.7598877</ele>
        <time>2011-05-27T08:14:24Z</time>
      </trkpt>
      <trkpt lat="44.4926" lon="4.33653">
        <ele>220.7598877</ele>
        <time>2011-05-27T08:14:27Z</time>
      </trkpt>
      <trkpt lat="44.49269" lon="4.3366">
        <ele>219.798584</ele>
        <time>2011-05-27T08:14:29Z</time>
      </trkpt>
      <trkpt lat="44.49277" lon="4.33667">
        <ele>218.3565674</ele>
        <time>2011-05-27T08:14:31Z</time>
      </trkpt>
      <trkpt lat="44.49283" lon="4.33681">
        <ele>218.3565674</ele>
        <time>2011-05-27T08:14:34Z</time>
      </trkpt>
      <trkpt lat="44.4929" lon="4.33691">
        <ele>217.3953857</ele>
        <time>2011-05-27T08:14:37Z</time>
      </trkpt>
      <trkpt lat="44.493" lon="4.33701">
        <ele>217.3953857</ele>
        <time>2011-05-27T08:14:40Z</time>
      </trkpt>
      <trkpt lat="44.49308" lon="4.33712">
        <ele>216.43396</ele>
        <time>2011-05-27T08:14:43Z</time>
      </trkpt>
      <trkpt lat="44.49316" lon="4.33721">
        <ele>216.43396</ele>
        <time>2011-05-27T08:14:46Z</time>
      </trkpt>
      <trkpt lat="44.49325" lon="4.33733">
        <ele>215.9532471</ele>
        <time>2011-05-27T08:14:49Z</time>
      </trkpt>
      <trkpt lat="44.49332" lon="4.33745">
        <ele>216.43396</ele>
        <time>2011-05-27T08:14:52Z</time>
      </trkpt>
      <trkpt lat="44.4934" lon="4.33755">
        <ele>216.43396</ele>
        <time>2011-05-27T08:14:55Z</time>
      </trkpt>
      <trkpt lat="44.49346" lon="4.33768">
        <ele>216.43396</ele>
        <time>2011-05-27T08:14:58Z</time>
      </trkpt>
      <trkpt lat="44.49352" lon="4.33779">
        <ele>216.43396</ele>
        <time>2011-05-27T08:15:01Z</time>
      </trkpt>
      <trkpt lat="44.4935" lon="4.33788">
        <ele>217.8759766</ele>
        <time>2011-05-27T08:15:15Z</time>
      </trkpt>
      <trkpt lat="44.49346" lon="4.33796">
        <ele>221.7211914</ele>
        <time>2011-05-27T08:15:30Z</time>
      </trkpt>
      <trkpt lat="44.49353" lon="4.33806">
        <ele>222.6824951</ele>
        <time>2011-05-27T08:15:40Z</time>
      </trkpt>
      <trkpt lat="44.49362" lon="4.33818">
        <ele>222.6824951</ele>
        <time>2011-05-27T08:15:45Z</time>
      </trkpt>
      <trkpt lat="44.49369" lon="4.33828">
        <ele>222.6824951</ele>
        <time>2011-05-27T08:15:49Z</time>
      </trkpt>
      <trkpt lat="44.49377" lon="4.33839">
        <ele>222.6824951</ele>
        <time>2011-05-27T08:15:53Z</time>
      </trkpt>
      <trkpt lat="44.49386" lon="4.3385">
        <ele>222.2017822</ele>
        <time>2011-05-27T08:15:57Z</time>
      </trkpt>
      <trkpt lat="44.49395" lon="4.33859">
        <ele>222.2017822</ele>
        <time>2011-05-27T08:16:00Z</time>
      </trkpt>
      <trkpt lat="44.49404" lon="4.33867">
        <ele>221.7211914</ele>
        <time>2011-05-27T08:16:03Z</time>
      </trkpt>
      <trkpt lat="44.49413" lon="4.33876">
        <ele>221.7211914</ele>
        <time>2011-05-27T08:16:07Z</time>
      </trkpt>
      <trkpt lat="44.49426" lon="4.33885">
        <ele>221.7211914</ele>
        <time>2011-05-27T08:16:11Z</time>
      </trkpt>
      <trkpt lat="44.49436" lon="4.33892">
        <ele>221.2406006</ele>
        <time>2011-05-27T08:16:14Z</time>
      </trkpt>
      <trkpt lat="44.49448" lon="4.33899">
        <ele>222.2017822</ele>
        <time>2011-05-27T08:16:18Z</time>
      </trkpt>
      <trkpt lat="44.49461" lon="4.33905">
        <ele>221.7211914</ele>
        <time>2011-05-27T08:16:22Z</time>
      </trkpt>
      <trkpt lat="44.49472" lon="4.33911">
        <ele>221.7211914</ele>
        <time>2011-05-27T08:16:25Z</time>
      </trkpt>
      <trkpt lat="44.49481" lon="4.33918">
        <ele>222.6824951</ele>
        <time>2011-05-27T08:16:28Z</time>
      </trkpt>
      <trkpt lat="44.49491" lon="4.33929">
        <ele>222.6824951</ele>
        <time>2011-05-27T08:16:32Z</time>
      </trkpt>
      <trkpt lat="44.49499" lon="4.33936">
        <ele>223.163208</ele>
        <time>2011-05-27T08:16:35Z</time>
      </trkpt>
      <trkpt lat="44.49508" lon="4.33942">
        <ele>223.6437988</ele>
        <time>2011-05-27T08:16:38Z</time>
      </trkpt>
      <trkpt lat="44.49518" lon="4.33946">
        <ele>223.6437988</ele>
        <time>2011-05-27T08:16:41Z</time>
      </trkpt>
      <trkpt lat="44.49528" lon="4.33949">
        <ele>223.6437988</ele>
        <time>2011-05-27T08:16:44Z</time>
      </trkpt>
      <trkpt lat="44.49538" lon="4.33948">
        <ele>224.6052246</ele>
        <time>2011-05-27T08:16:47Z</time>
      </trkpt>
      <trkpt lat="44.49548" lon="4.33947">
        <ele>224.6052246</ele>
        <time>2011-05-27T08:16:50Z</time>
      </trkpt>
      <trkpt lat="44.4956" lon="4.33944">
        <ele>225.5665283</ele>
        <time>2011-05-27T08:16:54Z</time>
      </trkpt>
      <trkpt lat="44.49571" lon="4.33949">
        <ele>226.0471191</ele>
        <time>2011-05-27T08:16:58Z</time>
      </trkpt>
      <trkpt lat="44.49583" lon="4.33949">
        <ele>226.527832</ele>
        <time>2011-05-27T08:17:02Z</time>
      </trkpt>
      <trkpt lat="44.49593" lon="4.33947">
        <ele>226.527832</ele>
        <time>2011-05-27T08:17:05Z</time>
      </trkpt>
      <trkpt lat="44.49603" lon="4.33945">
        <ele>227.0085449</ele>
        <time>2011-05-27T08:17:08Z</time>
      </trkpt>
      <trkpt lat="44.49612" lon="4.33942">
        <ele>227.4891357</ele>
        <time>2011-05-27T08:17:11Z</time>
      </trkpt>
      <trkpt lat="44.49621" lon="4.33938">
        <ele>227.9697266</ele>
        <time>2011-05-27T08:17:14Z</time>
      </trkpt>
      <trkpt lat="44.49631" lon="4.33939">
        <ele>227.9697266</ele>
        <time>2011-05-27T08:17:17Z</time>
      </trkpt>
      <trkpt lat="44.49641" lon="4.33942">
        <ele>228.4504395</ele>
        <time>2011-05-27T08:17:21Z</time>
      </trkpt>
      <trkpt lat="44.49653" lon="4.33946">
        <ele>228.9311523</ele>
        <time>2011-05-27T08:17:25Z</time>
      </trkpt>
      <trkpt lat="44.49662" lon="4.3395">
        <ele>229.4117432</ele>
        <time>2011-05-27T08:17:28Z</time>
      </trkpt>
      <trkpt lat="44.4967" lon="4.33957">
        <ele>229.892334</ele>
        <time>2011-05-27T08:17:31Z</time>
      </trkpt>
      <trkpt lat="44.49677" lon="4.33964">
        <ele>229.892334</ele>
        <time>2011-05-27T08:17:34Z</time>
      </trkpt>
      <trkpt lat="44.49685" lon="4.33972">
        <ele>230.3730469</ele>
        <time>2011-05-27T08:17:37Z</time>
      </trkpt>
      <trkpt lat="44.49693" lon="4.3398">
        <ele>230.8537598</ele>
        <time>2011-05-27T08:17:40Z</time>
      </trkpt>
      <trkpt lat="44.49703" lon="4.33981">
        <ele>229.892334</ele>
        <time>2011-05-27T08:17:43Z</time>
      </trkpt>
      <trkpt lat="44.49714" lon="4.33981">
        <ele>230.3730469</ele>
        <time>2011-05-27T08:17:46Z</time>
      </trkpt>
      <trkpt lat="44.49725" lon="4.33986">
        <ele>230.3730469</ele>
        <time>2011-05-27T08:17:49Z</time>
      </trkpt>
      <trkpt lat="44.49737" lon="4.33989">
        <ele>230.3730469</ele>
        <time>2011-05-27T08:17:52Z</time>
      </trkpt>
      <trkpt lat="44.49748" lon="4.33996">
        <ele>231.3343506</ele>
        <time>2011-05-27T08:17:55Z</time>
      </trkpt>
      <trkpt lat="44.4976" lon="4.33998">
        <ele>230.3730469</ele>
        <time>2011-05-27T08:17:58Z</time>
      </trkpt>
      <trkpt lat="44.49771" lon="4.33992">
        <ele>230.3730469</ele>
        <time>2011-05-27T08:18:01Z</time>
      </trkpt>
      <trkpt lat="44.49783" lon="4.33988">
        <ele>230.3730469</ele>
        <time>2011-05-27T08:18:04Z</time>
      </trkpt>
      <trkpt lat="44.49796" lon="4.33988">
        <ele>230.3730469</ele>
        <time>2011-05-27T08:18:07Z</time>
      </trkpt>
      <trkpt lat="44.49808" lon="4.3399">
        <ele>230.8537598</ele>
        <time>2011-05-27T08:18:10Z</time>
      </trkpt>
      <trkpt lat="44.49819" lon="4.33984">
        <ele>231.8149414</ele>
        <time>2011-05-27T08:18:14Z</time>
      </trkpt>
      <trkpt lat="44.4983" lon="4.33977">
        <ele>232.2957764</ele>
        <time>2011-05-27T08:18:18Z</time>
      </trkpt>
      <trkpt lat="44.4984" lon="4.33969">
        <ele>233.2570801</ele>
        <time>2011-05-27T08:18:22Z</time>
      </trkpt>
      <trkpt lat="44.4985" lon="4.33961">
        <ele>233.7376709</ele>
        <time>2011-05-27T08:18:26Z</time>
      </trkpt>
      <trkpt lat="44.49857" lon="4.3395">
        <ele>234.2183838</ele>
        <time>2011-05-27T08:18:30Z</time>
      </trkpt>
      <trkpt lat="44.49862" lon="4.33939">
        <ele>233.7376709</ele>
        <time>2011-05-27T08:18:33Z</time>
      </trkpt>
      <trkpt lat="44.49868" lon="4.33925">
        <ele>233.7376709</ele>
        <time>2011-05-27T08:18:37Z</time>
      </trkpt>
      <trkpt lat="44.49876" lon="4.33912">
        <ele>233.2570801</ele>
        <time>2011-05-27T08:18:41Z</time>
      </trkpt>
      <trkpt lat="44.49883" lon="4.33905">
        <ele>232.7764893</ele>
        <time>2011-05-27T08:18:44Z</time>
      </trkpt>
      <trkpt lat="44.49892" lon="4.33896">
        <ele>234.2183838</ele>
        <time>2011-05-27T08:18:48Z</time>
      </trkpt>
      <trkpt lat="44.49899" lon="4.33887">
        <ele>233.7376709</ele>
        <time>2011-05-27T08:18:52Z</time>
      </trkpt>
      <trkpt lat="44.49906" lon="4.33873">
        <ele>232.7764893</ele>
        <time>2011-05-27T08:18:56Z</time>
      </trkpt>
      <trkpt lat="44.49912" lon="4.33862">
        <ele>232.7764893</ele>
        <time>2011-05-27T08:18:59Z</time>
      </trkpt>
      <trkpt lat="44.49921" lon="4.33854">
        <ele>233.2570801</ele>
        <time>2011-05-27T08:19:02Z</time>
      </trkpt>
      <trkpt lat="44.49932" lon="4.33851">
        <ele>233.2570801</ele>
        <time>2011-05-27T08:19:05Z</time>
      </trkpt>
      <trkpt lat="44.49942" lon="4.33851">
        <ele>233.7376709</ele>
        <time>2011-05-27T08:19:08Z</time>
      </trkpt>
      <trkpt lat="44.49952" lon="4.33852">
        <ele>232.7764893</ele>
        <time>2011-05-27T08:19:11Z</time>
      </trkpt>
      <trkpt lat="44.49963" lon="4.33853">
        <ele>233.2570801</ele>
        <time>2011-05-27T08:19:14Z</time>
      </trkpt>
      <trkpt lat="44.49975" lon="4.33855">
        <ele>232.2957764</ele>
        <time>2011-05-27T08:19:17Z</time>
      </trkpt>
      <trkpt lat="44.49986" lon="4.33854">
        <ele>231.3343506</ele>
        <time>2011-05-27T08:19:20Z</time>
      </trkpt>
      <trkpt lat="44.49996" lon="4.33854">
        <ele>231.8149414</ele>
        <time>2011-05-27T08:19:24Z</time>
      </trkpt>
      <trkpt lat="44.50006" lon="4.33855">
        <ele>231.8149414</ele>
        <time>2011-05-27T08:19:29Z</time>
      </trkpt>
      <trkpt lat="44.50016" lon="4.33854">
        <ele>231.8149414</ele>
        <time>2011-05-27T08:19:34Z</time>
      </trkpt>
      <trkpt lat="44.50026" lon="4.33852">
        <ele>232.2957764</ele>
        <time>2011-05-27T08:19:39Z</time>
      </trkpt>
      <trkpt lat="44.50036" lon="4.3385">
        <ele>232.7764893</ele>
        <time>2011-05-27T08:19:44Z</time>
      </trkpt>
      <trkpt lat="44.50045" lon="4.33848">
        <ele>233.2570801</ele>
        <time>2011-05-27T08:19:49Z</time>
      </trkpt>
      <trkpt lat="44.50054" lon="4.33846">
        <ele>233.2570801</ele>
        <time>2011-05-27T08:19:54Z</time>
      </trkpt>
      <trkpt lat="44.50064" lon="4.33844">
        <ele>233.7376709</ele>
        <time>2011-05-27T08:19:59Z</time>
      </trkpt>
      <trkpt lat="44.50073" lon="4.33838">
        <ele>234.2183838</ele>
        <time>2011-05-27T08:20:04Z</time>
      </trkpt>
      <trkpt lat="44.50083" lon="4.33834">
        <ele>235.1796875</ele>
        <time>2011-05-27T08:20:09Z</time>
      </trkpt>
      <trkpt lat="44.50092" lon="4.33829">
        <ele>235.6602783</ele>
        <time>2011-05-27T08:20:14Z</time>
      </trkpt>
      <trkpt lat="44.50103" lon="4.33826">
        <ele>237.1022949</ele>
        <time>2011-05-27T08:20:19Z</time>
      </trkpt>
      <trkpt lat="44.50113" lon="4.33822">
        <ele>236.6217041</ele>
        <time>2011-05-27T08:20:24Z</time>
      </trkpt>
      <trkpt lat="44.50122" lon="4.33818">
        <ele>238.5443115</ele>
        <time>2011-05-27T08:20:29Z</time>
      </trkpt>
      <trkpt lat="44.50132" lon="4.33813">
        <ele>239.0249023</ele>
        <time>2011-05-27T08:20:35Z</time>
      </trkpt>
      <trkpt lat="44.50141" lon="4.3381">
        <ele>240.9476318</ele>
        <time>2011-05-27T08:20:40Z</time>
      </trkpt>
      <trkpt lat="44.5015" lon="4.33807">
        <ele>240.9476318</ele>
        <time>2011-05-27T08:20:45Z</time>
      </trkpt>
      <trkpt lat="44.50161" lon="4.33806">
        <ele>241.9089355</ele>
        <time>2011-05-27T08:20:51Z</time>
      </trkpt>
      <trkpt lat="44.5017" lon="4.33802">
        <ele>241.9089355</ele>
        <time>2011-05-27T08:20:56Z</time>
      </trkpt>
      <trkpt lat="44.50178" lon="4.33796">
        <ele>242.3896484</ele>
        <time>2011-05-27T08:21:01Z</time>
      </trkpt>
      <trkpt lat="44.50187" lon="4.3379">
        <ele>242.3896484</ele>
        <time>2011-05-27T08:21:06Z</time>
      </trkpt>
      <trkpt lat="44.50195" lon="4.33785">
        <ele>242.3896484</ele>
        <time>2011-05-27T08:21:11Z</time>
      </trkpt>
      <trkpt lat="44.50204" lon="4.3378">
        <ele>242.8702393</ele>
        <time>2011-05-27T08:21:16Z</time>
      </trkpt>
      <trkpt lat="44.50213" lon="4.33777">
        <ele>242.3896484</ele>
        <time>2011-05-27T08:21:21Z</time>
      </trkpt>
      <trkpt lat="44.50223" lon="4.33771">
        <ele>242.8702393</ele>
        <time>2011-05-27T08:21:27Z</time>
      </trkpt>
      <trkpt lat="44.50232" lon="4.33768">
        <ele>243.831543</ele>
        <time>2011-05-27T08:21:32Z</time>
      </trkpt>
      <trkpt lat="44.50243" lon="4.33765">
        <ele>245.7541504</ele>
        <time>2011-05-27T08:21:38Z</time>
      </trkpt>
      <trkpt lat="44.50252" lon="4.33763">
        <ele>245.7541504</ele>
        <time>2011-05-27T08:21:43Z</time>
      </trkpt>
      <trkpt lat="44.50263" lon="4.33764">
        <ele>246.2348633</ele>
        <time>2011-05-27T08:21:48Z</time>
      </trkpt>
      <trkpt lat="44.50273" lon="4.33767">
        <ele>246.2348633</ele>
        <time>2011-05-27T08:21:53Z</time>
      </trkpt>
      <trkpt lat="44.50282" lon="4.33771">
        <ele>246.7154541</ele>
        <time>2011-05-27T08:21:57Z</time>
      </trkpt>
      <trkpt lat="44.5029" lon="4.33778">
        <ele>247.1960449</ele>
        <time>2011-05-27T08:22:01Z</time>
      </trkpt>
      <trkpt lat="44.50298" lon="4.33786">
        <ele>247.1960449</ele>
        <time>2011-05-27T08:22:05Z</time>
      </trkpt>
      <trkpt lat="44.50307" lon="4.33796">
        <ele>246.7154541</ele>
        <time>2011-05-27T08:22:09Z</time>
      </trkpt>
      <trkpt lat="44.50315" lon="4.33808">
        <ele>246.2348633</ele>
        <time>2011-05-27T08:22:13Z</time>
      </trkpt>
      <trkpt lat="44.50321" lon="4.33819">
        <ele>245.7541504</ele>
        <time>2011-05-27T08:22:16Z</time>
      </trkpt>
      <trkpt lat="44.50326" lon="4.3383">
        <ele>246.2348633</ele>
        <time>2011-05-27T08:22:19Z</time>
      </trkpt>
      <trkpt lat="44.5033" lon="4.33843">
        <ele>246.2348633</ele>
        <time>2011-05-27T08:22:22Z</time>
      </trkpt>
      <trkpt lat="44.50332" lon="4.33856">
        <ele>246.2348633</ele>
        <time>2011-05-27T08:22:25Z</time>
      </trkpt>
      <trkpt lat="44.50336" lon="4.33868">
        <ele>245.7541504</ele>
        <time>2011-05-27T08:22:28Z</time>
      </trkpt>
      <trkpt lat="44.50342" lon="4.33881">
        <ele>246.2348633</ele>
        <time>2011-05-27T08:22:32Z</time>
      </trkpt>
      <trkpt lat="44.50353" lon="4.33889">
        <ele>246.2348633</ele>
        <time>2011-05-27T08:22:36Z</time>
      </trkpt>
      <trkpt lat="44.50362" lon="4.33893">
        <ele>245.7541504</ele>
        <time>2011-05-27T08:22:39Z</time>
      </trkpt>
      <trkpt lat="44.50371" lon="4.33896">
        <ele>245.2734375</ele>
        <time>2011-05-27T08:22:42Z</time>
      </trkpt>
      <trkpt lat="44.50381" lon="4.33899">
        <ele>245.2734375</ele>
        <time>2011-05-27T08:22:45Z</time>
      </trkpt>
      <trkpt lat="44.50391" lon="4.33901">
        <ele>245.2734375</ele>
        <time>2011-05-27T08:22:48Z</time>
      </trkpt>
      <trkpt lat="44.504" lon="4.33904">
        <ele>244.3122559</ele>
        <time>2011-05-27T08:22:51Z</time>
      </trkpt>
      <trkpt lat="44.5041" lon="4.33904">
        <ele>244.3122559</ele>
        <time>2011-05-27T08:22:54Z</time>
      </trkpt>
      <trkpt lat="44.50422" lon="4.33903">
        <ele>243.831543</ele>
        <time>2011-05-27T08:22:57Z</time>
      </trkpt>
      <trkpt lat="44.50434" lon="4.339">
        <ele>243.831543</ele>
        <time>2011-05-27T08:23:00Z</time>
      </trkpt>
      <trkpt lat="44.50445" lon="4.339">
        <ele>244.7928467</ele>
        <time>2011-05-27T08:23:03Z</time>
      </trkpt>
      <trkpt lat="44.50455" lon="4.33898">
        <ele>244.3122559</ele>
        <time>2011-05-27T08:23:06Z</time>
      </trkpt>
      <trkpt lat="44.50465" lon="4.33898">
        <ele>243.3508301</ele>
        <time>2011-05-27T08:23:09Z</time>
      </trkpt>
      <trkpt lat="44.50476" lon="4.33898">
        <ele>242.3896484</ele>
        <time>2011-05-27T08:23:12Z</time>
      </trkpt>
      <trkpt lat="44.50485" lon="4.33895">
        <ele>242.8702393</ele>
        <time>2011-05-27T08:23:15Z</time>
      </trkpt>
      <trkpt lat="44.50492" lon="4.33885">
        <ele>244.3122559</ele>
        <time>2011-05-27T08:23:20Z</time>
      </trkpt>
      <trkpt lat="44.50494" lon="4.33872">
        <ele>245.7541504</ele>
        <time>2011-05-27T08:23:25Z</time>
      </trkpt>
      <trkpt lat="44.50496" lon="4.33859">
        <ele>247.1960449</ele>
        <time>2011-05-27T08:25:31Z</time>
      </trkpt>
      <trkpt lat="44.50503" lon="4.3385">
        <ele>247.6767578</ele>
        <time>2011-05-27T08:25:38Z</time>
      </trkpt>
      <trkpt lat="44.5051" lon="4.33841">
        <ele>249.1187744</ele>
        <time>2011-05-27T08:25:43Z</time>
      </trkpt>
      <trkpt lat="44.50517" lon="4.3383">
        <ele>249.5994873</ele>
        <time>2011-05-27T08:25:48Z</time>
      </trkpt>
      <trkpt lat="44.50523" lon="4.33818">
        <ele>250.560791</ele>
        <time>2011-05-27T08:25:52Z</time>
      </trkpt>
      <trkpt lat="44.50529" lon="4.33804">
        <ele>250.0802002</ele>
        <time>2011-05-27T08:25:56Z</time>
      </trkpt>
      <trkpt lat="44.50534" lon="4.33793">
        <ele>249.5994873</ele>
        <time>2011-05-27T08:25:59Z</time>
      </trkpt>
      <trkpt lat="44.5054" lon="4.33781">
        <ele>250.0802002</ele>
        <time>2011-05-27T08:26:02Z</time>
      </trkpt>
      <trkpt lat="44.50545" lon="4.33769">
        <ele>251.0413818</ele>
        <time>2011-05-27T08:26:05Z</time>
      </trkpt>
      <trkpt lat="44.5055" lon="4.33757">
        <ele>251.0413818</ele>
        <time>2011-05-27T08:26:08Z</time>
      </trkpt>
      <trkpt lat="44.50554" lon="4.33744">
        <ele>251.0413818</ele>
        <time>2011-05-27T08:26:11Z</time>
      </trkpt>
      <trkpt lat="44.50557" lon="4.33731">
        <ele>251.0413818</ele>
        <time>2011-05-27T08:26:14Z</time>
      </trkpt>
      <trkpt lat="44.50561" lon="4.33718">
        <ele>251.0413818</ele>
        <time>2011-05-27T08:26:17Z</time>
      </trkpt>
      <trkpt lat="44.50566" lon="4.33705">
        <ele>251.5220947</ele>
        <time>2011-05-27T08:26:20Z</time>
      </trkpt>
      <trkpt lat="44.50572" lon="4.33693">
        <ele>251.5220947</ele>
        <time>2011-05-27T08:26:23Z</time>
      </trkpt>
      <trkpt lat="44.50575" lon="4.3368">
        <ele>251.0413818</ele>
        <time>2011-05-27T08:26:26Z</time>
      </trkpt>
      <trkpt lat="44.50578" lon="4.33667">
        <ele>251.5220947</ele>
        <time>2011-05-27T08:26:29Z</time>
      </trkpt>
      <trkpt lat="44.50582" lon="4.33651">
        <ele>252.9639893</ele>
        <time>2011-05-27T08:26:33Z</time>
      </trkpt>
      <trkpt lat="44.50589" lon="4.33638">
        <ele>252.9639893</ele>
        <time>2011-05-27T08:26:37Z</time>
      </trkpt>
      <trkpt lat="44.50594" lon="4.33628">
        <ele>254.4060059</ele>
        <time>2011-05-27T08:26:40Z</time>
      </trkpt>
      <trkpt lat="44.506" lon="4.33618">
        <ele>254.4060059</ele>
        <time>2011-05-27T08:26:43Z</time>
      </trkpt>
      <trkpt lat="44.50607" lon="4.33605">
        <ele>254.4060059</ele>
        <time>2011-05-27T08:26:47Z</time>
      </trkpt>
      <trkpt lat="44.50613" lon="4.33591">
        <ele>255.3673096</ele>
        <time>2011-05-27T08:26:51Z</time>
      </trkpt>
      <trkpt lat="44.50622" lon="4.33581">
        <ele>255.8480225</ele>
        <time>2011-05-27T08:26:55Z</time>
      </trkpt>
      <trkpt lat="44.50629" lon="4.33569">
        <ele>256.8093262</ele>
        <time>2011-05-27T08:26:59Z</time>
      </trkpt>
      <trkpt lat="44.50635" lon="4.33559">
        <ele>256.8093262</ele>
        <time>2011-05-27T08:27:04Z</time>
      </trkpt>
      <trkpt lat="44.5064" lon="4.33548">
        <ele>257.2900391</ele>
        <time>2011-05-27T08:27:10Z</time>
      </trkpt>
      <trkpt lat="44.50645" lon="4.33535">
        <ele>257.2900391</ele>
        <time>2011-05-27T08:27:16Z</time>
      </trkpt>
      <trkpt lat="44.50651" lon="4.33524">
        <ele>256.8093262</ele>
        <time>2011-05-27T08:27:22Z</time>
      </trkpt>
      <trkpt lat="44.50656" lon="4.33514">
        <ele>257.2900391</ele>
        <time>2011-05-27T08:27:27Z</time>
      </trkpt>
      <trkpt lat="44.50662" lon="4.33503">
        <ele>257.2900391</ele>
        <time>2011-05-27T08:27:32Z</time>
      </trkpt>
      <trkpt lat="44.50668" lon="4.33491">
        <ele>257.770752</ele>
        <time>2011-05-27T08:27:37Z</time>
      </trkpt>
      <trkpt lat="44.50671" lon="4.33478">
        <ele>258.2513428</ele>
        <time>2011-05-27T08:27:42Z</time>
      </trkpt>
      <trkpt lat="44.5067" lon="4.33465">
        <ele>259.2126465</ele>
        <time>2011-05-27T08:27:47Z</time>
      </trkpt>
      <trkpt lat="44.50669" lon="4.33451">
        <ele>260.654541</ele>
        <time>2011-05-27T08:27:52Z</time>
      </trkpt>
      <trkpt lat="44.5067" lon="4.33436">
        <ele>261.1352539</ele>
        <time>2011-05-27T08:27:57Z</time>
      </trkpt>
      <trkpt lat="44.50675" lon="4.33425">
        <ele>262.0965576</ele>
        <time>2011-05-27T08:28:01Z</time>
      </trkpt>
      <trkpt lat="44.50682" lon="4.33416">
        <ele>263.0578613</ele>
        <time>2011-05-27T08:28:06Z</time>
      </trkpt>
      <trkpt lat="44.50691" lon="4.33408">
        <ele>262.0965576</ele>
        <time>2011-05-27T08:28:11Z</time>
      </trkpt>
      <trkpt lat="44.507" lon="4.33398">
        <ele>262.0965576</ele>
        <time>2011-05-27T08:28:16Z</time>
      </trkpt>
      <trkpt lat="44.50707" lon="4.3339">
        <ele>262.0965576</ele>
        <time>2011-05-27T08:28:21Z</time>
      </trkpt>
      <trkpt lat="44.50716" lon="4.33389">
        <ele>262.0965576</ele>
        <time>2011-05-27T08:28:26Z</time>
      </trkpt>
      <trkpt lat="44.50722" lon="4.334">
        <ele>262.0965576</ele>
        <time>2011-05-27T08:28:30Z</time>
      </trkpt>
      <trkpt lat="44.50729" lon="4.33412">
        <ele>262.5771484</ele>
        <time>2011-05-27T08:28:34Z</time>
      </trkpt>
      <trkpt lat="44.50736" lon="4.33422">
        <ele>263.0578613</ele>
        <time>2011-05-27T08:28:38Z</time>
      </trkpt>
      <trkpt lat="44.50744" lon="4.33431">
        <ele>263.5385742</ele>
        <time>2011-05-27T08:28:42Z</time>
      </trkpt>
      <trkpt lat="44.50753" lon="4.33437">
        <ele>264.4998779</ele>
        <time>2011-05-27T08:28:47Z</time>
      </trkpt>
      <trkpt lat="44.50763" lon="4.33438">
        <ele>264.4998779</ele>
        <time>2011-05-27T08:28:51Z</time>
      </trkpt>
      <trkpt lat="44.50774" lon="4.33439">
        <ele>265.4613037</ele>
        <time>2011-05-27T08:28:56Z</time>
      </trkpt>
      <trkpt lat="44.50785" lon="4.33439">
        <ele>264.9805908</ele>
        <time>2011-05-27T08:29:01Z</time>
      </trkpt>
      <trkpt lat="44.50796" lon="4.33441">
        <ele>265.9418945</ele>
        <time>2011-05-27T08:29:06Z</time>
      </trkpt>
      <trkpt lat="44.50804" lon="4.33447">
        <ele>265.9418945</ele>
        <time>2011-05-27T08:29:10Z</time>
      </trkpt>
      <trkpt lat="44.5081" lon="4.33457">
        <ele>266.4224854</ele>
        <time>2011-05-27T08:29:14Z</time>
      </trkpt>
      <trkpt lat="44.50813" lon="4.3347">
        <ele>265.9418945</ele>
        <time>2011-05-27T08:29:18Z</time>
      </trkpt>
      <trkpt lat="44.50818" lon="4.33484">
        <ele>266.4224854</ele>
        <time>2011-05-27T08:29:22Z</time>
      </trkpt>
      <trkpt lat="44.50823" lon="4.33498">
        <ele>266.9031982</ele>
        <time>2011-05-27T08:29:26Z</time>
      </trkpt>
      <trkpt lat="44.5083" lon="4.3351">
        <ele>266.9031982</ele>
        <time>2011-05-27T08:29:30Z</time>
      </trkpt>
      <trkpt lat="44.50837" lon="4.33521">
        <ele>266.4224854</ele>
        <time>2011-05-27T08:29:33Z</time>
      </trkpt>
      <trkpt lat="44.5084" lon="4.33536">
        <ele>265.9418945</ele>
        <time>2011-05-27T08:29:36Z</time>
      </trkpt>
      <trkpt lat="44.50841" lon="4.33549">
        <ele>265.9418945</ele>
        <time>2011-05-27T08:29:39Z</time>
      </trkpt>
      <trkpt lat="44.50844" lon="4.33562">
        <ele>265.9418945</ele>
        <time>2011-05-27T08:29:42Z</time>
      </trkpt>
      <trkpt lat="44.50846" lon="4.33575">
        <ele>265.9418945</ele>
        <time>2011-05-27T08:29:45Z</time>
      </trkpt>
      <trkpt lat="44.50849" lon="4.33591">
        <ele>266.9031982</ele>
        <time>2011-05-27T08:29:49Z</time>
      </trkpt>
      <trkpt lat="44.50851" lon="4.33604">
        <ele>265.9418945</ele>
        <time>2011-05-27T08:29:52Z</time>
      </trkpt>
      <trkpt lat="44.50855" lon="4.33616">
        <ele>265.4613037</ele>
        <time>2011-05-27T08:29:55Z</time>
      </trkpt>
      <trkpt lat="44.50863" lon="4.3363">
        <ele>265.4613037</ele>
        <time>2011-05-27T08:29:59Z</time>
      </trkpt>
      <trkpt lat="44.50874" lon="4.33644">
        <ele>265.9418945</ele>
        <time>2011-05-27T08:30:04Z</time>
      </trkpt>
      <trkpt lat="44.50879" lon="4.33649">
        <ele>266.9031982</ele>
        <time>2011-05-27T08:30:06Z</time>
      </trkpt>
      <trkpt lat="44.50889" lon="4.33659">
        <ele>266.9031982</ele>
        <time>2011-05-27T08:30:10Z</time>
      </trkpt>
      <trkpt lat="44.50896" lon="4.33667">
        <ele>266.4224854</ele>
        <time>2011-05-27T08:30:13Z</time>
      </trkpt>
      <trkpt lat="44.50904" lon="4.33677">
        <ele>266.4224854</ele>
        <time>2011-05-27T08:30:16Z</time>
      </trkpt>
      <trkpt lat="44.50912" lon="4.33686">
        <ele>266.9031982</ele>
        <time>2011-05-27T08:30:20Z</time>
      </trkpt>
      <trkpt lat="44.50918" lon="4.33696">
        <ele>266.4224854</ele>
        <time>2011-05-27T08:30:26Z</time>
      </trkpt>
      <trkpt lat="44.50925" lon="4.33705">
        <ele>266.4224854</ele>
        <time>2011-05-27T08:30:30Z</time>
      </trkpt>
      <trkpt lat="44.50934" lon="4.33717">
        <ele>265.9418945</ele>
        <time>2011-05-27T08:30:34Z</time>
      </trkpt>
      <trkpt lat="44.50941" lon="4.33725">
        <ele>265.9418945</ele>
        <time>2011-05-27T08:30:37Z</time>
      </trkpt>
      <trkpt lat="44.50948" lon="4.33733">
        <ele>265.9418945</ele>
        <time>2011-05-27T08:30:40Z</time>
      </trkpt>
      <trkpt lat="44.50955" lon="4.33742">
        <ele>265.9418945</ele>
        <time>2011-05-27T08:30:43Z</time>
      </trkpt>
      <trkpt lat="44.50964" lon="4.33752">
        <ele>265.4613037</ele>
        <time>2011-05-27T08:30:47Z</time>
      </trkpt>
      <trkpt lat="44.5097" lon="4.33761">
        <ele>265.4613037</ele>
        <time>2011-05-27T08:30:50Z</time>
      </trkpt>
      <trkpt lat="44.50977" lon="4.33771">
        <ele>265.4613037</ele>
        <time>2011-05-27T08:30:53Z</time>
      </trkpt>
      <trkpt lat="44.50984" lon="4.33781">
        <ele>265.4613037</ele>
        <time>2011-05-27T08:30:56Z</time>
      </trkpt>
      <trkpt lat="44.50991" lon="4.3379">
        <ele>265.4613037</ele>
        <time>2011-05-27T08:30:59Z</time>
      </trkpt>
      <trkpt lat="44.50998" lon="4.33799">
        <ele>265.4613037</ele>
        <time>2011-05-27T08:31:02Z</time>
      </trkpt>
      <trkpt lat="44.51006" lon="4.33806">
        <ele>265.4613037</ele>
        <time>2011-05-27T08:31:05Z</time>
      </trkpt>
      <trkpt lat="44.51015" lon="4.3381">
        <ele>265.4613037</ele>
        <time>2011-05-27T08:31:08Z</time>
      </trkpt>
      <trkpt lat="44.51025" lon="4.3381">
        <ele>265.4613037</ele>
        <time>2011-05-27T08:31:11Z</time>
      </trkpt>
      <trkpt lat="44.51035" lon="4.33811">
        <ele>266.4224854</ele>
        <time>2011-05-27T08:31:15Z</time>
      </trkpt>
      <trkpt lat="44.51045" lon="4.33814">
        <ele>267.3839111</ele>
        <time>2011-05-27T08:31:19Z</time>
      </trkpt>
      <trkpt lat="44.51056" lon="4.33819">
        <ele>266.9031982</ele>
        <time>2011-05-27T08:31:23Z</time>
      </trkpt>
      <trkpt lat="44.51065" lon="4.33825">
        <ele>267.864502</ele>
        <time>2011-05-27T08:31:26Z</time>
      </trkpt>
      <trkpt lat="44.51072" lon="4.33833">
        <ele>267.864502</ele>
        <time>2011-05-27T08:31:29Z</time>
      </trkpt>
      <trkpt lat="44.5108" lon="4.33841">
        <ele>268.3450928</ele>
        <time>2011-05-27T08:31:32Z</time>
      </trkpt>
      <trkpt lat="44.51084" lon="4.33853">
        <ele>267.864502</ele>
        <time>2011-05-27T08:31:35Z</time>
      </trkpt>
      <trkpt lat="44.51084" lon="4.33868">
        <ele>266.9031982</ele>
        <time>2011-05-27T08:31:38Z</time>
      </trkpt>
      <trkpt lat="44.51082" lon="4.3388">
        <ele>266.4224854</ele>
        <time>2011-05-27T08:31:41Z</time>
      </trkpt>
      <trkpt lat="44.51079" lon="4.33893">
        <ele>265.4613037</ele>
        <time>2011-05-27T08:31:44Z</time>
      </trkpt>
      <trkpt lat="44.51074" lon="4.33905">
        <ele>265.4613037</ele>
        <time>2011-05-27T08:31:47Z</time>
      </trkpt>
      <trkpt lat="44.51069" lon="4.33916">
        <ele>265.4613037</ele>
        <time>2011-05-27T08:31:50Z</time>
      </trkpt>
      <trkpt lat="44.51066" lon="4.33928">
        <ele>265.4613037</ele>
        <time>2011-05-27T08:31:53Z</time>
      </trkpt>
      <trkpt lat="44.51065" lon="4.33941">
        <ele>264.9805908</ele>
        <time>2011-05-27T08:31:56Z</time>
      </trkpt>
      <trkpt lat="44.51065" lon="4.33955">
        <ele>264.4998779</ele>
        <time>2011-05-27T08:31:59Z</time>
      </trkpt>
      <trkpt lat="44.51064" lon="4.33971">
        <ele>264.0192871</ele>
        <time>2011-05-27T08:32:03Z</time>
      </trkpt>
      <trkpt lat="44.51067" lon="4.33986">
        <ele>263.5385742</ele>
        <time>2011-05-27T08:32:06Z</time>
      </trkpt>
      <trkpt lat="44.51071" lon="4.33998">
        <ele>263.5385742</ele>
        <time>2011-05-27T08:32:09Z</time>
      </trkpt>
      <trkpt lat="44.51077" lon="4.3401">
        <ele>263.5385742</ele>
        <time>2011-05-27T08:32:12Z</time>
      </trkpt>
      <trkpt lat="44.51084" lon="4.34022">
        <ele>263.5385742</ele>
        <time>2011-05-27T08:32:15Z</time>
      </trkpt>
      <trkpt lat="44.5109" lon="4.34036">
        <ele>263.0578613</ele>
        <time>2011-05-27T08:32:18Z</time>
      </trkpt>
      <trkpt lat="44.51095" lon="4.34049">
        <ele>262.5771484</ele>
        <time>2011-05-27T08:32:21Z</time>
      </trkpt>
      <trkpt lat="44.51102" lon="4.3406">
        <ele>263.0578613</ele>
        <time>2011-05-27T08:32:24Z</time>
      </trkpt>
      <trkpt lat="44.51113" lon="4.34063">
        <ele>263.0578613</ele>
        <time>2011-05-27T08:32:27Z</time>
      </trkpt>
      <trkpt lat="44.51122" lon="4.34065">
        <ele>263.0578613</ele>
        <time>2011-05-27T08:32:30Z</time>
      </trkpt>
      <trkpt lat="44.51134" lon="4.34068">
        <ele>264.0192871</ele>
        <time>2011-05-27T08:32:34Z</time>
      </trkpt>
      <trkpt lat="44.51142" lon="4.34074">
        <ele>264.4998779</ele>
        <time>2011-05-27T08:32:37Z</time>
      </trkpt>
      <trkpt lat="44.5115" lon="4.3408">
        <ele>265.4613037</ele>
        <time>2011-05-27T08:32:40Z</time>
      </trkpt>
      <trkpt lat="44.51158" lon="4.3409">
        <ele>264.4998779</ele>
        <time>2011-05-27T08:32:43Z</time>
      </trkpt>
      <trkpt lat="44.51164" lon="4.34103">
        <ele>263.5385742</ele>
        <time>2011-05-27T08:32:46Z</time>
      </trkpt>
      <trkpt lat="44.51171" lon="4.34119">
        <ele>263.5385742</ele>
        <time>2011-05-27T08:32:49Z</time>
      </trkpt>
      <trkpt lat="44.51178" lon="4.34133">
        <ele>264.0192871</ele>
        <time>2011-05-27T08:32:52Z</time>
      </trkpt>
      <trkpt lat="44.51186" lon="4.34146">
        <ele>264.4998779</ele>
        <time>2011-05-27T08:32:55Z</time>
      </trkpt>
      <trkpt lat="44.51193" lon="4.34157">
        <ele>264.0192871</ele>
        <time>2011-05-27T08:32:58Z</time>
      </trkpt>
      <trkpt lat="44.51201" lon="4.34162">
        <ele>264.4998779</ele>
        <time>2011-05-27T08:33:01Z</time>
      </trkpt>
      <trkpt lat="44.51211" lon="4.34164">
        <ele>264.9805908</ele>
        <time>2011-05-27T08:33:05Z</time>
      </trkpt>
      <trkpt lat="44.5122" lon="4.34165">
        <ele>265.4613037</ele>
        <time>2011-05-27T08:33:12Z</time>
      </trkpt>
      <trkpt lat="44.5123" lon="4.34171">
        <ele>265.9418945</ele>
        <time>2011-05-27T08:33:18Z</time>
      </trkpt>
      <trkpt lat="44.51237" lon="4.34179">
        <ele>266.4224854</ele>
        <time>2011-05-27T08:33:21Z</time>
      </trkpt>
      <trkpt lat="44.51243" lon="4.34191">
        <ele>266.4224854</ele>
        <time>2011-05-27T08:33:24Z</time>
      </trkpt>
      <trkpt lat="44.51248" lon="4.34205">
        <ele>266.4224854</ele>
        <time>2011-05-27T08:33:27Z</time>
      </trkpt>
      <trkpt lat="44.51256" lon="4.34217">
        <ele>266.4224854</ele>
        <time>2011-05-27T08:33:30Z</time>
      </trkpt>
      <trkpt lat="44.51264" lon="4.3423">
        <ele>264.9805908</ele>
        <time>2011-05-27T08:33:33Z</time>
      </trkpt>
      <trkpt lat="44.51272" lon="4.34244">
        <ele>264.4998779</ele>
        <time>2011-05-27T08:33:36Z</time>
      </trkpt>
      <trkpt lat="44.5128" lon="4.34259">
        <ele>263.5385742</ele>
        <time>2011-05-27T08:33:39Z</time>
      </trkpt>
      <trkpt lat="44.51288" lon="4.34273">
        <ele>263.5385742</ele>
        <time>2011-05-27T08:33:42Z</time>
      </trkpt>
      <trkpt lat="44.51297" lon="4.34286">
        <ele>263.5385742</ele>
        <time>2011-05-27T08:33:45Z</time>
      </trkpt>
      <trkpt lat="44.51303" lon="4.34297">
        <ele>263.5385742</ele>
        <time>2011-05-27T08:33:48Z</time>
      </trkpt>
      <trkpt lat="44.51311" lon="4.34304">
        <ele>264.0192871</ele>
        <time>2011-05-27T08:33:51Z</time>
      </trkpt>
      <trkpt lat="44.51319" lon="4.34309">
        <ele>264.4998779</ele>
        <time>2011-05-27T08:33:54Z</time>
      </trkpt>
      <trkpt lat="44.51329" lon="4.34313">
        <ele>264.0192871</ele>
        <time>2011-05-27T08:33:57Z</time>
      </trkpt>
      <trkpt lat="44.51339" lon="4.34317">
        <ele>264.9805908</ele>
        <time>2011-05-27T08:34:00Z</time>
      </trkpt>
      <trkpt lat="44.5135" lon="4.34324">
        <ele>264.9805908</ele>
        <time>2011-05-27T08:34:03Z</time>
      </trkpt>
      <trkpt lat="44.5136" lon="4.3433">
        <ele>264.9805908</ele>
        <time>2011-05-27T08:34:06Z</time>
      </trkpt>
      <trkpt lat="44.51371" lon="4.34337">
        <ele>264.9805908</ele>
        <time>2011-05-27T08:34:09Z</time>
      </trkpt>
      <trkpt lat="44.51383" lon="4.34343">
        <ele>264.9805908</ele>
        <time>2011-05-27T08:34:12Z</time>
      </trkpt>
      <trkpt lat="44.51394" lon="4.34349">
        <ele>265.4613037</ele>
        <time>2011-05-27T08:34:15Z</time>
      </trkpt>
      <trkpt lat="44.51406" lon="4.34353">
        <ele>265.4613037</ele>
        <time>2011-05-27T08:34:18Z</time>
      </trkpt>
      <trkpt lat="44.51417" lon="4.34357">
        <ele>265.9418945</ele>
        <time>2011-05-27T08:34:21Z</time>
      </trkpt>
      <trkpt lat="44.51428" lon="4.34361">
        <ele>266.4224854</ele>
        <time>2011-05-27T08:34:24Z</time>
      </trkpt>
      <trkpt lat="44.5144" lon="4.34366">
        <ele>267.864502</ele>
        <time>2011-05-27T08:34:27Z</time>
      </trkpt>
      <trkpt lat="44.51452" lon="4.34372">
        <ele>268.3450928</ele>
        <time>2011-05-27T08:34:30Z</time>
      </trkpt>
      <trkpt lat="44.51463" lon="4.3438">
        <ele>269.7871094</ele>
        <time>2011-05-27T08:34:33Z</time>
      </trkpt>
      <trkpt lat="44.51474" lon="4.34386">
        <ele>269.3065186</ele>
        <time>2011-05-27T08:34:36Z</time>
      </trkpt>
      <trkpt lat="44.51484" lon="4.3439">
        <ele>270.2677002</ele>
        <time>2011-05-27T08:34:39Z</time>
      </trkpt>
      <trkpt lat="44.51493" lon="4.34389">
        <ele>269.7871094</ele>
        <time>2011-05-27T08:34:42Z</time>
      </trkpt>
      <trkpt lat="44.51503" lon="4.34379">
        <ele>269.7871094</ele>
        <time>2011-05-27T08:34:46Z</time>
      </trkpt>
      <trkpt lat="44.51509" lon="4.34369">
        <ele>269.7871094</ele>
        <time>2011-05-27T08:34:49Z</time>
      </trkpt>
      <trkpt lat="44.51514" lon="4.34359">
        <ele>270.2677002</ele>
        <time>2011-05-27T08:34:52Z</time>
      </trkpt>
      <trkpt lat="44.5152" lon="4.34347">
        <ele>270.7484131</ele>
        <time>2011-05-27T08:34:55Z</time>
      </trkpt>
      <trkpt lat="44.51526" lon="4.34337">
        <ele>271.229126</ele>
        <time>2011-05-27T08:34:58Z</time>
      </trkpt>
      <trkpt lat="44.51533" lon="4.34324">
        <ele>271.7097168</ele>
        <time>2011-05-27T08:35:02Z</time>
      </trkpt>
      <trkpt lat="44.51541" lon="4.34314">
        <ele>271.7097168</ele>
        <time>2011-05-27T08:35:06Z</time>
      </trkpt>
      <trkpt lat="44.5155" lon="4.34303">
        <ele>272.1904297</ele>
        <time>2011-05-27T08:35:10Z</time>
      </trkpt>
      <trkpt lat="44.51558" lon="4.34291">
        <ele>272.1904297</ele>
        <time>2011-05-27T08:35:14Z</time>
      </trkpt>
      <trkpt lat="44.51565" lon="4.3428">
        <ele>272.1904297</ele>
        <time>2011-05-27T08:35:18Z</time>
      </trkpt>
      <trkpt lat="44.51572" lon="4.34271">
        <ele>272.1904297</ele>
        <time>2011-05-27T08:35:22Z</time>
      </trkpt>
      <trkpt lat="44.51579" lon="4.34258">
        <ele>272.6711426</ele>
        <time>2011-05-27T08:35:27Z</time>
      </trkpt>
      <trkpt lat="44.51586" lon="4.34247">
        <ele>272.6711426</ele>
        <time>2011-05-27T08:35:31Z</time>
      </trkpt>
      <trkpt lat="44.51593" lon="4.34234">
        <ele>273.1518555</ele>
        <time>2011-05-27T08:35:35Z</time>
      </trkpt>
      <trkpt lat="44.51599" lon="4.34222">
        <ele>273.1518555</ele>
        <time>2011-05-27T08:35:39Z</time>
      </trkpt>
      <trkpt lat="44.51602" lon="4.34208">
        <ele>273.6324463</ele>
        <time>2011-05-27T08:35:43Z</time>
      </trkpt>
      <trkpt lat="44.51605" lon="4.34192">
        <ele>273.1518555</ele>
        <time>2011-05-27T08:35:47Z</time>
      </trkpt>
      <trkpt lat="44.51608" lon="4.34177">
        <ele>273.6324463</ele>
        <time>2011-05-27T08:35:51Z</time>
      </trkpt>
      <trkpt lat="44.51611" lon="4.34163">
        <ele>274.1130371</ele>
        <time>2011-05-27T08:35:55Z</time>
      </trkpt>
      <trkpt lat="44.51613" lon="4.34149">
        <ele>274.59375</ele>
        <time>2011-05-27T08:35:59Z</time>
      </trkpt>
      <trkpt lat="44.51615" lon="4.34133">
        <ele>275.0744629</ele>
        <time>2011-05-27T08:36:03Z</time>
      </trkpt>
      <trkpt lat="44.51617" lon="4.34116">
        <ele>275.0744629</ele>
        <time>2011-05-27T08:36:07Z</time>
      </trkpt>
      <trkpt lat="44.51619" lon="4.341">
        <ele>275.0744629</ele>
        <time>2011-05-27T08:36:11Z</time>
      </trkpt>
      <trkpt lat="44.51624" lon="4.34086">
        <ele>276.0356445</ele>
        <time>2011-05-27T08:36:15Z</time>
      </trkpt>
      <trkpt lat="44.51631" lon="4.34071">
        <ele>275.5550537</ele>
        <time>2011-05-27T08:36:19Z</time>
      </trkpt>
      <trkpt lat="44.51637" lon="4.34058">
        <ele>276.9970703</ele>
        <time>2011-05-27T08:36:23Z</time>
      </trkpt>
      <trkpt lat="44.51643" lon="4.34045">
        <ele>276.9970703</ele>
        <time>2011-05-27T08:36:27Z</time>
      </trkpt>
      <trkpt lat="44.51648" lon="4.34032">
        <ele>277.958252</ele>
        <time>2011-05-27T08:36:31Z</time>
      </trkpt>
      <trkpt lat="44.51655" lon="4.34021">
        <ele>277.958252</ele>
        <time>2011-05-27T08:36:35Z</time>
      </trkpt>
      <trkpt lat="44.51658" lon="4.34008">
        <ele>276.5163574</ele>
        <time>2011-05-27T08:36:39Z</time>
      </trkpt>
      <trkpt lat="44.51653" lon="4.33996">
        <ele>277.4776611</ele>
        <time>2011-05-27T08:36:43Z</time>
      </trkpt>
      <trkpt lat="44.51647" lon="4.33983">
        <ele>277.4776611</ele>
        <time>2011-05-27T08:36:47Z</time>
      </trkpt>
      <trkpt lat="44.51641" lon="4.33969">
        <ele>279.4002686</ele>
        <time>2011-05-27T08:36:51Z</time>
      </trkpt>
      <trkpt lat="44.51636" lon="4.33957">
        <ele>280.3616943</ele>
        <time>2011-05-27T08:36:55Z</time>
      </trkpt>
      <trkpt lat="44.51633" lon="4.33943">
        <ele>281.8035889</ele>
        <time>2011-05-27T08:37:00Z</time>
      </trkpt>
      <trkpt lat="44.51636" lon="4.33931">
        <ele>281.8035889</ele>
        <time>2011-05-27T08:37:04Z</time>
      </trkpt>
      <trkpt lat="44.51643" lon="4.3392">
        <ele>280.3616943</ele>
        <time>2011-05-27T08:37:08Z</time>
      </trkpt>
      <trkpt lat="44.51652" lon="4.3391">
        <ele>280.3616943</ele>
        <time>2011-05-27T08:37:12Z</time>
      </trkpt>
      <trkpt lat="44.51659" lon="4.33901">
        <ele>280.3616943</ele>
        <time>2011-05-27T08:37:15Z</time>
      </trkpt>
      <trkpt lat="44.51667" lon="4.33895">
        <ele>281.322998</ele>
        <time>2011-05-27T08:37:18Z</time>
      </trkpt>
      <trkpt lat="44.51677" lon="4.33892">
        <ele>280.8424072</ele>
        <time>2011-05-27T08:37:21Z</time>
      </trkpt>
      <trkpt lat="44.51687" lon="4.33889">
        <ele>281.322998</ele>
        <time>2011-05-27T08:37:24Z</time>
      </trkpt>
      <trkpt lat="44.51698" lon="4.33889">
        <ele>281.8035889</ele>
        <time>2011-05-27T08:37:28Z</time>
      </trkpt>
      <trkpt lat="44.51708" lon="4.33891">
        <ele>280.8424072</ele>
        <time>2011-05-27T08:37:31Z</time>
      </trkpt>
      <trkpt lat="44.51718" lon="4.33891">
        <ele>281.322998</ele>
        <time>2011-05-27T08:37:34Z</time>
      </trkpt>
      <trkpt lat="44.51727" lon="4.33887">
        <ele>280.8424072</ele>
        <time>2011-05-27T08:37:37Z</time>
      </trkpt>
      <trkpt lat="44.51735" lon="4.33877">
        <ele>279.4002686</ele>
        <time>2011-05-27T08:37:40Z</time>
      </trkpt>
      <trkpt lat="44.51743" lon="4.33867">
        <ele>279.4002686</ele>
        <time>2011-05-27T08:37:43Z</time>
      </trkpt>
      <trkpt lat="44.51753" lon="4.33864">
        <ele>278.4389648</ele>
        <time>2011-05-27T08:37:46Z</time>
      </trkpt>
      <trkpt lat="44.51765" lon="4.33862">
        <ele>279.4002686</ele>
        <time>2011-05-27T08:37:50Z</time>
      </trkpt>
      <trkpt lat="44.51776" lon="4.33863">
        <ele>278.9196777</ele>
        <time>2011-05-27T08:37:55Z</time>
      </trkpt>
      <trkpt lat="44.51786" lon="4.3387">
        <ele>278.4389648</ele>
        <time>2011-05-27T08:38:00Z</time>
      </trkpt>
      <trkpt lat="44.51796" lon="4.33874">
        <ele>277.4776611</ele>
        <time>2011-05-27T08:38:03Z</time>
      </trkpt>
      <trkpt lat="44.51806" lon="4.33873">
        <ele>276.5163574</ele>
        <time>2011-05-27T08:38:06Z</time>
      </trkpt>
      <trkpt lat="44.51817" lon="4.33875">
        <ele>276.5163574</ele>
        <time>2011-05-27T08:38:10Z</time>
      </trkpt>
      <trkpt lat="44.51827" lon="4.33876">
        <ele>275.5550537</ele>
        <time>2011-05-27T08:38:14Z</time>
      </trkpt>
      <trkpt lat="44.51837" lon="4.33876">
        <ele>275.0744629</ele>
        <time>2011-05-27T08:38:19Z</time>
      </trkpt>
      <trkpt lat="44.51844" lon="4.33871">
        <ele>272.1904297</ele>
        <time>2011-05-27T08:38:41Z</time>
      </trkpt>
      <trkpt lat="44.51845" lon="4.33857">
        <ele>271.229126</ele>
        <time>2011-05-27T08:38:58Z</time>
      </trkpt>
      <trkpt lat="44.51846" lon="4.33843">
        <ele>266.4224854</ele>
        <time>2011-05-27T08:39:08Z</time>
      </trkpt>
      <trkpt lat="44.51844" lon="4.33829">
        <ele>264.9805908</ele>
        <time>2011-05-27T08:39:33Z</time>
      </trkpt>
      <trkpt lat="44.51841" lon="4.33816">
        <ele>264.4998779</ele>
        <time>2011-05-27T08:39:37Z</time>
      </trkpt>
      <trkpt lat="44.51841" lon="4.33798">
        <ele>262.0965576</ele>
        <time>2011-05-27T08:39:41Z</time>
      </trkpt>
      <trkpt lat="44.51839" lon="4.3378">
        <ele>260.1739502</ele>
        <time>2011-05-27T08:39:44Z</time>
      </trkpt>
      <trkpt lat="44.51836" lon="4.33764">
        <ele>260.1739502</ele>
        <time>2011-05-27T08:39:47Z</time>
      </trkpt>
      <trkpt lat="44.51834" lon="4.33747">
        <ele>260.1739502</ele>
        <time>2011-05-27T08:39:50Z</time>
      </trkpt>
      <trkpt lat="44.51833" lon="4.33734">
        <ele>259.2126465</ele>
        <time>2011-05-27T08:39:53Z</time>
      </trkpt>
      <trkpt lat="44.51833" lon="4.33719">
        <ele>257.2900391</ele>
        <time>2011-05-27T08:39:56Z</time>
      </trkpt>
      <trkpt lat="44.51832" lon="4.33702">
        <ele>256.8093262</ele>
        <time>2011-05-27T08:39:59Z</time>
      </trkpt>
      <trkpt lat="44.51833" lon="4.33685">
        <ele>255.8480225</ele>
        <time>2011-05-27T08:40:02Z</time>
      </trkpt>
      <trkpt lat="44.51832" lon="4.33669">
        <ele>255.3673096</ele>
        <time>2011-05-27T08:40:05Z</time>
      </trkpt>
      <trkpt lat="44.51832" lon="4.33655">
        <ele>256.3287354</ele>
        <time>2011-05-27T08:40:09Z</time>
      </trkpt>
      <trkpt lat="44.51833" lon="4.33641">
        <ele>255.8480225</ele>
        <time>2011-05-27T08:40:12Z</time>
      </trkpt>
      <trkpt lat="44.51834" lon="4.33627">
        <ele>256.3287354</ele>
        <time>2011-05-27T08:40:15Z</time>
      </trkpt>
      <trkpt lat="44.51833" lon="4.33611">
        <ele>255.3673096</ele>
        <time>2011-05-27T08:40:18Z</time>
      </trkpt>
      <trkpt lat="44.51832" lon="4.33596">
        <ele>255.3673096</ele>
        <time>2011-05-27T08:40:22Z</time>
      </trkpt>
      <trkpt lat="44.51843" lon="4.33592">
        <ele>253.925415</ele>
        <time>2011-05-27T08:40:27Z</time>
      </trkpt>
      <trkpt lat="44.51855" lon="4.33586">
        <ele>253.4447021</ele>
        <time>2011-05-27T08:40:31Z</time>
      </trkpt>
      <trkpt lat="44.51868" lon="4.3358">
        <ele>252.4833984</ele>
        <time>2011-05-27T08:40:34Z</time>
      </trkpt>
      <trkpt lat="44.51877" lon="4.33574">
        <ele>252.0028076</ele>
        <time>2011-05-27T08:40:37Z</time>
      </trkpt>
      <trkpt lat="44.51884" lon="4.33564">
        <ele>250.560791</ele>
        <time>2011-05-27T08:40:41Z</time>
      </trkpt>
      <trkpt lat="44.51886" lon="4.3355">
        <ele>247.6767578</ele>
        <time>2011-05-27T08:40:46Z</time>
      </trkpt>
      <trkpt lat="44.51888" lon="4.33534">
        <ele>245.2734375</ele>
        <time>2011-05-27T08:40:50Z</time>
      </trkpt>
      <trkpt lat="44.51886" lon="4.33517">
        <ele>243.3508301</ele>
        <time>2011-05-27T08:40:53Z</time>
      </trkpt>
      <trkpt lat="44.51884" lon="4.335">
        <ele>242.3896484</ele>
        <time>2011-05-27T08:40:56Z</time>
      </trkpt>
      <trkpt lat="44.5188" lon="4.33486">
        <ele>242.3896484</ele>
        <time>2011-05-27T08:40:58Z</time>
      </trkpt>
      <trkpt lat="44.51875" lon="4.33472">
        <ele>241.4282227</ele>
        <time>2011-05-27T08:41:00Z</time>
      </trkpt>
      <trkpt lat="44.51871" lon="4.3346">
        <ele>238.5443115</ele>
        <time>2011-05-27T08:41:02Z</time>
      </trkpt>
      <trkpt lat="44.51869" lon="4.33447">
        <ele>236.1409912</ele>
        <time>2011-05-27T08:41:04Z</time>
      </trkpt>
      <trkpt lat="44.51867" lon="4.33432">
        <ele>233.7376709</ele>
        <time>2011-05-27T08:41:06Z</time>
      </trkpt>
      <trkpt lat="44.51864" lon="4.33416">
        <ele>231.8149414</ele>
        <time>2011-05-27T08:41:08Z</time>
      </trkpt>
      <trkpt lat="44.51859" lon="4.33396">
        <ele>230.3730469</ele>
        <time>2011-05-27T08:41:10Z</time>
      </trkpt>
      <trkpt lat="44.51854" lon="4.33377">
        <ele>229.4117432</ele>
        <time>2011-05-27T08:41:12Z</time>
      </trkpt>
      <trkpt lat="44.51847" lon="4.3336">
        <ele>227.9697266</ele>
        <time>2011-05-27T08:41:14Z</time>
      </trkpt>
      <trkpt lat="44.51838" lon="4.33345">
        <ele>227.4891357</ele>
        <time>2011-05-27T08:41:16Z</time>
      </trkpt>
      <trkpt lat="44.5183" lon="4.3333">
        <ele>227.0085449</ele>
        <time>2011-05-27T08:41:18Z</time>
      </trkpt>
      <trkpt lat="44.51823" lon="4.33314">
        <ele>227.0085449</ele>
        <time>2011-05-27T08:41:20Z</time>
      </trkpt>
      <trkpt lat="44.51816" lon="4.33299">
        <ele>226.0471191</ele>
        <time>2011-05-27T08:41:22Z</time>
      </trkpt>
      <trkpt lat="44.5181" lon="4.33284">
        <ele>225.5665283</ele>
        <time>2011-05-27T08:41:24Z</time>
      </trkpt>
      <trkpt lat="44.51804" lon="4.3327">
        <ele>226.0471191</ele>
        <time>2011-05-27T08:41:26Z</time>
      </trkpt>
      <trkpt lat="44.51798" lon="4.33258">
        <ele>226.527832</ele>
        <time>2011-05-27T08:41:28Z</time>
      </trkpt>
      <trkpt lat="44.51793" lon="4.33248">
        <ele>226.0471191</ele>
        <time>2011-05-27T08:41:33Z</time>
      </trkpt>
      <trkpt lat="44.51788" lon="4.33243">
        <ele>225.0859375</ele>
        <time>2011-05-27T08:42:45Z</time>
      </trkpt>
      <trkpt lat="44.51782" lon="4.33232">
        <ele>224.6052246</ele>
        <time>2011-05-27T08:42:48Z</time>
      </trkpt>
      <trkpt lat="44.51775" lon="4.33219">
        <ele>224.1245117</ele>
        <time>2011-05-27T08:42:51Z</time>
      </trkpt>
      <trkpt lat="44.51769" lon="4.33208">
        <ele>223.163208</ele>
        <time>2011-05-27T08:42:53Z</time>
      </trkpt>
      <trkpt lat="44.51763" lon="4.33198">
        <ele>223.163208</ele>
        <time>2011-05-27T08:42:55Z</time>
      </trkpt>
      <trkpt lat="44.51757" lon="4.33184">
        <ele>222.6824951</ele>
        <time>2011-05-27T08:42:58Z</time>
      </trkpt>
      <trkpt lat="44.51752" lon="4.33169">
        <ele>222.2017822</ele>
        <time>2011-05-27T08:43:01Z</time>
      </trkpt>
      <trkpt lat="44.51747" lon="4.33157">
        <ele>220.7598877</ele>
        <time>2011-05-27T08:43:06Z</time>
      </trkpt>
      <trkpt lat="44.51748" lon="4.33144">
        <ele>219.3179932</ele>
        <time>2011-05-27T08:48:34Z</time>
      </trkpt>
      <trkpt lat="44.51743" lon="4.33131">
        <ele>217.3953857</ele>
        <time>2011-05-27T08:48:37Z</time>
      </trkpt>
      <trkpt lat="44.51747" lon="4.33121">
        <ele>216.43396</ele>
        <time>2011-05-27T08:48:41Z</time>
      </trkpt>
      <trkpt lat="44.51757" lon="4.33128">
        <ele>214.5112305</ele>
        <time>2011-05-27T08:48:44Z</time>
      </trkpt>
      <trkpt lat="44.51768" lon="4.33135">
        <ele>212.588623</ele>
        <time>2011-05-27T08:48:46Z</time>
      </trkpt>
      <trkpt lat="44.5178" lon="4.33142">
        <ele>209.704834</ele>
        <time>2011-05-27T08:48:48Z</time>
      </trkpt>
      <trkpt lat="44.51792" lon="4.33152">
        <ele>207.7821045</ele>
        <time>2011-05-27T08:48:50Z</time>
      </trkpt>
      <trkpt lat="44.51804" lon="4.33164">
        <ele>204.8980713</ele>
        <time>2011-05-27T08:48:52Z</time>
      </trkpt>
      <trkpt lat="44.51813" lon="4.33172">
        <ele>203.4561768</ele>
        <time>2011-05-27T08:48:54Z</time>
      </trkpt>
      <trkpt lat="44.51823" lon="4.33177">
        <ele>201.5335693</ele>
        <time>2011-05-27T08:48:56Z</time>
      </trkpt>
      <trkpt lat="44.51836" lon="4.3318">
        <ele>199.130127</ele>
        <time>2011-05-27T08:48:58Z</time>
      </trkpt>
      <trkpt lat="44.51842" lon="4.33173">
        <ele>197.6882324</ele>
        <time>2011-05-27T08:49:03Z</time>
      </trkpt>
      <trkpt lat="44.51835" lon="4.33165">
        <ele>196.7269287</ele>
        <time>2011-05-27T08:49:08Z</time>
      </trkpt>
      <trkpt lat="44.51825" lon="4.33154">
        <ele>196.7269287</ele>
        <time>2011-05-27T08:49:12Z</time>
      </trkpt>
      <trkpt lat="44.51817" lon="4.33142">
        <ele>196.7269287</ele>
        <time>2011-05-27T08:49:15Z</time>
      </trkpt>
      <trkpt lat="44.51811" lon="4.33127">
        <ele>195.765625</ele>
        <time>2011-05-27T08:49:18Z</time>
      </trkpt>
      <trkpt lat="44.51805" lon="4.33109">
        <ele>195.2849121</ele>
        <time>2011-05-27T08:49:21Z</time>
      </trkpt>
      <trkpt lat="44.51802" lon="4.33095">
        <ele>194.8043213</ele>
        <time>2011-05-27T08:49:23Z</time>
      </trkpt>
      <trkpt lat="44.51796" lon="4.33082">
        <ele>193.8430176</ele>
        <time>2011-05-27T08:49:25Z</time>
      </trkpt>
      <trkpt lat="44.5179" lon="4.3307">
        <ele>193.3623047</ele>
        <time>2011-05-27T08:49:27Z</time>
      </trkpt>
      <trkpt lat="44.51784" lon="4.33058">
        <ele>191.9202881</ele>
        <time>2011-05-27T08:49:29Z</time>
      </trkpt>
      <trkpt lat="44.51778" lon="4.33047">
        <ele>191.9202881</ele>
        <time>2011-05-27T08:49:31Z</time>
      </trkpt>
      <trkpt lat="44.51771" lon="4.33037">
        <ele>191.4395752</ele>
        <time>2011-05-27T08:49:33Z</time>
      </trkpt>
      <trkpt lat="44.51759" lon="4.3303">
        <ele>190.4783936</ele>
        <time>2011-05-27T08:49:36Z</time>
      </trkpt>
      <trkpt lat="44.51751" lon="4.33027">
        <ele>190.4783936</ele>
        <time>2011-05-27T08:49:38Z</time>
      </trkpt>
      <trkpt lat="44.51739" lon="4.33019">
        <ele>190.9589844</ele>
        <time>2011-05-27T08:49:41Z</time>
      </trkpt>
      <trkpt lat="44.51729" lon="4.33012">
        <ele>190.9589844</ele>
        <time>2011-05-27T08:49:44Z</time>
      </trkpt>
      <trkpt lat="44.51719" lon="4.33012">
        <ele>190.9589844</ele>
        <time>2011-05-27T08:49:47Z</time>
      </trkpt>
      <trkpt lat="44.51708" lon="4.33015">
        <ele>192.401123</ele>
        <time>2011-05-27T08:49:51Z</time>
      </trkpt>
      <trkpt lat="44.51698" lon="4.33016">
        <ele>192.8817139</ele>
        <time>2011-05-27T08:49:55Z</time>
      </trkpt>
      <trkpt lat="44.51689" lon="4.3302">
        <ele>192.8817139</ele>
        <time>2011-05-27T08:49:59Z</time>
      </trkpt>
      <trkpt lat="44.51679" lon="4.33023">
        <ele>193.8430176</ele>
        <time>2011-05-27T08:50:03Z</time>
      </trkpt>
      <trkpt lat="44.51669" lon="4.33026">
        <ele>194.3237305</ele>
        <time>2011-05-27T08:50:07Z</time>
      </trkpt>
      <trkpt lat="44.51658" lon="4.33029">
        <ele>195.2849121</ele>
        <time>2011-05-27T08:50:12Z</time>
      </trkpt>
      <trkpt lat="44.51647" lon="4.3303">
        <ele>195.765625</ele>
        <time>2011-05-27T08:50:17Z</time>
      </trkpt>
      <trkpt lat="44.51636" lon="4.33032">
        <ele>195.2849121</ele>
        <time>2011-05-27T08:50:22Z</time>
      </trkpt>
      <trkpt lat="44.51625" lon="4.33037">
        <ele>195.765625</ele>
        <time>2011-05-27T08:50:27Z</time>
      </trkpt>
      <trkpt lat="44.51617" lon="4.33046">
        <ele>196.2463379</ele>
        <time>2011-05-27T08:50:33Z</time>
      </trkpt>
      <trkpt lat="44.51607" lon="4.33048">
        <ele>196.7269287</ele>
        <time>2011-05-27T08:50:38Z</time>
      </trkpt>
      <trkpt lat="44.51597" lon="4.3305">
        <ele>196.7269287</ele>
        <time>2011-05-27T08:50:42Z</time>
      </trkpt>
      <trkpt lat="44.51586" lon="4.33047">
        <ele>196.2463379</ele>
        <time>2011-05-27T08:50:46Z</time>
      </trkpt>
      <trkpt lat="44.51582" lon="4.33034">
        <ele>196.7269287</ele>
        <time>2011-05-27T08:50:50Z</time>
      </trkpt>
      <trkpt lat="44.51582" lon="4.33018">
        <ele>197.2075195</ele>
        <time>2011-05-27T08:50:56Z</time>
      </trkpt>
      <trkpt lat="44.51582" lon="4.33004">
        <ele>197.2075195</ele>
        <time>2011-05-27T08:51:01Z</time>
      </trkpt>
      <trkpt lat="44.51583" lon="4.3299">
        <ele>198.1689453</ele>
        <time>2011-05-27T08:51:05Z</time>
      </trkpt>
      <trkpt lat="44.51587" lon="4.32975">
        <ele>198.6495361</ele>
        <time>2011-05-27T08:51:09Z</time>
      </trkpt>
      <trkpt lat="44.51592" lon="4.32962">
        <ele>199.6108398</ele>
        <time>2011-05-27T08:51:13Z</time>
      </trkpt>
      <trkpt lat="44.51597" lon="4.32946">
        <ele>198.1689453</ele>
        <time>2011-05-27T08:51:17Z</time>
      </trkpt>
      <trkpt lat="44.51601" lon="4.32932">
        <ele>197.6882324</ele>
        <time>2011-05-27T08:51:20Z</time>
      </trkpt>
      <trkpt lat="44.51608" lon="4.32917">
        <ele>196.7269287</ele>
        <time>2011-05-27T08:51:23Z</time>
      </trkpt>
      <trkpt lat="44.51611" lon="4.32898">
        <ele>195.765625</ele>
        <time>2011-05-27T08:51:26Z</time>
      </trkpt>
      <trkpt lat="44.51609" lon="4.32885">
        <ele>195.765625</ele>
        <time>2011-05-27T08:51:28Z</time>
      </trkpt>
      <trkpt lat="44.51605" lon="4.32873">
        <ele>194.8043213</ele>
        <time>2011-05-27T08:51:30Z</time>
      </trkpt>
      <trkpt lat="44.51603" lon="4.32858">
        <ele>194.8043213</ele>
        <time>2011-05-27T08:51:32Z</time>
      </trkpt>
      <trkpt lat="44.51602" lon="4.32843">
        <ele>194.3237305</ele>
        <time>2011-05-27T08:51:34Z</time>
      </trkpt>
      <trkpt lat="44.51601" lon="4.32827">
        <ele>193.8430176</ele>
        <time>2011-05-27T08:51:36Z</time>
      </trkpt>
      <trkpt lat="44.51599" lon="4.32811">
        <ele>193.3623047</ele>
        <time>2011-05-27T08:51:38Z</time>
      </trkpt>
      <trkpt lat="44.51597" lon="4.32796">
        <ele>193.3623047</ele>
        <time>2011-05-27T08:51:40Z</time>
      </trkpt>
      <trkpt lat="44.51598" lon="4.32778">
        <ele>193.8430176</ele>
        <time>2011-05-27T08:51:43Z</time>
      </trkpt>
      <trkpt lat="44.51598" lon="4.32764">
        <ele>195.2849121</ele>
        <time>2011-05-27T08:51:46Z</time>
      </trkpt>
      <trkpt lat="44.51596" lon="4.32749">
        <ele>195.2849121</ele>
        <time>2011-05-27T08:51:50Z</time>
      </trkpt>
      <trkpt lat="44.51595" lon="4.32733">
        <ele>196.7269287</ele>
        <time>2011-05-27T08:51:54Z</time>
      </trkpt>
      <trkpt lat="44.51589" lon="4.32723">
        <ele>197.6882324</ele>
        <time>2011-05-27T08:51:57Z</time>
      </trkpt>
      <trkpt lat="44.5158" lon="4.32719">
        <ele>199.6108398</ele>
        <time>2011-05-27T08:52:00Z</time>
      </trkpt>
      <trkpt lat="44.51569" lon="4.32723">
        <ele>199.6108398</ele>
        <time>2011-05-27T08:52:04Z</time>
      </trkpt>
      <trkpt lat="44.5156" lon="4.32729">
        <ele>199.6108398</ele>
        <time>2011-05-27T08:52:08Z</time>
      </trkpt>
      <trkpt lat="44.51551" lon="4.32733">
        <ele>200.5722656</ele>
        <time>2011-05-27T08:52:12Z</time>
      </trkpt>
      <trkpt lat="44.5154" lon="4.32732">
        <ele>200.5722656</ele>
        <time>2011-05-27T08:52:16Z</time>
      </trkpt>
      <trkpt lat="44.51532" lon="4.32725">
        <ele>201.5335693</ele>
        <time>2011-05-27T08:52:20Z</time>
      </trkpt>
      <trkpt lat="44.51522" lon="4.32717">
        <ele>202.494873</ele>
        <time>2011-05-27T08:52:24Z</time>
      </trkpt>
      <trkpt lat="44.51513" lon="4.32712">
        <ele>202.9754639</ele>
        <time>2011-05-27T08:52:27Z</time>
      </trkpt>
      <trkpt lat="44.51503" lon="4.32703">
        <ele>203.4561768</ele>
        <time>2011-05-27T08:52:31Z</time>
      </trkpt>
      <trkpt lat="44.51496" lon="4.32694">
        <ele>203.9368896</ele>
        <time>2011-05-27T08:52:35Z</time>
      </trkpt>
      <trkpt lat="44.51489" lon="4.32683">
        <ele>204.4174805</ele>
        <time>2011-05-27T08:52:39Z</time>
      </trkpt>
      <trkpt lat="44.51482" lon="4.32674">
        <ele>205.8594971</ele>
        <time>2011-05-27T08:52:43Z</time>
      </trkpt>
      <trkpt lat="44.51474" lon="4.32664">
        <ele>206.3400879</ele>
        <time>2011-05-27T08:52:47Z</time>
      </trkpt>
      <trkpt lat="44.51465" lon="4.32657">
        <ele>207.3013916</ele>
        <time>2011-05-27T08:52:51Z</time>
      </trkpt>
      <trkpt lat="44.51456" lon="4.32652">
        <ele>208.2628174</ele>
        <time>2011-05-27T08:52:55Z</time>
      </trkpt>
      <trkpt lat="44.51445" lon="4.32648">
        <ele>209.704834</ele>
        <time>2011-05-27T08:53:00Z</time>
      </trkpt>
      <trkpt lat="44.51436" lon="4.32646">
        <ele>209.704834</ele>
        <time>2011-05-27T08:53:04Z</time>
      </trkpt>
      <trkpt lat="44.51426" lon="4.32642">
        <ele>209.704834</ele>
        <time>2011-05-27T08:53:08Z</time>
      </trkpt>
      <trkpt lat="44.51418" lon="4.32631">
        <ele>210.1854248</ele>
        <time>2011-05-27T08:53:12Z</time>
      </trkpt>
      <trkpt lat="44.5141" lon="4.32624">
        <ele>209.704834</ele>
        <time>2011-05-27T08:53:15Z</time>
      </trkpt>
      <trkpt lat="44.51399" lon="4.3262">
        <ele>210.1854248</ele>
        <time>2011-05-27T08:53:19Z</time>
      </trkpt>
      <trkpt lat="44.51388" lon="4.32618">
        <ele>210.1854248</ele>
        <time>2011-05-27T08:53:23Z</time>
      </trkpt>
      <trkpt lat="44.51377" lon="4.32618">
        <ele>210.6660156</ele>
        <time>2011-05-27T08:53:27Z</time>
      </trkpt>
      <trkpt lat="44.51367" lon="4.32619">
        <ele>209.704834</ele>
        <time>2011-05-27T08:53:31Z</time>
      </trkpt>
      <trkpt lat="44.51359" lon="4.32615">
        <ele>209.704834</ele>
        <time>2011-05-27T08:53:34Z</time>
      </trkpt>
      <trkpt lat="44.51351" lon="4.32604">
        <ele>210.6660156</ele>
        <time>2011-05-27T08:53:38Z</time>
      </trkpt>
      <trkpt lat="44.51343" lon="4.32592">
        <ele>210.1854248</ele>
        <time>2011-05-27T08:53:42Z</time>
      </trkpt>
      <trkpt lat="44.51335" lon="4.32583">
        <ele>210.1854248</ele>
        <time>2011-05-27T08:53:45Z</time>
      </trkpt>
      <trkpt lat="44.51328" lon="4.32573">
        <ele>210.1854248</ele>
        <time>2011-05-27T08:53:48Z</time>
      </trkpt>
      <trkpt lat="44.51319" lon="4.32563">
        <ele>209.2241211</ele>
        <time>2011-05-27T08:53:51Z</time>
      </trkpt>
      <trkpt lat="44.51309" lon="4.32554">
        <ele>208.7434082</ele>
        <time>2011-05-27T08:53:54Z</time>
      </trkpt>
      <trkpt lat="44.513" lon="4.32547">
        <ele>209.2241211</ele>
        <time>2011-05-27T08:53:56Z</time>
      </trkpt>
      <trkpt lat="44.51292" lon="4.32541">
        <ele>208.7434082</ele>
        <time>2011-05-27T08:53:58Z</time>
      </trkpt>
      <trkpt lat="44.51282" lon="4.32535">
        <ele>208.7434082</ele>
        <time>2011-05-27T08:54:00Z</time>
      </trkpt>
      <trkpt lat="44.51272" lon="4.32527">
        <ele>207.3013916</ele>
        <time>2011-05-27T08:54:02Z</time>
      </trkpt>
      <trkpt lat="44.51263" lon="4.32514">
        <ele>206.8206787</ele>
        <time>2011-05-27T08:54:04Z</time>
      </trkpt>
      <trkpt lat="44.51256" lon="4.325">
        <ele>205.8594971</ele>
        <time>2011-05-27T08:54:06Z</time>
      </trkpt>
      <trkpt lat="44.51251" lon="4.32486">
        <ele>205.8594971</ele>
        <time>2011-05-27T08:54:08Z</time>
      </trkpt>
      <trkpt lat="44.51247" lon="4.32474">
        <ele>205.8594971</ele>
        <time>2011-05-27T08:54:10Z</time>
      </trkpt>
      <trkpt lat="44.51244" lon="4.32462">
        <ele>205.8594971</ele>
        <time>2011-05-27T08:54:12Z</time>
      </trkpt>
      <trkpt lat="44.51241" lon="4.3245">
        <ele>204.8980713</ele>
        <time>2011-05-27T08:54:14Z</time>
      </trkpt>
      <trkpt lat="44.51239" lon="4.32431">
        <ele>204.4174805</ele>
        <time>2011-05-27T08:54:17Z</time>
      </trkpt>
      <trkpt lat="44.51237" lon="4.32413">
        <ele>203.9368896</ele>
        <time>2011-05-27T08:54:20Z</time>
      </trkpt>
      <trkpt lat="44.51235" lon="4.32397">
        <ele>203.4561768</ele>
        <time>2011-05-27T08:54:23Z</time>
      </trkpt>
      <trkpt lat="44.51233" lon="4.32383">
        <ele>203.9368896</ele>
        <time>2011-05-27T08:54:26Z</time>
      </trkpt>
      <trkpt lat="44.51239" lon="4.32372">
        <ele>202.494873</ele>
        <time>2011-05-27T08:54:30Z</time>
      </trkpt>
      <trkpt lat="44.5125" lon="4.32368">
        <ele>201.5335693</ele>
        <time>2011-05-27T08:54:34Z</time>
      </trkpt>
      <trkpt lat="44.5126" lon="4.32368">
        <ele>200.0916748</ele>
        <time>2011-05-27T08:54:37Z</time>
      </trkpt>
      <trkpt lat="44.5127" lon="4.3237">
        <ele>199.6108398</ele>
        <time>2011-05-27T08:54:41Z</time>
      </trkpt>
      <trkpt lat="44.5128" lon="4.3237">
        <ele>199.6108398</ele>
        <time>2011-05-27T08:54:45Z</time>
      </trkpt>
      <trkpt lat="44.51291" lon="4.3237">
        <ele>199.130127</ele>
        <time>2011-05-27T08:54:56Z</time>
      </trkpt>
      <trkpt lat="44.51303" lon="4.3237">
        <ele>197.6882324</ele>
        <time>2011-05-27T08:55:00Z</time>
      </trkpt>
      <trkpt lat="44.51314" lon="4.32373">
        <ele>197.6882324</ele>
        <time>2011-05-27T08:55:03Z</time>
      </trkpt>
      <trkpt lat="44.51323" lon="4.32376">
        <ele>196.7269287</ele>
        <time>2011-05-27T08:55:05Z</time>
      </trkpt>
      <trkpt lat="44.51334" lon="4.32382">
        <ele>195.2849121</ele>
        <time>2011-05-27T08:55:07Z</time>
      </trkpt>
      <trkpt lat="44.51347" lon="4.32389">
        <ele>194.3237305</ele>
        <time>2011-05-27T08:55:09Z</time>
      </trkpt>
      <trkpt lat="44.51361" lon="4.32396">
        <ele>192.401123</ele>
        <time>2011-05-27T08:55:11Z</time>
      </trkpt>
      <trkpt lat="44.51377" lon="4.32401">
        <ele>190.4783936</ele>
        <time>2011-05-27T08:55:13Z</time>
      </trkpt>
      <trkpt lat="44.51393" lon="4.32405">
        <ele>188.5557861</ele>
        <time>2011-05-27T08:55:15Z</time>
      </trkpt>
      <trkpt lat="44.51409" lon="4.32409">
        <ele>187.1137695</ele>
        <time>2011-05-27T08:55:17Z</time>
      </trkpt>
      <trkpt lat="44.51423" lon="4.3241">
        <ele>186.6331787</ele>
        <time>2011-05-27T08:55:19Z</time>
      </trkpt>
      <trkpt lat="44.51432" lon="4.32414">
        <ele>185.1911621</ele>
        <time>2011-05-27T08:55:21Z</time>
      </trkpt>
      <trkpt lat="44.51432" lon="4.3243">
        <ele>184.2298584</ele>
        <time>2011-05-27T08:55:24Z</time>
      </trkpt>
      <trkpt lat="44.51422" lon="4.32438">
        <ele>183.2684326</ele>
        <time>2011-05-27T08:55:26Z</time>
      </trkpt>
      <trkpt lat="44.5141" lon="4.32445">
        <ele>182.3071289</ele>
        <time>2011-05-27T08:55:28Z</time>
      </trkpt>
      <trkpt lat="44.51398" lon="4.32448">
        <ele>181.3458252</ele>
        <time>2011-05-27T08:55:30Z</time>
      </trkpt>
      <trkpt lat="44.51394" lon="4.32458">
        <ele>180.8652344</ele>
        <time>2011-05-27T08:55:33Z</time>
      </trkpt>
      <trkpt lat="44.51402" lon="4.32465">
        <ele>179.9038086</ele>
        <time>2011-05-27T08:55:36Z</time>
      </trkpt>
      <trkpt lat="44.51416" lon="4.32462">
        <ele>177.9812012</ele>
        <time>2011-05-27T08:55:39Z</time>
      </trkpt>
      <trkpt lat="44.51428" lon="4.3246">
        <ele>176.5393066</ele>
        <time>2011-05-27T08:55:41Z</time>
      </trkpt>
      <trkpt lat="44.5144" lon="4.32457">
        <ele>175.09729</ele>
        <time>2011-05-27T08:55:43Z</time>
      </trkpt>
      <trkpt lat="44.51454" lon="4.32451">
        <ele>174.1358643</ele>
        <time>2011-05-27T08:55:45Z</time>
      </trkpt>
      <trkpt lat="44.51469" lon="4.32443">
        <ele>172.2132568</ele>
        <time>2011-05-27T08:55:47Z</time>
      </trkpt>
      <trkpt lat="44.51482" lon="4.32432">
        <ele>171.2520752</ele>
        <time>2011-05-27T08:55:49Z</time>
      </trkpt>
      <trkpt lat="44.51492" lon="4.32423">
        <ele>170.7713623</ele>
        <time>2011-05-27T08:55:51Z</time>
      </trkpt>
      <trkpt lat="44.51497" lon="4.32408">
        <ele>168.8487549</ele>
        <time>2011-05-27T08:55:53Z</time>
      </trkpt>
      <trkpt lat="44.51494" lon="4.3239">
        <ele>167.4067383</ele>
        <time>2011-05-27T08:55:55Z</time>
      </trkpt>
      <trkpt lat="44.51488" lon="4.32374">
        <ele>166.9260254</ele>
        <time>2011-05-27T08:55:57Z</time>
      </trkpt>
      <trkpt lat="44.51482" lon="4.32355">
        <ele>165.4841309</ele>
        <time>2011-05-27T08:55:59Z</time>
      </trkpt>
      <trkpt lat="44.51477" lon="4.32337">
        <ele>163.5615234</ele>
        <time>2011-05-27T08:56:01Z</time>
      </trkpt>
      <trkpt lat="44.51472" lon="4.3232">
        <ele>162.1195068</ele>
        <time>2011-05-27T08:56:03Z</time>
      </trkpt>
      <trkpt lat="44.5147" lon="4.32306">
        <ele>159.2354736</ele>
        <time>2011-05-27T08:56:05Z</time>
      </trkpt>
      <trkpt lat="44.51469" lon="4.32291">
        <ele>158.2741699</ele>
        <time>2011-05-27T08:56:08Z</time>
      </trkpt>
      <trkpt lat="44.51474" lon="4.32278">
        <ele>157.3128662</ele>
        <time>2011-05-27T08:56:11Z</time>
      </trkpt>
      <trkpt lat="44.51481" lon="4.32269">
        <ele>156.8321533</ele>
        <time>2011-05-27T08:56:14Z</time>
      </trkpt>
      <trkpt lat="44.51488" lon="4.3226">
        <ele>156.8321533</ele>
        <time>2011-05-27T08:56:17Z</time>
      </trkpt>
      <trkpt lat="44.51498" lon="4.32251">
        <ele>156.8321533</ele>
        <time>2011-05-27T08:56:21Z</time>
      </trkpt>
      <trkpt lat="44.51506" lon="4.32244">
        <ele>156.3515625</ele>
        <time>2011-05-27T08:56:25Z</time>
      </trkpt>
      <trkpt lat="44.51514" lon="4.32237">
        <ele>157.3128662</ele>
        <time>2011-05-27T08:56:29Z</time>
      </trkpt>
      <trkpt lat="44.51527" lon="4.32233">
        <ele>155.8709717</ele>
        <time>2011-05-27T08:56:33Z</time>
      </trkpt>
      <trkpt lat="44.51537" lon="4.32233">
        <ele>156.3515625</ele>
        <time>2011-05-27T08:56:36Z</time>
      </trkpt>
      <trkpt lat="44.51546" lon="4.32234">
        <ele>156.3515625</ele>
        <time>2011-05-27T08:56:39Z</time>
      </trkpt>
      <trkpt lat="44.51556" lon="4.32239">
        <ele>157.3128662</ele>
        <time>2011-05-27T08:56:43Z</time>
      </trkpt>
      <trkpt lat="44.51564" lon="4.32246">
        <ele>156.8321533</ele>
        <time>2011-05-27T08:56:47Z</time>
      </trkpt>
      <trkpt lat="44.51571" lon="4.32254">
        <ele>156.8321533</ele>
        <time>2011-05-27T08:56:51Z</time>
      </trkpt>
      <trkpt lat="44.51578" lon="4.32264">
        <ele>157.3128662</ele>
        <time>2011-05-27T08:56:55Z</time>
      </trkpt>
      <trkpt lat="44.51586" lon="4.32274">
        <ele>158.2741699</ele>
        <time>2011-05-27T08:56:59Z</time>
      </trkpt>
      <trkpt lat="44.51593" lon="4.32285">
        <ele>157.7935791</ele>
        <time>2011-05-27T08:57:03Z</time>
      </trkpt>
      <trkpt lat="44.516" lon="4.32298">
        <ele>157.3128662</ele>
        <time>2011-05-27T08:57:07Z</time>
      </trkpt>
      <trkpt lat="44.51605" lon="4.32309">
        <ele>157.3128662</ele>
        <time>2011-05-27T08:57:10Z</time>
      </trkpt>
      <trkpt lat="44.5161" lon="4.32321">
        <ele>157.3128662</ele>
        <time>2011-05-27T08:57:13Z</time>
      </trkpt>
      <trkpt lat="44.51615" lon="4.32332">
        <ele>156.8321533</ele>
        <time>2011-05-27T08:57:16Z</time>
      </trkpt>
      <trkpt lat="44.5162" lon="4.32343">
        <ele>157.3128662</ele>
        <time>2011-05-27T08:57:19Z</time>
      </trkpt>
      <trkpt lat="44.51625" lon="4.32354">
        <ele>157.7935791</ele>
        <time>2011-05-27T08:57:22Z</time>
      </trkpt>
      <trkpt lat="44.51629" lon="4.32366">
        <ele>158.2741699</ele>
        <time>2011-05-27T08:57:25Z</time>
      </trkpt>
      <trkpt lat="44.51634" lon="4.32377">
        <ele>157.7935791</ele>
        <time>2011-05-27T08:57:28Z</time>
      </trkpt>
      <trkpt lat="44.51639" lon="4.32389">
        <ele>158.7547607</ele>
        <time>2011-05-27T08:57:31Z</time>
      </trkpt>
      <trkpt lat="44.51644" lon="4.32402">
        <ele>158.2741699</ele>
        <time>2011-05-27T08:57:34Z</time>
      </trkpt>
      <trkpt lat="44.51649" lon="4.32414">
        <ele>157.7935791</ele>
        <time>2011-05-27T08:57:37Z</time>
      </trkpt>
      <trkpt lat="44.51654" lon="4.32426">
        <ele>158.2741699</ele>
        <time>2011-05-27T08:57:40Z</time>
      </trkpt>
      <trkpt lat="44.5166" lon="4.32438">
        <ele>157.7935791</ele>
        <time>2011-05-27T08:57:43Z</time>
      </trkpt>
      <trkpt lat="44.51666" lon="4.3245">
        <ele>158.2741699</ele>
        <time>2011-05-27T08:57:46Z</time>
      </trkpt>
      <trkpt lat="44.51673" lon="4.3246">
        <ele>158.2741699</ele>
        <time>2011-05-27T08:57:49Z</time>
      </trkpt>
      <trkpt lat="44.51681" lon="4.32468">
        <ele>157.3128662</ele>
        <time>2011-05-27T08:57:52Z</time>
      </trkpt>
      <trkpt lat="44.51689" lon="4.32475">
        <ele>157.7935791</ele>
        <time>2011-05-27T08:57:55Z</time>
      </trkpt>
      <trkpt lat="44.51697" lon="4.3248">
        <ele>158.2741699</ele>
        <time>2011-05-27T08:57:58Z</time>
      </trkpt>
      <trkpt lat="44.51707" lon="4.32487">
        <ele>158.7547607</ele>
        <time>2011-05-27T08:58:02Z</time>
      </trkpt>
      <trkpt lat="44.51716" lon="4.32496">
        <ele>159.7161865</ele>
        <time>2011-05-27T08:58:06Z</time>
      </trkpt>
      <trkpt lat="44.51725" lon="4.32505">
        <ele>160.6774902</ele>
        <time>2011-05-27T08:58:10Z</time>
      </trkpt>
      <trkpt lat="44.51734" lon="4.32515">
        <ele>160.6774902</ele>
        <time>2011-05-27T08:58:14Z</time>
      </trkpt>
      <trkpt lat="44.51743" lon="4.32523">
        <ele>160.6774902</ele>
        <time>2011-05-27T08:58:18Z</time>
      </trkpt>
      <trkpt lat="44.51752" lon="4.32529">
        <ele>162.1195068</ele>
        <time>2011-05-27T08:58:22Z</time>
      </trkpt>
      <trkpt lat="44.51761" lon="4.32536">
        <ele>162.1195068</ele>
        <time>2011-05-27T08:58:26Z</time>
      </trkpt>
      <trkpt lat="44.51771" lon="4.32544">
        <ele>163.0808105</ele>
        <time>2011-05-27T08:58:30Z</time>
      </trkpt>
      <trkpt lat="44.51781" lon="4.32548">
        <ele>163.0808105</ele>
        <time>2011-05-27T08:58:33Z</time>
      </trkpt>
      <trkpt lat="44.51791" lon="4.32555">
        <ele>162.1195068</ele>
        <time>2011-05-27T08:58:36Z</time>
      </trkpt>
      <trkpt lat="44.518" lon="4.3256">
        <ele>163.0808105</ele>
        <time>2011-05-27T08:58:39Z</time>
      </trkpt>
      <trkpt lat="44.51809" lon="4.32565">
        <ele>162.6000977</ele>
        <time>2011-05-27T08:58:42Z</time>
      </trkpt>
      <trkpt lat="44.51819" lon="4.3257">
        <ele>162.6000977</ele>
        <time>2011-05-27T08:58:45Z</time>
      </trkpt>
      <trkpt lat="44.5183" lon="4.32574">
        <ele>162.6000977</ele>
        <time>2011-05-27T08:58:48Z</time>
      </trkpt>
      <trkpt lat="44.5184" lon="4.32578">
        <ele>162.6000977</ele>
        <time>2011-05-27T08:58:51Z</time>
      </trkpt>
      <trkpt lat="44.5185" lon="4.32582">
        <ele>163.0808105</ele>
        <time>2011-05-27T08:58:54Z</time>
      </trkpt>
      <trkpt lat="44.5186" lon="4.32587">
        <ele>163.5615234</ele>
        <time>2011-05-27T08:58:57Z</time>
      </trkpt>
      <trkpt lat="44.5187" lon="4.32593">
        <ele>163.5615234</ele>
        <time>2011-05-27T08:59:00Z</time>
      </trkpt>
      <trkpt lat="44.51877" lon="4.32602">
        <ele>163.0808105</ele>
        <time>2011-05-27T08:59:03Z</time>
      </trkpt>
      <trkpt lat="44.51882" lon="4.32614">
        <ele>164.5227051</ele>
        <time>2011-05-27T08:59:07Z</time>
      </trkpt>
      <trkpt lat="44.51888" lon="4.32627">
        <ele>165.9647217</ele>
        <time>2011-05-27T08:59:13Z</time>
      </trkpt>
      <trkpt lat="44.51893" lon="4.3264">
        <ele>166.4453125</ele>
        <time>2011-05-27T08:59:18Z</time>
      </trkpt>
      <trkpt lat="44.51899" lon="4.32652">
        <ele>166.4453125</ele>
        <time>2011-05-27T08:59:23Z</time>
      </trkpt>
      <trkpt lat="44.51905" lon="4.32657">
        <ele>167.8873291</ele>
        <time>2011-05-27T08:59:31Z</time>
      </trkpt>
      <trkpt lat="44.51895" lon="4.32655">
        <ele>166.9260254</ele>
        <time>2011-05-27T08:59:37Z</time>
      </trkpt>
      <trkpt lat="44.5189" lon="4.32667">
        <ele>165.4841309</ele>
        <time>2011-05-27T08:59:41Z</time>
      </trkpt>
      <trkpt lat="44.51898" lon="4.3268">
        <ele>164.5227051</ele>
        <time>2011-05-27T08:59:44Z</time>
      </trkpt>
      <trkpt lat="44.51904" lon="4.32693">
        <ele>162.1195068</ele>
        <time>2011-05-27T08:59:47Z</time>
      </trkpt>
      <trkpt lat="44.5191" lon="4.32703">
        <ele>163.0808105</ele>
        <time>2011-05-27T09:00:05Z</time>
      </trkpt>
      <trkpt lat="44.5192" lon="4.32705">
        <ele>164.5227051</ele>
        <time>2011-05-27T09:00:11Z</time>
      </trkpt>
      <trkpt lat="44.5193" lon="4.32706">
        <ele>164.5227051</ele>
        <time>2011-05-27T09:00:15Z</time>
      </trkpt>
      <trkpt lat="44.51941" lon="4.32713">
        <ele>165.003418</ele>
        <time>2011-05-27T09:00:20Z</time>
      </trkpt>
      <trkpt lat="44.5195" lon="4.32701">
        <ele>166.4453125</ele>
        <time>2011-05-27T09:00:25Z</time>
      </trkpt>
      <trkpt lat="44.51956" lon="4.32687">
        <ele>167.8873291</ele>
        <time>2011-05-27T09:00:31Z</time>
      </trkpt>
      <trkpt lat="44.51961" lon="4.32674">
        <ele>169.8100586</ele>
        <time>2011-05-27T09:00:36Z</time>
      </trkpt>
      <trkpt lat="44.51971" lon="4.3267">
        <ele>170.2906494</ele>
        <time>2011-05-27T09:00:41Z</time>
      </trkpt>
      <trkpt lat="44.51981" lon="4.32665">
        <ele>169.8100586</ele>
        <time>2011-05-27T09:00:45Z</time>
      </trkpt>
      <trkpt lat="44.51992" lon="4.32664">
        <ele>170.2906494</ele>
        <time>2011-05-27T09:00:49Z</time>
      </trkpt>
      <trkpt lat="44.52002" lon="4.32668">
        <ele>170.2906494</ele>
        <time>2011-05-27T09:00:54Z</time>
      </trkpt>
      <trkpt lat="44.52009" lon="4.32677">
        <ele>170.2906494</ele>
        <time>2011-05-27T09:00:59Z</time>
      </trkpt>
      <trkpt lat="44.52014" lon="4.32689">
        <ele>169.3294678</ele>
        <time>2011-05-27T09:01:05Z</time>
      </trkpt>
      <trkpt lat="44.5202" lon="4.32704">
        <ele>169.8100586</ele>
        <time>2011-05-27T09:01:10Z</time>
      </trkpt>
      <trkpt lat="44.52027" lon="4.32717">
        <ele>169.3294678</ele>
        <time>2011-05-27T09:01:14Z</time>
      </trkpt>
      <trkpt lat="44.52032" lon="4.32729">
        <ele>169.3294678</ele>
        <time>2011-05-27T09:01:19Z</time>
      </trkpt>
      <trkpt lat="44.52037" lon="4.32741">
        <ele>168.8487549</ele>
        <time>2011-05-27T09:01:25Z</time>
      </trkpt>
      <trkpt lat="44.52039" lon="4.32753">
        <ele>168.368042</ele>
        <time>2011-05-27T09:01:30Z</time>
      </trkpt>
      <trkpt lat="44.52034" lon="4.32765">
        <ele>166.9260254</ele>
        <time>2011-05-27T09:01:34Z</time>
      </trkpt>
      <trkpt lat="44.52028" lon="4.32777">
        <ele>166.4453125</ele>
        <time>2011-05-27T09:01:36Z</time>
      </trkpt>
      <trkpt lat="44.52022" lon="4.32792">
        <ele>165.4841309</ele>
        <time>2011-05-27T09:01:38Z</time>
      </trkpt>
      <trkpt lat="44.52017" lon="4.32808">
        <ele>165.003418</ele>
        <time>2011-05-27T09:01:40Z</time>
      </trkpt>
      <trkpt lat="44.52011" lon="4.32825">
        <ele>163.5615234</ele>
        <time>2011-05-27T09:01:42Z</time>
      </trkpt>
      <trkpt lat="44.52004" lon="4.32844">
        <ele>163.5615234</ele>
        <time>2011-05-27T09:01:44Z</time>
      </trkpt>
      <trkpt lat="44.51998" lon="4.32863">
        <ele>163.5615234</ele>
        <time>2011-05-27T09:01:46Z</time>
      </trkpt>
      <trkpt lat="44.51991" lon="4.32881">
        <ele>162.6000977</ele>
        <time>2011-05-27T09:01:48Z</time>
      </trkpt>
      <trkpt lat="44.51983" lon="4.32899">
        <ele>162.6000977</ele>
        <time>2011-05-27T09:01:50Z</time>
      </trkpt>
      <trkpt lat="44.51975" lon="4.32918">
        <ele>161.1582031</ele>
        <time>2011-05-27T09:01:52Z</time>
      </trkpt>
      <trkpt lat="44.51965" lon="4.32937">
        <ele>159.7161865</ele>
        <time>2011-05-27T09:01:54Z</time>
      </trkpt>
      <trkpt lat="44.51954" lon="4.32951">
        <ele>159.7161865</ele>
        <time>2011-05-27T09:01:56Z</time>
      </trkpt>
      <trkpt lat="44.51946" lon="4.32961">
        <ele>159.7161865</ele>
        <time>2011-05-27T09:01:58Z</time>
      </trkpt>
      <trkpt lat="44.51938" lon="4.32966">
        <ele>159.7161865</ele>
        <time>2011-05-27T09:02:00Z</time>
      </trkpt>
      <trkpt lat="44.51929" lon="4.32961">
        <ele>160.1968994</ele>
        <time>2011-05-27T09:02:03Z</time>
      </trkpt>
      <trkpt lat="44.5192" lon="4.3295">
        <ele>160.1968994</ele>
        <time>2011-05-27T09:02:07Z</time>
      </trkpt>
      <trkpt lat="44.51916" lon="4.32937">
        <ele>159.7161865</ele>
        <time>2011-05-27T09:02:12Z</time>
      </trkpt>
      <trkpt lat="44.51912" lon="4.32932">
        <ele>158.7547607</ele>
        <time>2011-05-27T09:02:20Z</time>
      </trkpt>
      <trkpt lat="44.51923" lon="4.32972">
        <ele>159.7161865</ele>
        <time>2011-05-27T11:05:44Z</time>
      </trkpt>
      <trkpt lat="44.51931" lon="4.32968">
        <ele>159.7161865</ele>
        <time>2011-05-27T11:06:36Z</time>
      </trkpt>
      <trkpt lat="44.51938" lon="4.32974">
        <ele>160.1968994</ele>
        <time>2011-05-27T11:07:13Z</time>
      </trkpt>
      <trkpt lat="44.51945" lon="4.32962">
        <ele>158.7547607</ele>
        <time>2011-05-27T11:12:06Z</time>
      </trkpt>
      <trkpt lat="44.51954" lon="4.32952">
        <ele>159.2354736</ele>
        <time>2011-05-27T11:12:13Z</time>
      </trkpt>
      <trkpt lat="44.51962" lon="4.32942">
        <ele>159.2354736</ele>
        <time>2011-05-27T11:12:18Z</time>
      </trkpt>
      <trkpt lat="44.5197" lon="4.32931">
        <ele>159.7161865</ele>
        <time>2011-05-27T11:12:23Z</time>
      </trkpt>
      <trkpt lat="44.51975" lon="4.3292">
        <ele>159.7161865</ele>
        <time>2011-05-27T11:12:27Z</time>
      </trkpt>
      <trkpt lat="44.5198" lon="4.32908">
        <ele>159.7161865</ele>
        <time>2011-05-27T11:12:31Z</time>
      </trkpt>
      <trkpt lat="44.51987" lon="4.32895">
        <ele>159.7161865</ele>
        <time>2011-05-27T11:12:36Z</time>
      </trkpt>
      <trkpt lat="44.51991" lon="4.32884">
        <ele>160.6774902</ele>
        <time>2011-05-27T11:12:40Z</time>
      </trkpt>
      <trkpt lat="44.51996" lon="4.32872">
        <ele>161.1582031</ele>
        <time>2011-05-27T11:12:44Z</time>
      </trkpt>
      <trkpt lat="44.52001" lon="4.32859">
        <ele>161.1582031</ele>
        <time>2011-05-27T11:12:48Z</time>
      </trkpt>
      <trkpt lat="44.52006" lon="4.32844">
        <ele>162.6000977</ele>
        <time>2011-05-27T11:12:52Z</time>
      </trkpt>
      <trkpt lat="44.52011" lon="4.3283">
        <ele>162.6000977</ele>
        <time>2011-05-27T11:12:56Z</time>
      </trkpt>
      <trkpt lat="44.52016" lon="4.32815">
        <ele>163.5615234</ele>
        <time>2011-05-27T11:13:00Z</time>
      </trkpt>
      <trkpt lat="44.52021" lon="4.32801">
        <ele>164.0421143</ele>
        <time>2011-05-27T11:13:04Z</time>
      </trkpt>
      <trkpt lat="44.52026" lon="4.32787">
        <ele>165.4841309</ele>
        <time>2011-05-27T11:13:08Z</time>
      </trkpt>
      <trkpt lat="44.52031" lon="4.32775">
        <ele>166.4453125</ele>
        <time>2011-05-27T11:13:12Z</time>
      </trkpt>
      <trkpt lat="44.52036" lon="4.32763">
        <ele>168.368042</ele>
        <time>2011-05-27T11:13:16Z</time>
      </trkpt>
      <trkpt lat="44.52041" lon="4.32753">
        <ele>168.8487549</ele>
        <time>2011-05-27T11:13:20Z</time>
      </trkpt>
      <trkpt lat="44.52043" lon="4.32737">
        <ele>170.2906494</ele>
        <time>2011-05-27T11:13:27Z</time>
      </trkpt>
      <trkpt lat="44.52037" lon="4.32723">
        <ele>170.7713623</ele>
        <time>2011-05-27T11:13:31Z</time>
      </trkpt>
      <trkpt lat="44.52031" lon="4.32711">
        <ele>170.2906494</ele>
        <time>2011-05-27T11:13:34Z</time>
      </trkpt>
      <trkpt lat="44.52025" lon="4.32699">
        <ele>171.2520752</ele>
        <time>2011-05-27T11:13:37Z</time>
      </trkpt>
      <trkpt lat="44.52019" lon="4.32687">
        <ele>171.2520752</ele>
        <time>2011-05-27T11:13:40Z</time>
      </trkpt>
      <trkpt lat="44.52013" lon="4.32676">
        <ele>171.2520752</ele>
        <time>2011-05-27T11:13:43Z</time>
      </trkpt>
      <trkpt lat="44.52004" lon="4.32669">
        <ele>171.2520752</ele>
        <time>2011-05-27T11:13:46Z</time>
      </trkpt>
      <trkpt lat="44.51994" lon="4.32663">
        <ele>171.732666</ele>
        <time>2011-05-27T11:13:50Z</time>
      </trkpt>
      <trkpt lat="44.51983" lon="4.32662">
        <ele>171.2520752</ele>
        <time>2011-05-27T11:13:54Z</time>
      </trkpt>
      <trkpt lat="44.51973" lon="4.32667">
        <ele>171.2520752</ele>
        <time>2011-05-27T11:13:58Z</time>
      </trkpt>
      <trkpt lat="44.51963" lon="4.32672">
        <ele>171.732666</ele>
        <time>2011-05-27T11:14:03Z</time>
      </trkpt>
      <trkpt lat="44.51957" lon="4.32683">
        <ele>169.8100586</ele>
        <time>2011-05-27T11:14:09Z</time>
      </trkpt>
      <trkpt lat="44.51951" lon="4.32695">
        <ele>168.368042</ele>
        <time>2011-05-27T11:14:17Z</time>
      </trkpt>
      <trkpt lat="44.51945" lon="4.32707">
        <ele>166.9260254</ele>
        <time>2011-05-27T11:14:27Z</time>
      </trkpt>
      <trkpt lat="44.51936" lon="4.32703">
        <ele>166.4453125</ele>
        <time>2011-05-27T11:14:33Z</time>
      </trkpt>
      <trkpt lat="44.51926" lon="4.32699">
        <ele>165.9647217</ele>
        <time>2011-05-27T11:14:42Z</time>
      </trkpt>
      <trkpt lat="44.51923" lon="4.32684">
        <ele>168.368042</ele>
        <time>2011-05-27T11:14:58Z</time>
      </trkpt>
      <trkpt lat="44.51913" lon="4.32682">
        <ele>168.8487549</ele>
        <time>2011-05-27T11:15:03Z</time>
      </trkpt>
      <trkpt lat="44.51903" lon="4.3268">
        <ele>167.4067383</ele>
        <time>2011-05-27T11:15:06Z</time>
      </trkpt>
      <trkpt lat="44.51894" lon="4.32675">
        <ele>165.9647217</ele>
        <time>2011-05-27T11:15:08Z</time>
      </trkpt>
      <trkpt lat="44.51887" lon="4.32666">
        <ele>165.9647217</ele>
        <time>2011-05-27T11:15:10Z</time>
      </trkpt>
      <trkpt lat="44.51891" lon="4.32652">
        <ele>167.8873291</ele>
        <time>2011-05-27T11:15:14Z</time>
      </trkpt>
      <trkpt lat="44.51887" lon="4.32639">
        <ele>168.368042</ele>
        <time>2011-05-27T11:15:18Z</time>
      </trkpt>
      <trkpt lat="44.51884" lon="4.32624">
        <ele>167.4067383</ele>
        <time>2011-05-27T11:15:21Z</time>
      </trkpt>
      <trkpt lat="44.51879" lon="4.32612">
        <ele>166.4453125</ele>
        <time>2011-05-27T11:15:23Z</time>
      </trkpt>
      <trkpt lat="44.51871" lon="4.32597">
        <ele>165.003418</ele>
        <time>2011-05-27T11:15:25Z</time>
      </trkpt>
      <trkpt lat="44.5186" lon="4.32587">
        <ele>165.4841309</ele>
        <time>2011-05-27T11:15:27Z</time>
      </trkpt>
      <trkpt lat="44.51848" lon="4.32582">
        <ele>165.4841309</ele>
        <time>2011-05-27T11:15:29Z</time>
      </trkpt>
      <trkpt lat="44.51836" lon="4.32577">
        <ele>165.003418</ele>
        <time>2011-05-27T11:15:31Z</time>
      </trkpt>
      <trkpt lat="44.51825" lon="4.32572">
        <ele>165.003418</ele>
        <time>2011-05-27T11:15:33Z</time>
      </trkpt>
      <trkpt lat="44.51815" lon="4.32568">
        <ele>165.003418</ele>
        <time>2011-05-27T11:15:35Z</time>
      </trkpt>
      <trkpt lat="44.51804" lon="4.32563">
        <ele>165.003418</ele>
        <time>2011-05-27T11:15:37Z</time>
      </trkpt>
      <trkpt lat="44.51795" lon="4.32556">
        <ele>164.5227051</ele>
        <time>2011-05-27T11:15:39Z</time>
      </trkpt>
      <trkpt lat="44.51785" lon="4.32549">
        <ele>164.5227051</ele>
        <time>2011-05-27T11:15:41Z</time>
      </trkpt>
      <trkpt lat="44.51775" lon="4.32545">
        <ele>164.0421143</ele>
        <time>2011-05-27T11:15:43Z</time>
      </trkpt>
      <trkpt lat="44.51765" lon="4.32543">
        <ele>164.5227051</ele>
        <time>2011-05-27T11:15:45Z</time>
      </trkpt>
      <trkpt lat="44.51756" lon="4.32537">
        <ele>164.0421143</ele>
        <time>2011-05-27T11:15:47Z</time>
      </trkpt>
      <trkpt lat="44.51747" lon="4.32528">
        <ele>163.5615234</ele>
        <time>2011-05-27T11:15:49Z</time>
      </trkpt>
      <trkpt lat="44.51737" lon="4.32514">
        <ele>163.0808105</ele>
        <time>2011-05-27T11:15:51Z</time>
      </trkpt>
      <trkpt lat="44.51726" lon="4.32504">
        <ele>161.638916</ele>
        <time>2011-05-27T11:15:53Z</time>
      </trkpt>
      <trkpt lat="44.51714" lon="4.32493">
        <ele>161.1582031</ele>
        <time>2011-05-27T11:15:55Z</time>
      </trkpt>
      <trkpt lat="44.51701" lon="4.32481">
        <ele>159.7161865</ele>
        <time>2011-05-27T11:15:57Z</time>
      </trkpt>
      <trkpt lat="44.51688" lon="4.32471">
        <ele>159.7161865</ele>
        <time>2011-05-27T11:15:59Z</time>
      </trkpt>
      <trkpt lat="44.51675" lon="4.32461">
        <ele>159.2354736</ele>
        <time>2011-05-27T11:16:01Z</time>
      </trkpt>
      <trkpt lat="44.51664" lon="4.32448">
        <ele>158.2741699</ele>
        <time>2011-05-27T11:16:03Z</time>
      </trkpt>
      <trkpt lat="44.51655" lon="4.32432">
        <ele>158.7547607</ele>
        <time>2011-05-27T11:16:05Z</time>
      </trkpt>
      <trkpt lat="44.51648" lon="4.32417">
        <ele>158.2741699</ele>
        <time>2011-05-27T11:16:07Z</time>
      </trkpt>
      <trkpt lat="44.51642" lon="4.32402">
        <ele>158.2741699</ele>
        <time>2011-05-27T11:16:09Z</time>
      </trkpt>
      <trkpt lat="44.51636" lon="4.32389">
        <ele>157.3128662</ele>
        <time>2011-05-27T11:16:11Z</time>
      </trkpt>
      <trkpt lat="44.51631" lon="4.32375">
        <ele>158.2741699</ele>
        <time>2011-05-27T11:16:13Z</time>
      </trkpt>
      <trkpt lat="44.51626" lon="4.32363">
        <ele>158.2741699</ele>
        <time>2011-05-27T11:16:15Z</time>
      </trkpt>
      <trkpt lat="44.5162" lon="4.3235">
        <ele>158.7547607</ele>
        <time>2011-05-27T11:16:17Z</time>
      </trkpt>
      <trkpt lat="44.51615" lon="4.32338">
        <ele>158.7547607</ele>
        <time>2011-05-27T11:16:19Z</time>
      </trkpt>
      <trkpt lat="44.51609" lon="4.32326">
        <ele>158.2741699</ele>
        <time>2011-05-27T11:16:21Z</time>
      </trkpt>
      <trkpt lat="44.51604" lon="4.32312">
        <ele>158.2741699</ele>
        <time>2011-05-27T11:16:23Z</time>
      </trkpt>
      <trkpt lat="44.51598" lon="4.32299">
        <ele>158.2741699</ele>
        <time>2011-05-27T11:16:25Z</time>
      </trkpt>
      <trkpt lat="44.51592" lon="4.32287">
        <ele>158.2741699</ele>
        <time>2011-05-27T11:16:27Z</time>
      </trkpt>
      <trkpt lat="44.51585" lon="4.32275">
        <ele>158.2741699</ele>
        <time>2011-05-27T11:16:29Z</time>
      </trkpt>
      <trkpt lat="44.51578" lon="4.32264">
        <ele>158.2741699</ele>
        <time>2011-05-27T11:16:31Z</time>
      </trkpt>
      <trkpt lat="44.5157" lon="4.32253">
        <ele>157.7935791</ele>
        <time>2011-05-27T11:16:33Z</time>
      </trkpt>
      <trkpt lat="44.51562" lon="4.32243">
        <ele>157.7935791</ele>
        <time>2011-05-27T11:16:35Z</time>
      </trkpt>
      <trkpt lat="44.51553" lon="4.32235">
        <ele>158.2741699</ele>
        <time>2011-05-27T11:16:37Z</time>
      </trkpt>
      <trkpt lat="44.51542" lon="4.32231">
        <ele>157.7935791</ele>
        <time>2011-05-27T11:16:39Z</time>
      </trkpt>
      <trkpt lat="44.5153" lon="4.3223">
        <ele>156.8321533</ele>
        <time>2011-05-27T11:16:41Z</time>
      </trkpt>
      <trkpt lat="44.51519" lon="4.32232">
        <ele>156.8321533</ele>
        <time>2011-05-27T11:16:43Z</time>
      </trkpt>
      <trkpt lat="44.51509" lon="4.32236">
        <ele>157.7935791</ele>
        <time>2011-05-27T11:16:45Z</time>
      </trkpt>
      <trkpt lat="44.51501" lon="4.32243">
        <ele>157.7935791</ele>
        <time>2011-05-27T11:16:47Z</time>
      </trkpt>
      <trkpt lat="44.51493" lon="4.32251">
        <ele>158.2741699</ele>
        <time>2011-05-27T11:16:49Z</time>
      </trkpt>
      <trkpt lat="44.51485" lon="4.3226">
        <ele>157.7935791</ele>
        <time>2011-05-27T11:16:51Z</time>
      </trkpt>
      <trkpt lat="44.51478" lon="4.3227">
        <ele>157.7935791</ele>
        <time>2011-05-27T11:16:53Z</time>
      </trkpt>
      <trkpt lat="44.5147" lon="4.32277">
        <ele>158.7547607</ele>
        <time>2011-05-27T11:16:55Z</time>
      </trkpt>
      <trkpt lat="44.51461" lon="4.32277">
        <ele>157.7935791</ele>
        <time>2011-05-27T11:16:57Z</time>
      </trkpt>
      <trkpt lat="44.5145" lon="4.32266">
        <ele>159.2354736</ele>
        <time>2011-05-27T11:17:00Z</time>
      </trkpt>
      <trkpt lat="44.51442" lon="4.32259">
        <ele>159.2354736</ele>
        <time>2011-05-27T11:17:02Z</time>
      </trkpt>
      <trkpt lat="44.51433" lon="4.32252">
        <ele>159.7161865</ele>
        <time>2011-05-27T11:17:04Z</time>
      </trkpt>
      <trkpt lat="44.51424" lon="4.32246">
        <ele>159.2354736</ele>
        <time>2011-05-27T11:17:06Z</time>
      </trkpt>
      <trkpt lat="44.51415" lon="4.32237">
        <ele>158.7547607</ele>
        <time>2011-05-27T11:17:08Z</time>
      </trkpt>
      <trkpt lat="44.51407" lon="4.32228">
        <ele>158.7547607</ele>
        <time>2011-05-27T11:17:10Z</time>
      </trkpt>
      <trkpt lat="44.51399" lon="4.32217">
        <ele>159.2354736</ele>
        <time>2011-05-27T11:17:12Z</time>
      </trkpt>
      <trkpt lat="44.51392" lon="4.32205">
        <ele>158.2741699</ele>
        <time>2011-05-27T11:17:14Z</time>
      </trkpt>
      <trkpt lat="44.51384" lon="4.32193">
        <ele>158.7547607</ele>
        <time>2011-05-27T11:17:16Z</time>
      </trkpt>
      <trkpt lat="44.51376" lon="4.32183">
        <ele>159.2354736</ele>
        <time>2011-05-27T11:17:18Z</time>
      </trkpt>
      <trkpt lat="44.51367" lon="4.32173">
        <ele>158.7547607</ele>
        <time>2011-05-27T11:17:20Z</time>
      </trkpt>
      <trkpt lat="44.51357" lon="4.32165">
        <ele>158.2741699</ele>
        <time>2011-05-27T11:17:22Z</time>
      </trkpt>
      <trkpt lat="44.51346" lon="4.32156">
        <ele>157.7935791</ele>
        <time>2011-05-27T11:17:24Z</time>
      </trkpt>
      <trkpt lat="44.51336" lon="4.32146">
        <ele>158.2741699</ele>
        <time>2011-05-27T11:17:26Z</time>
      </trkpt>
      <trkpt lat="44.51325" lon="4.32137">
        <ele>157.7935791</ele>
        <time>2011-05-27T11:17:28Z</time>
      </trkpt>
      <trkpt lat="44.51315" lon="4.32127">
        <ele>157.7935791</ele>
        <time>2011-05-27T11:17:30Z</time>
      </trkpt>
      <trkpt lat="44.51305" lon="4.32117">
        <ele>158.2741699</ele>
        <time>2011-05-27T11:17:32Z</time>
      </trkpt>
      <trkpt lat="44.51295" lon="4.32108">
        <ele>158.2741699</ele>
        <time>2011-05-27T11:17:34Z</time>
      </trkpt>
      <trkpt lat="44.51284" lon="4.32102">
        <ele>158.7547607</ele>
        <time>2011-05-27T11:17:36Z</time>
      </trkpt>
      <trkpt lat="44.51271" lon="4.32097">
        <ele>157.7935791</ele>
        <time>2011-05-27T11:17:38Z</time>
      </trkpt>
      <trkpt lat="44.51258" lon="4.32093">
        <ele>157.7935791</ele>
        <time>2011-05-27T11:17:40Z</time>
      </trkpt>
      <trkpt lat="44.51244" lon="4.3209">
        <ele>157.7935791</ele>
        <time>2011-05-27T11:17:42Z</time>
      </trkpt>
      <trkpt lat="44.51231" lon="4.32088">
        <ele>157.3128662</ele>
        <time>2011-05-27T11:17:44Z</time>
      </trkpt>
      <trkpt lat="44.51218" lon="4.32084">
        <ele>157.3128662</ele>
        <time>2011-05-27T11:17:46Z</time>
      </trkpt>
      <trkpt lat="44.51205" lon="4.32079">
        <ele>156.8321533</ele>
        <time>2011-05-27T11:17:48Z</time>
      </trkpt>
      <trkpt lat="44.51192" lon="4.32072">
        <ele>157.3128662</ele>
        <time>2011-05-27T11:17:50Z</time>
      </trkpt>
      <trkpt lat="44.5118" lon="4.32066">
        <ele>157.3128662</ele>
        <time>2011-05-27T11:17:52Z</time>
      </trkpt>
      <trkpt lat="44.51168" lon="4.3206">
        <ele>157.3128662</ele>
        <time>2011-05-27T11:17:54Z</time>
      </trkpt>
      <trkpt lat="44.51156" lon="4.32055">
        <ele>157.3128662</ele>
        <time>2011-05-27T11:17:56Z</time>
      </trkpt>
      <trkpt lat="44.51144" lon="4.32049">
        <ele>158.2741699</ele>
        <time>2011-05-27T11:17:58Z</time>
      </trkpt>
      <trkpt lat="44.51132" lon="4.32043">
        <ele>158.2741699</ele>
        <time>2011-05-27T11:18:00Z</time>
      </trkpt>
      <trkpt lat="44.51122" lon="4.32037">
        <ele>158.2741699</ele>
        <time>2011-05-27T11:18:02Z</time>
      </trkpt>
      <trkpt lat="44.51114" lon="4.3203">
        <ele>158.7547607</ele>
        <time>2011-05-27T11:18:04Z</time>
      </trkpt>
      <trkpt lat="44.51105" lon="4.32023">
        <ele>158.7547607</ele>
        <time>2011-05-27T11:18:06Z</time>
      </trkpt>
      <trkpt lat="44.51095" lon="4.32015">
        <ele>158.2741699</ele>
        <time>2011-05-27T11:18:08Z</time>
      </trkpt>
      <trkpt lat="44.51084" lon="4.32007">
        <ele>157.7935791</ele>
        <time>2011-05-27T11:18:10Z</time>
      </trkpt>
      <trkpt lat="44.51073" lon="4.32001">
        <ele>158.2741699</ele>
        <time>2011-05-27T11:18:12Z</time>
      </trkpt>
      <trkpt lat="44.51063" lon="4.32004">
        <ele>159.2354736</ele>
        <time>2011-05-27T11:18:14Z</time>
      </trkpt>
      <trkpt lat="44.51057" lon="4.32018">
        <ele>160.6774902</ele>
        <time>2011-05-27T11:18:17Z</time>
      </trkpt>
      <trkpt lat="44.51047" lon="4.32026">
        <ele>160.1968994</ele>
        <time>2011-05-27T11:18:20Z</time>
      </trkpt>
      <trkpt lat="44.51037" lon="4.32022">
        <ele>160.6774902</ele>
        <time>2011-05-27T11:18:23Z</time>
      </trkpt>
      <trkpt lat="44.51027" lon="4.32016">
        <ele>161.1582031</ele>
        <time>2011-05-27T11:18:27Z</time>
      </trkpt>
      <trkpt lat="44.51018" lon="4.3201">
        <ele>160.1968994</ele>
        <time>2011-05-27T11:18:32Z</time>
      </trkpt>
      <trkpt lat="44.51009" lon="4.32004">
        <ele>159.2354736</ele>
        <time>2011-05-27T11:18:38Z</time>
      </trkpt>
      <trkpt lat="44.51" lon="4.31999">
        <ele>157.7935791</ele>
        <time>2011-05-27T11:18:46Z</time>
      </trkpt>
      <trkpt lat="44.50993" lon="4.31998">
        <ele>157.3128662</ele>
        <time>2011-05-27T11:19:53Z</time>
      </trkpt>
      <trkpt lat="44.50989" lon="4.31995">
        <ele>157.3128662</ele>
        <time>2011-05-27T11:22:12Z</time>
      </trkpt>
      <trkpt lat="44.50981" lon="4.31986">
        <ele>156.3515625</ele>
        <time>2011-05-27T11:22:31Z</time>
      </trkpt>
      <trkpt lat="44.50974" lon="4.31984">
        <ele>157.3128662</ele>
        <time>2011-05-27T11:27:57Z</time>
      </trkpt>
      <trkpt lat="44.50963" lon="4.31985">
        <ele>156.8321533</ele>
        <time>2011-05-27T11:28:57Z</time>
      </trkpt>
      <trkpt lat="44.50955" lon="4.31986">
        <ele>153.9483643</ele>
        <time>2011-05-27T11:30:09Z</time>
      </trkpt>
      <trkpt lat="44.50949" lon="4.3198">
        <ele>151.5449219</ele>
        <time>2011-05-27T11:30:39Z</time>
      </trkpt>
      <trkpt lat="44.5094" lon="4.31976">
        <ele>151.5449219</ele>
        <time>2011-05-27T11:30:52Z</time>
      </trkpt>
      <trkpt lat="44.50935" lon="4.31973">
        <ele>151.5449219</ele>
        <time>2011-05-27T11:33:22Z</time>
      </trkpt>
      <trkpt lat="44.50928" lon="4.31963">
        <ele>152.5063477</ele>
        <time>2011-05-27T11:33:40Z</time>
      </trkpt>
      <trkpt lat="44.50918" lon="4.31958">
        <ele>153.4676514</ele>
        <time>2011-05-27T11:33:51Z</time>
      </trkpt>
      <trkpt lat="44.50909" lon="4.31944">
        <ele>154.9095459</ele>
        <time>2011-05-27T11:34:30Z</time>
      </trkpt>
      <trkpt lat="44.50902" lon="4.31946">
        <ele>156.3515625</ele>
        <time>2011-05-27T11:34:49Z</time>
      </trkpt>
      <trkpt lat="44.50894" lon="4.31956">
        <ele>158.7547607</ele>
        <time>2011-05-27T11:35:03Z</time>
      </trkpt>
      <trkpt lat="44.50887" lon="4.31964">
        <ele>161.1582031</ele>
        <time>2011-05-27T11:35:16Z</time>
      </trkpt>
      <trkpt lat="44.5088" lon="4.3196">
        <ele>165.4841309</ele>
        <time>2011-05-27T11:35:31Z</time>
      </trkpt>
      <trkpt lat="44.50883" lon="4.3195">
        <ele>165.9647217</ele>
        <time>2011-05-27T11:35:49Z</time>
      </trkpt>
      <trkpt lat="44.50886" lon="4.31937">
        <ele>166.9260254</ele>
        <time>2011-05-27T11:36:03Z</time>
      </trkpt>
      <trkpt lat="44.50888" lon="4.31923">
        <ele>167.8873291</ele>
        <time>2011-05-27T11:36:09Z</time>
      </trkpt>
      <trkpt lat="44.50891" lon="4.31909">
        <ele>170.2906494</ele>
        <time>2011-05-27T11:36:15Z</time>
      </trkpt>
      <trkpt lat="44.50895" lon="4.31896">
        <ele>170.2906494</ele>
        <time>2011-05-27T11:36:20Z</time>
      </trkpt>
      <trkpt lat="44.50902" lon="4.31886">
        <ele>170.7713623</ele>
        <time>2011-05-27T11:36:25Z</time>
      </trkpt>
      <trkpt lat="44.50909" lon="4.31877">
        <ele>170.2906494</ele>
        <time>2011-05-27T11:36:29Z</time>
      </trkpt>
      <trkpt lat="44.50916" lon="4.31866">
        <ele>171.732666</ele>
        <time>2011-05-27T11:36:34Z</time>
      </trkpt>
      <trkpt lat="44.50923" lon="4.31854">
        <ele>172.6939697</ele>
        <time>2011-05-27T11:36:40Z</time>
      </trkpt>
      <trkpt lat="44.50927" lon="4.31842">
        <ele>173.6552734</ele>
        <time>2011-05-27T11:36:45Z</time>
      </trkpt>
      <trkpt lat="44.5093" lon="4.31829">
        <ele>173.6552734</ele>
        <time>2011-05-27T11:36:50Z</time>
      </trkpt>
      <trkpt lat="44.50934" lon="4.31814">
        <ele>172.6939697</ele>
        <time>2011-05-27T11:36:54Z</time>
      </trkpt>
      <trkpt lat="44.50936" lon="4.31799">
        <ele>172.2132568</ele>
        <time>2011-05-27T11:36:57Z</time>
      </trkpt>
      <trkpt lat="44.5094" lon="4.31781">
        <ele>170.2906494</ele>
        <time>2011-05-27T11:37:00Z</time>
      </trkpt>
      <trkpt lat="44.50945" lon="4.31763">
        <ele>169.8100586</ele>
        <time>2011-05-27T11:37:03Z</time>
      </trkpt>
      <trkpt lat="44.50951" lon="4.31746">
        <ele>169.3294678</ele>
        <time>2011-05-27T11:37:06Z</time>
      </trkpt>
      <trkpt lat="44.50957" lon="4.31735">
        <ele>168.368042</ele>
        <time>2011-05-27T11:37:08Z</time>
      </trkpt>
      <trkpt lat="44.50966" lon="4.31719">
        <ele>166.9260254</ele>
        <time>2011-05-27T11:37:11Z</time>
      </trkpt>
      <trkpt lat="44.50973" lon="4.31709">
        <ele>167.8873291</ele>
        <time>2011-05-27T11:37:15Z</time>
      </trkpt>
      <trkpt lat="44.50971" lon="4.31698">
        <ele>169.8100586</ele>
        <time>2011-05-27T11:37:22Z</time>
      </trkpt>
      <trkpt lat="44.50961" lon="4.31696">
        <ele>169.8100586</ele>
        <time>2011-05-27T11:37:26Z</time>
      </trkpt>
      <trkpt lat="44.50952" lon="4.31692">
        <ele>169.3294678</ele>
        <time>2011-05-27T11:37:30Z</time>
      </trkpt>
      <trkpt lat="44.50942" lon="4.31688">
        <ele>168.368042</ele>
        <time>2011-05-27T11:37:35Z</time>
      </trkpt>
      <trkpt lat="44.50932" lon="4.31683">
        <ele>167.8873291</ele>
        <time>2011-05-27T11:37:40Z</time>
      </trkpt>
      <trkpt lat="44.50923" lon="4.31677">
        <ele>167.8873291</ele>
        <time>2011-05-27T11:37:44Z</time>
      </trkpt>
      <trkpt lat="44.50916" lon="4.31667">
        <ele>166.9260254</ele>
        <time>2011-05-27T11:37:47Z</time>
      </trkpt>
      <trkpt lat="44.50904" lon="4.31657">
        <ele>166.9260254</ele>
        <time>2011-05-27T11:37:50Z</time>
      </trkpt>
      <trkpt lat="44.50894" lon="4.3165">
        <ele>165.9647217</ele>
        <time>2011-05-27T11:37:52Z</time>
      </trkpt>
      <trkpt lat="44.50883" lon="4.31643">
        <ele>165.9647217</ele>
        <time>2011-05-27T11:37:54Z</time>
      </trkpt>
      <trkpt lat="44.5087" lon="4.31635">
        <ele>165.4841309</ele>
        <time>2011-05-27T11:37:56Z</time>
      </trkpt>
      <trkpt lat="44.50857" lon="4.31627">
        <ele>164.5227051</ele>
        <time>2011-05-27T11:37:58Z</time>
      </trkpt>
      <trkpt lat="44.50842" lon="4.31618">
        <ele>163.0808105</ele>
        <time>2011-05-27T11:38:00Z</time>
      </trkpt>
      <trkpt lat="44.50827" lon="4.31608">
        <ele>161.638916</ele>
        <time>2011-05-27T11:38:02Z</time>
      </trkpt>
      <trkpt lat="44.50819" lon="4.31603">
        <ele>161.1582031</ele>
        <time>2011-05-27T11:38:03Z</time>
      </trkpt>
      <trkpt lat="44.50804" lon="4.31592">
        <ele>160.6774902</ele>
        <time>2011-05-27T11:38:05Z</time>
      </trkpt>
      <trkpt lat="44.50789" lon="4.31578">
        <ele>160.6774902</ele>
        <time>2011-05-27T11:38:07Z</time>
      </trkpt>
      <trkpt lat="44.50777" lon="4.31561">
        <ele>160.6774902</ele>
        <time>2011-05-27T11:38:09Z</time>
      </trkpt>
      <trkpt lat="44.50767" lon="4.31542">
        <ele>160.6774902</ele>
        <time>2011-05-27T11:38:11Z</time>
      </trkpt>
      <trkpt lat="44.50759" lon="4.31523">
        <ele>160.6774902</ele>
        <time>2011-05-27T11:38:13Z</time>
      </trkpt>
      <trkpt lat="44.50753" lon="4.31503">
        <ele>161.1582031</ele>
        <time>2011-05-27T11:38:15Z</time>
      </trkpt>
      <trkpt lat="44.50748" lon="4.31485">
        <ele>161.1582031</ele>
        <time>2011-05-27T11:38:17Z</time>
      </trkpt>
      <trkpt lat="44.50742" lon="4.31472">
        <ele>161.1582031</ele>
        <time>2011-05-27T11:38:19Z</time>
      </trkpt>
      <trkpt lat="44.50734" lon="4.31471">
        <ele>161.1582031</ele>
        <time>2011-05-27T11:38:21Z</time>
      </trkpt>
      <trkpt lat="44.50725" lon="4.31478">
        <ele>160.1968994</ele>
        <time>2011-05-27T11:38:23Z</time>
      </trkpt>
      <trkpt lat="44.50716" lon="4.31486">
        <ele>159.2354736</ele>
        <time>2011-05-27T11:38:25Z</time>
      </trkpt>
      <trkpt lat="44.50706" lon="4.31495">
        <ele>158.7547607</ele>
        <time>2011-05-27T11:38:27Z</time>
      </trkpt>
      <trkpt lat="44.50694" lon="4.31505">
        <ele>157.3128662</ele>
        <time>2011-05-27T11:38:29Z</time>
      </trkpt>
      <trkpt lat="44.5068" lon="4.31513">
        <ele>156.8321533</ele>
        <time>2011-05-27T11:38:31Z</time>
      </trkpt>
      <trkpt lat="44.50665" lon="4.3152">
        <ele>156.8321533</ele>
        <time>2011-05-27T11:38:33Z</time>
      </trkpt>
      <trkpt lat="44.5065" lon="4.31521">
        <ele>155.8709717</ele>
        <time>2011-05-27T11:38:35Z</time>
      </trkpt>
      <trkpt lat="44.50637" lon="4.31517">
        <ele>156.3515625</ele>
        <time>2011-05-27T11:38:37Z</time>
      </trkpt>
      <trkpt lat="44.50625" lon="4.31512">
        <ele>156.8321533</ele>
        <time>2011-05-27T11:38:39Z</time>
      </trkpt>
      <trkpt lat="44.50614" lon="4.3151">
        <ele>156.8321533</ele>
        <time>2011-05-27T11:38:41Z</time>
      </trkpt>
      <trkpt lat="44.50604" lon="4.3151">
        <ele>157.3128662</ele>
        <time>2011-05-27T11:38:43Z</time>
      </trkpt>
      <trkpt lat="44.50595" lon="4.31511">
        <ele>157.7935791</ele>
        <time>2011-05-27T11:38:45Z</time>
      </trkpt>
      <trkpt lat="44.50587" lon="4.31512">
        <ele>157.3128662</ele>
        <time>2011-05-27T11:38:47Z</time>
      </trkpt>
      <trkpt lat="44.50578" lon="4.31515">
        <ele>157.7935791</ele>
        <time>2011-05-27T11:38:49Z</time>
      </trkpt>
      <trkpt lat="44.50569" lon="4.31518">
        <ele>157.7935791</ele>
        <time>2011-05-27T11:38:51Z</time>
      </trkpt>
      <trkpt lat="44.5056" lon="4.31522">
        <ele>157.7935791</ele>
        <time>2011-05-27T11:38:53Z</time>
      </trkpt>
      <trkpt lat="44.50551" lon="4.31526">
        <ele>157.7935791</ele>
        <time>2011-05-27T11:38:55Z</time>
      </trkpt>
      <trkpt lat="44.50543" lon="4.31531">
        <ele>157.7935791</ele>
        <time>2011-05-27T11:38:57Z</time>
      </trkpt>
      <trkpt lat="44.50534" lon="4.31537">
        <ele>157.7935791</ele>
        <time>2011-05-27T11:38:59Z</time>
      </trkpt>
      <trkpt lat="44.50526" lon="4.31543">
        <ele>157.3128662</ele>
        <time>2011-05-27T11:39:01Z</time>
      </trkpt>
      <trkpt lat="44.50517" lon="4.31548">
        <ele>157.3128662</ele>
        <time>2011-05-27T11:39:03Z</time>
      </trkpt>
      <trkpt lat="44.50508" lon="4.31553">
        <ele>155.8709717</ele>
        <time>2011-05-27T11:39:05Z</time>
      </trkpt>
      <trkpt lat="44.505" lon="4.31558">
        <ele>155.8709717</ele>
        <time>2011-05-27T11:39:07Z</time>
      </trkpt>
      <trkpt lat="44.50487" lon="4.31565">
        <ele>155.8709717</ele>
        <time>2011-05-27T11:39:10Z</time>
      </trkpt>
      <trkpt lat="44.50475" lon="4.31572">
        <ele>156.3515625</ele>
        <time>2011-05-27T11:39:13Z</time>
      </trkpt>
      <trkpt lat="44.50463" lon="4.31578">
        <ele>156.3515625</ele>
        <time>2011-05-27T11:39:16Z</time>
      </trkpt>
      <trkpt lat="44.5045" lon="4.31586">
        <ele>155.8709717</ele>
        <time>2011-05-27T11:39:19Z</time>
      </trkpt>
      <trkpt lat="44.50441" lon="4.31591">
        <ele>155.3902588</ele>
        <time>2011-05-27T11:39:21Z</time>
      </trkpt>
      <trkpt lat="44.50432" lon="4.31596">
        <ele>154.9095459</ele>
        <time>2011-05-27T11:39:23Z</time>
      </trkpt>
      <trkpt lat="44.50422" lon="4.31601">
        <ele>154.9095459</ele>
        <time>2011-05-27T11:39:25Z</time>
      </trkpt>
      <trkpt lat="44.50412" lon="4.31607">
        <ele>154.9095459</ele>
        <time>2011-05-27T11:39:27Z</time>
      </trkpt>
      <trkpt lat="44.50403" lon="4.31616">
        <ele>154.9095459</ele>
        <time>2011-05-27T11:39:29Z</time>
      </trkpt>
      <trkpt lat="44.50394" lon="4.31627">
        <ele>154.9095459</ele>
        <time>2011-05-27T11:39:31Z</time>
      </trkpt>
      <trkpt lat="44.50386" lon="4.31638">
        <ele>154.4289551</ele>
        <time>2011-05-27T11:39:33Z</time>
      </trkpt>
      <trkpt lat="44.50378" lon="4.31648">
        <ele>155.3902588</ele>
        <time>2011-05-27T11:39:35Z</time>
      </trkpt>
      <trkpt lat="44.50372" lon="4.31658">
        <ele>154.9095459</ele>
        <time>2011-05-27T11:39:37Z</time>
      </trkpt>
      <trkpt lat="44.50365" lon="4.31667">
        <ele>155.3902588</ele>
        <time>2011-05-27T11:39:39Z</time>
      </trkpt>
      <trkpt lat="44.50359" lon="4.31677">
        <ele>155.8709717</ele>
        <time>2011-05-27T11:39:44Z</time>
      </trkpt>
      <trkpt lat="44.50353" lon="4.31677">
        <ele>156.8321533</ele>
        <time>2011-05-27T11:39:52Z</time>
      </trkpt>
      <trkpt lat="44.50357" lon="4.31662">
        <ele>156.8321533</ele>
        <time>2011-05-27T11:39:57Z</time>
      </trkpt>
      <trkpt lat="44.50363" lon="4.31647">
        <ele>157.3128662</ele>
        <time>2011-05-27T11:40:01Z</time>
      </trkpt>
      <trkpt lat="44.50364" lon="4.31633">
        <ele>157.7935791</ele>
        <time>2011-05-27T11:40:06Z</time>
      </trkpt>
      <trkpt lat="44.50365" lon="4.31619">
        <ele>159.7161865</ele>
        <time>2011-05-27T11:40:24Z</time>
      </trkpt>
      <trkpt lat="44.50363" lon="4.31605">
        <ele>159.2354736</ele>
        <time>2011-05-27T11:40:36Z</time>
      </trkpt>
      <trkpt lat="44.50367" lon="4.31594">
        <ele>161.638916</ele>
        <time>2011-05-27T11:40:46Z</time>
      </trkpt>
      <trkpt lat="44.50364" lon="4.31581">
        <ele>162.6000977</ele>
        <time>2011-05-27T11:40:59Z</time>
      </trkpt>
      <trkpt lat="44.50359" lon="4.3157">
        <ele>163.0808105</ele>
        <time>2011-05-27T11:41:07Z</time>
      </trkpt>
      <trkpt lat="44.50354" lon="4.31558">
        <ele>164.0421143</ele>
        <time>2011-05-27T11:41:18Z</time>
      </trkpt>
      <trkpt lat="44.50348" lon="4.31547">
        <ele>162.6000977</ele>
        <time>2011-05-27T11:41:23Z</time>
      </trkpt>
      <trkpt lat="44.50342" lon="4.31534">
        <ele>162.1195068</ele>
        <time>2011-05-27T11:41:27Z</time>
      </trkpt>
      <trkpt lat="44.50339" lon="4.3152">
        <ele>161.638916</ele>
        <time>2011-05-27T11:41:30Z</time>
      </trkpt>
      <trkpt lat="44.50336" lon="4.31508">
        <ele>161.638916</ele>
        <time>2011-05-27T11:41:33Z</time>
      </trkpt>
      <trkpt lat="44.50333" lon="4.31495">
        <ele>161.638916</ele>
        <time>2011-05-27T11:41:36Z</time>
      </trkpt>
      <trkpt lat="44.50332" lon="4.31479">
        <ele>161.638916</ele>
        <time>2011-05-27T11:41:40Z</time>
      </trkpt>
      <trkpt lat="44.50332" lon="4.31464">
        <ele>161.638916</ele>
        <time>2011-05-27T11:41:45Z</time>
      </trkpt>
      <trkpt lat="44.50332" lon="4.31448">
        <ele>162.1195068</ele>
        <time>2011-05-27T11:41:49Z</time>
      </trkpt>
      <trkpt lat="44.50329" lon="4.31432">
        <ele>162.1195068</ele>
        <time>2011-05-27T11:41:53Z</time>
      </trkpt>
      <trkpt lat="44.50325" lon="4.3142">
        <ele>161.638916</ele>
        <time>2011-05-27T11:41:56Z</time>
      </trkpt>
      <trkpt lat="44.50323" lon="4.31408">
        <ele>161.638916</ele>
        <time>2011-05-27T11:41:59Z</time>
      </trkpt>
      <trkpt lat="44.50323" lon="4.31393">
        <ele>161.1582031</ele>
        <time>2011-05-27T11:42:02Z</time>
      </trkpt>
      <trkpt lat="44.5032" lon="4.31378">
        <ele>160.6774902</ele>
        <time>2011-05-27T11:42:07Z</time>
      </trkpt>
      <trkpt lat="44.50315" lon="4.31365">
        <ele>160.1968994</ele>
        <time>2011-05-27T11:42:11Z</time>
      </trkpt>
      <trkpt lat="44.50314" lon="4.31351">
        <ele>160.1968994</ele>
        <time>2011-05-27T11:42:14Z</time>
      </trkpt>
      <trkpt lat="44.50313" lon="4.31335">
        <ele>160.1968994</ele>
        <time>2011-05-27T11:42:17Z</time>
      </trkpt>
      <trkpt lat="44.50315" lon="4.31321">
        <ele>160.1968994</ele>
        <time>2011-05-27T11:42:20Z</time>
      </trkpt>
      <trkpt lat="44.50317" lon="4.31308">
        <ele>160.6774902</ele>
        <time>2011-05-27T11:42:23Z</time>
      </trkpt>
      <trkpt lat="44.50318" lon="4.31295">
        <ele>160.1968994</ele>
        <time>2011-05-27T11:42:26Z</time>
      </trkpt>
      <trkpt lat="44.50321" lon="4.31281">
        <ele>161.638916</ele>
        <time>2011-05-27T11:42:30Z</time>
      </trkpt>
      <trkpt lat="44.50325" lon="4.31268">
        <ele>161.1582031</ele>
        <time>2011-05-27T11:42:34Z</time>
      </trkpt>
      <trkpt lat="44.50331" lon="4.31255">
        <ele>161.638916</ele>
        <time>2011-05-27T11:42:38Z</time>
      </trkpt>
      <trkpt lat="44.50325" lon="4.31245">
        <ele>161.1582031</ele>
        <time>2011-05-27T11:42:42Z</time>
      </trkpt>
      <trkpt lat="44.50314" lon="4.31249">
        <ele>161.638916</ele>
        <time>2011-05-27T11:42:45Z</time>
      </trkpt>
      <trkpt lat="44.50302" lon="4.31256">
        <ele>160.6774902</ele>
        <time>2011-05-27T11:42:48Z</time>
      </trkpt>
      <trkpt lat="44.50292" lon="4.31261">
        <ele>160.6774902</ele>
        <time>2011-05-27T11:42:50Z</time>
      </trkpt>
      <trkpt lat="44.50283" lon="4.31268">
        <ele>160.1968994</ele>
        <time>2011-05-27T11:42:52Z</time>
      </trkpt>
      <trkpt lat="44.50272" lon="4.31275">
        <ele>160.1968994</ele>
        <time>2011-05-27T11:42:54Z</time>
      </trkpt>
      <trkpt lat="44.5026" lon="4.31283">
        <ele>160.1968994</ele>
        <time>2011-05-27T11:42:56Z</time>
      </trkpt>
      <trkpt lat="44.50249" lon="4.3129">
        <ele>160.1968994</ele>
        <time>2011-05-27T11:42:58Z</time>
      </trkpt>
      <trkpt lat="44.50238" lon="4.31298">
        <ele>160.6774902</ele>
        <time>2011-05-27T11:43:00Z</time>
      </trkpt>
      <trkpt lat="44.50227" lon="4.31306">
        <ele>160.1968994</ele>
        <time>2011-05-27T11:43:02Z</time>
      </trkpt>
      <trkpt lat="44.50216" lon="4.31312">
        <ele>160.1968994</ele>
        <time>2011-05-27T11:43:04Z</time>
      </trkpt>
      <trkpt lat="44.50205" lon="4.3132">
        <ele>160.1968994</ele>
        <time>2011-05-27T11:43:06Z</time>
      </trkpt>
      <trkpt lat="44.50195" lon="4.31327">
        <ele>160.1968994</ele>
        <time>2011-05-27T11:43:08Z</time>
      </trkpt>
      <trkpt lat="44.50186" lon="4.31336">
        <ele>160.6774902</ele>
        <time>2011-05-27T11:43:10Z</time>
      </trkpt>
      <trkpt lat="44.50178" lon="4.31345">
        <ele>160.6774902</ele>
        <time>2011-05-27T11:43:12Z</time>
      </trkpt>
      <trkpt lat="44.50171" lon="4.3136">
        <ele>161.1582031</ele>
        <time>2011-05-27T11:43:15Z</time>
      </trkpt>
      <trkpt lat="44.50167" lon="4.31373">
        <ele>161.1582031</ele>
        <time>2011-05-27T11:43:18Z</time>
      </trkpt>
      <trkpt lat="44.50164" lon="4.31388">
        <ele>162.1195068</ele>
        <time>2011-05-27T11:43:22Z</time>
      </trkpt>
      <trkpt lat="44.50162" lon="4.3141">
        <ele>162.1195068</ele>
        <time>2011-05-27T11:43:27Z</time>
      </trkpt>
      <trkpt lat="44.50162" lon="4.31427">
        <ele>163.5615234</ele>
        <time>2011-05-27T11:43:31Z</time>
      </trkpt>
      <trkpt lat="44.50163" lon="4.31455">
        <ele>164.0421143</ele>
        <time>2011-05-27T11:43:38Z</time>
      </trkpt>
      <trkpt lat="44.50163" lon="4.31469">
        <ele>165.003418</ele>
        <time>2011-05-27T11:43:42Z</time>
      </trkpt>
      <trkpt lat="44.50163" lon="4.31483">
        <ele>165.4841309</ele>
        <time>2011-05-27T11:43:46Z</time>
      </trkpt>
      <trkpt lat="44.50161" lon="4.31497">
        <ele>165.9647217</ele>
        <time>2011-05-27T11:43:50Z</time>
      </trkpt>
      <trkpt lat="44.50159" lon="4.31511">
        <ele>166.4453125</ele>
        <time>2011-05-27T11:43:54Z</time>
      </trkpt>
      <trkpt lat="44.50158" lon="4.31525">
        <ele>167.4067383</ele>
        <time>2011-05-27T11:43:59Z</time>
      </trkpt>
      <trkpt lat="44.50154" lon="4.3154">
        <ele>168.8487549</ele>
        <time>2011-05-27T11:44:04Z</time>
      </trkpt>
      <trkpt lat="44.50153" lon="4.31553">
        <ele>168.8487549</ele>
        <time>2011-05-27T11:44:08Z</time>
      </trkpt>
      <trkpt lat="44.5015" lon="4.31566">
        <ele>169.3294678</ele>
        <time>2011-05-27T11:44:12Z</time>
      </trkpt>
      <trkpt lat="44.50148" lon="4.31578">
        <ele>169.8100586</ele>
        <time>2011-05-27T11:44:16Z</time>
      </trkpt>
      <trkpt lat="44.50145" lon="4.31591">
        <ele>170.7713623</ele>
        <time>2011-05-27T11:44:21Z</time>
      </trkpt>
      <trkpt lat="44.5014" lon="4.31605">
        <ele>171.732666</ele>
        <time>2011-05-27T11:44:26Z</time>
      </trkpt>
      <trkpt lat="44.50136" lon="4.31616">
        <ele>172.2132568</ele>
        <time>2011-05-27T11:44:30Z</time>
      </trkpt>
      <trkpt lat="44.5013" lon="4.31629">
        <ele>172.6939697</ele>
        <time>2011-05-27T11:44:35Z</time>
      </trkpt>
      <trkpt lat="44.50122" lon="4.31637">
        <ele>173.1746826</ele>
        <time>2011-05-27T11:44:39Z</time>
      </trkpt>
      <trkpt lat="44.50114" lon="4.3163">
        <ele>174.1358643</ele>
        <time>2011-05-27T11:44:44Z</time>
      </trkpt>
      <trkpt lat="44.50117" lon="4.31616">
        <ele>175.09729</ele>
        <time>2011-05-27T11:44:48Z</time>
      </trkpt>
      <trkpt lat="44.50123" lon="4.31606">
        <ele>175.09729</ele>
        <time>2011-05-27T11:44:52Z</time>
      </trkpt>
      <trkpt lat="44.50129" lon="4.31594">
        <ele>176.0585938</ele>
        <time>2011-05-27T11:44:56Z</time>
      </trkpt>
      <trkpt lat="44.50134" lon="4.31581">
        <ele>176.5393066</ele>
        <time>2011-05-27T11:45:00Z</time>
      </trkpt>
      <trkpt lat="44.50137" lon="4.31566">
        <ele>177.5006104</ele>
        <time>2011-05-27T11:45:04Z</time>
      </trkpt>
      <trkpt lat="44.50137" lon="4.31552">
        <ele>177.9812012</ele>
        <time>2011-05-27T11:45:08Z</time>
      </trkpt>
      <trkpt lat="44.50137" lon="4.31538">
        <ele>178.4619141</ele>
        <time>2011-05-27T11:45:12Z</time>
      </trkpt>
      <trkpt lat="44.50136" lon="4.31524">
        <ele>178.942627</ele>
        <time>2011-05-27T11:45:16Z</time>
      </trkpt>
      <trkpt lat="44.50135" lon="4.31507">
        <ele>179.9038086</ele>
        <time>2011-05-27T11:45:20Z</time>
      </trkpt>
      <trkpt lat="44.50133" lon="4.31493">
        <ele>180.3845215</ele>
        <time>2011-05-27T11:45:24Z</time>
      </trkpt>
      <trkpt lat="44.50129" lon="4.3148">
        <ele>181.826416</ele>
        <time>2011-05-27T11:45:28Z</time>
      </trkpt>
      <trkpt lat="44.50122" lon="4.31468">
        <ele>181.826416</ele>
        <time>2011-05-27T11:45:32Z</time>
      </trkpt>
      <trkpt lat="44.50115" lon="4.31456">
        <ele>182.3071289</ele>
        <time>2011-05-27T11:45:36Z</time>
      </trkpt>
      <trkpt lat="44.50108" lon="4.31444">
        <ele>182.7878418</ele>
        <time>2011-05-27T11:45:40Z</time>
      </trkpt>
      <trkpt lat="44.50104" lon="4.31431">
        <ele>183.2684326</ele>
        <time>2011-05-27T11:45:44Z</time>
      </trkpt>
      <trkpt lat="44.50101" lon="4.31418">
        <ele>184.7105713</ele>
        <time>2011-05-27T11:45:48Z</time>
      </trkpt>
      <trkpt lat="44.50101" lon="4.31405">
        <ele>184.7105713</ele>
        <time>2011-05-27T11:45:52Z</time>
      </trkpt>
      <trkpt lat="44.50101" lon="4.31391">
        <ele>186.6331787</ele>
        <time>2011-05-27T11:45:56Z</time>
      </trkpt>
      <trkpt lat="44.50099" lon="4.31377">
        <ele>186.1524658</ele>
        <time>2011-05-27T11:46:00Z</time>
      </trkpt>
      <trkpt lat="44.50095" lon="4.31364">
        <ele>187.1137695</ele>
        <time>2011-05-27T11:46:04Z</time>
      </trkpt>
      <trkpt lat="44.50088" lon="4.31353">
        <ele>187.5943604</ele>
        <time>2011-05-27T11:46:08Z</time>
      </trkpt>
      <trkpt lat="44.5008" lon="4.31344">
        <ele>188.0750732</ele>
        <time>2011-05-27T11:46:12Z</time>
      </trkpt>
      <trkpt lat="44.50071" lon="4.31337">
        <ele>188.5557861</ele>
        <time>2011-05-27T11:46:16Z</time>
      </trkpt>
      <trkpt lat="44.50062" lon="4.31334">
        <ele>188.5557861</ele>
        <time>2011-05-27T11:46:20Z</time>
      </trkpt>
      <trkpt lat="44.50052" lon="4.31331">
        <ele>189.036377</ele>
        <time>2011-05-27T11:46:24Z</time>
      </trkpt>
      <trkpt lat="44.50042" lon="4.31328">
        <ele>189.9976807</ele>
        <time>2011-05-27T11:46:28Z</time>
      </trkpt>
      <trkpt lat="44.50033" lon="4.31321">
        <ele>190.9589844</ele>
        <time>2011-05-27T11:46:32Z</time>
      </trkpt>
      <trkpt lat="44.50026" lon="4.3131">
        <ele>191.9202881</ele>
        <time>2011-05-27T11:46:37Z</time>
      </trkpt>
      <trkpt lat="44.50021" lon="4.31296">
        <ele>191.9202881</ele>
        <time>2011-05-27T11:46:42Z</time>
      </trkpt>
      <trkpt lat="44.50017" lon="4.31284">
        <ele>192.8817139</ele>
        <time>2011-05-27T11:46:46Z</time>
      </trkpt>
      <trkpt lat="44.50011" lon="4.31273">
        <ele>193.8430176</ele>
        <time>2011-05-27T11:46:50Z</time>
      </trkpt>
      <trkpt lat="44.50005" lon="4.31263">
        <ele>194.3237305</ele>
        <time>2011-05-27T11:46:54Z</time>
      </trkpt>
      <trkpt lat="44.49999" lon="4.31251">
        <ele>195.2849121</ele>
        <time>2011-05-27T11:46:58Z</time>
      </trkpt>
      <trkpt lat="44.49992" lon="4.31239">
        <ele>195.2849121</ele>
        <time>2011-05-27T11:47:02Z</time>
      </trkpt>
      <trkpt lat="44.49987" lon="4.31228">
        <ele>196.2463379</ele>
        <time>2011-05-27T11:47:06Z</time>
      </trkpt>
      <trkpt lat="44.49981" lon="4.31217">
        <ele>197.2075195</ele>
        <time>2011-05-27T11:47:10Z</time>
      </trkpt>
      <trkpt lat="44.49974" lon="4.31204">
        <ele>198.1689453</ele>
        <time>2011-05-27T11:47:15Z</time>
      </trkpt>
      <trkpt lat="44.49969" lon="4.31194">
        <ele>198.1689453</ele>
        <time>2011-05-27T11:47:19Z</time>
      </trkpt>
      <trkpt lat="44.49964" lon="4.31182">
        <ele>198.1689453</ele>
        <time>2011-05-27T11:47:23Z</time>
      </trkpt>
      <trkpt lat="44.49965" lon="4.31169">
        <ele>199.130127</ele>
        <time>2011-05-27T11:47:27Z</time>
      </trkpt>
      <trkpt lat="44.49972" lon="4.31158">
        <ele>200.0916748</ele>
        <time>2011-05-27T11:47:32Z</time>
      </trkpt>
      <trkpt lat="44.49983" lon="4.31153">
        <ele>201.5335693</ele>
        <time>2011-05-27T11:47:37Z</time>
      </trkpt>
      <trkpt lat="44.49995" lon="4.31148">
        <ele>201.5335693</ele>
        <time>2011-05-27T11:47:41Z</time>
      </trkpt>
      <trkpt lat="44.50005" lon="4.31144">
        <ele>202.494873</ele>
        <time>2011-05-27T11:47:45Z</time>
      </trkpt>
      <trkpt lat="44.50014" lon="4.3114">
        <ele>202.494873</ele>
        <time>2011-05-27T11:47:49Z</time>
      </trkpt>
      <trkpt lat="44.50024" lon="4.31136">
        <ele>202.9754639</ele>
        <time>2011-05-27T11:47:53Z</time>
      </trkpt>
      <trkpt lat="44.50032" lon="4.31129">
        <ele>203.4561768</ele>
        <time>2011-05-27T11:47:57Z</time>
      </trkpt>
      <trkpt lat="44.50036" lon="4.31116">
        <ele>203.4561768</ele>
        <time>2011-05-27T11:48:02Z</time>
      </trkpt>
      <trkpt lat="44.5003" lon="4.31108">
        <ele>204.4174805</ele>
        <time>2011-05-27T11:48:07Z</time>
      </trkpt>
      <trkpt lat="44.5002" lon="4.31115">
        <ele>204.4174805</ele>
        <time>2011-05-27T11:48:12Z</time>
      </trkpt>
      <trkpt lat="44.50012" lon="4.31121">
        <ele>205.3787842</ele>
        <time>2011-05-27T11:48:16Z</time>
      </trkpt>
      <trkpt lat="44.50003" lon="4.31125">
        <ele>205.3787842</ele>
        <time>2011-05-27T11:48:20Z</time>
      </trkpt>
      <trkpt lat="44.49994" lon="4.3113">
        <ele>205.8594971</ele>
        <time>2011-05-27T11:48:24Z</time>
      </trkpt>
      <trkpt lat="44.49985" lon="4.31133">
        <ele>206.3400879</ele>
        <time>2011-05-27T11:48:28Z</time>
      </trkpt>
      <trkpt lat="44.49975" lon="4.31135">
        <ele>207.7821045</ele>
        <time>2011-05-27T11:48:32Z</time>
      </trkpt>
      <trkpt lat="44.49966" lon="4.31137">
        <ele>208.2628174</ele>
        <time>2011-05-27T11:48:36Z</time>
      </trkpt>
      <trkpt lat="44.49956" lon="4.3114">
        <ele>209.2241211</ele>
        <time>2011-05-27T11:48:41Z</time>
      </trkpt>
      <trkpt lat="44.49947" lon="4.31143">
        <ele>209.704834</ele>
        <time>2011-05-27T11:48:45Z</time>
      </trkpt>
      <trkpt lat="44.49937" lon="4.31148">
        <ele>211.1467285</ele>
        <time>2011-05-27T11:48:49Z</time>
      </trkpt>
      <trkpt lat="44.4993" lon="4.31161">
        <ele>211.6274414</ele>
        <time>2011-05-27T11:48:53Z</time>
      </trkpt>
      <trkpt lat="44.49931" lon="4.31177">
        <ele>212.588623</ele>
        <time>2011-05-27T11:48:57Z</time>
      </trkpt>
      <trkpt lat="44.49936" lon="4.31192">
        <ele>212.588623</ele>
        <time>2011-05-27T11:49:01Z</time>
      </trkpt>
      <trkpt lat="44.49939" lon="4.31204">
        <ele>213.5500488</ele>
        <time>2011-05-27T11:49:05Z</time>
      </trkpt>
      <trkpt lat="44.49943" lon="4.31216">
        <ele>214.0306396</ele>
        <time>2011-05-27T11:49:09Z</time>
      </trkpt>
      <trkpt lat="44.49947" lon="4.31229">
        <ele>214.5112305</ele>
        <time>2011-05-27T11:49:13Z</time>
      </trkpt>
      <trkpt lat="44.49952" lon="4.31241">
        <ele>214.9919434</ele>
        <time>2011-05-27T11:49:17Z</time>
      </trkpt>
      <trkpt lat="44.49957" lon="4.31254">
        <ele>214.9919434</ele>
        <time>2011-05-27T11:49:21Z</time>
      </trkpt>
      <trkpt lat="44.49961" lon="4.31267">
        <ele>215.9532471</ele>
        <time>2011-05-27T11:49:25Z</time>
      </trkpt>
      <trkpt lat="44.49965" lon="4.3128">
        <ele>215.9532471</ele>
        <time>2011-05-27T11:49:29Z</time>
      </trkpt>
      <trkpt lat="44.49968" lon="4.31292">
        <ele>215.9532471</ele>
        <time>2011-05-27T11:49:33Z</time>
      </trkpt>
      <trkpt lat="44.49971" lon="4.31306">
        <ele>217.3953857</ele>
        <time>2011-05-27T11:49:37Z</time>
      </trkpt>
      <trkpt lat="44.49974" lon="4.31319">
        <ele>218.8372803</ele>
        <time>2011-05-27T11:49:41Z</time>
      </trkpt>
      <trkpt lat="44.49975" lon="4.31332">
        <ele>219.798584</ele>
        <time>2011-05-27T11:49:45Z</time>
      </trkpt>
      <trkpt lat="44.49976" lon="4.31345">
        <ele>221.2406006</ele>
        <time>2011-05-27T11:49:49Z</time>
      </trkpt>
      <trkpt lat="44.49979" lon="4.31358">
        <ele>221.7211914</ele>
        <time>2011-05-27T11:49:53Z</time>
      </trkpt>
      <trkpt lat="44.49983" lon="4.31371">
        <ele>223.163208</ele>
        <time>2011-05-27T11:49:57Z</time>
      </trkpt>
      <trkpt lat="44.49987" lon="4.31383">
        <ele>223.163208</ele>
        <time>2011-05-27T11:50:01Z</time>
      </trkpt>
      <trkpt lat="44.49991" lon="4.31395">
        <ele>224.6052246</ele>
        <time>2011-05-27T11:50:05Z</time>
      </trkpt>
      <trkpt lat="44.49996" lon="4.31408">
        <ele>226.0471191</ele>
        <time>2011-05-27T11:50:09Z</time>
      </trkpt>
      <trkpt lat="44.49999" lon="4.3142">
        <ele>226.527832</ele>
        <time>2011-05-27T11:50:13Z</time>
      </trkpt>
      <trkpt lat="44.50001" lon="4.31433">
        <ele>227.4891357</ele>
        <time>2011-05-27T11:50:17Z</time>
      </trkpt>
      <trkpt lat="44.49999" lon="4.31447">
        <ele>227.9697266</ele>
        <time>2011-05-27T11:50:21Z</time>
      </trkpt>
      <trkpt lat="44.49996" lon="4.3146">
        <ele>228.4504395</ele>
        <time>2011-05-27T11:50:25Z</time>
      </trkpt>
      <trkpt lat="44.49991" lon="4.31471">
        <ele>228.4504395</ele>
        <time>2011-05-27T11:50:29Z</time>
      </trkpt>
      <trkpt lat="44.49984" lon="4.31479">
        <ele>228.9311523</ele>
        <time>2011-05-27T11:50:33Z</time>
      </trkpt>
      <trkpt lat="44.49974" lon="4.31483">
        <ele>228.4504395</ele>
        <time>2011-05-27T11:50:37Z</time>
      </trkpt>
      <trkpt lat="44.49964" lon="4.31482">
        <ele>228.9311523</ele>
        <time>2011-05-27T11:50:41Z</time>
      </trkpt>
      <trkpt lat="44.49954" lon="4.31477">
        <ele>228.9311523</ele>
        <time>2011-05-27T11:50:45Z</time>
      </trkpt>
      <trkpt lat="44.49944" lon="4.31472">
        <ele>229.892334</ele>
        <time>2011-05-27T11:50:50Z</time>
      </trkpt>
      <trkpt lat="44.49935" lon="4.31468">
        <ele>230.3730469</ele>
        <time>2011-05-27T11:50:54Z</time>
      </trkpt>
      <trkpt lat="44.49925" lon="4.31465">
        <ele>231.3343506</ele>
        <time>2011-05-27T11:50:58Z</time>
      </trkpt>
      <trkpt lat="44.49916" lon="4.3146">
        <ele>232.2957764</ele>
        <time>2011-05-27T11:51:02Z</time>
      </trkpt>
      <trkpt lat="44.49907" lon="4.31453">
        <ele>233.7376709</ele>
        <time>2011-05-27T11:51:07Z</time>
      </trkpt>
      <trkpt lat="44.49906" lon="4.31439">
        <ele>233.7376709</ele>
        <time>2011-05-27T11:51:12Z</time>
      </trkpt>
      <trkpt lat="44.49915" lon="4.31428">
        <ele>234.6990967</ele>
        <time>2011-05-27T11:51:17Z</time>
      </trkpt>
      <trkpt lat="44.49922" lon="4.3142">
        <ele>235.1796875</ele>
        <time>2011-05-27T11:51:21Z</time>
      </trkpt>
      <trkpt lat="44.49929" lon="4.31411">
        <ele>235.6602783</ele>
        <time>2011-05-27T11:51:25Z</time>
      </trkpt>
      <trkpt lat="44.49934" lon="4.314">
        <ele>237.1022949</ele>
        <time>2011-05-27T11:51:29Z</time>
      </trkpt>
      <trkpt lat="44.49936" lon="4.31387">
        <ele>237.1022949</ele>
        <time>2011-05-27T11:51:33Z</time>
      </trkpt>
      <trkpt lat="44.49938" lon="4.31374">
        <ele>237.5828857</ele>
        <time>2011-05-27T11:51:37Z</time>
      </trkpt>
      <trkpt lat="44.49939" lon="4.3136">
        <ele>238.5443115</ele>
        <time>2011-05-27T11:51:41Z</time>
      </trkpt>
      <trkpt lat="44.4994" lon="4.31347">
        <ele>239.5054932</ele>
        <time>2011-05-27T11:51:45Z</time>
      </trkpt>
      <trkpt lat="44.49938" lon="4.31334">
        <ele>240.467041</ele>
        <time>2011-05-27T11:51:49Z</time>
      </trkpt>
      <trkpt lat="44.49935" lon="4.31321">
        <ele>240.467041</ele>
        <time>2011-05-27T11:51:53Z</time>
      </trkpt>
      <trkpt lat="44.49929" lon="4.31311">
        <ele>241.4282227</ele>
        <time>2011-05-27T11:51:57Z</time>
      </trkpt>
      <trkpt lat="44.49923" lon="4.313">
        <ele>241.4282227</ele>
        <time>2011-05-27T11:52:01Z</time>
      </trkpt>
      <trkpt lat="44.49916" lon="4.3129">
        <ele>241.9089355</ele>
        <time>2011-05-27T11:52:05Z</time>
      </trkpt>
      <trkpt lat="44.4991" lon="4.3128">
        <ele>242.3896484</ele>
        <time>2011-05-27T11:52:09Z</time>
      </trkpt>
      <trkpt lat="44.49904" lon="4.31271">
        <ele>243.3508301</ele>
        <time>2011-05-27T11:52:13Z</time>
      </trkpt>
      <trkpt lat="44.49896" lon="4.31262">
        <ele>243.3508301</ele>
        <time>2011-05-27T11:52:17Z</time>
      </trkpt>
      <trkpt lat="44.49889" lon="4.31253">
        <ele>245.2734375</ele>
        <time>2011-05-27T11:52:21Z</time>
      </trkpt>
      <trkpt lat="44.49882" lon="4.31242">
        <ele>245.2734375</ele>
        <time>2011-05-27T11:52:26Z</time>
      </trkpt>
      <trkpt lat="44.49875" lon="4.31233">
        <ele>246.7154541</ele>
        <time>2011-05-27T11:52:30Z</time>
      </trkpt>
      <trkpt lat="44.49867" lon="4.31224">
        <ele>246.7154541</ele>
        <time>2011-05-27T11:52:34Z</time>
      </trkpt>
      <trkpt lat="44.4986" lon="4.31214">
        <ele>247.1960449</ele>
        <time>2011-05-27T11:52:38Z</time>
      </trkpt>
      <trkpt lat="44.49853" lon="4.31205">
        <ele>247.1960449</ele>
        <time>2011-05-27T11:52:42Z</time>
      </trkpt>
      <trkpt lat="44.49847" lon="4.31195">
        <ele>248.6381836</ele>
        <time>2011-05-27T11:52:46Z</time>
      </trkpt>
      <trkpt lat="44.49839" lon="4.31185">
        <ele>249.1187744</ele>
        <time>2011-05-27T11:52:51Z</time>
      </trkpt>
      <trkpt lat="44.4983" lon="4.31176">
        <ele>249.1187744</ele>
        <time>2011-05-27T11:52:57Z</time>
      </trkpt>
      <trkpt lat="44.49823" lon="4.31175">
        <ele>247.6767578</ele>
        <time>2011-05-27T11:55:32Z</time>
      </trkpt>
      <trkpt lat="44.49822" lon="4.31162">
        <ele>247.1960449</ele>
        <time>2011-05-27T12:03:02Z</time>
      </trkpt>
      <trkpt lat="44.49815" lon="4.31153">
        <ele>246.7154541</ele>
        <time>2011-05-27T12:03:07Z</time>
      </trkpt>
      <trkpt lat="44.49805" lon="4.31144">
        <ele>247.1960449</ele>
        <time>2011-05-27T12:03:11Z</time>
      </trkpt>
      <trkpt lat="44.49797" lon="4.31139">
        <ele>247.1960449</ele>
        <time>2011-05-27T12:03:14Z</time>
      </trkpt>
      <trkpt lat="44.49788" lon="4.31135">
        <ele>246.7154541</ele>
        <time>2011-05-27T12:03:17Z</time>
      </trkpt>
      <trkpt lat="44.49778" lon="4.31132">
        <ele>247.6767578</ele>
        <time>2011-05-27T12:03:20Z</time>
      </trkpt>
      <trkpt lat="44.49766" lon="4.31132">
        <ele>247.1960449</ele>
        <time>2011-05-27T12:03:23Z</time>
      </trkpt>
      <trkpt lat="44.49754" lon="4.31134">
        <ele>246.7154541</ele>
        <time>2011-05-27T12:03:26Z</time>
      </trkpt>
      <trkpt lat="44.49741" lon="4.31138">
        <ele>246.2348633</ele>
        <time>2011-05-27T12:03:29Z</time>
      </trkpt>
      <trkpt lat="44.49728" lon="4.31143">
        <ele>246.7154541</ele>
        <time>2011-05-27T12:03:32Z</time>
      </trkpt>
      <trkpt lat="44.49719" lon="4.31147">
        <ele>246.7154541</ele>
        <time>2011-05-27T12:03:34Z</time>
      </trkpt>
      <trkpt lat="44.4971" lon="4.3115">
        <ele>246.2348633</ele>
        <time>2011-05-27T12:03:36Z</time>
      </trkpt>
      <trkpt lat="44.49698" lon="4.31155">
        <ele>246.7154541</ele>
        <time>2011-05-27T12:03:39Z</time>
      </trkpt>
      <trkpt lat="44.49686" lon="4.31157">
        <ele>246.7154541</ele>
        <time>2011-05-27T12:03:42Z</time>
      </trkpt>
      <trkpt lat="44.49675" lon="4.31161">
        <ele>246.7154541</ele>
        <time>2011-05-27T12:03:45Z</time>
      </trkpt>
      <trkpt lat="44.49663" lon="4.31166">
        <ele>247.1960449</ele>
        <time>2011-05-27T12:03:48Z</time>
      </trkpt>
      <trkpt lat="44.49652" lon="4.3117">
        <ele>248.1575928</ele>
        <time>2011-05-27T12:03:51Z</time>
      </trkpt>
      <trkpt lat="44.49642" lon="4.31174">
        <ele>248.1575928</ele>
        <time>2011-05-27T12:03:54Z</time>
      </trkpt>
      <trkpt lat="44.49631" lon="4.31178">
        <ele>248.6381836</ele>
        <time>2011-05-27T12:03:57Z</time>
      </trkpt>
      <trkpt lat="44.49621" lon="4.31182">
        <ele>249.5994873</ele>
        <time>2011-05-27T12:04:00Z</time>
      </trkpt>
      <trkpt lat="44.49611" lon="4.31185">
        <ele>250.0802002</ele>
        <time>2011-05-27T12:04:03Z</time>
      </trkpt>
      <trkpt lat="44.496" lon="4.31189">
        <ele>250.0802002</ele>
        <time>2011-05-27T12:04:06Z</time>
      </trkpt>
      <trkpt lat="44.4959" lon="4.31194">
        <ele>250.0802002</ele>
        <time>2011-05-27T12:04:09Z</time>
      </trkpt>
      <trkpt lat="44.4958" lon="4.31198">
        <ele>251.0413818</ele>
        <time>2011-05-27T12:04:12Z</time>
      </trkpt>
      <trkpt lat="44.49569" lon="4.31202">
        <ele>251.5220947</ele>
        <time>2011-05-27T12:04:15Z</time>
      </trkpt>
      <trkpt lat="44.49558" lon="4.31206">
        <ele>252.0028076</ele>
        <time>2011-05-27T12:04:18Z</time>
      </trkpt>
      <trkpt lat="44.49547" lon="4.3121">
        <ele>252.9639893</ele>
        <time>2011-05-27T12:04:21Z</time>
      </trkpt>
      <trkpt lat="44.49536" lon="4.31215">
        <ele>252.4833984</ele>
        <time>2011-05-27T12:04:24Z</time>
      </trkpt>
      <trkpt lat="44.49524" lon="4.31219">
        <ele>252.0028076</ele>
        <time>2011-05-27T12:04:27Z</time>
      </trkpt>
      <trkpt lat="44.49511" lon="4.31224">
        <ele>251.5220947</ele>
        <time>2011-05-27T12:04:30Z</time>
      </trkpt>
      <trkpt lat="44.49502" lon="4.31227">
        <ele>251.0413818</ele>
        <time>2011-05-27T12:04:32Z</time>
      </trkpt>
      <trkpt lat="44.49492" lon="4.31231">
        <ele>250.560791</ele>
        <time>2011-05-27T12:04:34Z</time>
      </trkpt>
      <trkpt lat="44.49483" lon="4.31235">
        <ele>250.560791</ele>
        <time>2011-05-27T12:04:36Z</time>
      </trkpt>
      <trkpt lat="44.49474" lon="4.31238">
        <ele>250.560791</ele>
        <time>2011-05-27T12:04:38Z</time>
      </trkpt>
      <trkpt lat="44.49464" lon="4.31241">
        <ele>249.5994873</ele>
        <time>2011-05-27T12:04:40Z</time>
      </trkpt>
      <trkpt lat="44.49453" lon="4.31244">
        <ele>249.5994873</ele>
        <time>2011-05-27T12:04:42Z</time>
      </trkpt>
      <trkpt lat="44.49443" lon="4.31247">
        <ele>249.5994873</ele>
        <time>2011-05-27T12:04:44Z</time>
      </trkpt>
      <trkpt lat="44.49433" lon="4.31251">
        <ele>248.1575928</ele>
        <time>2011-05-27T12:04:46Z</time>
      </trkpt>
      <trkpt lat="44.49423" lon="4.31254">
        <ele>248.6381836</ele>
        <time>2011-05-27T12:04:48Z</time>
      </trkpt>
      <trkpt lat="44.49414" lon="4.31257">
        <ele>248.1575928</ele>
        <time>2011-05-27T12:04:50Z</time>
      </trkpt>
      <trkpt lat="44.49405" lon="4.31261">
        <ele>247.6767578</ele>
        <time>2011-05-27T12:04:52Z</time>
      </trkpt>
      <trkpt lat="44.49395" lon="4.31265">
        <ele>248.6381836</ele>
        <time>2011-05-27T12:04:54Z</time>
      </trkpt>
      <trkpt lat="44.49385" lon="4.31269">
        <ele>248.1575928</ele>
        <time>2011-05-27T12:04:56Z</time>
      </trkpt>
      <trkpt lat="44.49375" lon="4.31273">
        <ele>248.1575928</ele>
        <time>2011-05-27T12:04:58Z</time>
      </trkpt>
      <trkpt lat="44.49365" lon="4.31277">
        <ele>247.6767578</ele>
        <time>2011-05-27T12:05:00Z</time>
      </trkpt>
      <trkpt lat="44.49355" lon="4.3128">
        <ele>248.1575928</ele>
        <time>2011-05-27T12:05:02Z</time>
      </trkpt>
      <trkpt lat="44.49346" lon="4.3128">
        <ele>247.6767578</ele>
        <time>2011-05-27T12:05:04Z</time>
      </trkpt>
      <trkpt lat="44.49337" lon="4.31283">
        <ele>248.1575928</ele>
        <time>2011-05-27T12:05:06Z</time>
      </trkpt>
      <trkpt lat="44.49327" lon="4.31286">
        <ele>247.6767578</ele>
        <time>2011-05-27T12:05:08Z</time>
      </trkpt>
      <trkpt lat="44.49317" lon="4.3129">
        <ele>247.6767578</ele>
        <time>2011-05-27T12:05:10Z</time>
      </trkpt>
      <trkpt lat="44.49307" lon="4.31293">
        <ele>247.1960449</ele>
        <time>2011-05-27T12:05:12Z</time>
      </trkpt>
      <trkpt lat="44.49297" lon="4.31296">
        <ele>246.7154541</ele>
        <time>2011-05-27T12:05:14Z</time>
      </trkpt>
      <trkpt lat="44.49288" lon="4.31299">
        <ele>246.7154541</ele>
        <time>2011-05-27T12:05:16Z</time>
      </trkpt>
      <trkpt lat="44.49277" lon="4.31305">
        <ele>246.7154541</ele>
        <time>2011-05-27T12:05:19Z</time>
      </trkpt>
      <trkpt lat="44.49266" lon="4.31309">
        <ele>246.2348633</ele>
        <time>2011-05-27T12:05:22Z</time>
      </trkpt>
      <trkpt lat="44.49253" lon="4.31313">
        <ele>245.7541504</ele>
        <time>2011-05-27T12:05:25Z</time>
      </trkpt>
      <trkpt lat="44.49244" lon="4.31316">
        <ele>245.2734375</ele>
        <time>2011-05-27T12:05:27Z</time>
      </trkpt>
      <trkpt lat="44.49234" lon="4.31319">
        <ele>245.2734375</ele>
        <time>2011-05-27T12:05:29Z</time>
      </trkpt>
      <trkpt lat="44.49224" lon="4.31323">
        <ele>244.3122559</ele>
        <time>2011-05-27T12:05:31Z</time>
      </trkpt>
      <trkpt lat="44.49214" lon="4.31326">
        <ele>244.3122559</ele>
        <time>2011-05-27T12:05:33Z</time>
      </trkpt>
      <trkpt lat="44.49203" lon="4.3133">
        <ele>243.831543</ele>
        <time>2011-05-27T12:05:35Z</time>
      </trkpt>
      <trkpt lat="44.49192" lon="4.31334">
        <ele>243.831543</ele>
        <time>2011-05-27T12:05:37Z</time>
      </trkpt>
      <trkpt lat="44.49181" lon="4.31339">
        <ele>243.831543</ele>
        <time>2011-05-27T12:05:39Z</time>
      </trkpt>
      <trkpt lat="44.49169" lon="4.31344">
        <ele>243.831543</ele>
        <time>2011-05-27T12:05:41Z</time>
      </trkpt>
      <trkpt lat="44.49158" lon="4.31349">
        <ele>243.831543</ele>
        <time>2011-05-27T12:05:43Z</time>
      </trkpt>
      <trkpt lat="44.49148" lon="4.31354">
        <ele>243.3508301</ele>
        <time>2011-05-27T12:05:45Z</time>
      </trkpt>
      <trkpt lat="44.49138" lon="4.31358">
        <ele>244.3122559</ele>
        <time>2011-05-27T12:05:47Z</time>
      </trkpt>
      <trkpt lat="44.49128" lon="4.31363">
        <ele>243.831543</ele>
        <time>2011-05-27T12:05:49Z</time>
      </trkpt>
      <trkpt lat="44.49118" lon="4.31368">
        <ele>242.8702393</ele>
        <time>2011-05-27T12:05:51Z</time>
      </trkpt>
      <trkpt lat="44.49108" lon="4.31373">
        <ele>243.3508301</ele>
        <time>2011-05-27T12:05:53Z</time>
      </trkpt>
      <trkpt lat="44.49098" lon="4.31379">
        <ele>243.3508301</ele>
        <time>2011-05-27T12:05:55Z</time>
      </trkpt>
      <trkpt lat="44.49088" lon="4.31385">
        <ele>242.8702393</ele>
        <time>2011-05-27T12:05:57Z</time>
      </trkpt>
      <trkpt lat="44.49078" lon="4.31392">
        <ele>242.8702393</ele>
        <time>2011-05-27T12:05:59Z</time>
      </trkpt>
      <trkpt lat="44.49069" lon="4.31399">
        <ele>243.3508301</ele>
        <time>2011-05-27T12:06:01Z</time>
      </trkpt>
      <trkpt lat="44.4906" lon="4.31407">
        <ele>243.3508301</ele>
        <time>2011-05-27T12:06:03Z</time>
      </trkpt>
      <trkpt lat="44.49052" lon="4.31415">
        <ele>243.3508301</ele>
        <time>2011-05-27T12:06:05Z</time>
      </trkpt>
      <trkpt lat="44.49043" lon="4.31422">
        <ele>243.3508301</ele>
        <time>2011-05-27T12:06:07Z</time>
      </trkpt>
      <trkpt lat="44.49035" lon="4.3143">
        <ele>242.8702393</ele>
        <time>2011-05-27T12:06:09Z</time>
      </trkpt>
      <trkpt lat="44.49026" lon="4.31437">
        <ele>243.3508301</ele>
        <time>2011-05-27T12:06:11Z</time>
      </trkpt>
      <trkpt lat="44.49017" lon="4.31445">
        <ele>243.3508301</ele>
        <time>2011-05-27T12:06:13Z</time>
      </trkpt>
      <trkpt lat="44.49009" lon="4.31452">
        <ele>243.3508301</ele>
        <time>2011-05-27T12:06:15Z</time>
      </trkpt>
      <trkpt lat="44.49001" lon="4.3146">
        <ele>242.8702393</ele>
        <time>2011-05-27T12:06:17Z</time>
      </trkpt>
      <trkpt lat="44.48992" lon="4.31467">
        <ele>242.8702393</ele>
        <time>2011-05-27T12:06:19Z</time>
      </trkpt>
      <trkpt lat="44.48984" lon="4.31475">
        <ele>242.8702393</ele>
        <time>2011-05-27T12:06:21Z</time>
      </trkpt>
      <trkpt lat="44.48975" lon="4.31483">
        <ele>241.4282227</ele>
        <time>2011-05-27T12:06:23Z</time>
      </trkpt>
      <trkpt lat="44.48966" lon="4.31491">
        <ele>241.4282227</ele>
        <time>2011-05-27T12:06:25Z</time>
      </trkpt>
      <trkpt lat="44.48957" lon="4.31499">
        <ele>240.9476318</ele>
        <time>2011-05-27T12:06:27Z</time>
      </trkpt>
      <trkpt lat="44.48948" lon="4.31508">
        <ele>239.9862061</ele>
        <time>2011-05-27T12:06:29Z</time>
      </trkpt>
      <trkpt lat="44.48939" lon="4.31518">
        <ele>239.0249023</ele>
        <time>2011-05-27T12:06:31Z</time>
      </trkpt>
      <trkpt lat="44.48929" lon="4.31526">
        <ele>238.5443115</ele>
        <time>2011-05-27T12:06:33Z</time>
      </trkpt>
      <trkpt lat="44.4892" lon="4.31535">
        <ele>239.0249023</ele>
        <time>2011-05-27T12:06:35Z</time>
      </trkpt>
      <trkpt lat="44.4891" lon="4.31543">
        <ele>237.5828857</ele>
        <time>2011-05-27T12:06:37Z</time>
      </trkpt>
      <trkpt lat="44.48901" lon="4.31549">
        <ele>238.5443115</ele>
        <time>2011-05-27T12:06:39Z</time>
      </trkpt>
      <trkpt lat="44.48891" lon="4.31556">
        <ele>238.0635986</ele>
        <time>2011-05-27T12:06:41Z</time>
      </trkpt>
      <trkpt lat="44.48882" lon="4.31562">
        <ele>238.0635986</ele>
        <time>2011-05-27T12:06:43Z</time>
      </trkpt>
      <trkpt lat="44.48872" lon="4.31567">
        <ele>237.5828857</ele>
        <time>2011-05-27T12:06:45Z</time>
      </trkpt>
      <trkpt lat="44.48863" lon="4.31572">
        <ele>238.0635986</ele>
        <time>2011-05-27T12:06:47Z</time>
      </trkpt>
      <trkpt lat="44.48853" lon="4.31577">
        <ele>237.5828857</ele>
        <time>2011-05-27T12:06:49Z</time>
      </trkpt>
      <trkpt lat="44.48842" lon="4.31582">
        <ele>237.5828857</ele>
        <time>2011-05-27T12:06:51Z</time>
      </trkpt>
      <trkpt lat="44.48831" lon="4.31585">
        <ele>237.5828857</ele>
        <time>2011-05-27T12:06:53Z</time>
      </trkpt>
      <trkpt lat="44.4882" lon="4.31587">
        <ele>237.5828857</ele>
        <time>2011-05-27T12:06:55Z</time>
      </trkpt>
      <trkpt lat="44.48808" lon="4.31587">
        <ele>237.5828857</ele>
        <time>2011-05-27T12:06:57Z</time>
      </trkpt>
      <trkpt lat="44.48797" lon="4.31587">
        <ele>237.1022949</ele>
        <time>2011-05-27T12:06:59Z</time>
      </trkpt>
      <trkpt lat="44.48786" lon="4.31587">
        <ele>237.5828857</ele>
        <time>2011-05-27T12:07:01Z</time>
      </trkpt>
      <trkpt lat="44.48776" lon="4.31586">
        <ele>237.1022949</ele>
        <time>2011-05-27T12:07:03Z</time>
      </trkpt>
      <trkpt lat="44.48766" lon="4.31585">
        <ele>237.1022949</ele>
        <time>2011-05-27T12:07:05Z</time>
      </trkpt>
      <trkpt lat="44.48756" lon="4.31584">
        <ele>237.1022949</ele>
        <time>2011-05-27T12:07:07Z</time>
      </trkpt>
      <trkpt lat="44.48745" lon="4.31584">
        <ele>236.6217041</ele>
        <time>2011-05-27T12:07:09Z</time>
      </trkpt>
      <trkpt lat="44.48734" lon="4.31583">
        <ele>236.6217041</ele>
        <time>2011-05-27T12:07:11Z</time>
      </trkpt>
      <trkpt lat="44.48723" lon="4.31582">
        <ele>236.6217041</ele>
        <time>2011-05-27T12:07:13Z</time>
      </trkpt>
      <trkpt lat="44.48712" lon="4.31581">
        <ele>237.1022949</ele>
        <time>2011-05-27T12:07:15Z</time>
      </trkpt>
      <trkpt lat="44.48701" lon="4.31581">
        <ele>236.1409912</ele>
        <time>2011-05-27T12:07:17Z</time>
      </trkpt>
      <trkpt lat="44.48689" lon="4.3158">
        <ele>236.1409912</ele>
        <time>2011-05-27T12:07:19Z</time>
      </trkpt>
      <trkpt lat="44.48678" lon="4.31579">
        <ele>235.6602783</ele>
        <time>2011-05-27T12:07:21Z</time>
      </trkpt>
      <trkpt lat="44.48668" lon="4.31577">
        <ele>234.2183838</ele>
        <time>2011-05-27T12:07:23Z</time>
      </trkpt>
      <trkpt lat="44.48657" lon="4.31574">
        <ele>235.1796875</ele>
        <time>2011-05-27T12:07:25Z</time>
      </trkpt>
      <trkpt lat="44.48646" lon="4.3157">
        <ele>234.6990967</ele>
        <time>2011-05-27T12:07:27Z</time>
      </trkpt>
      <trkpt lat="44.48636" lon="4.31565">
        <ele>234.2183838</ele>
        <time>2011-05-27T12:07:29Z</time>
      </trkpt>
      <trkpt lat="44.48625" lon="4.31561">
        <ele>235.1796875</ele>
        <time>2011-05-27T12:07:31Z</time>
      </trkpt>
      <trkpt lat="44.48615" lon="4.31557">
        <ele>234.2183838</ele>
        <time>2011-05-27T12:07:33Z</time>
      </trkpt>
      <trkpt lat="44.48605" lon="4.31553">
        <ele>234.6990967</ele>
        <time>2011-05-27T12:07:35Z</time>
      </trkpt>
      <trkpt lat="44.48595" lon="4.31548">
        <ele>234.6990967</ele>
        <time>2011-05-27T12:07:37Z</time>
      </trkpt>
      <trkpt lat="44.48586" lon="4.31543">
        <ele>235.1796875</ele>
        <time>2011-05-27T12:07:39Z</time>
      </trkpt>
      <trkpt lat="44.48577" lon="4.31539">
        <ele>236.1409912</ele>
        <time>2011-05-27T12:07:41Z</time>
      </trkpt>
      <trkpt lat="44.48563" lon="4.31536">
        <ele>235.6602783</ele>
        <time>2011-05-27T12:07:44Z</time>
      </trkpt>
      <trkpt lat="44.48554" lon="4.31535">
        <ele>236.6217041</ele>
        <time>2011-05-27T12:07:46Z</time>
      </trkpt>
      <trkpt lat="44.48545" lon="4.31533">
        <ele>235.1796875</ele>
        <time>2011-05-27T12:07:48Z</time>
      </trkpt>
      <trkpt lat="44.48535" lon="4.31531">
        <ele>235.1796875</ele>
        <time>2011-05-27T12:07:50Z</time>
      </trkpt>
      <trkpt lat="44.48524" lon="4.3153">
        <ele>234.6990967</ele>
        <time>2011-05-27T12:07:52Z</time>
      </trkpt>
      <trkpt lat="44.48514" lon="4.31529">
        <ele>234.6990967</ele>
        <time>2011-05-27T12:07:54Z</time>
      </trkpt>
      <trkpt lat="44.48503" lon="4.31528">
        <ele>234.2183838</ele>
        <time>2011-05-27T12:07:56Z</time>
      </trkpt>
      <trkpt lat="44.48492" lon="4.31526">
        <ele>234.6990967</ele>
        <time>2011-05-27T12:07:58Z</time>
      </trkpt>
      <trkpt lat="44.48481" lon="4.31524">
        <ele>234.2183838</ele>
        <time>2011-05-27T12:08:00Z</time>
      </trkpt>
      <trkpt lat="44.48469" lon="4.31522">
        <ele>234.2183838</ele>
        <time>2011-05-27T12:08:02Z</time>
      </trkpt>
      <trkpt lat="44.48458" lon="4.31521">
        <ele>233.7376709</ele>
        <time>2011-05-27T12:08:04Z</time>
      </trkpt>
      <trkpt lat="44.48448" lon="4.31519">
        <ele>234.2183838</ele>
        <time>2011-05-27T12:08:06Z</time>
      </trkpt>
      <trkpt lat="44.48437" lon="4.31516">
        <ele>233.7376709</ele>
        <time>2011-05-27T12:08:08Z</time>
      </trkpt>
      <trkpt lat="44.48426" lon="4.31513">
        <ele>234.2183838</ele>
        <time>2011-05-27T12:08:10Z</time>
      </trkpt>
      <trkpt lat="44.48415" lon="4.31509">
        <ele>233.2570801</ele>
        <time>2011-05-27T12:08:12Z</time>
      </trkpt>
      <trkpt lat="44.48404" lon="4.31505">
        <ele>232.7764893</ele>
        <time>2011-05-27T12:08:14Z</time>
      </trkpt>
      <trkpt lat="44.48393" lon="4.31501">
        <ele>231.8149414</ele>
        <time>2011-05-27T12:08:16Z</time>
      </trkpt>
      <trkpt lat="44.48382" lon="4.31497">
        <ele>231.8149414</ele>
        <time>2011-05-27T12:08:18Z</time>
      </trkpt>
      <trkpt lat="44.48373" lon="4.31493">
        <ele>231.3343506</ele>
        <time>2011-05-27T12:08:20Z</time>
      </trkpt>
      <trkpt lat="44.48363" lon="4.31488">
        <ele>231.3343506</ele>
        <time>2011-05-27T12:08:22Z</time>
      </trkpt>
      <trkpt lat="44.48354" lon="4.31484">
        <ele>231.3343506</ele>
        <time>2011-05-27T12:08:24Z</time>
      </trkpt>
      <trkpt lat="44.48344" lon="4.31479">
        <ele>231.3343506</ele>
        <time>2011-05-27T12:08:26Z</time>
      </trkpt>
      <trkpt lat="44.48334" lon="4.31474">
        <ele>231.3343506</ele>
        <time>2011-05-27T12:08:28Z</time>
      </trkpt>
      <trkpt lat="44.48325" lon="4.31468">
        <ele>231.3343506</ele>
        <time>2011-05-27T12:08:30Z</time>
      </trkpt>
      <trkpt lat="44.48315" lon="4.31461">
        <ele>230.8537598</ele>
        <time>2011-05-27T12:08:32Z</time>
      </trkpt>
      <trkpt lat="44.48306" lon="4.31455">
        <ele>231.3343506</ele>
        <time>2011-05-27T12:08:34Z</time>
      </trkpt>
      <trkpt lat="44.48296" lon="4.31448">
        <ele>231.3343506</ele>
        <time>2011-05-27T12:08:36Z</time>
      </trkpt>
      <trkpt lat="44.48287" lon="4.31443">
        <ele>231.3343506</ele>
        <time>2011-05-27T12:08:38Z</time>
      </trkpt>
      <trkpt lat="44.48278" lon="4.31437">
        <ele>231.3343506</ele>
        <time>2011-05-27T12:08:40Z</time>
      </trkpt>
      <trkpt lat="44.48268" lon="4.31432">
        <ele>230.8537598</ele>
        <time>2011-05-27T12:08:42Z</time>
      </trkpt>
      <trkpt lat="44.48259" lon="4.31426">
        <ele>231.3343506</ele>
        <time>2011-05-27T12:08:44Z</time>
      </trkpt>
      <trkpt lat="44.48249" lon="4.31422">
        <ele>230.3730469</ele>
        <time>2011-05-27T12:08:46Z</time>
      </trkpt>
      <trkpt lat="44.48239" lon="4.31419">
        <ele>230.3730469</ele>
        <time>2011-05-27T12:08:48Z</time>
      </trkpt>
      <trkpt lat="44.4823" lon="4.31418">
        <ele>230.8537598</ele>
        <time>2011-05-27T12:08:50Z</time>
      </trkpt>
      <trkpt lat="44.4822" lon="4.31419">
        <ele>229.892334</ele>
        <time>2011-05-27T12:08:52Z</time>
      </trkpt>
      <trkpt lat="44.4821" lon="4.31422">
        <ele>230.3730469</ele>
        <time>2011-05-27T12:08:54Z</time>
      </trkpt>
      <trkpt lat="44.48201" lon="4.31426">
        <ele>229.4117432</ele>
        <time>2011-05-27T12:08:56Z</time>
      </trkpt>
      <trkpt lat="44.4819" lon="4.31431">
        <ele>229.4117432</ele>
        <time>2011-05-27T12:08:58Z</time>
      </trkpt>
      <trkpt lat="44.4818" lon="4.31436">
        <ele>229.892334</ele>
        <time>2011-05-27T12:09:00Z</time>
      </trkpt>
      <trkpt lat="44.4817" lon="4.31441">
        <ele>229.4117432</ele>
        <time>2011-05-27T12:09:02Z</time>
      </trkpt>
      <trkpt lat="44.48159" lon="4.31446">
        <ele>229.4117432</ele>
        <time>2011-05-27T12:09:04Z</time>
      </trkpt>
      <trkpt lat="44.48149" lon="4.31451">
        <ele>229.4117432</ele>
        <time>2011-05-27T12:09:06Z</time>
      </trkpt>
      <trkpt lat="44.48139" lon="4.31457">
        <ele>228.9311523</ele>
        <time>2011-05-27T12:09:08Z</time>
      </trkpt>
      <trkpt lat="44.48128" lon="4.31462">
        <ele>228.4504395</ele>
        <time>2011-05-27T12:09:10Z</time>
      </trkpt>
      <trkpt lat="44.48117" lon="4.31466">
        <ele>228.9311523</ele>
        <time>2011-05-27T12:09:13Z</time>
      </trkpt>
      <trkpt lat="44.48108" lon="4.31459">
        <ele>227.9697266</ele>
        <time>2011-05-27T12:09:18Z</time>
      </trkpt>
      <trkpt lat="44.48098" lon="4.31456">
        <ele>228.4504395</ele>
        <time>2011-05-27T12:09:21Z</time>
      </trkpt>
      <trkpt lat="44.48086" lon="4.31452">
        <ele>227.9697266</ele>
        <time>2011-05-27T12:09:24Z</time>
      </trkpt>
      <trkpt lat="44.48073" lon="4.31448">
        <ele>227.9697266</ele>
        <time>2011-05-27T12:09:27Z</time>
      </trkpt>
      <trkpt lat="44.48064" lon="4.31445">
        <ele>227.9697266</ele>
        <time>2011-05-27T12:09:29Z</time>
      </trkpt>
      <trkpt lat="44.48055" lon="4.31443">
        <ele>227.9697266</ele>
        <time>2011-05-27T12:09:31Z</time>
      </trkpt>
      <trkpt lat="44.48045" lon="4.31441">
        <ele>227.9697266</ele>
        <time>2011-05-27T12:09:33Z</time>
      </trkpt>
      <trkpt lat="44.48032" lon="4.31438">
        <ele>227.9697266</ele>
        <time>2011-05-27T12:09:36Z</time>
      </trkpt>
      <trkpt lat="44.48019" lon="4.31435">
        <ele>227.4891357</ele>
        <time>2011-05-27T12:09:39Z</time>
      </trkpt>
      <trkpt lat="44.48009" lon="4.31432">
        <ele>227.9697266</ele>
        <time>2011-05-27T12:09:41Z</time>
      </trkpt>
      <trkpt lat="44.48" lon="4.31429">
        <ele>227.4891357</ele>
        <time>2011-05-27T12:09:43Z</time>
      </trkpt>
      <trkpt lat="44.4799" lon="4.31426">
        <ele>227.4891357</ele>
        <time>2011-05-27T12:09:45Z</time>
      </trkpt>
      <trkpt lat="44.4798" lon="4.31422">
        <ele>227.4891357</ele>
        <time>2011-05-27T12:09:47Z</time>
      </trkpt>
      <trkpt lat="44.47971" lon="4.31419">
        <ele>227.0085449</ele>
        <time>2011-05-27T12:09:49Z</time>
      </trkpt>
      <trkpt lat="44.47959" lon="4.31415">
        <ele>227.4891357</ele>
        <time>2011-05-27T12:09:52Z</time>
      </trkpt>
      <trkpt lat="44.47949" lon="4.31411">
        <ele>227.9697266</ele>
        <time>2011-05-27T12:09:55Z</time>
      </trkpt>
      <trkpt lat="44.47938" lon="4.31407">
        <ele>228.9311523</ele>
        <time>2011-05-27T12:09:59Z</time>
      </trkpt>
      <trkpt lat="44.47928" lon="4.31405">
        <ele>228.9311523</ele>
        <time>2011-05-27T12:10:03Z</time>
      </trkpt>
      <trkpt lat="44.47919" lon="4.31403">
        <ele>229.4117432</ele>
        <time>2011-05-27T12:10:07Z</time>
      </trkpt>
      <trkpt lat="44.4791" lon="4.314">
        <ele>229.892334</ele>
        <time>2011-05-27T12:10:11Z</time>
      </trkpt>
      <trkpt lat="44.47901" lon="4.31396">
        <ele>230.3730469</ele>
        <time>2011-05-27T12:10:15Z</time>
      </trkpt>
      <trkpt lat="44.47892" lon="4.31391">
        <ele>230.8537598</ele>
        <time>2011-05-27T12:10:19Z</time>
      </trkpt>
      <trkpt lat="44.47884" lon="4.31386">
        <ele>231.3343506</ele>
        <time>2011-05-27T12:10:23Z</time>
      </trkpt>
      <trkpt lat="44.47875" lon="4.31381">
        <ele>231.8149414</ele>
        <time>2011-05-27T12:10:27Z</time>
      </trkpt>
      <trkpt lat="44.47866" lon="4.31373">
        <ele>232.2957764</ele>
        <time>2011-05-27T12:10:31Z</time>
      </trkpt>
      <trkpt lat="44.47856" lon="4.31365">
        <ele>232.7764893</ele>
        <time>2011-05-27T12:10:35Z</time>
      </trkpt>
      <trkpt lat="44.47846" lon="4.31358">
        <ele>233.2570801</ele>
        <time>2011-05-27T12:10:39Z</time>
      </trkpt>
      <trkpt lat="44.47837" lon="4.31351">
        <ele>233.7376709</ele>
        <time>2011-05-27T12:10:43Z</time>
      </trkpt>
      <trkpt lat="44.47828" lon="4.31345">
        <ele>234.2183838</ele>
        <time>2011-05-27T12:10:47Z</time>
      </trkpt>
      <trkpt lat="44.47819" lon="4.31338">
        <ele>234.6990967</ele>
        <time>2011-05-27T12:10:52Z</time>
      </trkpt>
      <trkpt lat="44.47809" lon="4.31332">
        <ele>235.6602783</ele>
        <time>2011-05-27T12:10:57Z</time>
      </trkpt>
      <trkpt lat="44.47799" lon="4.31325">
        <ele>236.6217041</ele>
        <time>2011-05-27T12:11:01Z</time>
      </trkpt>
      <trkpt lat="44.47788" lon="4.31319">
        <ele>237.1022949</ele>
        <time>2011-05-27T12:11:05Z</time>
      </trkpt>
      <trkpt lat="44.47777" lon="4.31316">
        <ele>236.6217041</ele>
        <time>2011-05-27T12:11:09Z</time>
      </trkpt>
      <trkpt lat="44.47766" lon="4.31314">
        <ele>236.6217041</ele>
        <time>2011-05-27T12:11:13Z</time>
      </trkpt>
      <trkpt lat="44.47755" lon="4.31314">
        <ele>236.1409912</ele>
        <time>2011-05-27T12:11:16Z</time>
      </trkpt>
      <trkpt lat="44.47742" lon="4.31313">
        <ele>235.1796875</ele>
        <time>2011-05-27T12:11:19Z</time>
      </trkpt>
      <trkpt lat="44.47733" lon="4.31311">
        <ele>235.1796875</ele>
        <time>2011-05-27T12:11:21Z</time>
      </trkpt>
      <trkpt lat="44.47724" lon="4.31309">
        <ele>234.6990967</ele>
        <time>2011-05-27T12:11:23Z</time>
      </trkpt>
      <trkpt lat="44.47714" lon="4.31306">
        <ele>233.2570801</ele>
        <time>2011-05-27T12:11:25Z</time>
      </trkpt>
      <trkpt lat="44.47703" lon="4.31304">
        <ele>232.7764893</ele>
        <time>2011-05-27T12:11:27Z</time>
      </trkpt>
      <trkpt lat="44.47692" lon="4.31303">
        <ele>232.7764893</ele>
        <time>2011-05-27T12:11:29Z</time>
      </trkpt>
      <trkpt lat="44.4768" lon="4.31301">
        <ele>231.3343506</ele>
        <time>2011-05-27T12:11:31Z</time>
      </trkpt>
      <trkpt lat="44.47668" lon="4.31295">
        <ele>230.3730469</ele>
        <time>2011-05-27T12:11:33Z</time>
      </trkpt>
      <trkpt lat="44.47656" lon="4.31288">
        <ele>230.3730469</ele>
        <time>2011-05-27T12:11:35Z</time>
      </trkpt>
      <trkpt lat="44.47645" lon="4.31281">
        <ele>230.3730469</ele>
        <time>2011-05-27T12:11:37Z</time>
      </trkpt>
      <trkpt lat="44.47634" lon="4.31274">
        <ele>230.3730469</ele>
        <time>2011-05-27T12:11:39Z</time>
      </trkpt>
      <trkpt lat="44.47624" lon="4.31267">
        <ele>229.892334</ele>
        <time>2011-05-27T12:11:41Z</time>
      </trkpt>
      <trkpt lat="44.47615" lon="4.31255">
        <ele>228.9311523</ele>
        <time>2011-05-27T12:11:43Z</time>
      </trkpt>
      <trkpt lat="44.47605" lon="4.31242">
        <ele>227.9697266</ele>
        <time>2011-05-27T12:11:45Z</time>
      </trkpt>
      <trkpt lat="44.47593" lon="4.31231">
        <ele>226.527832</ele>
        <time>2011-05-27T12:11:47Z</time>
      </trkpt>
      <trkpt lat="44.47579" lon="4.31223">
        <ele>225.5665283</ele>
        <time>2011-05-27T12:11:49Z</time>
      </trkpt>
      <trkpt lat="44.47563" lon="4.3122">
        <ele>223.6437988</ele>
        <time>2011-05-27T12:11:51Z</time>
      </trkpt>
      <trkpt lat="44.47546" lon="4.31218">
        <ele>222.2017822</ele>
        <time>2011-05-27T12:11:53Z</time>
      </trkpt>
      <trkpt lat="44.47529" lon="4.31211">
        <ele>221.2406006</ele>
        <time>2011-05-27T12:11:55Z</time>
      </trkpt>
      <trkpt lat="44.47512" lon="4.31203">
        <ele>220.2791748</ele>
        <time>2011-05-27T12:11:57Z</time>
      </trkpt>
      <trkpt lat="44.47495" lon="4.31196">
        <ele>219.798584</ele>
        <time>2011-05-27T12:11:59Z</time>
      </trkpt>
      <trkpt lat="44.47478" lon="4.31189">
        <ele>219.3179932</ele>
        <time>2011-05-27T12:12:01Z</time>
      </trkpt>
      <trkpt lat="44.47462" lon="4.31182">
        <ele>218.8372803</ele>
        <time>2011-05-27T12:12:03Z</time>
      </trkpt>
      <trkpt lat="44.47448" lon="4.31175">
        <ele>218.8372803</ele>
        <time>2011-05-27T12:12:05Z</time>
      </trkpt>
      <trkpt lat="44.47437" lon="4.31168">
        <ele>219.3179932</ele>
        <time>2011-05-27T12:12:07Z</time>
      </trkpt>
      <trkpt lat="44.47428" lon="4.31163">
        <ele>219.3179932</ele>
        <time>2011-05-27T12:12:09Z</time>
      </trkpt>
      <trkpt lat="44.47419" lon="4.3116">
        <ele>219.3179932</ele>
        <time>2011-05-27T12:12:11Z</time>
      </trkpt>
      <trkpt lat="44.47406" lon="4.31157">
        <ele>219.798584</ele>
        <time>2011-05-27T12:12:14Z</time>
      </trkpt>
      <trkpt lat="44.47395" lon="4.31154">
        <ele>219.798584</ele>
        <time>2011-05-27T12:12:17Z</time>
      </trkpt>
      <trkpt lat="44.47383" lon="4.31152">
        <ele>220.2791748</ele>
        <time>2011-05-27T12:12:20Z</time>
      </trkpt>
      <trkpt lat="44.47371" lon="4.3115">
        <ele>220.2791748</ele>
        <time>2011-05-27T12:12:23Z</time>
      </trkpt>
      <trkpt lat="44.4736" lon="4.31147">
        <ele>220.7598877</ele>
        <time>2011-05-27T12:12:26Z</time>
      </trkpt>
      <trkpt lat="44.47348" lon="4.31144">
        <ele>220.2791748</ele>
        <time>2011-05-27T12:12:29Z</time>
      </trkpt>
      <trkpt lat="44.47339" lon="4.3114">
        <ele>221.2406006</ele>
        <time>2011-05-27T12:12:32Z</time>
      </trkpt>
      <trkpt lat="44.47328" lon="4.31135">
        <ele>220.2791748</ele>
        <time>2011-05-27T12:12:36Z</time>
      </trkpt>
      <trkpt lat="44.47319" lon="4.31133">
        <ele>221.2406006</ele>
        <time>2011-05-27T12:12:42Z</time>
      </trkpt>
      <trkpt lat="44.47317" lon="4.31134">
        <ele>221.2406006</ele>
        <time>2011-05-27T12:13:06Z</time>
      </trkpt>
      <trkpt lat="44.47319" lon="4.31148">
        <ele>222.2017822</ele>
        <time>2011-05-27T12:13:13Z</time>
      </trkpt>
      <trkpt lat="44.47318" lon="4.31162">
        <ele>223.163208</ele>
        <time>2011-05-27T12:13:18Z</time>
      </trkpt>
      <trkpt lat="44.47318" lon="4.31176">
        <ele>224.6052246</ele>
        <time>2011-05-27T12:13:23Z</time>
      </trkpt>
      <trkpt lat="44.47322" lon="4.31192">
        <ele>225.0859375</ele>
        <time>2011-05-27T12:13:28Z</time>
      </trkpt>
      <trkpt lat="44.47326" lon="4.31205">
        <ele>224.6052246</ele>
        <time>2011-05-27T12:13:32Z</time>
      </trkpt>
      <trkpt lat="44.47328" lon="4.31219">
        <ele>225.5665283</ele>
        <time>2011-05-27T12:13:36Z</time>
      </trkpt>
      <trkpt lat="44.47327" lon="4.31233">
        <ele>224.6052246</ele>
        <time>2011-05-27T12:13:40Z</time>
      </trkpt>
      <trkpt lat="44.47324" lon="4.31247">
        <ele>223.163208</ele>
        <time>2011-05-27T12:13:46Z</time>
      </trkpt>
      <trkpt lat="44.47323" lon="4.31261">
        <ele>222.2017822</ele>
        <time>2011-05-27T12:13:52Z</time>
      </trkpt>
      <trkpt lat="44.47325" lon="4.31273">
        <ele>221.7211914</ele>
        <time>2011-05-27T12:13:59Z</time>
      </trkpt>
      <trkpt lat="44.47325" lon="4.3126">
        <ele>223.163208</ele>
        <time>2011-05-27T12:14:08Z</time>
      </trkpt>
      <trkpt lat="44.47327" lon="4.31246">
        <ele>223.6437988</ele>
        <time>2011-05-27T12:14:13Z</time>
      </trkpt>
      <trkpt lat="44.47329" lon="4.31232">
        <ele>224.6052246</ele>
        <time>2011-05-27T12:14:18Z</time>
      </trkpt>
      <trkpt lat="44.47329" lon="4.31217">
        <ele>225.5665283</ele>
        <time>2011-05-27T12:14:23Z</time>
      </trkpt>
      <trkpt lat="44.47327" lon="4.31203">
        <ele>225.0859375</ele>
        <time>2011-05-27T12:14:28Z</time>
      </trkpt>
      <trkpt lat="44.47323" lon="4.3119">
        <ele>225.0859375</ele>
        <time>2011-05-27T12:14:33Z</time>
      </trkpt>
      <trkpt lat="44.4732" lon="4.31177">
        <ele>225.0859375</ele>
        <time>2011-05-27T12:14:37Z</time>
      </trkpt>
      <trkpt lat="44.47319" lon="4.31162">
        <ele>223.6437988</ele>
        <time>2011-05-27T12:14:42Z</time>
      </trkpt>
      <trkpt lat="44.47322" lon="4.31147">
        <ele>222.2017822</ele>
        <time>2011-05-27T12:14:47Z</time>
      </trkpt>
      <trkpt lat="44.47318" lon="4.3113">
        <ele>221.7211914</ele>
        <time>2011-05-27T12:15:16Z</time>
      </trkpt>
      <trkpt lat="44.47317" lon="4.31134">
        <ele>221.2406006</ele>
        <time>2011-05-27T12:36:14Z</time>
      </trkpt>
      <trkpt lat="44.47305" lon="4.31132">
        <ele>222.6824951</ele>
        <time>2011-05-27T12:36:21Z</time>
      </trkpt>
      <trkpt lat="44.47295" lon="4.31128">
        <ele>223.163208</ele>
        <time>2011-05-27T12:36:26Z</time>
      </trkpt>
      <trkpt lat="44.47287" lon="4.31121">
        <ele>224.1245117</ele>
        <time>2011-05-27T12:36:30Z</time>
      </trkpt>
      <trkpt lat="44.47281" lon="4.31111">
        <ele>224.6052246</ele>
        <time>2011-05-27T12:36:34Z</time>
      </trkpt>
      <trkpt lat="44.47274" lon="4.31099">
        <ele>224.1245117</ele>
        <time>2011-05-27T12:36:39Z</time>
      </trkpt>
      <trkpt lat="44.47265" lon="4.31091">
        <ele>224.1245117</ele>
        <time>2011-05-27T12:36:44Z</time>
      </trkpt>
      <trkpt lat="44.47256" lon="4.31086">
        <ele>226.0471191</ele>
        <time>2011-05-27T12:36:49Z</time>
      </trkpt>
      <trkpt lat="44.47247" lon="4.31083">
        <ele>227.0085449</ele>
        <time>2011-05-27T12:36:54Z</time>
      </trkpt>
      <trkpt lat="44.47238" lon="4.3108">
        <ele>227.4891357</ele>
        <time>2011-05-27T12:36:59Z</time>
      </trkpt>
      <trkpt lat="44.47227" lon="4.31076">
        <ele>227.9697266</ele>
        <time>2011-05-27T12:37:04Z</time>
      </trkpt>
      <trkpt lat="44.47218" lon="4.31072">
        <ele>227.9697266</ele>
        <time>2011-05-27T12:37:08Z</time>
      </trkpt>
      <trkpt lat="44.47209" lon="4.31065">
        <ele>228.4504395</ele>
        <time>2011-05-27T12:37:12Z</time>
      </trkpt>
      <trkpt lat="44.472" lon="4.31055">
        <ele>227.9697266</ele>
        <time>2011-05-27T12:37:16Z</time>
      </trkpt>
      <trkpt lat="44.47192" lon="4.31043">
        <ele>229.4117432</ele>
        <time>2011-05-27T12:37:20Z</time>
      </trkpt>
      <trkpt lat="44.47185" lon="4.31033">
        <ele>229.892334</ele>
        <time>2011-05-27T12:37:24Z</time>
      </trkpt>
      <trkpt lat="44.47179" lon="4.3102">
        <ele>230.8537598</ele>
        <time>2011-05-27T12:37:29Z</time>
      </trkpt>
      <trkpt lat="44.47178" lon="4.31006">
        <ele>231.3343506</ele>
        <time>2011-05-27T12:37:38Z</time>
      </trkpt>
      <trkpt lat="44.4718" lon="4.30993">
        <ele>231.8149414</ele>
        <time>2011-05-27T12:37:45Z</time>
      </trkpt>
      <trkpt lat="44.47181" lon="4.30976">
        <ele>231.8149414</ele>
        <time>2011-05-27T12:37:50Z</time>
      </trkpt>
      <trkpt lat="44.47176" lon="4.30963">
        <ele>231.3343506</ele>
        <time>2011-05-27T12:37:53Z</time>
      </trkpt>
      <trkpt lat="44.47169" lon="4.3095">
        <ele>230.8537598</ele>
        <time>2011-05-27T12:37:56Z</time>
      </trkpt>
      <trkpt lat="44.47157" lon="4.3094">
        <ele>230.8537598</ele>
        <time>2011-05-27T12:37:59Z</time>
      </trkpt>
      <trkpt lat="44.47145" lon="4.30935">
        <ele>230.8537598</ele>
        <time>2011-05-27T12:38:02Z</time>
      </trkpt>
      <trkpt lat="44.47133" lon="4.3093">
        <ele>231.3343506</ele>
        <time>2011-05-27T12:38:05Z</time>
      </trkpt>
      <trkpt lat="44.47125" lon="4.30922">
        <ele>230.3730469</ele>
        <time>2011-05-27T12:38:07Z</time>
      </trkpt>
      <trkpt lat="44.47118" lon="4.30912">
        <ele>229.892334</ele>
        <time>2011-05-27T12:38:09Z</time>
      </trkpt>
      <trkpt lat="44.47111" lon="4.30902">
        <ele>229.892334</ele>
        <time>2011-05-27T12:38:11Z</time>
      </trkpt>
      <trkpt lat="44.47103" lon="4.30891">
        <ele>229.4117432</ele>
        <time>2011-05-27T12:38:13Z</time>
      </trkpt>
      <trkpt lat="44.47094" lon="4.3088">
        <ele>228.9311523</ele>
        <time>2011-05-27T12:38:15Z</time>
      </trkpt>
      <trkpt lat="44.47085" lon="4.30869">
        <ele>228.4504395</ele>
        <time>2011-05-27T12:38:17Z</time>
      </trkpt>
      <trkpt lat="44.47076" lon="4.30859">
        <ele>228.9311523</ele>
        <time>2011-05-27T12:38:19Z</time>
      </trkpt>
      <trkpt lat="44.47066" lon="4.30852">
        <ele>228.9311523</ele>
        <time>2011-05-27T12:38:21Z</time>
      </trkpt>
      <trkpt lat="44.47057" lon="4.30845">
        <ele>229.4117432</ele>
        <time>2011-05-27T12:38:23Z</time>
      </trkpt>
      <trkpt lat="44.47047" lon="4.30839">
        <ele>229.4117432</ele>
        <time>2011-05-27T12:38:25Z</time>
      </trkpt>
      <trkpt lat="44.47038" lon="4.30831">
        <ele>229.4117432</ele>
        <time>2011-05-27T12:38:27Z</time>
      </trkpt>
      <trkpt lat="44.47028" lon="4.30824">
        <ele>229.4117432</ele>
        <time>2011-05-27T12:38:29Z</time>
      </trkpt>
      <trkpt lat="44.47018" lon="4.30816">
        <ele>229.4117432</ele>
        <time>2011-05-27T12:38:31Z</time>
      </trkpt>
      <trkpt lat="44.47008" lon="4.30809">
        <ele>229.4117432</ele>
        <time>2011-05-27T12:38:33Z</time>
      </trkpt>
      <trkpt lat="44.46998" lon="4.30803">
        <ele>229.892334</ele>
        <time>2011-05-27T12:38:35Z</time>
      </trkpt>
      <trkpt lat="44.46989" lon="4.30798">
        <ele>229.4117432</ele>
        <time>2011-05-27T12:38:37Z</time>
      </trkpt>
      <trkpt lat="44.46979" lon="4.30796">
        <ele>229.4117432</ele>
        <time>2011-05-27T12:38:39Z</time>
      </trkpt>
      <trkpt lat="44.46969" lon="4.30794">
        <ele>229.4117432</ele>
        <time>2011-05-27T12:38:41Z</time>
      </trkpt>
      <trkpt lat="44.46959" lon="4.30792">
        <ele>229.4117432</ele>
        <time>2011-05-27T12:38:43Z</time>
      </trkpt>
      <trkpt lat="44.46949" lon="4.30791">
        <ele>229.4117432</ele>
        <time>2011-05-27T12:38:45Z</time>
      </trkpt>
      <trkpt lat="44.46939" lon="4.30788">
        <ele>228.9311523</ele>
        <time>2011-05-27T12:38:47Z</time>
      </trkpt>
      <trkpt lat="44.46929" lon="4.30786">
        <ele>228.4504395</ele>
        <time>2011-05-27T12:38:49Z</time>
      </trkpt>
      <trkpt lat="44.46919" lon="4.30784">
        <ele>228.4504395</ele>
        <time>2011-05-27T12:38:51Z</time>
      </trkpt>
      <trkpt lat="44.46908" lon="4.30779">
        <ele>228.4504395</ele>
        <time>2011-05-27T12:38:53Z</time>
      </trkpt>
      <trkpt lat="44.46898" lon="4.30772">
        <ele>227.9697266</ele>
        <time>2011-05-27T12:38:55Z</time>
      </trkpt>
      <trkpt lat="44.46889" lon="4.30763">
        <ele>227.9697266</ele>
        <time>2011-05-27T12:38:57Z</time>
      </trkpt>
      <trkpt lat="44.46879" lon="4.30754">
        <ele>228.9311523</ele>
        <time>2011-05-27T12:38:59Z</time>
      </trkpt>
      <trkpt lat="44.4687" lon="4.30746">
        <ele>228.4504395</ele>
        <time>2011-05-27T12:39:01Z</time>
      </trkpt>
      <trkpt lat="44.46861" lon="4.30737">
        <ele>228.9311523</ele>
        <time>2011-05-27T12:39:03Z</time>
      </trkpt>
      <trkpt lat="44.46852" lon="4.30728">
        <ele>228.9311523</ele>
        <time>2011-05-27T12:39:05Z</time>
      </trkpt>
      <trkpt lat="44.46845" lon="4.3072">
        <ele>229.4117432</ele>
        <time>2011-05-27T12:39:07Z</time>
      </trkpt>
      <trkpt lat="44.46836" lon="4.30711">
        <ele>229.892334</ele>
        <time>2011-05-27T12:39:10Z</time>
      </trkpt>
      <trkpt lat="44.46829" lon="4.30703">
        <ele>229.892334</ele>
        <time>2011-05-27T12:39:14Z</time>
      </trkpt>
      <trkpt lat="44.46823" lon="4.30694">
        <ele>228.9311523</ele>
        <time>2011-05-27T12:39:20Z</time>
      </trkpt>
      <trkpt lat="44.46822" lon="4.3068">
        <ele>228.9311523</ele>
        <time>2011-05-27T12:39:36Z</time>
      </trkpt>
      <trkpt lat="44.46831" lon="4.30671">
        <ele>228.9311523</ele>
        <time>2011-05-27T12:39:42Z</time>
      </trkpt>
      <trkpt lat="44.46841" lon="4.30664">
        <ele>229.4117432</ele>
        <time>2011-05-27T12:39:47Z</time>
      </trkpt>
      <trkpt lat="44.46851" lon="4.30656">
        <ele>229.892334</ele>
        <time>2011-05-27T12:39:52Z</time>
      </trkpt>
      <trkpt lat="44.46861" lon="4.3065">
        <ele>229.4117432</ele>
        <time>2011-05-27T12:39:56Z</time>
      </trkpt>
      <trkpt lat="44.46871" lon="4.30644">
        <ele>228.9311523</ele>
        <time>2011-05-27T12:40:00Z</time>
      </trkpt>
      <trkpt lat="44.46882" lon="4.30637">
        <ele>227.4891357</ele>
        <time>2011-05-27T12:40:04Z</time>
      </trkpt>
      <trkpt lat="44.46891" lon="4.3063">
        <ele>227.9697266</ele>
        <time>2011-05-27T12:40:08Z</time>
      </trkpt>
      <trkpt lat="44.469" lon="4.30624">
        <ele>227.4891357</ele>
        <time>2011-05-27T12:40:12Z</time>
      </trkpt>
      <trkpt lat="44.46909" lon="4.30615">
        <ele>226.527832</ele>
        <time>2011-05-27T12:40:16Z</time>
      </trkpt>
      <trkpt lat="44.4692" lon="4.30611">
        <ele>227.0085449</ele>
        <time>2011-05-27T12:40:20Z</time>
      </trkpt>
      <trkpt lat="44.46931" lon="4.3061">
        <ele>227.0085449</ele>
        <time>2011-05-27T12:40:23Z</time>
      </trkpt>
      <trkpt lat="44.46941" lon="4.30611">
        <ele>227.0085449</ele>
        <time>2011-05-27T12:40:26Z</time>
      </trkpt>
      <trkpt lat="44.46953" lon="4.3061">
        <ele>227.0085449</ele>
        <time>2011-05-27T12:40:29Z</time>
      </trkpt>
      <trkpt lat="44.46961" lon="4.30603">
        <ele>227.0085449</ele>
        <time>2011-05-27T12:40:32Z</time>
      </trkpt>
      <trkpt lat="44.4697" lon="4.30593">
        <ele>227.0085449</ele>
        <time>2011-05-27T12:40:36Z</time>
      </trkpt>
      <trkpt lat="44.46978" lon="4.30583">
        <ele>226.527832</ele>
        <time>2011-05-27T12:40:39Z</time>
      </trkpt>
      <trkpt lat="44.46985" lon="4.30573">
        <ele>226.527832</ele>
        <time>2011-05-27T12:40:42Z</time>
      </trkpt>
      <trkpt lat="44.46993" lon="4.30562">
        <ele>226.0471191</ele>
        <time>2011-05-27T12:40:45Z</time>
      </trkpt>
      <trkpt lat="44.47" lon="4.30551">
        <ele>226.527832</ele>
        <time>2011-05-27T12:40:48Z</time>
      </trkpt>
      <trkpt lat="44.47009" lon="4.30541">
        <ele>226.527832</ele>
        <time>2011-05-27T12:40:52Z</time>
      </trkpt>
      <trkpt lat="44.4702" lon="4.30533">
        <ele>227.0085449</ele>
        <time>2011-05-27T12:40:56Z</time>
      </trkpt>
      <trkpt lat="44.47031" lon="4.30529">
        <ele>227.0085449</ele>
        <time>2011-05-27T12:41:00Z</time>
      </trkpt>
      <trkpt lat="44.4704" lon="4.30525">
        <ele>227.9697266</ele>
        <time>2011-05-27T12:41:03Z</time>
      </trkpt>
      <trkpt lat="44.47048" lon="4.30518">
        <ele>227.9697266</ele>
        <time>2011-05-27T12:41:09Z</time>
      </trkpt>
      <trkpt lat="44.47056" lon="4.30507">
        <ele>228.4504395</ele>
        <time>2011-05-27T12:41:23Z</time>
      </trkpt>
      <trkpt lat="44.47065" lon="4.30502">
        <ele>229.4117432</ele>
        <time>2011-05-27T12:41:31Z</time>
      </trkpt>
      <trkpt lat="44.47073" lon="4.30494">
        <ele>230.8537598</ele>
        <time>2011-05-27T12:41:41Z</time>
      </trkpt>
      <trkpt lat="44.47081" lon="4.30486">
        <ele>231.8149414</ele>
        <time>2011-05-27T12:41:52Z</time>
      </trkpt>
      <trkpt lat="44.4709" lon="4.30477">
        <ele>233.7376709</ele>
        <time>2011-05-27T12:42:01Z</time>
      </trkpt>
      <trkpt lat="44.47098" lon="4.30471">
        <ele>233.7376709</ele>
        <time>2011-05-27T12:42:08Z</time>
      </trkpt>
      <trkpt lat="44.47106" lon="4.30461">
        <ele>235.1796875</ele>
        <time>2011-05-27T12:42:16Z</time>
      </trkpt>
      <trkpt lat="44.47113" lon="4.30451">
        <ele>237.5828857</ele>
        <time>2011-05-27T12:42:24Z</time>
      </trkpt>
      <trkpt lat="44.47119" lon="4.30439">
        <ele>239.0249023</ele>
        <time>2011-05-27T12:42:32Z</time>
      </trkpt>
      <trkpt lat="44.47124" lon="4.30428">
        <ele>239.5054932</ele>
        <time>2011-05-27T12:42:39Z</time>
      </trkpt>
      <trkpt lat="44.47129" lon="4.30417">
        <ele>240.467041</ele>
        <time>2011-05-27T12:42:46Z</time>
      </trkpt>
      <trkpt lat="44.47134" lon="4.30403">
        <ele>242.3896484</ele>
        <time>2011-05-27T12:42:53Z</time>
      </trkpt>
      <trkpt lat="44.47138" lon="4.3039">
        <ele>242.8702393</ele>
        <time>2011-05-27T12:42:59Z</time>
      </trkpt>
      <trkpt lat="44.47143" lon="4.30379">
        <ele>242.8702393</ele>
        <time>2011-05-27T12:43:04Z</time>
      </trkpt>
      <trkpt lat="44.47147" lon="4.30365">
        <ele>243.831543</ele>
        <time>2011-05-27T12:43:09Z</time>
      </trkpt>
      <trkpt lat="44.4715" lon="4.30351">
        <ele>244.7928467</ele>
        <time>2011-05-27T12:43:13Z</time>
      </trkpt>
      <trkpt lat="44.4715" lon="4.30337">
        <ele>243.3508301</ele>
        <time>2011-05-27T12:43:17Z</time>
      </trkpt>
      <trkpt lat="44.47147" lon="4.30323">
        <ele>242.8702393</ele>
        <time>2011-05-27T12:43:21Z</time>
      </trkpt>
      <trkpt lat="44.47142" lon="4.30307">
        <ele>242.8702393</ele>
        <time>2011-05-27T12:43:25Z</time>
      </trkpt>
      <trkpt lat="44.47139" lon="4.30294">
        <ele>242.8702393</ele>
        <time>2011-05-27T12:43:28Z</time>
      </trkpt>
      <trkpt lat="44.47139" lon="4.30281">
        <ele>242.8702393</ele>
        <time>2011-05-27T12:43:31Z</time>
      </trkpt>
      <trkpt lat="44.47143" lon="4.30269">
        <ele>242.3896484</ele>
        <time>2011-05-27T12:43:34Z</time>
      </trkpt>
      <trkpt lat="44.47146" lon="4.30253">
        <ele>243.3508301</ele>
        <time>2011-05-27T12:43:38Z</time>
      </trkpt>
      <trkpt lat="44.47151" lon="4.3024">
        <ele>243.831543</ele>
        <time>2011-05-27T12:43:42Z</time>
      </trkpt>
      <trkpt lat="44.47156" lon="4.30229">
        <ele>243.3508301</ele>
        <time>2011-05-27T12:43:45Z</time>
      </trkpt>
      <trkpt lat="44.47162" lon="4.30214">
        <ele>243.831543</ele>
        <time>2011-05-27T12:43:49Z</time>
      </trkpt>
      <trkpt lat="44.47165" lon="4.302">
        <ele>245.2734375</ele>
        <time>2011-05-27T12:43:53Z</time>
      </trkpt>
      <trkpt lat="44.47166" lon="4.30183">
        <ele>245.2734375</ele>
        <time>2011-05-27T12:43:57Z</time>
      </trkpt>
      <trkpt lat="44.47164" lon="4.3017">
        <ele>245.2734375</ele>
        <time>2011-05-27T12:44:00Z</time>
      </trkpt>
      <trkpt lat="44.47158" lon="4.30155">
        <ele>245.7541504</ele>
        <time>2011-05-27T12:44:04Z</time>
      </trkpt>
      <trkpt lat="44.47155" lon="4.30141">
        <ele>245.2734375</ele>
        <time>2011-05-27T12:44:07Z</time>
      </trkpt>
      <trkpt lat="44.47158" lon="4.30127">
        <ele>244.3122559</ele>
        <time>2011-05-27T12:44:10Z</time>
      </trkpt>
      <trkpt lat="44.47162" lon="4.30113">
        <ele>245.2734375</ele>
        <time>2011-05-27T12:44:13Z</time>
      </trkpt>
      <trkpt lat="44.47165" lon="4.30101">
        <ele>247.1960449</ele>
        <time>2011-05-27T12:44:17Z</time>
      </trkpt>
      <trkpt lat="44.47168" lon="4.30089">
        <ele>246.7154541</ele>
        <time>2011-05-27T12:44:21Z</time>
      </trkpt>
      <trkpt lat="44.47174" lon="4.30075">
        <ele>247.6767578</ele>
        <time>2011-05-27T12:44:25Z</time>
      </trkpt>
      <trkpt lat="44.4718" lon="4.30063">
        <ele>246.7154541</ele>
        <time>2011-05-27T12:44:29Z</time>
      </trkpt>
      <trkpt lat="44.47185" lon="4.3005">
        <ele>248.1575928</ele>
        <time>2011-05-27T12:44:33Z</time>
      </trkpt>
      <trkpt lat="44.4719" lon="4.30036">
        <ele>249.5994873</ele>
        <time>2011-05-27T12:44:37Z</time>
      </trkpt>
      <trkpt lat="44.47195" lon="4.30023">
        <ele>250.0802002</ele>
        <time>2011-05-27T12:44:41Z</time>
      </trkpt>
      <trkpt lat="44.47199" lon="4.3001">
        <ele>250.560791</ele>
        <time>2011-05-27T12:44:45Z</time>
      </trkpt>
      <trkpt lat="44.47204" lon="4.29996">
        <ele>251.0413818</ele>
        <time>2011-05-27T12:44:49Z</time>
      </trkpt>
      <trkpt lat="44.47209" lon="4.29982">
        <ele>251.0413818</ele>
        <time>2011-05-27T12:44:53Z</time>
      </trkpt>
      <trkpt lat="44.47211" lon="4.29965">
        <ele>251.5220947</ele>
        <time>2011-05-27T12:44:57Z</time>
      </trkpt>
      <trkpt lat="44.47211" lon="4.29952">
        <ele>252.0028076</ele>
        <time>2011-05-27T12:45:00Z</time>
      </trkpt>
      <trkpt lat="44.4721" lon="4.29937">
        <ele>251.5220947</ele>
        <time>2011-05-27T12:45:03Z</time>
      </trkpt>
      <trkpt lat="44.47207" lon="4.29923">
        <ele>251.0413818</ele>
        <time>2011-05-27T12:45:06Z</time>
      </trkpt>
      <trkpt lat="44.47204" lon="4.29908">
        <ele>250.560791</ele>
        <time>2011-05-27T12:45:09Z</time>
      </trkpt>
      <trkpt lat="44.47202" lon="4.29893">
        <ele>250.560791</ele>
        <time>2011-05-27T12:45:12Z</time>
      </trkpt>
      <trkpt lat="44.47202" lon="4.29877">
        <ele>250.0802002</ele>
        <time>2011-05-27T12:45:15Z</time>
      </trkpt>
      <trkpt lat="44.47204" lon="4.29861">
        <ele>250.560791</ele>
        <time>2011-05-27T12:45:18Z</time>
      </trkpt>
      <trkpt lat="44.47207" lon="4.29846">
        <ele>250.560791</ele>
        <time>2011-05-27T12:45:21Z</time>
      </trkpt>
      <trkpt lat="44.4721" lon="4.29831">
        <ele>251.0413818</ele>
        <time>2011-05-27T12:45:24Z</time>
      </trkpt>
      <trkpt lat="44.47211" lon="4.29817">
        <ele>251.0413818</ele>
        <time>2011-05-27T12:45:27Z</time>
      </trkpt>
      <trkpt lat="44.47215" lon="4.29802">
        <ele>251.0413818</ele>
        <time>2011-05-27T12:45:30Z</time>
      </trkpt>
      <trkpt lat="44.47216" lon="4.29785">
        <ele>251.0413818</ele>
        <time>2011-05-27T12:45:33Z</time>
      </trkpt>
      <trkpt lat="44.47215" lon="4.29768">
        <ele>250.560791</ele>
        <time>2011-05-27T12:45:36Z</time>
      </trkpt>
      <trkpt lat="44.47214" lon="4.29752">
        <ele>250.0802002</ele>
        <time>2011-05-27T12:45:39Z</time>
      </trkpt>
      <trkpt lat="44.47215" lon="4.29735">
        <ele>249.5994873</ele>
        <time>2011-05-27T12:45:42Z</time>
      </trkpt>
      <trkpt lat="44.47219" lon="4.2972">
        <ele>249.1187744</ele>
        <time>2011-05-27T12:45:45Z</time>
      </trkpt>
      <trkpt lat="44.47222" lon="4.29703">
        <ele>250.0802002</ele>
        <time>2011-05-27T12:45:48Z</time>
      </trkpt>
      <trkpt lat="44.47227" lon="4.29688">
        <ele>248.1575928</ele>
        <time>2011-05-27T12:45:51Z</time>
      </trkpt>
      <trkpt lat="44.47231" lon="4.29673">
        <ele>250.560791</ele>
        <time>2011-05-27T12:45:54Z</time>
      </trkpt>
      <trkpt lat="44.47235" lon="4.29661">
        <ele>251.0413818</ele>
        <time>2011-05-27T12:45:57Z</time>
      </trkpt>
      <trkpt lat="44.4724" lon="4.29648">
        <ele>252.0028076</ele>
        <time>2011-05-27T12:46:00Z</time>
      </trkpt>
      <trkpt lat="44.47244" lon="4.29635">
        <ele>252.9639893</ele>
        <time>2011-05-27T12:46:03Z</time>
      </trkpt>
      <trkpt lat="44.47246" lon="4.2962">
        <ele>253.4447021</ele>
        <time>2011-05-27T12:46:07Z</time>
      </trkpt>
      <trkpt lat="44.4724" lon="4.29608">
        <ele>252.9639893</ele>
        <time>2011-05-27T12:46:11Z</time>
      </trkpt>
      <trkpt lat="44.47227" lon="4.29604">
        <ele>250.560791</ele>
        <time>2011-05-27T12:46:14Z</time>
      </trkpt>
      <trkpt lat="44.47221" lon="4.29594">
        <ele>250.560791</ele>
        <time>2011-05-27T12:46:16Z</time>
      </trkpt>
      <trkpt lat="44.47219" lon="4.29581">
        <ele>250.0802002</ele>
        <time>2011-05-27T12:46:18Z</time>
      </trkpt>
      <trkpt lat="44.47218" lon="4.29567">
        <ele>248.1575928</ele>
        <time>2011-05-27T12:46:20Z</time>
      </trkpt>
      <trkpt lat="44.47217" lon="4.29553">
        <ele>248.1575928</ele>
        <time>2011-05-27T12:46:22Z</time>
      </trkpt>
      <trkpt lat="44.47215" lon="4.29538">
        <ele>247.1960449</ele>
        <time>2011-05-27T12:46:24Z</time>
      </trkpt>
      <trkpt lat="44.47212" lon="4.29523">
        <ele>246.2348633</ele>
        <time>2011-05-27T12:46:26Z</time>
      </trkpt>
      <trkpt lat="44.4721" lon="4.29508">
        <ele>245.7541504</ele>
        <time>2011-05-27T12:46:28Z</time>
      </trkpt>
      <trkpt lat="44.4721" lon="4.29493">
        <ele>245.7541504</ele>
        <time>2011-05-27T12:46:30Z</time>
      </trkpt>
      <trkpt lat="44.4721" lon="4.29479">
        <ele>245.7541504</ele>
        <time>2011-05-27T12:46:32Z</time>
      </trkpt>
      <trkpt lat="44.47212" lon="4.2946">
        <ele>246.2348633</ele>
        <time>2011-05-27T12:46:35Z</time>
      </trkpt>
      <trkpt lat="44.47213" lon="4.29443">
        <ele>246.7154541</ele>
        <time>2011-05-27T12:46:38Z</time>
      </trkpt>
      <trkpt lat="44.47214" lon="4.29427">
        <ele>247.6767578</ele>
        <time>2011-05-27T12:46:41Z</time>
      </trkpt>
      <trkpt lat="44.47215" lon="4.29413">
        <ele>247.6767578</ele>
        <time>2011-05-27T12:46:45Z</time>
      </trkpt>
      <trkpt lat="44.47222" lon="4.29402">
        <ele>248.6381836</ele>
        <time>2011-05-27T12:46:50Z</time>
      </trkpt>
      <trkpt lat="44.47227" lon="4.29391">
        <ele>249.1187744</ele>
        <time>2011-05-27T12:46:54Z</time>
      </trkpt>
      <trkpt lat="44.47232" lon="4.29378">
        <ele>249.1187744</ele>
        <time>2011-05-27T12:46:58Z</time>
      </trkpt>
      <trkpt lat="44.47238" lon="4.29365">
        <ele>249.1187744</ele>
        <time>2011-05-27T12:47:02Z</time>
      </trkpt>
      <trkpt lat="44.47245" lon="4.29353">
        <ele>249.5994873</ele>
        <time>2011-05-27T12:47:06Z</time>
      </trkpt>
      <trkpt lat="44.47251" lon="4.29342">
        <ele>249.1187744</ele>
        <time>2011-05-27T12:47:09Z</time>
      </trkpt>
      <trkpt lat="44.47256" lon="4.29331">
        <ele>249.5994873</ele>
        <time>2011-05-27T12:47:12Z</time>
      </trkpt>
      <trkpt lat="44.47262" lon="4.29319">
        <ele>249.5994873</ele>
        <time>2011-05-27T12:47:15Z</time>
      </trkpt>
      <trkpt lat="44.47268" lon="4.29307">
        <ele>249.5994873</ele>
        <time>2011-05-27T12:47:18Z</time>
      </trkpt>
      <trkpt lat="44.47275" lon="4.29296">
        <ele>249.5994873</ele>
        <time>2011-05-27T12:47:21Z</time>
      </trkpt>
      <trkpt lat="44.47282" lon="4.29284">
        <ele>249.5994873</ele>
        <time>2011-05-27T12:47:24Z</time>
      </trkpt>
      <trkpt lat="44.47287" lon="4.29274">
        <ele>249.1187744</ele>
        <time>2011-05-27T12:47:27Z</time>
      </trkpt>
      <trkpt lat="44.47295" lon="4.29263">
        <ele>249.5994873</ele>
        <time>2011-05-27T12:47:30Z</time>
      </trkpt>
      <trkpt lat="44.47303" lon="4.29253">
        <ele>250.0802002</ele>
        <time>2011-05-27T12:47:33Z</time>
      </trkpt>
      <trkpt lat="44.47311" lon="4.29242">
        <ele>250.0802002</ele>
        <time>2011-05-27T12:47:36Z</time>
      </trkpt>
      <trkpt lat="44.47319" lon="4.2923">
        <ele>250.560791</ele>
        <time>2011-05-27T12:47:39Z</time>
      </trkpt>
      <trkpt lat="44.47326" lon="4.29217">
        <ele>251.0413818</ele>
        <time>2011-05-27T12:47:42Z</time>
      </trkpt>
      <trkpt lat="44.47332" lon="4.29203">
        <ele>251.0413818</ele>
        <time>2011-05-27T12:47:45Z</time>
      </trkpt>
      <trkpt lat="44.47338" lon="4.29189">
        <ele>251.0413818</ele>
        <time>2011-05-27T12:47:48Z</time>
      </trkpt>
      <trkpt lat="44.47343" lon="4.29176">
        <ele>251.5220947</ele>
        <time>2011-05-27T12:47:51Z</time>
      </trkpt>
      <trkpt lat="44.47348" lon="4.29163">
        <ele>252.9639893</ele>
        <time>2011-05-27T12:47:54Z</time>
      </trkpt>
      <trkpt lat="44.47353" lon="4.29148">
        <ele>252.9639893</ele>
        <time>2011-05-27T12:47:57Z</time>
      </trkpt>
      <trkpt lat="44.47356" lon="4.29132">
        <ele>253.4447021</ele>
        <time>2011-05-27T12:48:00Z</time>
      </trkpt>
      <trkpt lat="44.47358" lon="4.29115">
        <ele>254.4060059</ele>
        <time>2011-05-27T12:48:03Z</time>
      </trkpt>
      <trkpt lat="44.4736" lon="4.29099">
        <ele>254.4060059</ele>
        <time>2011-05-27T12:48:06Z</time>
      </trkpt>
      <trkpt lat="44.47361" lon="4.29083">
        <ele>255.8480225</ele>
        <time>2011-05-27T12:48:09Z</time>
      </trkpt>
      <trkpt lat="44.47362" lon="4.29067">
        <ele>256.3287354</ele>
        <time>2011-05-27T12:48:12Z</time>
      </trkpt>
      <trkpt lat="44.47363" lon="4.29051">
        <ele>255.3673096</ele>
        <time>2011-05-27T12:48:15Z</time>
      </trkpt>
      <trkpt lat="44.47362" lon="4.29035">
        <ele>254.8865967</ele>
        <time>2011-05-27T12:48:18Z</time>
      </trkpt>
      <trkpt lat="44.47357" lon="4.29022">
        <ele>256.3287354</ele>
        <time>2011-05-27T12:48:21Z</time>
      </trkpt>
      <trkpt lat="44.47346" lon="4.29013">
        <ele>258.7319336</ele>
        <time>2011-05-27T12:48:25Z</time>
      </trkpt>
      <trkpt lat="44.47337" lon="4.29006">
        <ele>259.2126465</ele>
        <time>2011-05-27T12:48:29Z</time>
      </trkpt>
      <trkpt lat="44.47328" lon="4.29">
        <ele>259.2126465</ele>
        <time>2011-05-27T12:48:33Z</time>
      </trkpt>
      <trkpt lat="44.47319" lon="4.28994">
        <ele>261.6159668</ele>
        <time>2011-05-27T12:48:37Z</time>
      </trkpt>
      <trkpt lat="44.4731" lon="4.28987">
        <ele>263.0578613</ele>
        <time>2011-05-27T12:48:41Z</time>
      </trkpt>
      <trkpt lat="44.47301" lon="4.28981">
        <ele>264.0192871</ele>
        <time>2011-05-27T12:48:45Z</time>
      </trkpt>
      <trkpt lat="44.47293" lon="4.28975">
        <ele>264.9805908</ele>
        <time>2011-05-27T12:48:49Z</time>
      </trkpt>
      <trkpt lat="44.47284" lon="4.2897">
        <ele>265.9418945</ele>
        <time>2011-05-27T12:48:53Z</time>
      </trkpt>
      <trkpt lat="44.47275" lon="4.28966">
        <ele>266.9031982</ele>
        <time>2011-05-27T12:48:57Z</time>
      </trkpt>
      <trkpt lat="44.47265" lon="4.28962">
        <ele>268.3450928</ele>
        <time>2011-05-27T12:49:01Z</time>
      </trkpt>
      <trkpt lat="44.47256" lon="4.28959">
        <ele>269.3065186</ele>
        <time>2011-05-27T12:49:05Z</time>
      </trkpt>
      <trkpt lat="44.47246" lon="4.28956">
        <ele>269.7871094</ele>
        <time>2011-05-27T12:49:09Z</time>
      </trkpt>
      <trkpt lat="44.47235" lon="4.28953">
        <ele>269.7871094</ele>
        <time>2011-05-27T12:49:13Z</time>
      </trkpt>
      <trkpt lat="44.47226" lon="4.28951">
        <ele>270.2677002</ele>
        <time>2011-05-27T12:49:16Z</time>
      </trkpt>
      <trkpt lat="44.47217" lon="4.2895">
        <ele>271.229126</ele>
        <time>2011-05-27T12:49:19Z</time>
      </trkpt>
      <trkpt lat="44.47207" lon="4.28947">
        <ele>272.6711426</ele>
        <time>2011-05-27T12:49:22Z</time>
      </trkpt>
      <trkpt lat="44.47198" lon="4.28942">
        <ele>273.1518555</ele>
        <time>2011-05-27T12:49:25Z</time>
      </trkpt>
      <trkpt lat="44.4719" lon="4.28934">
        <ele>272.1904297</ele>
        <time>2011-05-27T12:49:28Z</time>
      </trkpt>
      <trkpt lat="44.47188" lon="4.28917">
        <ele>271.229126</ele>
        <time>2011-05-27T12:49:31Z</time>
      </trkpt>
      <trkpt lat="44.47185" lon="4.28899">
        <ele>271.229126</ele>
        <time>2011-05-27T12:49:34Z</time>
      </trkpt>
      <trkpt lat="44.47182" lon="4.28884">
        <ele>271.7097168</ele>
        <time>2011-05-27T12:49:37Z</time>
      </trkpt>
      <trkpt lat="44.4718" lon="4.28871">
        <ele>272.1904297</ele>
        <time>2011-05-27T12:49:40Z</time>
      </trkpt>
      <trkpt lat="44.47178" lon="4.28856">
        <ele>272.1904297</ele>
        <time>2011-05-27T12:49:44Z</time>
      </trkpt>
      <trkpt lat="44.47177" lon="4.28843">
        <ele>271.7097168</ele>
        <time>2011-05-27T12:49:47Z</time>
      </trkpt>
      <trkpt lat="44.47175" lon="4.28828">
        <ele>270.2677002</ele>
        <time>2011-05-27T12:49:50Z</time>
      </trkpt>
      <trkpt lat="44.47172" lon="4.28815">
        <ele>269.3065186</ele>
        <time>2011-05-27T12:49:52Z</time>
      </trkpt>
      <trkpt lat="44.47169" lon="4.28802">
        <ele>269.3065186</ele>
        <time>2011-05-27T12:49:54Z</time>
      </trkpt>
      <trkpt lat="44.47172" lon="4.2879">
        <ele>267.3839111</ele>
        <time>2011-05-27T12:49:57Z</time>
      </trkpt>
      <trkpt lat="44.47183" lon="4.28781">
        <ele>266.9031982</ele>
        <time>2011-05-27T12:50:00Z</time>
      </trkpt>
      <trkpt lat="44.47195" lon="4.28772">
        <ele>265.4613037</ele>
        <time>2011-05-27T12:50:03Z</time>
      </trkpt>
      <trkpt lat="44.47205" lon="4.28765">
        <ele>264.0192871</ele>
        <time>2011-05-27T12:50:05Z</time>
      </trkpt>
      <trkpt lat="44.47214" lon="4.28758">
        <ele>263.5385742</ele>
        <time>2011-05-27T12:50:07Z</time>
      </trkpt>
      <trkpt lat="44.47226" lon="4.28749">
        <ele>262.0965576</ele>
        <time>2011-05-27T12:50:10Z</time>
      </trkpt>
      <trkpt lat="44.47234" lon="4.28743">
        <ele>262.0965576</ele>
        <time>2011-05-27T12:50:12Z</time>
      </trkpt>
      <trkpt lat="44.47243" lon="4.28737">
        <ele>261.6159668</ele>
        <time>2011-05-27T12:50:14Z</time>
      </trkpt>
      <trkpt lat="44.47251" lon="4.2873">
        <ele>262.0965576</ele>
        <time>2011-05-27T12:50:16Z</time>
      </trkpt>
      <trkpt lat="44.4726" lon="4.28723">
        <ele>261.6159668</ele>
        <time>2011-05-27T12:50:18Z</time>
      </trkpt>
      <trkpt lat="44.4727" lon="4.28717">
        <ele>261.6159668</ele>
        <time>2011-05-27T12:50:20Z</time>
      </trkpt>
      <trkpt lat="44.47282" lon="4.2871">
        <ele>262.0965576</ele>
        <time>2011-05-27T12:50:23Z</time>
      </trkpt>
      <trkpt lat="44.4729" lon="4.28703">
        <ele>261.1352539</ele>
        <time>2011-05-27T12:50:25Z</time>
      </trkpt>
      <trkpt lat="44.473" lon="4.28692">
        <ele>261.6159668</ele>
        <time>2011-05-27T12:50:28Z</time>
      </trkpt>
      <trkpt lat="44.47306" lon="4.28682">
        <ele>261.1352539</ele>
        <time>2011-05-27T12:50:33Z</time>
      </trkpt>
      <trkpt lat="44.47313" lon="4.2867">
        <ele>259.2126465</ele>
        <time>2011-05-27T12:50:36Z</time>
      </trkpt>
      <trkpt lat="44.4731" lon="4.28658">
        <ele>259.6933594</ele>
        <time>2011-05-27T12:50:40Z</time>
      </trkpt>
      <trkpt lat="44.473" lon="4.28651">
        <ele>262.0965576</ele>
        <time>2011-05-27T12:50:44Z</time>
      </trkpt>
      <trkpt lat="44.4729" lon="4.28642">
        <ele>262.0965576</ele>
        <time>2011-05-27T12:50:48Z</time>
      </trkpt>
      <trkpt lat="44.4728" lon="4.28634">
        <ele>262.5771484</ele>
        <time>2011-05-27T12:50:52Z</time>
      </trkpt>
      <trkpt lat="44.47271" lon="4.28627">
        <ele>262.5771484</ele>
        <time>2011-05-27T12:50:56Z</time>
      </trkpt>
      <trkpt lat="44.47262" lon="4.28621">
        <ele>263.0578613</ele>
        <time>2011-05-27T12:51:01Z</time>
      </trkpt>
      <trkpt lat="44.47253" lon="4.28618">
        <ele>263.0578613</ele>
        <time>2011-05-27T12:51:07Z</time>
      </trkpt>
      <trkpt lat="44.4725" lon="4.28628">
        <ele>267.864502</ele>
        <time>2011-05-27T12:51:23Z</time>
      </trkpt>
      <trkpt lat="44.47252" lon="4.28627">
        <ele>258.7319336</ele>
        <time>2011-05-27T12:56:32Z</time>
      </trkpt>
      <trkpt lat="44.47254" lon="4.28617">
        <ele>259.6933594</ele>
        <time>2011-05-27T12:57:32Z</time>
      </trkpt>
      <trkpt lat="44.47263" lon="4.28622">
        <ele>259.2126465</ele>
        <time>2011-05-27T12:57:36Z</time>
      </trkpt>
      <trkpt lat="44.47271" lon="4.28628">
        <ele>258.7319336</ele>
        <time>2011-05-27T12:57:40Z</time>
      </trkpt>
      <trkpt lat="44.47282" lon="4.28638">
        <ele>258.2513428</ele>
        <time>2011-05-27T12:57:44Z</time>
      </trkpt>
      <trkpt lat="44.47292" lon="4.28647">
        <ele>257.770752</ele>
        <time>2011-05-27T12:57:47Z</time>
      </trkpt>
      <trkpt lat="44.47303" lon="4.28656">
        <ele>256.8093262</ele>
        <time>2011-05-27T12:57:50Z</time>
      </trkpt>
      <trkpt lat="44.47313" lon="4.28667">
        <ele>256.8093262</ele>
        <time>2011-05-27T12:57:53Z</time>
      </trkpt>
      <trkpt lat="44.47309" lon="4.28679">
        <ele>256.8093262</ele>
        <time>2011-05-27T12:57:57Z</time>
      </trkpt>
      <trkpt lat="44.47302" lon="4.28688">
        <ele>257.770752</ele>
        <time>2011-05-27T12:58:03Z</time>
      </trkpt>
      <trkpt lat="44.47294" lon="4.28699">
        <ele>257.2900391</ele>
        <time>2011-05-27T12:58:09Z</time>
      </trkpt>
      <trkpt lat="44.47286" lon="4.28707">
        <ele>257.2900391</ele>
        <time>2011-05-27T12:58:14Z</time>
      </trkpt>
      <trkpt lat="44.47277" lon="4.28713">
        <ele>258.2513428</ele>
        <time>2011-05-27T12:58:19Z</time>
      </trkpt>
      <trkpt lat="44.47266" lon="4.28719">
        <ele>259.2126465</ele>
        <time>2011-05-27T12:58:25Z</time>
      </trkpt>
      <trkpt lat="44.47256" lon="4.28726">
        <ele>258.7319336</ele>
        <time>2011-05-27T12:58:29Z</time>
      </trkpt>
      <trkpt lat="44.47246" lon="4.28734">
        <ele>258.7319336</ele>
        <time>2011-05-27T12:58:33Z</time>
      </trkpt>
      <trkpt lat="44.47235" lon="4.28742">
        <ele>260.1739502</ele>
        <time>2011-05-27T12:58:37Z</time>
      </trkpt>
      <trkpt lat="44.47226" lon="4.28749">
        <ele>260.1739502</ele>
        <time>2011-05-27T12:58:41Z</time>
      </trkpt>
      <trkpt lat="44.47217" lon="4.28757">
        <ele>261.1352539</ele>
        <time>2011-05-27T12:58:45Z</time>
      </trkpt>
      <trkpt lat="44.47209" lon="4.28764">
        <ele>261.1352539</ele>
        <time>2011-05-27T12:58:49Z</time>
      </trkpt>
      <trkpt lat="44.47199" lon="4.28771">
        <ele>262.0965576</ele>
        <time>2011-05-27T12:58:53Z</time>
      </trkpt>
      <trkpt lat="44.47191" lon="4.28777">
        <ele>263.0578613</ele>
        <time>2011-05-27T12:58:57Z</time>
      </trkpt>
      <trkpt lat="44.47183" lon="4.28782">
        <ele>263.0578613</ele>
        <time>2011-05-27T12:59:01Z</time>
      </trkpt>
      <trkpt lat="44.47174" lon="4.2879">
        <ele>264.0192871</ele>
        <time>2011-05-27T12:59:05Z</time>
      </trkpt>
      <trkpt lat="44.47169" lon="4.28801">
        <ele>266.4224854</ele>
        <time>2011-05-27T12:59:10Z</time>
      </trkpt>
      <trkpt lat="44.47174" lon="4.28816">
        <ele>266.4224854</ele>
        <time>2011-05-27T12:59:16Z</time>
      </trkpt>
      <trkpt lat="44.47176" lon="4.28829">
        <ele>266.9031982</ele>
        <time>2011-05-27T12:59:21Z</time>
      </trkpt>
      <trkpt lat="44.47177" lon="4.28842">
        <ele>267.3839111</ele>
        <time>2011-05-27T12:59:26Z</time>
      </trkpt>
      <trkpt lat="44.47178" lon="4.28856">
        <ele>268.8258057</ele>
        <time>2011-05-27T12:59:32Z</time>
      </trkpt>
      <trkpt lat="44.47171" lon="4.28854">
        <ele>270.2677002</ele>
        <time>2011-05-27T12:59:37Z</time>
      </trkpt>
      <trkpt lat="44.47163" lon="4.28847">
        <ele>269.7871094</ele>
        <time>2011-05-27T12:59:41Z</time>
      </trkpt>
      <trkpt lat="44.47155" lon="4.28837">
        <ele>270.2677002</ele>
        <time>2011-05-27T12:59:45Z</time>
      </trkpt>
      <trkpt lat="44.47146" lon="4.28826">
        <ele>270.2677002</ele>
        <time>2011-05-27T12:59:49Z</time>
      </trkpt>
      <trkpt lat="44.47136" lon="4.28819">
        <ele>270.7484131</ele>
        <time>2011-05-27T12:59:52Z</time>
      </trkpt>
      <trkpt lat="44.47126" lon="4.28813">
        <ele>270.2677002</ele>
        <time>2011-05-27T12:59:55Z</time>
      </trkpt>
      <trkpt lat="44.47116" lon="4.28808">
        <ele>271.229126</ele>
        <time>2011-05-27T12:59:58Z</time>
      </trkpt>
      <trkpt lat="44.47106" lon="4.28802">
        <ele>271.7097168</ele>
        <time>2011-05-27T13:00:01Z</time>
      </trkpt>
      <trkpt lat="44.47095" lon="4.28798">
        <ele>271.7097168</ele>
        <time>2011-05-27T13:00:04Z</time>
      </trkpt>
      <trkpt lat="44.47084" lon="4.28795">
        <ele>271.229126</ele>
        <time>2011-05-27T13:00:07Z</time>
      </trkpt>
      <trkpt lat="44.47071" lon="4.28793">
        <ele>271.7097168</ele>
        <time>2011-05-27T13:00:10Z</time>
      </trkpt>
      <trkpt lat="44.47059" lon="4.2879">
        <ele>272.1904297</ele>
        <time>2011-05-27T13:00:13Z</time>
      </trkpt>
      <trkpt lat="44.47049" lon="4.28785">
        <ele>273.1518555</ele>
        <time>2011-05-27T13:00:16Z</time>
      </trkpt>
      <trkpt lat="44.47039" lon="4.2878">
        <ele>272.6711426</ele>
        <time>2011-05-27T13:00:19Z</time>
      </trkpt>
      <trkpt lat="44.4703" lon="4.28774">
        <ele>275.0744629</ele>
        <time>2011-05-27T13:00:22Z</time>
      </trkpt>
      <trkpt lat="44.47021" lon="4.28767">
        <ele>276.0356445</ele>
        <time>2011-05-27T13:00:25Z</time>
      </trkpt>
      <trkpt lat="44.47014" lon="4.28758">
        <ele>276.5163574</ele>
        <time>2011-05-27T13:00:28Z</time>
      </trkpt>
      <trkpt lat="44.47008" lon="4.28747">
        <ele>276.9970703</ele>
        <time>2011-05-27T13:00:31Z</time>
      </trkpt>
      <trkpt lat="44.47002" lon="4.28735">
        <ele>277.4776611</ele>
        <time>2011-05-27T13:00:34Z</time>
      </trkpt>
      <trkpt lat="44.46997" lon="4.28724">
        <ele>276.9970703</ele>
        <time>2011-05-27T13:00:37Z</time>
      </trkpt>
      <trkpt lat="44.4699" lon="4.28709">
        <ele>277.958252</ele>
        <time>2011-05-27T13:00:41Z</time>
      </trkpt>
      <trkpt lat="44.46985" lon="4.28698">
        <ele>279.4002686</ele>
        <time>2011-05-27T13:00:44Z</time>
      </trkpt>
      <trkpt lat="44.46979" lon="4.28686">
        <ele>280.8424072</ele>
        <time>2011-05-27T13:00:47Z</time>
      </trkpt>
      <trkpt lat="44.46971" lon="4.28674">
        <ele>283.2456055</ele>
        <time>2011-05-27T13:00:51Z</time>
      </trkpt>
      <trkpt lat="44.46965" lon="4.28663">
        <ele>282.7650146</ele>
        <time>2011-05-27T13:00:55Z</time>
      </trkpt>
      <trkpt lat="44.46958" lon="4.28654">
        <ele>283.7261963</ele>
        <time>2011-05-27T13:00:59Z</time>
      </trkpt>
      <trkpt lat="44.46959" lon="4.28652">
        <ele>282.2843018</ele>
        <time>2011-05-27T13:02:12Z</time>
      </trkpt>
      <trkpt lat="44.46953" lon="4.28641">
        <ele>283.2456055</ele>
        <time>2011-05-27T13:02:19Z</time>
      </trkpt>
      <trkpt lat="44.46946" lon="4.28631">
        <ele>285.1682129</ele>
        <time>2011-05-27T13:02:25Z</time>
      </trkpt>
      <trkpt lat="44.46938" lon="4.28619">
        <ele>286.6102295</ele>
        <time>2011-05-27T13:02:31Z</time>
      </trkpt>
      <trkpt lat="44.46932" lon="4.28609">
        <ele>287.0908203</ele>
        <time>2011-05-27T13:02:36Z</time>
      </trkpt>
      <trkpt lat="44.46937" lon="4.28598">
        <ele>287.0908203</ele>
        <time>2011-05-27T13:02:43Z</time>
      </trkpt>
      <trkpt lat="44.46946" lon="4.28591">
        <ele>287.5714111</ele>
        <time>2011-05-27T13:02:50Z</time>
      </trkpt>
      <trkpt lat="44.46954" lon="4.28583">
        <ele>287.5714111</ele>
        <time>2011-05-27T13:02:57Z</time>
      </trkpt>
      <trkpt lat="44.46962" lon="4.28578">
        <ele>287.0908203</ele>
        <time>2011-05-27T13:03:03Z</time>
      </trkpt>
      <trkpt lat="44.4697" lon="4.28578">
        <ele>287.0908203</ele>
        <time>2011-05-27T13:03:17Z</time>
      </trkpt>
      <trkpt lat="44.46968" lon="4.28578">
        <ele>289.9748535</ele>
        <time>2011-05-27T13:10:10Z</time>
      </trkpt>
      <trkpt lat="44.46962" lon="4.28582">
        <ele>290.4555664</ele>
        <time>2011-05-27T13:12:52Z</time>
      </trkpt>
      <trkpt lat="44.46954" lon="4.28588">
        <ele>290.4555664</ele>
        <time>2011-05-27T13:12:57Z</time>
      </trkpt>
      <trkpt lat="44.46945" lon="4.28598">
        <ele>290.4555664</ele>
        <time>2011-05-27T13:13:01Z</time>
      </trkpt>
      <trkpt lat="44.46936" lon="4.28607">
        <ele>290.4555664</ele>
        <time>2011-05-27T13:13:04Z</time>
      </trkpt>
      <trkpt lat="44.46923" lon="4.2861">
        <ele>288.532959</ele>
        <time>2011-05-27T13:13:07Z</time>
      </trkpt>
      <trkpt lat="44.46912" lon="4.28605">
        <ele>287.5714111</ele>
        <time>2011-05-27T13:13:09Z</time>
      </trkpt>
      <trkpt lat="44.469" lon="4.28599">
        <ele>286.6102295</ele>
        <time>2011-05-27T13:13:11Z</time>
      </trkpt>
      <trkpt lat="44.46885" lon="4.28593">
        <ele>285.1682129</ele>
        <time>2011-05-27T13:13:13Z</time>
      </trkpt>
      <trkpt lat="44.46869" lon="4.28589">
        <ele>283.7261963</ele>
        <time>2011-05-27T13:13:15Z</time>
      </trkpt>
      <trkpt lat="44.46853" lon="4.28586">
        <ele>281.322998</ele>
        <time>2011-05-27T13:13:17Z</time>
      </trkpt>
      <trkpt lat="44.46841" lon="4.28589">
        <ele>280.3616943</ele>
        <time>2011-05-27T13:13:19Z</time>
      </trkpt>
      <trkpt lat="44.46833" lon="4.286">
        <ele>279.8808594</ele>
        <time>2011-05-27T13:13:21Z</time>
      </trkpt>
      <trkpt lat="44.46825" lon="4.28612">
        <ele>279.8808594</ele>
        <time>2011-05-27T13:13:23Z</time>
      </trkpt>
      <trkpt lat="44.46817" lon="4.28623">
        <ele>279.8808594</ele>
        <time>2011-05-27T13:13:25Z</time>
      </trkpt>
      <trkpt lat="44.46812" lon="4.28634">
        <ele>279.8808594</ele>
        <time>2011-05-27T13:13:27Z</time>
      </trkpt>
      <trkpt lat="44.46805" lon="4.2865">
        <ele>279.4002686</ele>
        <time>2011-05-27T13:13:30Z</time>
      </trkpt>
      <trkpt lat="44.46799" lon="4.2866">
        <ele>279.4002686</ele>
        <time>2011-05-27T13:13:32Z</time>
      </trkpt>
      <trkpt lat="44.4679" lon="4.28673">
        <ele>279.4002686</ele>
        <time>2011-05-27T13:13:35Z</time>
      </trkpt>
      <trkpt lat="44.4678" lon="4.28686">
        <ele>279.4002686</ele>
        <time>2011-05-27T13:13:38Z</time>
      </trkpt>
      <trkpt lat="44.46773" lon="4.28694">
        <ele>278.4389648</ele>
        <time>2011-05-27T13:13:40Z</time>
      </trkpt>
      <trkpt lat="44.46766" lon="4.28704">
        <ele>278.4389648</ele>
        <time>2011-05-27T13:13:42Z</time>
      </trkpt>
      <trkpt lat="44.46759" lon="4.28713">
        <ele>277.4776611</ele>
        <time>2011-05-27T13:13:44Z</time>
      </trkpt>
      <trkpt lat="44.46751" lon="4.28723">
        <ele>277.958252</ele>
        <time>2011-05-27T13:13:46Z</time>
      </trkpt>
      <trkpt lat="44.46743" lon="4.2873">
        <ele>278.4389648</ele>
        <time>2011-05-27T13:13:48Z</time>
      </trkpt>
      <trkpt lat="44.46735" lon="4.28734">
        <ele>277.958252</ele>
        <time>2011-05-27T13:13:50Z</time>
      </trkpt>
      <trkpt lat="44.46724" lon="4.28731">
        <ele>276.5163574</ele>
        <time>2011-05-27T13:13:52Z</time>
      </trkpt>
      <trkpt lat="44.4671" lon="4.28724">
        <ele>275.0744629</ele>
        <time>2011-05-27T13:13:54Z</time>
      </trkpt>
      <trkpt lat="44.46694" lon="4.28716">
        <ele>273.6324463</ele>
        <time>2011-05-27T13:13:56Z</time>
      </trkpt>
      <trkpt lat="44.46685" lon="4.28712">
        <ele>272.1904297</ele>
        <time>2011-05-27T13:13:57Z</time>
      </trkpt>
      <trkpt lat="44.46669" lon="4.28706">
        <ele>268.8258057</ele>
        <time>2011-05-27T13:13:59Z</time>
      </trkpt>
      <trkpt lat="44.46655" lon="4.28699">
        <ele>268.3450928</ele>
        <time>2011-05-27T13:14:01Z</time>
      </trkpt>
      <trkpt lat="44.46642" lon="4.28693">
        <ele>266.4224854</ele>
        <time>2011-05-27T13:14:03Z</time>
      </trkpt>
      <trkpt lat="44.46631" lon="4.28699">
        <ele>265.9418945</ele>
        <time>2011-05-27T13:14:05Z</time>
      </trkpt>
      <trkpt lat="44.46622" lon="4.2871">
        <ele>265.4613037</ele>
        <time>2011-05-27T13:14:07Z</time>
      </trkpt>
      <trkpt lat="44.46613" lon="4.28722">
        <ele>264.9805908</ele>
        <time>2011-05-27T13:14:09Z</time>
      </trkpt>
      <trkpt lat="44.46605" lon="4.28738">
        <ele>264.9805908</ele>
        <time>2011-05-27T13:14:11Z</time>
      </trkpt>
      <trkpt lat="44.46595" lon="4.2875">
        <ele>264.4998779</ele>
        <time>2011-05-27T13:14:13Z</time>
      </trkpt>
      <trkpt lat="44.46582" lon="4.28758">
        <ele>264.0192871</ele>
        <time>2011-05-27T13:14:15Z</time>
      </trkpt>
      <trkpt lat="44.46568" lon="4.28761">
        <ele>262.0965576</ele>
        <time>2011-05-27T13:14:17Z</time>
      </trkpt>
      <trkpt lat="44.46555" lon="4.28752">
        <ele>259.6933594</ele>
        <time>2011-05-27T13:14:19Z</time>
      </trkpt>
      <trkpt lat="44.46543" lon="4.28738">
        <ele>257.2900391</ele>
        <time>2011-05-27T13:14:21Z</time>
      </trkpt>
      <trkpt lat="44.46528" lon="4.28726">
        <ele>255.8480225</ele>
        <time>2011-05-27T13:14:23Z</time>
      </trkpt>
      <trkpt lat="44.46519" lon="4.28722">
        <ele>254.4060059</ele>
        <time>2011-05-27T13:14:24Z</time>
      </trkpt>
      <trkpt lat="44.4651" lon="4.28718">
        <ele>253.4447021</ele>
        <time>2011-05-27T13:14:25Z</time>
      </trkpt>
      <trkpt lat="44.465" lon="4.28715">
        <ele>253.4447021</ele>
        <time>2011-05-27T13:14:26Z</time>
      </trkpt>
      <trkpt lat="44.46491" lon="4.28713">
        <ele>251.0413818</ele>
        <time>2011-05-27T13:14:27Z</time>
      </trkpt>
      <trkpt lat="44.4648" lon="4.28711">
        <ele>250.0802002</ele>
        <time>2011-05-27T13:14:28Z</time>
      </trkpt>
      <trkpt lat="44.4647" lon="4.28707">
        <ele>247.1960449</ele>
        <time>2011-05-27T13:14:29Z</time>
      </trkpt>
      <trkpt lat="44.4646" lon="4.28704">
        <ele>246.2348633</ele>
        <time>2011-05-27T13:14:30Z</time>
      </trkpt>
      <trkpt lat="44.46449" lon="4.287">
        <ele>246.7154541</ele>
        <time>2011-05-27T13:14:31Z</time>
      </trkpt>
      <trkpt lat="44.46439" lon="4.28697">
        <ele>245.7541504</ele>
        <time>2011-05-27T13:14:32Z</time>
      </trkpt>
      <trkpt lat="44.4643" lon="4.28693">
        <ele>246.7154541</ele>
        <time>2011-05-27T13:14:33Z</time>
      </trkpt>
      <trkpt lat="44.46421" lon="4.28689">
        <ele>245.7541504</ele>
        <time>2011-05-27T13:14:34Z</time>
      </trkpt>
      <trkpt lat="44.46412" lon="4.28684">
        <ele>246.2348633</ele>
        <time>2011-05-27T13:14:35Z</time>
      </trkpt>
      <trkpt lat="44.46403" lon="4.2868">
        <ele>245.7541504</ele>
        <time>2011-05-27T13:14:36Z</time>
      </trkpt>
      <trkpt lat="44.46387" lon="4.28673">
        <ele>245.2734375</ele>
        <time>2011-05-27T13:14:38Z</time>
      </trkpt>
      <trkpt lat="44.46371" lon="4.28669">
        <ele>245.2734375</ele>
        <time>2011-05-27T13:14:40Z</time>
      </trkpt>
      <trkpt lat="44.46356" lon="4.28668">
        <ele>245.2734375</ele>
        <time>2011-05-27T13:14:42Z</time>
      </trkpt>
      <trkpt lat="44.46343" lon="4.28665">
        <ele>244.7928467</ele>
        <time>2011-05-27T13:14:44Z</time>
      </trkpt>
      <trkpt lat="44.46329" lon="4.28662">
        <ele>245.2734375</ele>
        <time>2011-05-27T13:14:46Z</time>
      </trkpt>
      <trkpt lat="44.46317" lon="4.28659">
        <ele>244.7928467</ele>
        <time>2011-05-27T13:14:48Z</time>
      </trkpt>
      <trkpt lat="44.46305" lon="4.28656">
        <ele>244.3122559</ele>
        <time>2011-05-27T13:14:50Z</time>
      </trkpt>
      <trkpt lat="44.46294" lon="4.28654">
        <ele>244.3122559</ele>
        <time>2011-05-27T13:14:52Z</time>
      </trkpt>
      <trkpt lat="44.46284" lon="4.28651">
        <ele>244.7928467</ele>
        <time>2011-05-27T13:14:54Z</time>
      </trkpt>
      <trkpt lat="44.46275" lon="4.28649">
        <ele>244.3122559</ele>
        <time>2011-05-27T13:14:56Z</time>
      </trkpt>
      <trkpt lat="44.46262" lon="4.28647">
        <ele>244.3122559</ele>
        <time>2011-05-27T13:14:59Z</time>
      </trkpt>
      <trkpt lat="44.46251" lon="4.28644">
        <ele>245.2734375</ele>
        <time>2011-05-27T13:15:02Z</time>
      </trkpt>
      <trkpt lat="44.4624" lon="4.28642">
        <ele>245.2734375</ele>
        <time>2011-05-27T13:15:05Z</time>
      </trkpt>
      <trkpt lat="44.46228" lon="4.28639">
        <ele>245.2734375</ele>
        <time>2011-05-27T13:15:08Z</time>
      </trkpt>
      <trkpt lat="44.46217" lon="4.28637">
        <ele>244.7928467</ele>
        <time>2011-05-27T13:15:11Z</time>
      </trkpt>
      <trkpt lat="44.46205" lon="4.28634">
        <ele>244.7928467</ele>
        <time>2011-05-27T13:15:14Z</time>
      </trkpt>
      <trkpt lat="44.46195" lon="4.28629">
        <ele>245.2734375</ele>
        <time>2011-05-27T13:15:17Z</time>
      </trkpt>
      <trkpt lat="44.46185" lon="4.28624">
        <ele>245.2734375</ele>
        <time>2011-05-27T13:15:20Z</time>
      </trkpt>
      <trkpt lat="44.46177" lon="4.28618">
        <ele>246.2348633</ele>
        <time>2011-05-27T13:15:23Z</time>
      </trkpt>
      <trkpt lat="44.46168" lon="4.28614">
        <ele>247.1960449</ele>
        <time>2011-05-27T13:15:27Z</time>
      </trkpt>
      <trkpt lat="44.46159" lon="4.28616">
        <ele>248.1575928</ele>
        <time>2011-05-27T13:15:32Z</time>
      </trkpt>
      <trkpt lat="44.46157" lon="4.28629">
        <ele>249.1187744</ele>
        <time>2011-05-27T13:15:37Z</time>
      </trkpt>
      <trkpt lat="44.46157" lon="4.28642">
        <ele>249.5994873</ele>
        <time>2011-05-27T13:15:41Z</time>
      </trkpt>
      <trkpt lat="44.46155" lon="4.28655">
        <ele>250.560791</ele>
        <time>2011-05-27T13:15:45Z</time>
      </trkpt>
      <trkpt lat="44.46152" lon="4.2867">
        <ele>249.5994873</ele>
        <time>2011-05-27T13:15:49Z</time>
      </trkpt>
      <trkpt lat="44.46149" lon="4.28685">
        <ele>250.560791</ele>
        <time>2011-05-27T13:15:53Z</time>
      </trkpt>
      <trkpt lat="44.46144" lon="4.28698">
        <ele>251.5220947</ele>
        <time>2011-05-27T13:15:57Z</time>
      </trkpt>
      <trkpt lat="44.46139" lon="4.28709">
        <ele>252.0028076</ele>
        <time>2011-05-27T13:16:01Z</time>
      </trkpt>
      <trkpt lat="44.46132" lon="4.28719">
        <ele>252.0028076</ele>
        <time>2011-05-27T13:16:05Z</time>
      </trkpt>
      <trkpt lat="44.46123" lon="4.28729">
        <ele>252.4833984</ele>
        <time>2011-05-27T13:16:09Z</time>
      </trkpt>
      <trkpt lat="44.46114" lon="4.28736">
        <ele>252.4833984</ele>
        <time>2011-05-27T13:16:13Z</time>
      </trkpt>
      <trkpt lat="44.46105" lon="4.2874">
        <ele>253.4447021</ele>
        <time>2011-05-27T13:16:17Z</time>
      </trkpt>
      <trkpt lat="44.46095" lon="4.28745">
        <ele>254.8865967</ele>
        <time>2011-05-27T13:16:22Z</time>
      </trkpt>
      <trkpt lat="44.46084" lon="4.28753">
        <ele>252.9639893</ele>
        <time>2011-05-27T13:18:10Z</time>
      </trkpt>
      <trkpt lat="44.46074" lon="4.2876">
        <ele>251.0413818</ele>
        <time>2011-05-27T13:18:13Z</time>
      </trkpt>
      <trkpt lat="44.46066" lon="4.28769">
        <ele>249.5994873</ele>
        <time>2011-05-27T13:18:15Z</time>
      </trkpt>
      <trkpt lat="44.46057" lon="4.28783">
        <ele>249.1187744</ele>
        <time>2011-05-27T13:18:17Z</time>
      </trkpt>
      <trkpt lat="44.4605" lon="4.28802">
        <ele>247.6767578</ele>
        <time>2011-05-27T13:18:19Z</time>
      </trkpt>
      <trkpt lat="44.46044" lon="4.28821">
        <ele>248.1575928</ele>
        <time>2011-05-27T13:18:21Z</time>
      </trkpt>
      <trkpt lat="44.46039" lon="4.2884">
        <ele>247.6767578</ele>
        <time>2011-05-27T13:18:23Z</time>
      </trkpt>
      <trkpt lat="44.46034" lon="4.28858">
        <ele>247.1960449</ele>
        <time>2011-05-27T13:18:25Z</time>
      </trkpt>
      <trkpt lat="44.4603" lon="4.28875">
        <ele>246.7154541</ele>
        <time>2011-05-27T13:18:27Z</time>
      </trkpt>
      <trkpt lat="44.46026" lon="4.28892">
        <ele>246.2348633</ele>
        <time>2011-05-27T13:18:29Z</time>
      </trkpt>
      <trkpt lat="44.46023" lon="4.28912">
        <ele>245.2734375</ele>
        <time>2011-05-27T13:18:31Z</time>
      </trkpt>
      <trkpt lat="44.46019" lon="4.28935">
        <ele>242.3896484</ele>
        <time>2011-05-27T13:18:33Z</time>
      </trkpt>
      <trkpt lat="44.46015" lon="4.28958">
        <ele>239.9862061</ele>
        <time>2011-05-27T13:18:35Z</time>
      </trkpt>
      <trkpt lat="44.46011" lon="4.2898">
        <ele>238.0635986</ele>
        <time>2011-05-27T13:18:37Z</time>
      </trkpt>
      <trkpt lat="44.46013" lon="4.29002">
        <ele>235.6602783</ele>
        <time>2011-05-27T13:18:39Z</time>
      </trkpt>
      <trkpt lat="44.46021" lon="4.29023">
        <ele>234.2183838</ele>
        <time>2011-05-27T13:18:41Z</time>
      </trkpt>
      <trkpt lat="44.46025" lon="4.29046">
        <ele>233.7376709</ele>
        <time>2011-05-27T13:18:43Z</time>
      </trkpt>
      <trkpt lat="44.46024" lon="4.29069">
        <ele>233.7376709</ele>
        <time>2011-05-27T13:18:45Z</time>
      </trkpt>
      <trkpt lat="44.4602" lon="4.29089">
        <ele>234.2183838</ele>
        <time>2011-05-27T13:18:47Z</time>
      </trkpt>
      <trkpt lat="44.46017" lon="4.29106">
        <ele>234.2183838</ele>
        <time>2011-05-27T13:18:49Z</time>
      </trkpt>
      <trkpt lat="44.46014" lon="4.29121">
        <ele>236.1409912</ele>
        <time>2011-05-27T13:18:51Z</time>
      </trkpt>
      <trkpt lat="44.46013" lon="4.29137">
        <ele>236.1409912</ele>
        <time>2011-05-27T13:18:54Z</time>
      </trkpt>
      <trkpt lat="44.46016" lon="4.29152">
        <ele>238.0635986</ele>
        <time>2011-05-27T13:18:58Z</time>
      </trkpt>
      <trkpt lat="44.46015" lon="4.29165">
        <ele>237.1022949</ele>
        <time>2011-05-27T13:19:01Z</time>
      </trkpt>
      <trkpt lat="44.4601" lon="4.29178">
        <ele>237.1022949</ele>
        <time>2011-05-27T13:19:04Z</time>
      </trkpt>
      <trkpt lat="44.46005" lon="4.29192">
        <ele>236.1409912</ele>
        <time>2011-05-27T13:19:07Z</time>
      </trkpt>
      <trkpt lat="44.45999" lon="4.29209">
        <ele>236.1409912</ele>
        <time>2011-05-27T13:19:10Z</time>
      </trkpt>
      <trkpt lat="44.45996" lon="4.29225">
        <ele>236.6217041</ele>
        <time>2011-05-27T13:19:13Z</time>
      </trkpt>
      <trkpt lat="44.46005" lon="4.29237">
        <ele>235.1796875</ele>
        <time>2011-05-27T13:19:16Z</time>
      </trkpt>
      <trkpt lat="44.46012" lon="4.29244">
        <ele>235.1796875</ele>
        <time>2011-05-27T13:19:18Z</time>
      </trkpt>
      <trkpt lat="44.4602" lon="4.29251">
        <ele>233.2570801</ele>
        <time>2011-05-27T13:19:20Z</time>
      </trkpt>
      <trkpt lat="44.46025" lon="4.29262">
        <ele>233.2570801</ele>
        <time>2011-05-27T13:19:22Z</time>
      </trkpt>
      <trkpt lat="44.46027" lon="4.29275">
        <ele>231.8149414</ele>
        <time>2011-05-27T13:19:24Z</time>
      </trkpt>
      <trkpt lat="44.46027" lon="4.29289">
        <ele>232.7764893</ele>
        <time>2011-05-27T13:19:26Z</time>
      </trkpt>
      <trkpt lat="44.46026" lon="4.29303">
        <ele>232.2957764</ele>
        <time>2011-05-27T13:19:28Z</time>
      </trkpt>
      <trkpt lat="44.46025" lon="4.29319">
        <ele>233.2570801</ele>
        <time>2011-05-27T13:19:31Z</time>
      </trkpt>
      <trkpt lat="44.46031" lon="4.29328">
        <ele>234.6990967</ele>
        <time>2011-05-27T13:19:34Z</time>
      </trkpt>
      <trkpt lat="44.46031" lon="4.29341">
        <ele>235.1796875</ele>
        <time>2011-05-27T13:19:37Z</time>
      </trkpt>
      <trkpt lat="44.46027" lon="4.29355">
        <ele>236.1409912</ele>
        <time>2011-05-27T13:19:41Z</time>
      </trkpt>
      <trkpt lat="44.46024" lon="4.29367">
        <ele>237.5828857</ele>
        <time>2011-05-27T13:19:46Z</time>
      </trkpt>
      <trkpt lat="44.4602" lon="4.2938">
        <ele>238.5443115</ele>
        <time>2011-05-27T13:19:51Z</time>
      </trkpt>
      <trkpt lat="44.46016" lon="4.29392">
        <ele>239.5054932</ele>
        <time>2011-05-27T13:19:56Z</time>
      </trkpt>
      <trkpt lat="44.46012" lon="4.29404">
        <ele>239.9862061</ele>
        <time>2011-05-27T13:20:01Z</time>
      </trkpt>
      <trkpt lat="44.46007" lon="4.29414">
        <ele>240.9476318</ele>
        <time>2011-05-27T13:20:06Z</time>
      </trkpt>
      <trkpt lat="44.46002" lon="4.29427">
        <ele>240.9476318</ele>
        <time>2011-05-27T13:20:11Z</time>
      </trkpt>
      <trkpt lat="44.46" lon="4.29441">
        <ele>243.3508301</ele>
        <time>2011-05-27T13:20:16Z</time>
      </trkpt>
      <trkpt lat="44.45994" lon="4.29453">
        <ele>241.4282227</ele>
        <time>2011-05-27T13:20:20Z</time>
      </trkpt>
      <trkpt lat="44.45991" lon="4.29465">
        <ele>241.4282227</ele>
        <time>2011-05-27T13:20:24Z</time>
      </trkpt>
      <trkpt lat="44.45984" lon="4.29479">
        <ele>239.5054932</ele>
        <time>2011-05-27T13:20:28Z</time>
      </trkpt>
      <trkpt lat="44.45976" lon="4.29494">
        <ele>238.0635986</ele>
        <time>2011-05-27T13:20:31Z</time>
      </trkpt>
      <trkpt lat="44.45971" lon="4.29505">
        <ele>236.1409912</ele>
        <time>2011-05-27T13:20:33Z</time>
      </trkpt>
      <trkpt lat="44.45963" lon="4.2952">
        <ele>233.2570801</ele>
        <time>2011-05-27T13:20:36Z</time>
      </trkpt>
      <trkpt lat="44.45951" lon="4.29527">
        <ele>229.892334</ele>
        <time>2011-05-27T13:20:39Z</time>
      </trkpt>
      <trkpt lat="44.45942" lon="4.29531">
        <ele>228.4504395</ele>
        <time>2011-05-27T13:20:41Z</time>
      </trkpt>
      <trkpt lat="44.45932" lon="4.29537">
        <ele>228.4504395</ele>
        <time>2011-05-27T13:20:43Z</time>
      </trkpt>
      <trkpt lat="44.45922" lon="4.29543">
        <ele>227.9697266</ele>
        <time>2011-05-27T13:20:45Z</time>
      </trkpt>
      <trkpt lat="44.45912" lon="4.29547">
        <ele>227.4891357</ele>
        <time>2011-05-27T13:20:47Z</time>
      </trkpt>
      <trkpt lat="44.45901" lon="4.29553">
        <ele>226.527832</ele>
        <time>2011-05-27T13:20:50Z</time>
      </trkpt>
      <trkpt lat="44.45893" lon="4.29558">
        <ele>225.0859375</ele>
        <time>2011-05-27T13:20:53Z</time>
      </trkpt>
      <trkpt lat="44.45883" lon="4.29565">
        <ele>224.1245117</ele>
        <time>2011-05-27T13:20:56Z</time>
      </trkpt>
      <trkpt lat="44.45871" lon="4.29568">
        <ele>222.6824951</ele>
        <time>2011-05-27T13:20:59Z</time>
      </trkpt>
      <trkpt lat="44.45861" lon="4.29573">
        <ele>222.2017822</ele>
        <time>2011-05-27T13:21:02Z</time>
      </trkpt>
      <trkpt lat="44.4585" lon="4.29579">
        <ele>219.798584</ele>
        <time>2011-05-27T13:21:05Z</time>
      </trkpt>
      <trkpt lat="44.45841" lon="4.29583">
        <ele>219.3179932</ele>
        <time>2011-05-27T13:21:08Z</time>
      </trkpt>
      <trkpt lat="44.45832" lon="4.29589">
        <ele>217.8759766</ele>
        <time>2011-05-27T13:21:12Z</time>
      </trkpt>
      <trkpt lat="44.45822" lon="4.29599">
        <ele>214.9919434</ele>
        <time>2011-05-27T13:21:17Z</time>
      </trkpt>
      <trkpt lat="44.45812" lon="4.29604">
        <ele>213.0693359</ele>
        <time>2011-05-27T13:21:21Z</time>
      </trkpt>
      <trkpt lat="44.45801" lon="4.2961">
        <ele>212.588623</ele>
        <time>2011-05-27T13:21:25Z</time>
      </trkpt>
      <trkpt lat="44.45792" lon="4.29613">
        <ele>211.6274414</ele>
        <time>2011-05-27T13:21:28Z</time>
      </trkpt>
      <trkpt lat="44.4578" lon="4.29617">
        <ele>210.1854248</ele>
        <time>2011-05-27T13:21:32Z</time>
      </trkpt>
      <trkpt lat="44.45771" lon="4.29621">
        <ele>209.2241211</ele>
        <time>2011-05-27T13:21:36Z</time>
      </trkpt>
      <trkpt lat="44.4576" lon="4.29624">
        <ele>208.7434082</ele>
        <time>2011-05-27T13:21:40Z</time>
      </trkpt>
      <trkpt lat="44.45749" lon="4.29628">
        <ele>205.3787842</ele>
        <time>2011-05-27T13:21:43Z</time>
      </trkpt>
      <trkpt lat="44.45737" lon="4.29634">
        <ele>204.8980713</ele>
        <time>2011-05-27T13:21:46Z</time>
      </trkpt>
      <trkpt lat="44.45728" lon="4.29641">
        <ele>204.4174805</ele>
        <time>2011-05-27T13:21:50Z</time>
      </trkpt>
      <trkpt lat="44.45724" lon="4.29656">
        <ele>204.4174805</ele>
        <time>2011-05-27T13:21:54Z</time>
      </trkpt>
      <trkpt lat="44.45719" lon="4.29666">
        <ele>205.8594971</ele>
        <time>2011-05-27T13:21:58Z</time>
      </trkpt>
      <trkpt lat="44.45709" lon="4.29674">
        <ele>207.7821045</ele>
        <time>2011-05-27T13:22:03Z</time>
      </trkpt>
      <trkpt lat="44.457" lon="4.2968">
        <ele>208.7434082</ele>
        <time>2011-05-27T13:22:07Z</time>
      </trkpt>
      <trkpt lat="44.4569" lon="4.2968">
        <ele>209.704834</ele>
        <time>2011-05-27T13:22:11Z</time>
      </trkpt>
      <trkpt lat="44.4568" lon="4.29682">
        <ele>210.1854248</ele>
        <time>2011-05-27T13:22:17Z</time>
      </trkpt>
      <trkpt lat="44.45675" lon="4.29693">
        <ele>211.6274414</ele>
        <time>2011-05-27T13:22:23Z</time>
      </trkpt>
      <trkpt lat="44.4567" lon="4.29707">
        <ele>212.1080322</ele>
        <time>2011-05-27T13:22:28Z</time>
      </trkpt>
      <trkpt lat="44.45664" lon="4.29719">
        <ele>211.1467285</ele>
        <time>2011-05-27T13:22:32Z</time>
      </trkpt>
      <trkpt lat="44.45656" lon="4.29731">
        <ele>210.1854248</ele>
        <time>2011-05-27T13:22:35Z</time>
      </trkpt>
      <trkpt lat="44.45649" lon="4.2974">
        <ele>208.2628174</ele>
        <time>2011-05-27T13:22:37Z</time>
      </trkpt>
      <trkpt lat="44.45643" lon="4.29751">
        <ele>207.3013916</ele>
        <time>2011-05-27T13:22:39Z</time>
      </trkpt>
      <trkpt lat="44.4564" lon="4.29764">
        <ele>206.3400879</ele>
        <time>2011-05-27T13:22:41Z</time>
      </trkpt>
      <trkpt lat="44.45637" lon="4.29776">
        <ele>206.3400879</ele>
        <time>2011-05-27T13:22:43Z</time>
      </trkpt>
      <trkpt lat="44.45632" lon="4.29788">
        <ele>206.3400879</ele>
        <time>2011-05-27T13:22:46Z</time>
      </trkpt>
      <trkpt lat="44.45626" lon="4.29798">
        <ele>207.3013916</ele>
        <time>2011-05-27T13:22:52Z</time>
      </trkpt>
      <trkpt lat="44.45617" lon="4.29803">
        <ele>208.2628174</ele>
        <time>2011-05-27T13:22:59Z</time>
      </trkpt>
      <trkpt lat="44.45607" lon="4.29803">
        <ele>208.7434082</ele>
        <time>2011-05-27T13:23:05Z</time>
      </trkpt>
      <trkpt lat="44.45596" lon="4.29807">
        <ele>210.1854248</ele>
        <time>2011-05-27T13:23:12Z</time>
      </trkpt>
      <trkpt lat="44.45586" lon="4.29811">
        <ele>209.704834</ele>
        <time>2011-05-27T13:23:18Z</time>
      </trkpt>
      <trkpt lat="44.45575" lon="4.29814">
        <ele>210.1854248</ele>
        <time>2011-05-27T13:23:23Z</time>
      </trkpt>
      <trkpt lat="44.45564" lon="4.29816">
        <ele>211.6274414</ele>
        <time>2011-05-27T13:23:29Z</time>
      </trkpt>
      <trkpt lat="44.45554" lon="4.29819">
        <ele>211.6274414</ele>
        <time>2011-05-27T13:23:34Z</time>
      </trkpt>
      <trkpt lat="44.45544" lon="4.2982">
        <ele>211.6274414</ele>
        <time>2011-05-27T13:23:39Z</time>
      </trkpt>
      <trkpt lat="44.45536" lon="4.29832">
        <ele>210.6660156</ele>
        <time>2011-05-27T13:23:43Z</time>
      </trkpt>
      <trkpt lat="44.45529" lon="4.29847">
        <ele>210.1854248</ele>
        <time>2011-05-27T13:23:46Z</time>
      </trkpt>
      <trkpt lat="44.4552" lon="4.29857">
        <ele>209.2241211</ele>
        <time>2011-05-27T13:23:49Z</time>
      </trkpt>
      <trkpt lat="44.45509" lon="4.29866">
        <ele>208.2628174</ele>
        <time>2011-05-27T13:23:53Z</time>
      </trkpt>
      <trkpt lat="44.45496" lon="4.29872">
        <ele>206.3400879</ele>
        <time>2011-05-27T13:23:56Z</time>
      </trkpt>
      <trkpt lat="44.45486" lon="4.29879">
        <ele>204.8980713</ele>
        <time>2011-05-27T13:23:58Z</time>
      </trkpt>
      <trkpt lat="44.45476" lon="4.29884">
        <ele>203.4561768</ele>
        <time>2011-05-27T13:24:00Z</time>
      </trkpt>
      <trkpt lat="44.45468" lon="4.29891">
        <ele>202.0142822</ele>
        <time>2011-05-27T13:24:02Z</time>
      </trkpt>
      <trkpt lat="44.4546" lon="4.29903">
        <ele>200.0916748</ele>
        <time>2011-05-27T13:24:04Z</time>
      </trkpt>
      <trkpt lat="44.4545" lon="4.29916">
        <ele>197.6882324</ele>
        <time>2011-05-27T13:24:07Z</time>
      </trkpt>
      <trkpt lat="44.45444" lon="4.29927">
        <ele>196.7269287</ele>
        <time>2011-05-27T13:24:09Z</time>
      </trkpt>
      <trkpt lat="44.45437" lon="4.29938">
        <ele>196.7269287</ele>
        <time>2011-05-27T13:24:11Z</time>
      </trkpt>
      <trkpt lat="44.4543" lon="4.29949">
        <ele>196.2463379</ele>
        <time>2011-05-27T13:24:13Z</time>
      </trkpt>
      <trkpt lat="44.45422" lon="4.29963">
        <ele>198.1689453</ele>
        <time>2011-05-27T13:24:16Z</time>
      </trkpt>
      <trkpt lat="44.45415" lon="4.29972">
        <ele>199.130127</ele>
        <time>2011-05-27T13:24:21Z</time>
      </trkpt>
      <trkpt lat="44.45405" lon="4.29974">
        <ele>200.0916748</ele>
        <time>2011-05-27T13:24:27Z</time>
      </trkpt>
      <trkpt lat="44.45395" lon="4.29976">
        <ele>200.5722656</ele>
        <time>2011-05-27T13:24:34Z</time>
      </trkpt>
      <trkpt lat="44.45385" lon="4.29975">
        <ele>199.6108398</ele>
        <time>2011-05-27T13:24:45Z</time>
      </trkpt>
      <trkpt lat="44.45391" lon="4.29978">
        <ele>200.0916748</ele>
        <time>2011-05-27T13:26:18Z</time>
      </trkpt>
      <trkpt lat="44.454" lon="4.29979">
        <ele>201.0528564</ele>
        <time>2011-05-27T13:26:24Z</time>
      </trkpt>
      <trkpt lat="44.45399" lon="4.29978">
        <ele>199.130127</ele>
        <time>2011-05-27T13:27:32Z</time>
      </trkpt>
      <trkpt lat="44.45389" lon="4.29977">
        <ele>197.6882324</ele>
        <time>2011-05-27T13:27:37Z</time>
      </trkpt>
      <trkpt lat="44.45377" lon="4.29975">
        <ele>196.7269287</ele>
        <time>2011-05-27T13:27:42Z</time>
      </trkpt>
      <trkpt lat="44.45368" lon="4.29974">
        <ele>196.2463379</ele>
        <time>2011-05-27T13:27:45Z</time>
      </trkpt>
      <trkpt lat="44.45358" lon="4.29975">
        <ele>194.3237305</ele>
        <time>2011-05-27T13:27:48Z</time>
      </trkpt>
      <trkpt lat="44.45349" lon="4.29982">
        <ele>193.3623047</ele>
        <time>2011-05-27T13:27:50Z</time>
      </trkpt>
      <trkpt lat="44.45341" lon="4.29993">
        <ele>192.8817139</ele>
        <time>2011-05-27T13:27:52Z</time>
      </trkpt>
      <trkpt lat="44.4533" lon="4.30011">
        <ele>189.9976807</ele>
        <time>2011-05-27T13:27:54Z</time>
      </trkpt>
      <trkpt lat="44.4532" lon="4.30029">
        <ele>189.5169678</ele>
        <time>2011-05-27T13:27:56Z</time>
      </trkpt>
      <trkpt lat="44.45309" lon="4.30037">
        <ele>187.1137695</ele>
        <time>2011-05-27T13:27:58Z</time>
      </trkpt>
      <trkpt lat="44.45292" lon="4.30035">
        <ele>185.6717529</ele>
        <time>2011-05-27T13:28:00Z</time>
      </trkpt>
      <trkpt lat="44.45275" lon="4.30029">
        <ele>184.2298584</ele>
        <time>2011-05-27T13:28:02Z</time>
      </trkpt>
      <trkpt lat="44.45266" lon="4.30025">
        <ele>183.7490234</ele>
        <time>2011-05-27T13:28:03Z</time>
      </trkpt>
      <trkpt lat="44.45256" lon="4.30021">
        <ele>183.2684326</ele>
        <time>2011-05-27T13:28:04Z</time>
      </trkpt>
      <trkpt lat="44.45247" lon="4.30017">
        <ele>181.826416</ele>
        <time>2011-05-27T13:28:05Z</time>
      </trkpt>
      <trkpt lat="44.45238" lon="4.30013">
        <ele>181.3458252</ele>
        <time>2011-05-27T13:28:06Z</time>
      </trkpt>
      <trkpt lat="44.45229" lon="4.30008">
        <ele>180.8652344</ele>
        <time>2011-05-27T13:28:07Z</time>
      </trkpt>
      <trkpt lat="44.45213" lon="4.30004">
        <ele>179.9038086</ele>
        <time>2011-05-27T13:28:09Z</time>
      </trkpt>
      <trkpt lat="44.45197" lon="4.30006">
        <ele>180.3845215</ele>
        <time>2011-05-27T13:28:11Z</time>
      </trkpt>
      <trkpt lat="44.45184" lon="4.30013">
        <ele>180.8652344</ele>
        <time>2011-05-27T13:28:13Z</time>
      </trkpt>
      <trkpt lat="44.45174" lon="4.30021">
        <ele>181.826416</ele>
        <time>2011-05-27T13:28:15Z</time>
      </trkpt>
      <trkpt lat="44.45166" lon="4.30031">
        <ele>181.826416</ele>
        <time>2011-05-27T13:28:17Z</time>
      </trkpt>
      <trkpt lat="44.45158" lon="4.30045">
        <ele>181.826416</ele>
        <time>2011-05-27T13:28:20Z</time>
      </trkpt>
      <trkpt lat="44.45152" lon="4.30057">
        <ele>182.3071289</ele>
        <time>2011-05-27T13:28:23Z</time>
      </trkpt>
      <trkpt lat="44.45146" lon="4.30068">
        <ele>182.7878418</ele>
        <time>2011-05-27T13:28:26Z</time>
      </trkpt>
      <trkpt lat="44.45141" lon="4.30079">
        <ele>183.2684326</ele>
        <time>2011-05-27T13:28:29Z</time>
      </trkpt>
      <trkpt lat="44.45137" lon="4.30092">
        <ele>183.7490234</ele>
        <time>2011-05-27T13:28:32Z</time>
      </trkpt>
      <trkpt lat="44.45133" lon="4.30105">
        <ele>183.2684326</ele>
        <time>2011-05-27T13:28:35Z</time>
      </trkpt>
      <trkpt lat="44.45127" lon="4.30117">
        <ele>182.3071289</ele>
        <time>2011-05-27T13:28:38Z</time>
      </trkpt>
      <trkpt lat="44.45119" lon="4.30127">
        <ele>182.3071289</ele>
        <time>2011-05-27T13:28:41Z</time>
      </trkpt>
      <trkpt lat="44.45109" lon="4.30136">
        <ele>181.826416</ele>
        <time>2011-05-27T13:28:44Z</time>
      </trkpt>
      <trkpt lat="44.451" lon="4.30146">
        <ele>180.8652344</ele>
        <time>2011-05-27T13:28:47Z</time>
      </trkpt>
      <trkpt lat="44.45092" lon="4.30155">
        <ele>181.3458252</ele>
        <time>2011-05-27T13:28:50Z</time>
      </trkpt>
      <trkpt lat="44.45084" lon="4.30168">
        <ele>181.826416</ele>
        <time>2011-05-27T13:28:53Z</time>
      </trkpt>
      <trkpt lat="44.45076" lon="4.3018">
        <ele>182.3071289</ele>
        <time>2011-05-27T13:28:56Z</time>
      </trkpt>
      <trkpt lat="44.45067" lon="4.30192">
        <ele>182.7878418</ele>
        <time>2011-05-27T13:28:59Z</time>
      </trkpt>
      <trkpt lat="44.45059" lon="4.30206">
        <ele>184.2298584</ele>
        <time>2011-05-27T13:29:02Z</time>
      </trkpt>
      <trkpt lat="44.45056" lon="4.30223">
        <ele>184.2298584</ele>
        <time>2011-05-27T13:29:05Z</time>
      </trkpt>
      <trkpt lat="44.4506" lon="4.30239">
        <ele>183.7490234</ele>
        <time>2011-05-27T13:29:08Z</time>
      </trkpt>
      <trkpt lat="44.45065" lon="4.30256">
        <ele>183.7490234</ele>
        <time>2011-05-27T13:29:11Z</time>
      </trkpt>
      <trkpt lat="44.4507" lon="4.30271">
        <ele>184.2298584</ele>
        <time>2011-05-27T13:29:14Z</time>
      </trkpt>
      <trkpt lat="44.45077" lon="4.30286">
        <ele>184.2298584</ele>
        <time>2011-05-27T13:29:17Z</time>
      </trkpt>
      <trkpt lat="44.45082" lon="4.303">
        <ele>185.6717529</ele>
        <time>2011-05-27T13:29:20Z</time>
      </trkpt>
      <trkpt lat="44.45079" lon="4.30311">
        <ele>185.6717529</ele>
        <time>2011-05-27T13:29:25Z</time>
      </trkpt>
      <trkpt lat="44.45074" lon="4.30322">
        <ele>186.6331787</ele>
        <time>2011-05-27T13:29:31Z</time>
      </trkpt>
      <trkpt lat="44.4507" lon="4.30334">
        <ele>187.5943604</ele>
        <time>2011-05-27T13:29:36Z</time>
      </trkpt>
      <trkpt lat="44.45065" lon="4.30347">
        <ele>188.5557861</ele>
        <time>2011-05-27T13:29:41Z</time>
      </trkpt>
      <trkpt lat="44.45061" lon="4.30359">
        <ele>188.0750732</ele>
        <time>2011-05-27T13:29:45Z</time>
      </trkpt>
      <trkpt lat="44.45057" lon="4.30372">
        <ele>187.5943604</ele>
        <time>2011-05-27T13:29:49Z</time>
      </trkpt>
      <trkpt lat="44.45052" lon="4.30387">
        <ele>187.5943604</ele>
        <time>2011-05-27T13:29:53Z</time>
      </trkpt>
      <trkpt lat="44.45049" lon="4.30399">
        <ele>188.0750732</ele>
        <time>2011-05-27T13:29:56Z</time>
      </trkpt>
      <trkpt lat="44.45045" lon="4.30415">
        <ele>188.0750732</ele>
        <time>2011-05-27T13:30:00Z</time>
      </trkpt>
      <trkpt lat="44.45042" lon="4.30428">
        <ele>189.5169678</ele>
        <time>2011-05-27T13:30:04Z</time>
      </trkpt>
      <trkpt lat="44.45041" lon="4.30443">
        <ele>189.9976807</ele>
        <time>2011-05-27T13:30:08Z</time>
      </trkpt>
      <trkpt lat="44.45045" lon="4.30457">
        <ele>189.9976807</ele>
        <time>2011-05-27T13:30:12Z</time>
      </trkpt>
      <trkpt lat="44.45046" lon="4.30472">
        <ele>190.9589844</ele>
        <time>2011-05-27T13:30:16Z</time>
      </trkpt>
      <trkpt lat="44.45045" lon="4.30485">
        <ele>191.4395752</ele>
        <time>2011-05-27T13:30:19Z</time>
      </trkpt>
      <trkpt lat="44.45045" lon="4.30499">
        <ele>191.4395752</ele>
        <time>2011-05-27T13:30:22Z</time>
      </trkpt>
      <trkpt lat="44.45045" lon="4.30514">
        <ele>190.4783936</ele>
        <time>2011-05-27T13:30:25Z</time>
      </trkpt>
      <trkpt lat="44.45046" lon="4.3053">
        <ele>191.4395752</ele>
        <time>2011-05-27T13:30:28Z</time>
      </trkpt>
      <trkpt lat="44.45046" lon="4.30547">
        <ele>191.4395752</ele>
        <time>2011-05-27T13:30:31Z</time>
      </trkpt>
      <trkpt lat="44.45047" lon="4.30562">
        <ele>190.9589844</ele>
        <time>2011-05-27T13:30:34Z</time>
      </trkpt>
      <trkpt lat="44.45047" lon="4.30577">
        <ele>191.4395752</ele>
        <time>2011-05-27T13:30:37Z</time>
      </trkpt>
      <trkpt lat="44.45046" lon="4.30594">
        <ele>191.4395752</ele>
        <time>2011-05-27T13:30:40Z</time>
      </trkpt>
      <trkpt lat="44.45044" lon="4.30612">
        <ele>189.9976807</ele>
        <time>2011-05-27T13:30:43Z</time>
      </trkpt>
      <trkpt lat="44.45043" lon="4.30627">
        <ele>189.9976807</ele>
        <time>2011-05-27T13:30:45Z</time>
      </trkpt>
      <trkpt lat="44.45045" lon="4.30642">
        <ele>189.5169678</ele>
        <time>2011-05-27T13:30:47Z</time>
      </trkpt>
      <trkpt lat="44.45048" lon="4.30656">
        <ele>189.036377</ele>
        <time>2011-05-27T13:30:49Z</time>
      </trkpt>
      <trkpt lat="44.45049" lon="4.30669">
        <ele>188.5557861</ele>
        <time>2011-05-27T13:30:51Z</time>
      </trkpt>
      <trkpt lat="44.45045" lon="4.30685">
        <ele>186.6331787</ele>
        <time>2011-05-27T13:30:54Z</time>
      </trkpt>
      <trkpt lat="44.45039" lon="4.30695">
        <ele>184.7105713</ele>
        <time>2011-05-27T13:30:57Z</time>
      </trkpt>
      <trkpt lat="44.45037" lon="4.30707">
        <ele>182.7878418</ele>
        <time>2011-05-27T13:31:00Z</time>
      </trkpt>
      <trkpt lat="44.4504" lon="4.30724">
        <ele>181.826416</ele>
        <time>2011-05-27T13:31:03Z</time>
      </trkpt>
      <trkpt lat="44.45042" lon="4.30738">
        <ele>180.8652344</ele>
        <time>2011-05-27T13:31:05Z</time>
      </trkpt>
      <trkpt lat="44.45043" lon="4.30751">
        <ele>180.3845215</ele>
        <time>2011-05-27T13:31:07Z</time>
      </trkpt>
      <trkpt lat="44.45044" lon="4.30764">
        <ele>180.3845215</ele>
        <time>2011-05-27T13:31:09Z</time>
      </trkpt>
      <trkpt lat="44.45046" lon="4.30777">
        <ele>179.9038086</ele>
        <time>2011-05-27T13:31:11Z</time>
      </trkpt>
      <trkpt lat="44.45049" lon="4.3079">
        <ele>179.4232178</ele>
        <time>2011-05-27T13:31:13Z</time>
      </trkpt>
      <trkpt lat="44.45053" lon="4.30805">
        <ele>179.4232178</ele>
        <time>2011-05-27T13:31:15Z</time>
      </trkpt>
      <trkpt lat="44.45058" lon="4.3082">
        <ele>178.942627</ele>
        <time>2011-05-27T13:31:17Z</time>
      </trkpt>
      <trkpt lat="44.45064" lon="4.30835">
        <ele>178.942627</ele>
        <time>2011-05-27T13:31:19Z</time>
      </trkpt>
      <trkpt lat="44.45069" lon="4.30849">
        <ele>178.4619141</ele>
        <time>2011-05-27T13:31:21Z</time>
      </trkpt>
      <trkpt lat="44.45074" lon="4.30861">
        <ele>178.942627</ele>
        <time>2011-05-27T13:31:23Z</time>
      </trkpt>
      <trkpt lat="44.45079" lon="4.30873">
        <ele>178.942627</ele>
        <time>2011-05-27T13:31:26Z</time>
      </trkpt>
      <trkpt lat="44.45072" lon="4.30875">
        <ele>178.942627</ele>
        <time>2011-05-27T13:31:30Z</time>
      </trkpt>
      <trkpt lat="44.45068" lon="4.30863">
        <ele>177.9812012</ele>
        <time>2011-05-27T13:31:32Z</time>
      </trkpt>
      <trkpt lat="44.45062" lon="4.30851">
        <ele>177.0200195</ele>
        <time>2011-05-27T13:31:34Z</time>
      </trkpt>
      <trkpt lat="44.45057" lon="4.30834">
        <ele>176.0585938</ele>
        <time>2011-05-27T13:31:37Z</time>
      </trkpt>
      <trkpt lat="44.45051" lon="4.30823">
        <ele>175.5778809</ele>
        <time>2011-05-27T13:31:40Z</time>
      </trkpt>
      <trkpt lat="44.4504" lon="4.30821">
        <ele>173.6552734</ele>
        <time>2011-05-27T13:31:43Z</time>
      </trkpt>
      <trkpt lat="44.45029" lon="4.30821">
        <ele>171.2520752</ele>
        <time>2011-05-27T13:31:46Z</time>
      </trkpt>
      <trkpt lat="44.45019" lon="4.30822">
        <ele>170.2906494</ele>
        <time>2011-05-27T13:31:50Z</time>
      </trkpt>
      <trkpt lat="44.45008" lon="4.30814">
        <ele>169.3294678</ele>
        <time>2011-05-27T13:33:26Z</time>
      </trkpt>
      <trkpt lat="44.45004" lon="4.30799">
        <ele>167.4067383</ele>
        <time>2011-05-27T13:33:30Z</time>
      </trkpt>
      <trkpt lat="44.45002" lon="4.30782">
        <ele>165.003418</ele>
        <time>2011-05-27T13:33:33Z</time>
      </trkpt>
      <trkpt lat="44.44999" lon="4.30766">
        <ele>162.6000977</ele>
        <time>2011-05-27T13:33:36Z</time>
      </trkpt>
      <trkpt lat="44.4499" lon="4.30756">
        <ele>160.1968994</ele>
        <time>2011-05-27T13:33:39Z</time>
      </trkpt>
      <trkpt lat="44.44976" lon="4.30748">
        <ele>158.2741699</ele>
        <time>2011-05-27T13:33:42Z</time>
      </trkpt>
      <trkpt lat="44.44966" lon="4.30745">
        <ele>157.3128662</ele>
        <time>2011-05-27T13:33:44Z</time>
      </trkpt>
      <trkpt lat="44.44958" lon="4.30733">
        <ele>154.9095459</ele>
        <time>2011-05-27T13:33:47Z</time>
      </trkpt>
      <trkpt lat="44.44955" lon="4.30714">
        <ele>153.4676514</ele>
        <time>2011-05-27T13:33:50Z</time>
      </trkpt>
      <trkpt lat="44.44949" lon="4.30703">
        <ele>152.0257568</ele>
        <time>2011-05-27T13:33:53Z</time>
      </trkpt>
      <trkpt lat="44.4494" lon="4.30702">
        <ele>149.6223145</ele>
        <time>2011-05-27T13:33:58Z</time>
      </trkpt>
      <trkpt lat="44.44936" lon="4.30705">
        <ele>147.699707</ele>
        <time>2011-05-27T13:34:07Z</time>
      </trkpt>
      <trkpt lat="44.44927" lon="4.30695">
        <ele>145.2963867</ele>
        <time>2011-05-27T13:34:11Z</time>
      </trkpt>
      <trkpt lat="44.44914" lon="4.30687">
        <ele>143.8543701</ele>
        <time>2011-05-27T13:34:14Z</time>
      </trkpt>
      <trkpt lat="44.44902" lon="4.30681">
        <ele>142.8930664</ele>
        <time>2011-05-27T13:34:17Z</time>
      </trkpt>
      <trkpt lat="44.44892" lon="4.30682">
        <ele>140.4898682</ele>
        <time>2011-05-27T13:34:20Z</time>
      </trkpt>
      <trkpt lat="44.44888" lon="4.30695">
        <ele>137.1252441</ele>
        <time>2011-05-27T13:34:23Z</time>
      </trkpt>
      <trkpt lat="44.44881" lon="4.30708">
        <ele>134.7219238</ele>
        <time>2011-05-27T13:34:27Z</time>
      </trkpt>
      <trkpt lat="44.44877" lon="4.30719">
        <ele>133.760498</ele>
        <time>2011-05-27T13:34:32Z</time>
      </trkpt>
      <trkpt lat="44.44875" lon="4.30735">
        <ele>132.3186035</ele>
        <time>2011-05-27T13:34:35Z</time>
      </trkpt>
      <trkpt lat="44.44874" lon="4.3075">
        <ele>130.876709</ele>
        <time>2011-05-27T13:34:37Z</time>
      </trkpt>
      <trkpt lat="44.44873" lon="4.30765">
        <ele>128.9541016</ele>
        <time>2011-05-27T13:34:39Z</time>
      </trkpt>
      <trkpt lat="44.44872" lon="4.30778">
        <ele>127.5119629</ele>
        <time>2011-05-27T13:34:41Z</time>
      </trkpt>
      <trkpt lat="44.44871" lon="4.30792">
        <ele>127.0313721</ele>
        <time>2011-05-27T13:34:43Z</time>
      </trkpt>
      <trkpt lat="44.44872" lon="4.30806">
        <ele>126.0699463</ele>
        <time>2011-05-27T13:34:45Z</time>
      </trkpt>
      <trkpt lat="44.44874" lon="4.30821">
        <ele>125.5893555</ele>
        <time>2011-05-27T13:34:48Z</time>
      </trkpt>
      <trkpt lat="44.44873" lon="4.30834">
        <ele>125.1087646</ele>
        <time>2011-05-27T13:34:52Z</time>
      </trkpt>
      <trkpt lat="44.44871" lon="4.30849">
        <ele>125.1087646</ele>
        <time>2011-05-27T13:34:57Z</time>
      </trkpt>
      <trkpt lat="44.44872" lon="4.3086">
        <ele>124.1473389</ele>
        <time>2011-05-27T13:35:39Z</time>
      </trkpt>
      <trkpt lat="44.44871" lon="4.30875">
        <ele>124.6280518</ele>
        <time>2011-05-27T13:35:48Z</time>
      </trkpt>
      <trkpt lat="44.4487" lon="4.3089">
        <ele>125.1087646</ele>
        <time>2011-05-27T13:35:52Z</time>
      </trkpt>
      <trkpt lat="44.44869" lon="4.30905">
        <ele>125.1087646</ele>
        <time>2011-05-27T13:35:56Z</time>
      </trkpt>
      <trkpt lat="44.44868" lon="4.30918">
        <ele>125.1087646</ele>
        <time>2011-05-27T13:36:00Z</time>
      </trkpt>
      <trkpt lat="44.4487" lon="4.30925">
        <ele>125.1087646</ele>
        <time>2011-05-27T13:36:08Z</time>
      </trkpt>
      <trkpt lat="44.4487" lon="4.30905">
        <ele>124.1473389</ele>
        <time>2011-05-27T13:37:00Z</time>
      </trkpt>
      <trkpt lat="44.4487" lon="4.3089">
        <ele>125.1087646</ele>
        <time>2011-05-27T13:37:07Z</time>
      </trkpt>
      <trkpt lat="44.4487" lon="4.30875">
        <ele>125.1087646</ele>
        <time>2011-05-27T13:37:12Z</time>
      </trkpt>
      <trkpt lat="44.44871" lon="4.30859">
        <ele>126.5506592</ele>
        <time>2011-05-27T13:37:17Z</time>
      </trkpt>
      <trkpt lat="44.44872" lon="4.30844">
        <ele>126.0699463</ele>
        <time>2011-05-27T13:37:22Z</time>
      </trkpt>
      <trkpt lat="44.44865" lon="4.30835">
        <ele>126.0699463</ele>
        <time>2011-05-27T13:37:28Z</time>
      </trkpt>
      <trkpt lat="44.44856" lon="4.30833">
        <ele>126.0699463</ele>
        <time>2011-05-27T13:37:36Z</time>
      </trkpt>
      <trkpt lat="44.44846" lon="4.30833">
        <ele>124.6280518</ele>
        <time>2011-05-27T13:37:41Z</time>
      </trkpt>
      <trkpt lat="44.44836" lon="4.30832">
        <ele>125.1087646</ele>
        <time>2011-05-27T13:37:45Z</time>
      </trkpt>
      <trkpt lat="44.44822" lon="4.30826">
        <ele>124.6280518</ele>
        <time>2011-05-27T13:39:19Z</time>
      </trkpt>
      <trkpt lat="44.44821" lon="4.30826">
        <ele>123.666748</ele>
        <time>2011-05-27T13:39:25Z</time>
      </trkpt>
      <trkpt lat="44.44828" lon="4.30816">
        <ele>124.1473389</ele>
        <time>2011-05-27T14:00:14Z</time>
      </trkpt>
      <trkpt lat="44.44828" lon="4.30814">
        <ele>123.666748</ele>
        <time>2011-05-27T14:01:49Z</time>
      </trkpt>
      <trkpt lat="44.4483" lon="4.30801">
        <ele>124.1473389</ele>
        <time>2011-05-27T14:01:55Z</time>
      </trkpt>
      <trkpt lat="44.44832" lon="4.30786">
        <ele>124.6280518</ele>
        <time>2011-05-27T14:02:00Z</time>
      </trkpt>
      <trkpt lat="44.44834" lon="4.30773">
        <ele>125.5893555</ele>
        <time>2011-05-27T14:02:05Z</time>
      </trkpt>
      <trkpt lat="44.44836" lon="4.3076">
        <ele>126.0699463</ele>
        <time>2011-05-27T14:02:11Z</time>
      </trkpt>
      <trkpt lat="44.44838" lon="4.30746">
        <ele>128.4733887</ele>
        <time>2011-05-27T14:02:19Z</time>
      </trkpt>
      <trkpt lat="44.44845" lon="4.30744">
        <ele>128.9541016</ele>
        <time>2011-05-27T14:02:26Z</time>
      </trkpt>
      <trkpt lat="44.44854" lon="4.30748">
        <ele>128.4733887</ele>
        <time>2011-05-27T14:02:32Z</time>
      </trkpt>
      <trkpt lat="44.44859" lon="4.30752">
        <ele>126.5506592</ele>
        <time>2011-05-27T14:02:45Z</time>
      </trkpt>
      <trkpt lat="44.44849" lon="4.30765">
        <ele>129.4346924</ele>
        <time>2011-05-27T14:23:44Z</time>
      </trkpt>
      <trkpt lat="44.44846" lon="4.30744">
        <ele>129.9152832</ele>
        <time>2011-05-27T14:23:59Z</time>
      </trkpt>
      <trkpt lat="44.44837" lon="4.3074">
        <ele>128.9541016</ele>
        <time>2011-05-27T14:24:05Z</time>
      </trkpt>
      <trkpt lat="44.44833" lon="4.30754">
        <ele>127.9925537</ele>
        <time>2011-05-27T14:24:09Z</time>
      </trkpt>
      <trkpt lat="44.4483" lon="4.3077">
        <ele>127.9925537</ele>
        <time>2011-05-27T14:24:12Z</time>
      </trkpt>
      <trkpt lat="44.44826" lon="4.30789">
        <ele>126.5506592</ele>
        <time>2011-05-27T14:24:15Z</time>
      </trkpt>
      <trkpt lat="44.44823" lon="4.30803">
        <ele>126.0699463</ele>
        <time>2011-05-27T14:24:17Z</time>
      </trkpt>
      <trkpt lat="44.4482" lon="4.3082">
        <ele>125.1087646</ele>
        <time>2011-05-27T14:24:20Z</time>
      </trkpt>
      <trkpt lat="44.44825" lon="4.30832">
        <ele>125.1087646</ele>
        <time>2011-05-27T14:24:23Z</time>
      </trkpt>
      <trkpt lat="44.44836" lon="4.30836">
        <ele>124.6280518</ele>
        <time>2011-05-27T14:24:26Z</time>
      </trkpt>
      <trkpt lat="44.44845" lon="4.30836">
        <ele>125.5893555</ele>
        <time>2011-05-27T14:24:29Z</time>
      </trkpt>
      <trkpt lat="44.44856" lon="4.30834">
        <ele>127.0313721</ele>
        <time>2011-05-27T14:24:34Z</time>
      </trkpt>
      <trkpt lat="44.44865" lon="4.30839">
        <ele>126.5506592</ele>
        <time>2011-05-27T14:24:37Z</time>
      </trkpt>
      <trkpt lat="44.44869" lon="4.30854">
        <ele>126.0699463</ele>
        <time>2011-05-27T14:24:40Z</time>
      </trkpt>
      <trkpt lat="44.44869" lon="4.30869">
        <ele>126.0699463</ele>
        <time>2011-05-27T14:24:43Z</time>
      </trkpt>
      <trkpt lat="44.44868" lon="4.30884">
        <ele>125.5893555</ele>
        <time>2011-05-27T14:24:46Z</time>
      </trkpt>
      <trkpt lat="44.44868" lon="4.30901">
        <ele>126.5506592</ele>
        <time>2011-05-27T14:24:49Z</time>
      </trkpt>
      <trkpt lat="44.44868" lon="4.30918">
        <ele>126.0699463</ele>
        <time>2011-05-27T14:24:52Z</time>
      </trkpt>
      <trkpt lat="44.44868" lon="4.30934">
        <ele>125.5893555</ele>
        <time>2011-05-27T14:24:55Z</time>
      </trkpt>
      <trkpt lat="44.44872" lon="4.30945">
        <ele>125.5893555</ele>
        <time>2011-05-27T14:24:59Z</time>
      </trkpt>
      <trkpt lat="44.44876" lon="4.30956">
        <ele>125.5893555</ele>
        <time>2011-05-27T14:25:04Z</time>
      </trkpt>
      <trkpt lat="44.44882" lon="4.30969">
        <ele>126.0699463</ele>
        <time>2011-05-27T14:25:09Z</time>
      </trkpt>
      <trkpt lat="44.44888" lon="4.30982">
        <ele>127.0313721</ele>
        <time>2011-05-27T14:25:14Z</time>
      </trkpt>
      <trkpt lat="44.4489" lon="4.30996">
        <ele>127.9925537</ele>
        <time>2011-05-27T14:25:19Z</time>
      </trkpt>
      <trkpt lat="44.4489" lon="4.31009">
        <ele>128.9541016</ele>
        <time>2011-05-27T14:25:25Z</time>
      </trkpt>
      <trkpt lat="44.44887" lon="4.31022">
        <ele>129.9152832</ele>
        <time>2011-05-27T14:25:32Z</time>
      </trkpt>
      <trkpt lat="44.44886" lon="4.31035">
        <ele>129.9152832</ele>
        <time>2011-05-27T14:25:39Z</time>
      </trkpt>
      <trkpt lat="44.44879" lon="4.31038">
        <ele>129.9152832</ele>
        <time>2011-05-27T14:25:45Z</time>
      </trkpt>
      <trkpt lat="44.44869" lon="4.31036">
        <ele>130.876709</ele>
        <time>2011-05-27T14:25:52Z</time>
      </trkpt>
      <trkpt lat="44.44859" lon="4.31033">
        <ele>131.3572998</ele>
        <time>2011-05-27T14:26:01Z</time>
      </trkpt>
      <trkpt lat="44.44848" lon="4.31032">
        <ele>134.2412109</ele>
        <time>2011-05-27T14:26:11Z</time>
      </trkpt>
      <trkpt lat="44.44838" lon="4.31034">
        <ele>135.2025146</ele>
        <time>2011-05-27T14:26:20Z</time>
      </trkpt>
      <trkpt lat="44.44843" lon="4.31045">
        <ele>137.1252441</ele>
        <time>2011-05-27T14:26:28Z</time>
      </trkpt>
      <trkpt lat="44.4485" lon="4.31056">
        <ele>137.605835</ele>
        <time>2011-05-27T14:26:42Z</time>
      </trkpt>
      <trkpt lat="44.44844" lon="4.31063">
        <ele>139.0478516</ele>
        <time>2011-05-27T14:26:52Z</time>
      </trkpt>
      <trkpt lat="44.44834" lon="4.31059">
        <ele>142.4124756</ele>
        <time>2011-05-27T14:27:02Z</time>
      </trkpt>
      <trkpt lat="44.44825" lon="4.31052">
        <ele>142.8930664</ele>
        <time>2011-05-27T14:27:22Z</time>
      </trkpt>
      <trkpt lat="44.44816" lon="4.31049">
        <ele>144.3352051</ele>
        <time>2011-05-27T14:27:44Z</time>
      </trkpt>
      <trkpt lat="44.44806" lon="4.3104">
        <ele>145.2963867</ele>
        <time>2011-05-27T14:28:00Z</time>
      </trkpt>
      <trkpt lat="44.44795" lon="4.31034">
        <ele>147.699707</ele>
        <time>2011-05-27T14:28:19Z</time>
      </trkpt>
      <trkpt lat="44.44784" lon="4.31033">
        <ele>149.1416016</ele>
        <time>2011-05-27T14:28:34Z</time>
      </trkpt>
      <trkpt lat="44.44773" lon="4.31038">
        <ele>151.064209</ele>
        <time>2011-05-27T14:28:49Z</time>
      </trkpt>
      <trkpt lat="44.44762" lon="4.31045">
        <ele>152.9869385</ele>
        <time>2011-05-27T14:29:03Z</time>
      </trkpt>
      <trkpt lat="44.44751" lon="4.31049">
        <ele>152.9869385</ele>
        <time>2011-05-27T14:29:16Z</time>
      </trkpt>
      <trkpt lat="44.44741" lon="4.31053">
        <ele>153.9483643</ele>
        <time>2011-05-27T14:29:28Z</time>
      </trkpt>
      <trkpt lat="44.44731" lon="4.31057">
        <ele>154.9095459</ele>
        <time>2011-05-27T14:29:40Z</time>
      </trkpt>
      <trkpt lat="44.44721" lon="4.31061">
        <ele>155.8709717</ele>
        <time>2011-05-27T14:29:51Z</time>
      </trkpt>
      <trkpt lat="44.44711" lon="4.31063">
        <ele>156.8321533</ele>
        <time>2011-05-27T14:30:01Z</time>
      </trkpt>
      <trkpt lat="44.44701" lon="4.31064">
        <ele>157.7935791</ele>
        <time>2011-05-27T14:30:16Z</time>
      </trkpt>
      <trkpt lat="44.44691" lon="4.31067">
        <ele>159.7161865</ele>
        <time>2011-05-27T14:30:28Z</time>
      </trkpt>
      <trkpt lat="44.44681" lon="4.31068">
        <ele>160.6774902</ele>
        <time>2011-05-27T14:30:40Z</time>
      </trkpt>
      <trkpt lat="44.44672" lon="4.31072">
        <ele>161.638916</ele>
        <time>2011-05-27T14:30:50Z</time>
      </trkpt>
      <trkpt lat="44.44662" lon="4.31075">
        <ele>163.0808105</ele>
        <time>2011-05-27T14:31:03Z</time>
      </trkpt>
      <trkpt lat="44.44653" lon="4.31077">
        <ele>165.4841309</ele>
        <time>2011-05-27T14:31:16Z</time>
      </trkpt>
      <trkpt lat="44.44643" lon="4.31076">
        <ele>165.9647217</ele>
        <time>2011-05-27T14:31:25Z</time>
      </trkpt>
      <trkpt lat="44.44634" lon="4.31074">
        <ele>166.9260254</ele>
        <time>2011-05-27T14:31:34Z</time>
      </trkpt>
      <trkpt lat="44.44623" lon="4.31071">
        <ele>167.4067383</ele>
        <time>2011-05-27T14:31:43Z</time>
      </trkpt>
      <trkpt lat="44.44613" lon="4.31067">
        <ele>168.8487549</ele>
        <time>2011-05-27T14:31:53Z</time>
      </trkpt>
      <trkpt lat="44.44604" lon="4.31064">
        <ele>170.2906494</ele>
        <time>2011-05-27T14:32:04Z</time>
      </trkpt>
      <trkpt lat="44.44592" lon="4.31064">
        <ele>169.8100586</ele>
        <time>2011-05-27T14:32:14Z</time>
      </trkpt>
      <trkpt lat="44.44582" lon="4.31063">
        <ele>170.2906494</ele>
        <time>2011-05-27T14:32:20Z</time>
      </trkpt>
      <trkpt lat="44.44572" lon="4.31065">
        <ele>171.2520752</ele>
        <time>2011-05-27T14:32:25Z</time>
      </trkpt>
      <trkpt lat="44.44561" lon="4.31066">
        <ele>172.6939697</ele>
        <time>2011-05-27T14:32:31Z</time>
      </trkpt>
      <trkpt lat="44.44551" lon="4.31071">
        <ele>173.1746826</ele>
        <time>2011-05-27T14:32:37Z</time>
      </trkpt>
      <trkpt lat="44.44542" lon="4.31077">
        <ele>175.09729</ele>
        <time>2011-05-27T14:32:43Z</time>
      </trkpt>
      <trkpt lat="44.44533" lon="4.31082">
        <ele>175.09729</ele>
        <time>2011-05-27T14:32:49Z</time>
      </trkpt>
      <trkpt lat="44.44524" lon="4.31086">
        <ele>176.0585938</ele>
        <time>2011-05-27T14:32:55Z</time>
      </trkpt>
      <trkpt lat="44.44515" lon="4.31093">
        <ele>177.0200195</ele>
        <time>2011-05-27T14:33:02Z</time>
      </trkpt>
      <trkpt lat="44.44506" lon="4.31097">
        <ele>178.942627</ele>
        <time>2011-05-27T14:33:10Z</time>
      </trkpt>
      <trkpt lat="44.44496" lon="4.31104">
        <ele>179.9038086</ele>
        <time>2011-05-27T14:33:21Z</time>
      </trkpt>
      <trkpt lat="44.44487" lon="4.3111">
        <ele>182.3071289</ele>
        <time>2011-05-27T14:33:37Z</time>
      </trkpt>
      <trkpt lat="44.44477" lon="4.31106">
        <ele>182.7878418</ele>
        <time>2011-05-27T14:33:55Z</time>
      </trkpt>
      <trkpt lat="44.44474" lon="4.31089">
        <ele>185.6717529</ele>
        <time>2011-05-27T14:34:10Z</time>
      </trkpt>
      <trkpt lat="44.44466" lon="4.31079">
        <ele>187.1137695</ele>
        <time>2011-05-27T14:34:24Z</time>
      </trkpt>
      <trkpt lat="44.44458" lon="4.31086">
        <ele>189.036377</ele>
        <time>2011-05-27T14:34:36Z</time>
      </trkpt>
      <trkpt lat="44.44455" lon="4.31098">
        <ele>189.9976807</ele>
        <time>2011-05-27T14:34:48Z</time>
      </trkpt>
      <trkpt lat="44.44448" lon="4.31111">
        <ele>189.5169678</ele>
        <time>2011-05-27T14:34:54Z</time>
      </trkpt>
      <trkpt lat="44.44445" lon="4.31124">
        <ele>189.5169678</ele>
        <time>2011-05-27T14:34:59Z</time>
      </trkpt>
      <trkpt lat="44.44444" lon="4.3114">
        <ele>189.036377</ele>
        <time>2011-05-27T14:35:04Z</time>
      </trkpt>
      <trkpt lat="44.44445" lon="4.31153">
        <ele>189.9976807</ele>
        <time>2011-05-27T14:35:08Z</time>
      </trkpt>
      <trkpt lat="44.44447" lon="4.31166">
        <ele>189.9976807</ele>
        <time>2011-05-27T14:35:12Z</time>
      </trkpt>
      <trkpt lat="44.4445" lon="4.31181">
        <ele>189.9976807</ele>
        <time>2011-05-27T14:35:17Z</time>
      </trkpt>
      <trkpt lat="44.44451" lon="4.31197">
        <ele>190.9589844</ele>
        <time>2011-05-27T14:35:22Z</time>
      </trkpt>
      <trkpt lat="44.44451" lon="4.31212">
        <ele>191.9202881</ele>
        <time>2011-05-27T14:35:27Z</time>
      </trkpt>
      <trkpt lat="44.44452" lon="4.31227">
        <ele>192.401123</ele>
        <time>2011-05-27T14:35:32Z</time>
      </trkpt>
      <trkpt lat="44.44452" lon="4.31243">
        <ele>192.8817139</ele>
        <time>2011-05-27T14:35:37Z</time>
      </trkpt>
      <trkpt lat="44.44452" lon="4.31255">
        <ele>193.8430176</ele>
        <time>2011-05-27T14:35:41Z</time>
      </trkpt>
      <trkpt lat="44.44452" lon="4.31269">
        <ele>193.8430176</ele>
        <time>2011-05-27T14:35:45Z</time>
      </trkpt>
      <trkpt lat="44.44453" lon="4.31285">
        <ele>193.3623047</ele>
        <time>2011-05-27T14:35:49Z</time>
      </trkpt>
      <trkpt lat="44.44454" lon="4.31299">
        <ele>192.8817139</ele>
        <time>2011-05-27T14:35:52Z</time>
      </trkpt>
      <trkpt lat="44.44454" lon="4.31314">
        <ele>192.8817139</ele>
        <time>2011-05-27T14:35:55Z</time>
      </trkpt>
      <trkpt lat="44.44454" lon="4.3133">
        <ele>192.401123</ele>
        <time>2011-05-27T14:35:58Z</time>
      </trkpt>
      <trkpt lat="44.44455" lon="4.31348">
        <ele>191.9202881</ele>
        <time>2011-05-27T14:36:01Z</time>
      </trkpt>
      <trkpt lat="44.44457" lon="4.31365">
        <ele>191.4395752</ele>
        <time>2011-05-27T14:36:04Z</time>
      </trkpt>
      <trkpt lat="44.44458" lon="4.31381">
        <ele>192.401123</ele>
        <time>2011-05-27T14:36:07Z</time>
      </trkpt>
      <trkpt lat="44.44461" lon="4.31396">
        <ele>192.8817139</ele>
        <time>2011-05-27T14:36:10Z</time>
      </trkpt>
      <trkpt lat="44.44465" lon="4.3141">
        <ele>193.3623047</ele>
        <time>2011-05-27T14:36:13Z</time>
      </trkpt>
      <trkpt lat="44.44472" lon="4.31424">
        <ele>192.8817139</ele>
        <time>2011-05-27T14:36:16Z</time>
      </trkpt>
      <trkpt lat="44.44478" lon="4.31437">
        <ele>193.8430176</ele>
        <time>2011-05-27T14:36:19Z</time>
      </trkpt>
      <trkpt lat="44.44483" lon="4.31451">
        <ele>193.3623047</ele>
        <time>2011-05-27T14:36:22Z</time>
      </trkpt>
      <trkpt lat="44.44485" lon="4.31464">
        <ele>194.3237305</ele>
        <time>2011-05-27T14:36:25Z</time>
      </trkpt>
      <trkpt lat="44.44484" lon="4.31479">
        <ele>193.3623047</ele>
        <time>2011-05-27T14:36:28Z</time>
      </trkpt>
      <trkpt lat="44.44483" lon="4.31494">
        <ele>194.3237305</ele>
        <time>2011-05-27T14:36:31Z</time>
      </trkpt>
      <trkpt lat="44.44481" lon="4.3151">
        <ele>193.3623047</ele>
        <time>2011-05-27T14:36:34Z</time>
      </trkpt>
      <trkpt lat="44.44478" lon="4.31525">
        <ele>193.8430176</ele>
        <time>2011-05-27T14:36:37Z</time>
      </trkpt>
      <trkpt lat="44.44476" lon="4.31539">
        <ele>193.8430176</ele>
        <time>2011-05-27T14:36:40Z</time>
      </trkpt>
      <trkpt lat="44.44476" lon="4.31556">
        <ele>193.3623047</ele>
        <time>2011-05-27T14:36:43Z</time>
      </trkpt>
      <trkpt lat="44.44475" lon="4.3157">
        <ele>193.8430176</ele>
        <time>2011-05-27T14:36:45Z</time>
      </trkpt>
      <trkpt lat="44.44473" lon="4.31587">
        <ele>193.8430176</ele>
        <time>2011-05-27T14:36:48Z</time>
      </trkpt>
      <trkpt lat="44.44473" lon="4.31601">
        <ele>193.3623047</ele>
        <time>2011-05-27T14:36:51Z</time>
      </trkpt>
      <trkpt lat="44.44479" lon="4.31611">
        <ele>194.8043213</ele>
        <time>2011-05-27T14:36:55Z</time>
      </trkpt>
      <trkpt lat="44.44491" lon="4.31614">
        <ele>195.2849121</ele>
        <time>2011-05-27T14:37:00Z</time>
      </trkpt>
      <trkpt lat="44.44502" lon="4.31614">
        <ele>194.8043213</ele>
        <time>2011-05-27T14:37:25Z</time>
      </trkpt>
      <trkpt lat="44.44513" lon="4.31619">
        <ele>193.8430176</ele>
        <time>2011-05-27T14:37:30Z</time>
      </trkpt>
      <trkpt lat="44.44524" lon="4.31627">
        <ele>192.8817139</ele>
        <time>2011-05-27T14:37:33Z</time>
      </trkpt>
      <trkpt lat="44.44532" lon="4.31636">
        <ele>192.8817139</ele>
        <time>2011-05-27T14:37:35Z</time>
      </trkpt>
      <trkpt lat="44.44539" lon="4.31646">
        <ele>192.401123</ele>
        <time>2011-05-27T14:37:37Z</time>
      </trkpt>
      <trkpt lat="44.44546" lon="4.31656">
        <ele>191.9202881</ele>
        <time>2011-05-27T14:37:39Z</time>
      </trkpt>
      <trkpt lat="44.44553" lon="4.31664">
        <ele>192.401123</ele>
        <time>2011-05-27T14:37:41Z</time>
      </trkpt>
      <trkpt lat="44.44561" lon="4.31672">
        <ele>191.9202881</ele>
        <time>2011-05-27T14:37:43Z</time>
      </trkpt>
      <trkpt lat="44.44569" lon="4.31683">
        <ele>191.4395752</ele>
        <time>2011-05-27T14:37:45Z</time>
      </trkpt>
      <trkpt lat="44.44576" lon="4.31696">
        <ele>190.4783936</ele>
        <time>2011-05-27T14:37:47Z</time>
      </trkpt>
      <trkpt lat="44.44585" lon="4.31708">
        <ele>189.036377</ele>
        <time>2011-05-27T14:37:49Z</time>
      </trkpt>
      <trkpt lat="44.44596" lon="4.31713">
        <ele>189.036377</ele>
        <time>2011-05-27T14:37:51Z</time>
      </trkpt>
      <trkpt lat="44.4461" lon="4.31714">
        <ele>188.0750732</ele>
        <time>2011-05-27T14:37:53Z</time>
      </trkpt>
      <trkpt lat="44.44625" lon="4.31714">
        <ele>186.1524658</ele>
        <time>2011-05-27T14:37:55Z</time>
      </trkpt>
      <trkpt lat="44.44641" lon="4.31712">
        <ele>186.6331787</ele>
        <time>2011-05-27T14:37:57Z</time>
      </trkpt>
      <trkpt lat="44.44657" lon="4.31709">
        <ele>185.1911621</ele>
        <time>2011-05-27T14:37:59Z</time>
      </trkpt>
      <trkpt lat="44.4467" lon="4.31707">
        <ele>186.6331787</ele>
        <time>2011-05-27T14:38:01Z</time>
      </trkpt>
      <trkpt lat="44.44682" lon="4.31708">
        <ele>186.6331787</ele>
        <time>2011-05-27T14:38:03Z</time>
      </trkpt>
      <trkpt lat="44.44691" lon="4.31712">
        <ele>188.0750732</ele>
        <time>2011-05-27T14:38:05Z</time>
      </trkpt>
      <trkpt lat="44.44702" lon="4.3172">
        <ele>188.5557861</ele>
        <time>2011-05-27T14:38:08Z</time>
      </trkpt>
      <trkpt lat="44.44712" lon="4.31729">
        <ele>189.5169678</ele>
        <time>2011-05-27T14:38:11Z</time>
      </trkpt>
      <trkpt lat="44.44721" lon="4.31738">
        <ele>189.5169678</ele>
        <time>2011-05-27T14:38:14Z</time>
      </trkpt>
      <trkpt lat="44.44729" lon="4.31752">
        <ele>189.5169678</ele>
        <time>2011-05-27T14:38:17Z</time>
      </trkpt>
      <trkpt lat="44.4473" lon="4.31765">
        <ele>189.5169678</ele>
        <time>2011-05-27T14:38:19Z</time>
      </trkpt>
      <trkpt lat="44.44729" lon="4.31778">
        <ele>189.036377</ele>
        <time>2011-05-27T14:38:21Z</time>
      </trkpt>
      <trkpt lat="44.44726" lon="4.31794">
        <ele>187.5943604</ele>
        <time>2011-05-27T14:38:23Z</time>
      </trkpt>
      <trkpt lat="44.44721" lon="4.31811">
        <ele>186.6331787</ele>
        <time>2011-05-27T14:38:25Z</time>
      </trkpt>
      <trkpt lat="44.44716" lon="4.31831">
        <ele>185.1911621</ele>
        <time>2011-05-27T14:38:27Z</time>
      </trkpt>
      <trkpt lat="44.4471" lon="4.31853">
        <ele>184.7105713</ele>
        <time>2011-05-27T14:38:29Z</time>
      </trkpt>
      <trkpt lat="44.44706" lon="4.31875">
        <ele>181.826416</ele>
        <time>2011-05-27T14:38:31Z</time>
      </trkpt>
      <trkpt lat="44.44703" lon="4.31899">
        <ele>180.8652344</ele>
        <time>2011-05-27T14:38:33Z</time>
      </trkpt>
      <trkpt lat="44.44704" lon="4.31925">
        <ele>180.3845215</ele>
        <time>2011-05-27T14:38:35Z</time>
      </trkpt>
      <trkpt lat="44.44706" lon="4.31948">
        <ele>180.8652344</ele>
        <time>2011-05-27T14:38:37Z</time>
      </trkpt>
      <trkpt lat="44.44709" lon="4.3197">
        <ele>180.8652344</ele>
        <time>2011-05-27T14:38:39Z</time>
      </trkpt>
      <trkpt lat="44.44714" lon="4.3199">
        <ele>180.3845215</ele>
        <time>2011-05-27T14:38:41Z</time>
      </trkpt>
      <trkpt lat="44.44721" lon="4.32006">
        <ele>181.3458252</ele>
        <time>2011-05-27T14:38:43Z</time>
      </trkpt>
      <trkpt lat="44.44727" lon="4.32021">
        <ele>181.3458252</ele>
        <time>2011-05-27T14:38:45Z</time>
      </trkpt>
      <trkpt lat="44.44733" lon="4.32035">
        <ele>181.3458252</ele>
        <time>2011-05-27T14:38:47Z</time>
      </trkpt>
      <trkpt lat="44.44739" lon="4.32047">
        <ele>181.3458252</ele>
        <time>2011-05-27T14:38:49Z</time>
      </trkpt>
      <trkpt lat="44.44743" lon="4.32058">
        <ele>181.826416</ele>
        <time>2011-05-27T14:38:51Z</time>
      </trkpt>
      <trkpt lat="44.4475" lon="4.32072">
        <ele>182.3071289</ele>
        <time>2011-05-27T14:38:54Z</time>
      </trkpt>
      <trkpt lat="44.44756" lon="4.32084">
        <ele>183.7490234</ele>
        <time>2011-05-27T14:38:57Z</time>
      </trkpt>
      <trkpt lat="44.44761" lon="4.32095">
        <ele>184.2298584</ele>
        <time>2011-05-27T14:39:00Z</time>
      </trkpt>
      <trkpt lat="44.44765" lon="4.32106">
        <ele>185.6717529</ele>
        <time>2011-05-27T14:39:03Z</time>
      </trkpt>
      <trkpt lat="44.4477" lon="4.32117">
        <ele>186.6331787</ele>
        <time>2011-05-27T14:39:06Z</time>
      </trkpt>
      <trkpt lat="44.44776" lon="4.32128">
        <ele>187.1137695</ele>
        <time>2011-05-27T14:39:09Z</time>
      </trkpt>
      <trkpt lat="44.44782" lon="4.32139">
        <ele>186.1524658</ele>
        <time>2011-05-27T14:39:12Z</time>
      </trkpt>
      <trkpt lat="44.44788" lon="4.32152">
        <ele>185.1911621</ele>
        <time>2011-05-27T14:39:15Z</time>
      </trkpt>
      <trkpt lat="44.44795" lon="4.32169">
        <ele>184.7105713</ele>
        <time>2011-05-27T14:39:18Z</time>
      </trkpt>
      <trkpt lat="44.44799" lon="4.32186">
        <ele>184.7105713</ele>
        <time>2011-05-27T14:39:21Z</time>
      </trkpt>
      <trkpt lat="44.44803" lon="4.32201">
        <ele>183.7490234</ele>
        <time>2011-05-27T14:39:24Z</time>
      </trkpt>
      <trkpt lat="44.44808" lon="4.32215">
        <ele>184.2298584</ele>
        <time>2011-05-27T14:39:27Z</time>
      </trkpt>
      <trkpt lat="44.44813" lon="4.32229">
        <ele>184.2298584</ele>
        <time>2011-05-27T14:39:30Z</time>
      </trkpt>
      <trkpt lat="44.44817" lon="4.32244">
        <ele>184.2298584</ele>
        <time>2011-05-27T14:39:33Z</time>
      </trkpt>
      <trkpt lat="44.44822" lon="4.3226">
        <ele>184.2298584</ele>
        <time>2011-05-27T14:39:36Z</time>
      </trkpt>
      <trkpt lat="44.44826" lon="4.32273">
        <ele>183.7490234</ele>
        <time>2011-05-27T14:39:38Z</time>
      </trkpt>
      <trkpt lat="44.44831" lon="4.32285">
        <ele>183.2684326</ele>
        <time>2011-05-27T14:39:40Z</time>
      </trkpt>
      <trkpt lat="44.44833" lon="4.32298">
        <ele>181.3458252</ele>
        <time>2011-05-27T14:39:42Z</time>
      </trkpt>
      <trkpt lat="44.44836" lon="4.32312">
        <ele>179.9038086</ele>
        <time>2011-05-27T14:39:44Z</time>
      </trkpt>
      <trkpt lat="44.44843" lon="4.32322">
        <ele>178.4619141</ele>
        <time>2011-05-27T14:39:46Z</time>
      </trkpt>
      <trkpt lat="44.44851" lon="4.3233">
        <ele>177.0200195</ele>
        <time>2011-05-27T14:39:48Z</time>
      </trkpt>
      <trkpt lat="44.44862" lon="4.3234">
        <ele>175.5778809</ele>
        <time>2011-05-27T14:39:51Z</time>
      </trkpt>
      <trkpt lat="44.44871" lon="4.3235">
        <ele>174.1358643</ele>
        <time>2011-05-27T14:39:55Z</time>
      </trkpt>
      <trkpt lat="44.44878" lon="4.32361">
        <ele>172.6939697</ele>
        <time>2011-05-27T14:39:59Z</time>
      </trkpt>
      <trkpt lat="44.44884" lon="4.32371">
        <ele>172.2132568</ele>
        <time>2011-05-27T14:40:03Z</time>
      </trkpt>
      <trkpt lat="44.4489" lon="4.32381">
        <ele>171.732666</ele>
        <time>2011-05-27T14:40:06Z</time>
      </trkpt>
      <trkpt lat="44.44896" lon="4.32395">
        <ele>171.2520752</ele>
        <time>2011-05-27T14:40:09Z</time>
      </trkpt>
      <trkpt lat="44.449" lon="4.32406">
        <ele>169.8100586</ele>
        <time>2011-05-27T14:40:11Z</time>
      </trkpt>
      <trkpt lat="44.44904" lon="4.3242">
        <ele>168.8487549</ele>
        <time>2011-05-27T14:40:13Z</time>
      </trkpt>
      <trkpt lat="44.44905" lon="4.32434">
        <ele>167.8873291</ele>
        <time>2011-05-27T14:40:15Z</time>
      </trkpt>
      <trkpt lat="44.44904" lon="4.32452">
        <ele>167.4067383</ele>
        <time>2011-05-27T14:40:18Z</time>
      </trkpt>
      <trkpt lat="44.44908" lon="4.32467">
        <ele>166.9260254</ele>
        <time>2011-05-27T14:40:21Z</time>
      </trkpt>
      <trkpt lat="44.44916" lon="4.32479">
        <ele>165.4841309</ele>
        <time>2011-05-27T14:40:24Z</time>
      </trkpt>
      <trkpt lat="44.44923" lon="4.32489">
        <ele>165.9647217</ele>
        <time>2011-05-27T14:40:27Z</time>
      </trkpt>
      <trkpt lat="44.44928" lon="4.32501">
        <ele>165.9647217</ele>
        <time>2011-05-27T14:40:32Z</time>
      </trkpt>
      <trkpt lat="44.44923" lon="4.32513">
        <ele>167.4067383</ele>
        <time>2011-05-27T14:40:38Z</time>
      </trkpt>
      <trkpt lat="44.44923" lon="4.32529">
        <ele>167.4067383</ele>
        <time>2011-05-27T14:40:43Z</time>
      </trkpt>
      <trkpt lat="44.44919" lon="4.32541">
        <ele>167.4067383</ele>
        <time>2011-05-27T14:40:46Z</time>
      </trkpt>
      <trkpt lat="44.44913" lon="4.32558">
        <ele>165.9647217</ele>
        <time>2011-05-27T14:40:49Z</time>
      </trkpt>
      <trkpt lat="44.4491" lon="4.32571">
        <ele>165.003418</ele>
        <time>2011-05-27T14:40:51Z</time>
      </trkpt>
      <trkpt lat="44.44907" lon="4.32584">
        <ele>165.4841309</ele>
        <time>2011-05-27T14:40:53Z</time>
      </trkpt>
      <trkpt lat="44.44901" lon="4.32595">
        <ele>164.0421143</ele>
        <time>2011-05-27T14:40:55Z</time>
      </trkpt>
      <trkpt lat="44.44894" lon="4.32604">
        <ele>163.5615234</ele>
        <time>2011-05-27T14:40:57Z</time>
      </trkpt>
      <trkpt lat="44.44886" lon="4.32615">
        <ele>162.6000977</ele>
        <time>2011-05-27T14:41:00Z</time>
      </trkpt>
      <trkpt lat="44.44875" lon="4.32613">
        <ele>160.1968994</ele>
        <time>2011-05-27T14:41:04Z</time>
      </trkpt>
      <trkpt lat="44.44871" lon="4.32624">
        <ele>158.2741699</ele>
        <time>2011-05-27T14:41:10Z</time>
      </trkpt>
      <trkpt lat="44.44867" lon="4.3264">
        <ele>157.3128662</ele>
        <time>2011-05-27T14:41:14Z</time>
      </trkpt>
      <trkpt lat="44.44861" lon="4.32656">
        <ele>155.8709717</ele>
        <time>2011-05-27T14:41:17Z</time>
      </trkpt>
      <trkpt lat="44.44857" lon="4.32667">
        <ele>154.4289551</ele>
        <time>2011-05-27T14:41:20Z</time>
      </trkpt>
      <trkpt lat="44.44852" lon="4.32678">
        <ele>151.5449219</ele>
        <time>2011-05-27T14:41:24Z</time>
      </trkpt>
      <trkpt lat="44.44848" lon="4.32692">
        <ele>150.1030273</ele>
        <time>2011-05-27T14:41:30Z</time>
      </trkpt>
      <trkpt lat="44.44845" lon="4.32705">
        <ele>147.699707</ele>
        <time>2011-05-27T14:41:35Z</time>
      </trkpt>
      <trkpt lat="44.44842" lon="4.32717">
        <ele>145.7770996</ele>
        <time>2011-05-27T14:41:39Z</time>
      </trkpt>
      <trkpt lat="44.44837" lon="4.3273">
        <ele>143.8543701</ele>
        <time>2011-05-27T14:41:44Z</time>
      </trkpt>
      <trkpt lat="44.44835" lon="4.32745">
        <ele>140.970459</ele>
        <time>2011-05-27T14:41:50Z</time>
      </trkpt>
      <trkpt lat="44.44831" lon="4.3276">
        <ele>139.0478516</ele>
        <time>2011-05-27T14:41:54Z</time>
      </trkpt>
      <trkpt lat="44.44827" lon="4.32774">
        <ele>137.605835</ele>
        <time>2011-05-27T14:41:58Z</time>
      </trkpt>
      <trkpt lat="44.44822" lon="4.32788">
        <ele>136.6446533</ele>
        <time>2011-05-27T14:42:03Z</time>
      </trkpt>
      <trkpt lat="44.44818" lon="4.328">
        <ele>133.760498</ele>
        <time>2011-05-27T14:42:09Z</time>
      </trkpt>
      <trkpt lat="44.44814" lon="4.32813">
        <ele>132.7993164</ele>
        <time>2011-05-27T14:42:15Z</time>
      </trkpt>
      <trkpt lat="44.44812" lon="4.32827">
        <ele>132.7993164</ele>
        <time>2011-05-27T14:42:23Z</time>
      </trkpt>
      <trkpt lat="44.44808" lon="4.32841">
        <ele>127.5119629</ele>
        <time>2011-05-27T14:42:28Z</time>
      </trkpt>
      <trkpt lat="44.44802" lon="4.32857">
        <ele>125.1087646</ele>
        <time>2011-05-27T14:42:50Z</time>
      </trkpt>
      <trkpt lat="44.44799" lon="4.32869">
        <ele>122.7054443</ele>
        <time>2011-05-27T14:42:59Z</time>
      </trkpt>
      <trkpt lat="44.44796" lon="4.32881">
        <ele>121.2635498</ele>
        <time>2011-05-27T14:43:07Z</time>
      </trkpt>
      <trkpt lat="44.44805" lon="4.32886">
        <ele>121.7441406</ele>
        <time>2011-05-27T14:43:13Z</time>
      </trkpt>
      <trkpt lat="44.44814" lon="4.32886">
        <ele>121.7441406</ele>
        <time>2011-05-27T14:43:17Z</time>
      </trkpt>
      <trkpt lat="44.44824" lon="4.32885">
        <ele>121.7441406</ele>
        <time>2011-05-27T14:43:21Z</time>
      </trkpt>
      <trkpt lat="44.44836" lon="4.3288">
        <ele>121.7441406</ele>
        <time>2011-05-27T14:43:25Z</time>
      </trkpt>
      <trkpt lat="44.44844" lon="4.32872">
        <ele>121.7441406</ele>
        <time>2011-05-27T14:43:28Z</time>
      </trkpt>
      <trkpt lat="44.44852" lon="4.32862">
        <ele>121.7441406</ele>
        <time>2011-05-27T14:43:31Z</time>
      </trkpt>
      <trkpt lat="44.44861" lon="4.32853">
        <ele>122.2247314</ele>
        <time>2011-05-27T14:43:34Z</time>
      </trkpt>
      <trkpt lat="44.44875" lon="4.32845">
        <ele>122.2247314</ele>
        <time>2011-05-27T14:43:37Z</time>
      </trkpt>
      <trkpt lat="44.44884" lon="4.32854">
        <ele>121.2635498</ele>
        <time>2011-05-27T14:43:40Z</time>
      </trkpt>
      <trkpt lat="44.44892" lon="4.32865">
        <ele>122.2247314</ele>
        <time>2011-05-27T14:43:43Z</time>
      </trkpt>
      <trkpt lat="44.44901" lon="4.32877">
        <ele>123.1861572</ele>
        <time>2011-05-27T14:43:46Z</time>
      </trkpt>
      <trkpt lat="44.4491" lon="4.32888">
        <ele>123.1861572</ele>
        <time>2011-05-27T14:43:49Z</time>
      </trkpt>
      <trkpt lat="44.4492" lon="4.329">
        <ele>122.2247314</ele>
        <time>2011-05-27T14:43:52Z</time>
      </trkpt>
      <trkpt lat="44.44929" lon="4.32911">
        <ele>121.7441406</ele>
        <time>2011-05-27T14:43:55Z</time>
      </trkpt>
      <trkpt lat="44.44938" lon="4.32923">
        <ele>121.2635498</ele>
        <time>2011-05-27T14:43:58Z</time>
      </trkpt>
      <trkpt lat="44.44947" lon="4.32935">
        <ele>120.7828369</ele>
        <time>2011-05-27T14:44:01Z</time>
      </trkpt>
      <trkpt lat="44.44956" lon="4.32946">
        <ele>121.2635498</ele>
        <time>2011-05-27T14:44:04Z</time>
      </trkpt>
      <trkpt lat="44.44964" lon="4.32959">
        <ele>122.2247314</ele>
        <time>2011-05-27T14:44:07Z</time>
      </trkpt>
      <trkpt lat="44.44971" lon="4.32973">
        <ele>122.7054443</ele>
        <time>2011-05-27T14:44:10Z</time>
      </trkpt>
      <trkpt lat="44.44976" lon="4.32988">
        <ele>122.2247314</ele>
        <time>2011-05-27T14:44:13Z</time>
      </trkpt>
      <trkpt lat="44.44982" lon="4.33002">
        <ele>122.2247314</ele>
        <time>2011-05-27T14:44:16Z</time>
      </trkpt>
      <trkpt lat="44.44987" lon="4.33017">
        <ele>122.2247314</ele>
        <time>2011-05-27T14:44:19Z</time>
      </trkpt>
      <trkpt lat="44.44993" lon="4.33033">
        <ele>122.7054443</ele>
        <time>2011-05-27T14:44:22Z</time>
      </trkpt>
      <trkpt lat="44.44999" lon="4.33047">
        <ele>123.1861572</ele>
        <time>2011-05-27T14:44:25Z</time>
      </trkpt>
      <trkpt lat="44.45005" lon="4.33061">
        <ele>123.1861572</ele>
        <time>2011-05-27T14:44:28Z</time>
      </trkpt>
      <trkpt lat="44.45013" lon="4.33074">
        <ele>123.1861572</ele>
        <time>2011-05-27T14:44:31Z</time>
      </trkpt>
      <trkpt lat="44.45022" lon="4.33086">
        <ele>123.666748</ele>
        <time>2011-05-27T14:44:34Z</time>
      </trkpt>
      <trkpt lat="44.45031" lon="4.33099">
        <ele>123.666748</ele>
        <time>2011-05-27T14:44:37Z</time>
      </trkpt>
      <trkpt lat="44.4504" lon="4.3311">
        <ele>123.666748</ele>
        <time>2011-05-27T14:44:40Z</time>
      </trkpt>
      <trkpt lat="44.45048" lon="4.33121">
        <ele>123.666748</ele>
        <time>2011-05-27T14:44:43Z</time>
      </trkpt>
      <trkpt lat="44.45057" lon="4.33132">
        <ele>123.666748</ele>
        <time>2011-05-27T14:44:46Z</time>
      </trkpt>
      <trkpt lat="44.45066" lon="4.33141">
        <ele>123.666748</ele>
        <time>2011-05-27T14:44:49Z</time>
      </trkpt>
      <trkpt lat="44.45076" lon="4.33136">
        <ele>123.666748</ele>
        <time>2011-05-27T14:44:52Z</time>
      </trkpt>
      <trkpt lat="44.45081" lon="4.33123">
        <ele>124.1473389</ele>
        <time>2011-05-27T14:44:55Z</time>
      </trkpt>
      <trkpt lat="44.45086" lon="4.33111">
        <ele>124.6280518</ele>
        <time>2011-05-27T14:44:58Z</time>
      </trkpt>
      <trkpt lat="44.45092" lon="4.33101">
        <ele>124.6280518</ele>
        <time>2011-05-27T14:45:01Z</time>
      </trkpt>
      <trkpt lat="44.45098" lon="4.33091">
        <ele>125.5893555</ele>
        <time>2011-05-27T14:45:05Z</time>
      </trkpt>
      <trkpt lat="44.45106" lon="4.33083">
        <ele>126.0699463</ele>
        <time>2011-05-27T14:45:10Z</time>
      </trkpt>
      <trkpt lat="44.45116" lon="4.33079">
        <ele>127.5119629</ele>
        <time>2011-05-27T14:45:16Z</time>
      </trkpt>
      <trkpt lat="44.45126" lon="4.33077">
        <ele>129.4346924</ele>
        <time>2011-05-27T14:45:22Z</time>
      </trkpt>
      <trkpt lat="44.45138" lon="4.33075">
        <ele>132.3186035</ele>
        <time>2011-05-27T14:45:30Z</time>
      </trkpt>
      <trkpt lat="44.45148" lon="4.33072">
        <ele>132.3186035</ele>
        <time>2011-05-27T14:45:36Z</time>
      </trkpt>
      <trkpt lat="44.45158" lon="4.33072">
        <ele>132.3186035</ele>
        <time>2011-05-27T14:45:42Z</time>
      </trkpt>
      <trkpt lat="44.45168" lon="4.33072">
        <ele>134.7219238</ele>
        <time>2011-05-27T14:45:48Z</time>
      </trkpt>
      <trkpt lat="44.45178" lon="4.33073">
        <ele>135.2025146</ele>
        <time>2011-05-27T14:45:54Z</time>
      </trkpt>
      <trkpt lat="44.45188" lon="4.33074">
        <ele>136.1639404</ele>
        <time>2011-05-27T14:46:00Z</time>
      </trkpt>
      <trkpt lat="44.45198" lon="4.33076">
        <ele>136.6446533</ele>
        <time>2011-05-27T14:46:06Z</time>
      </trkpt>
      <trkpt lat="44.45207" lon="4.33077">
        <ele>137.1252441</ele>
        <time>2011-05-27T14:46:11Z</time>
      </trkpt>
      <trkpt lat="44.45218" lon="4.33077">
        <ele>137.1252441</ele>
        <time>2011-05-27T14:46:16Z</time>
      </trkpt>
      <trkpt lat="44.45229" lon="4.33075">
        <ele>138.5672607</ele>
        <time>2011-05-27T14:46:21Z</time>
      </trkpt>
      <trkpt lat="44.4524" lon="4.33074">
        <ele>138.5672607</ele>
        <time>2011-05-27T14:46:25Z</time>
      </trkpt>
      <trkpt lat="44.4525" lon="4.33074">
        <ele>139.5284424</ele>
        <time>2011-05-27T14:46:28Z</time>
      </trkpt>
      <trkpt lat="44.4526" lon="4.33074">
        <ele>140.0091553</ele>
        <time>2011-05-27T14:46:31Z</time>
      </trkpt>
      <trkpt lat="44.4527" lon="4.33073">
        <ele>139.5284424</ele>
        <time>2011-05-27T14:46:34Z</time>
      </trkpt>
      <trkpt lat="44.45281" lon="4.33072">
        <ele>140.4898682</ele>
        <time>2011-05-27T14:46:37Z</time>
      </trkpt>
      <trkpt lat="44.45291" lon="4.33073">
        <ele>141.4510498</ele>
        <time>2011-05-27T14:46:40Z</time>
      </trkpt>
      <trkpt lat="44.45301" lon="4.33073">
        <ele>140.970459</ele>
        <time>2011-05-27T14:46:43Z</time>
      </trkpt>
      <trkpt lat="44.45312" lon="4.33071">
        <ele>140.970459</ele>
        <time>2011-05-27T14:46:47Z</time>
      </trkpt>
      <trkpt lat="44.45322" lon="4.3307">
        <ele>140.970459</ele>
        <time>2011-05-27T14:46:51Z</time>
      </trkpt>
      <trkpt lat="44.45333" lon="4.33069">
        <ele>141.9317627</ele>
        <time>2011-05-27T14:46:55Z</time>
      </trkpt>
      <trkpt lat="44.45344" lon="4.33068">
        <ele>143.3736572</ele>
        <time>2011-05-27T14:46:59Z</time>
      </trkpt>
      <trkpt lat="44.45355" lon="4.33068">
        <ele>144.8157959</ele>
        <time>2011-05-27T14:47:03Z</time>
      </trkpt>
      <trkpt lat="44.45364" lon="4.33067">
        <ele>144.8157959</ele>
        <time>2011-05-27T14:47:06Z</time>
      </trkpt>
      <trkpt lat="44.45376" lon="4.33067">
        <ele>144.3352051</ele>
        <time>2011-05-27T14:47:10Z</time>
      </trkpt>
      <trkpt lat="44.45388" lon="4.33067">
        <ele>144.8157959</ele>
        <time>2011-05-27T14:47:14Z</time>
      </trkpt>
      <trkpt lat="44.45399" lon="4.33068">
        <ele>145.2963867</ele>
        <time>2011-05-27T14:47:17Z</time>
      </trkpt>
      <trkpt lat="44.45411" lon="4.3307">
        <ele>145.2963867</ele>
        <time>2011-05-27T14:47:20Z</time>
      </trkpt>
      <trkpt lat="44.45421" lon="4.3307">
        <ele>144.8157959</ele>
        <time>2011-05-27T14:47:22Z</time>
      </trkpt>
      <trkpt lat="44.45432" lon="4.33068">
        <ele>144.3352051</ele>
        <time>2011-05-27T14:47:24Z</time>
      </trkpt>
      <trkpt lat="44.45442" lon="4.33067">
        <ele>144.3352051</ele>
        <time>2011-05-27T14:47:26Z</time>
      </trkpt>
      <trkpt lat="44.45452" lon="4.33065">
        <ele>144.3352051</ele>
        <time>2011-05-27T14:47:28Z</time>
      </trkpt>
      <trkpt lat="44.45466" lon="4.33061">
        <ele>144.3352051</ele>
        <time>2011-05-27T14:47:31Z</time>
      </trkpt>
      <trkpt lat="44.45478" lon="4.33056">
        <ele>143.3736572</ele>
        <time>2011-05-27T14:47:34Z</time>
      </trkpt>
      <trkpt lat="44.45489" lon="4.33049">
        <ele>143.3736572</ele>
        <time>2011-05-27T14:47:37Z</time>
      </trkpt>
      <trkpt lat="44.45497" lon="4.33051">
        <ele>142.8930664</ele>
        <time>2011-05-27T14:47:41Z</time>
      </trkpt>
      <trkpt lat="44.45499" lon="4.33068">
        <ele>142.8930664</ele>
        <time>2011-05-27T14:47:44Z</time>
      </trkpt>
      <trkpt lat="44.45502" lon="4.33082">
        <ele>141.9317627</ele>
        <time>2011-05-27T14:47:46Z</time>
      </trkpt>
      <trkpt lat="44.45505" lon="4.33099">
        <ele>142.4124756</ele>
        <time>2011-05-27T14:47:48Z</time>
      </trkpt>
      <trkpt lat="44.45509" lon="4.33116">
        <ele>141.4510498</ele>
        <time>2011-05-27T14:47:50Z</time>
      </trkpt>
      <trkpt lat="44.45513" lon="4.33135">
        <ele>140.0091553</ele>
        <time>2011-05-27T14:47:52Z</time>
      </trkpt>
      <trkpt lat="44.45518" lon="4.33155">
        <ele>139.5284424</ele>
        <time>2011-05-27T14:47:54Z</time>
      </trkpt>
      <trkpt lat="44.45523" lon="4.33176">
        <ele>138.5672607</ele>
        <time>2011-05-27T14:47:56Z</time>
      </trkpt>
      <trkpt lat="44.45528" lon="4.33198">
        <ele>136.6446533</ele>
        <time>2011-05-27T14:47:58Z</time>
      </trkpt>
      <trkpt lat="44.45533" lon="4.33222">
        <ele>136.1639404</ele>
        <time>2011-05-27T14:48:00Z</time>
      </trkpt>
      <trkpt lat="44.45536" lon="4.33235">
        <ele>135.6831055</ele>
        <time>2011-05-27T14:48:01Z</time>
      </trkpt>
      <trkpt lat="44.45539" lon="4.33247">
        <ele>135.2025146</ele>
        <time>2011-05-27T14:48:02Z</time>
      </trkpt>
      <trkpt lat="44.45544" lon="4.3327">
        <ele>133.2799072</ele>
        <time>2011-05-27T14:48:04Z</time>
      </trkpt>
      <trkpt lat="44.45548" lon="4.33289">
        <ele>132.7993164</ele>
        <time>2011-05-27T14:48:06Z</time>
      </trkpt>
      <trkpt lat="44.45552" lon="4.33304">
        <ele>132.7993164</ele>
        <time>2011-05-27T14:48:08Z</time>
      </trkpt>
      <trkpt lat="44.45556" lon="4.3332">
        <ele>131.8378906</ele>
        <time>2011-05-27T14:48:11Z</time>
      </trkpt>
      <trkpt lat="44.45563" lon="4.33329">
        <ele>131.8378906</ele>
        <time>2011-05-27T14:48:19Z</time>
      </trkpt>
      <trkpt lat="44.45573" lon="4.33332">
        <ele>130.3959961</ele>
        <time>2011-05-27T14:48:22Z</time>
      </trkpt>
      <trkpt lat="44.45588" lon="4.33333">
        <ele>129.9152832</ele>
        <time>2011-05-27T14:48:25Z</time>
      </trkpt>
      <trkpt lat="44.45599" lon="4.33333">
        <ele>130.3959961</ele>
        <time>2011-05-27T14:48:27Z</time>
      </trkpt>
      <trkpt lat="44.45611" lon="4.33333">
        <ele>128.9541016</ele>
        <time>2011-05-27T14:48:29Z</time>
      </trkpt>
      <trkpt lat="44.45624" lon="4.33333">
        <ele>127.9925537</ele>
        <time>2011-05-27T14:48:31Z</time>
      </trkpt>
      <trkpt lat="44.45638" lon="4.33334">
        <ele>127.5119629</ele>
        <time>2011-05-27T14:48:33Z</time>
      </trkpt>
      <trkpt lat="44.45652" lon="4.33333">
        <ele>126.5506592</ele>
        <time>2011-05-27T14:48:35Z</time>
      </trkpt>
      <trkpt lat="44.45666" lon="4.33334">
        <ele>126.0699463</ele>
        <time>2011-05-27T14:48:37Z</time>
      </trkpt>
      <trkpt lat="44.45678" lon="4.33337">
        <ele>126.0699463</ele>
        <time>2011-05-27T14:48:39Z</time>
      </trkpt>
      <trkpt lat="44.45685" lon="4.33349">
        <ele>125.5893555</ele>
        <time>2011-05-27T14:48:41Z</time>
      </trkpt>
      <trkpt lat="44.45685" lon="4.33364">
        <ele>126.0699463</ele>
        <time>2011-05-27T14:48:43Z</time>
      </trkpt>
      <trkpt lat="44.45684" lon="4.33379">
        <ele>126.5506592</ele>
        <time>2011-05-27T14:48:45Z</time>
      </trkpt>
      <trkpt lat="44.45683" lon="4.33394">
        <ele>126.5506592</ele>
        <time>2011-05-27T14:48:47Z</time>
      </trkpt>
      <trkpt lat="44.45682" lon="4.33407">
        <ele>127.5119629</ele>
        <time>2011-05-27T14:48:49Z</time>
      </trkpt>
      <trkpt lat="44.45682" lon="4.33426">
        <ele>127.9925537</ele>
        <time>2011-05-27T14:48:52Z</time>
      </trkpt>
      <trkpt lat="44.45682" lon="4.33442">
        <ele>126.5506592</ele>
        <time>2011-05-27T14:48:55Z</time>
      </trkpt>
      <trkpt lat="44.45681" lon="4.33459">
        <ele>126.5506592</ele>
        <time>2011-05-27T14:48:58Z</time>
      </trkpt>
      <trkpt lat="44.4568" lon="4.33476">
        <ele>126.0699463</ele>
        <time>2011-05-27T14:49:01Z</time>
      </trkpt>
      <trkpt lat="44.45674" lon="4.33491">
        <ele>125.5893555</ele>
        <time>2011-05-27T14:49:04Z</time>
      </trkpt>
      <trkpt lat="44.45665" lon="4.335">
        <ele>124.6280518</ele>
        <time>2011-05-27T14:49:06Z</time>
      </trkpt>
      <trkpt lat="44.45655" lon="4.33507">
        <ele>124.1473389</ele>
        <time>2011-05-27T14:49:08Z</time>
      </trkpt>
      <trkpt lat="44.45644" lon="4.33516">
        <ele>123.1861572</ele>
        <time>2011-05-27T14:49:10Z</time>
      </trkpt>
      <trkpt lat="44.45633" lon="4.33524">
        <ele>123.1861572</ele>
        <time>2011-05-27T14:49:12Z</time>
      </trkpt>
      <trkpt lat="44.4562" lon="4.33532">
        <ele>122.7054443</ele>
        <time>2011-05-27T14:49:14Z</time>
      </trkpt>
      <trkpt lat="44.4561" lon="4.3354">
        <ele>122.2247314</ele>
        <time>2011-05-27T14:49:16Z</time>
      </trkpt>
      <trkpt lat="44.45598" lon="4.33548">
        <ele>122.7054443</ele>
        <time>2011-05-27T14:49:18Z</time>
      </trkpt>
      <trkpt lat="44.45587" lon="4.33558">
        <ele>123.1861572</ele>
        <time>2011-05-27T14:49:20Z</time>
      </trkpt>
      <trkpt lat="44.45576" lon="4.33566">
        <ele>123.1861572</ele>
        <time>2011-05-27T14:49:22Z</time>
      </trkpt>
      <trkpt lat="44.45566" lon="4.33576">
        <ele>123.1861572</ele>
        <time>2011-05-27T14:49:24Z</time>
      </trkpt>
      <trkpt lat="44.45558" lon="4.33589">
        <ele>123.1861572</ele>
        <time>2011-05-27T14:49:26Z</time>
      </trkpt>
      <trkpt lat="44.45552" lon="4.33603">
        <ele>122.7054443</ele>
        <time>2011-05-27T14:49:28Z</time>
      </trkpt>
      <trkpt lat="44.45548" lon="4.3362">
        <ele>123.1861572</ele>
        <time>2011-05-27T14:49:30Z</time>
      </trkpt>
      <trkpt lat="44.45546" lon="4.33637">
        <ele>122.2247314</ele>
        <time>2011-05-27T14:49:32Z</time>
      </trkpt>
      <trkpt lat="44.45546" lon="4.33654">
        <ele>122.2247314</ele>
        <time>2011-05-27T14:49:34Z</time>
      </trkpt>
      <trkpt lat="44.45548" lon="4.33672">
        <ele>122.2247314</ele>
        <time>2011-05-27T14:49:36Z</time>
      </trkpt>
      <trkpt lat="44.45551" lon="4.33688">
        <ele>121.7441406</ele>
        <time>2011-05-27T14:49:38Z</time>
      </trkpt>
      <trkpt lat="44.45553" lon="4.33703">
        <ele>122.2247314</ele>
        <time>2011-05-27T14:49:40Z</time>
      </trkpt>
      <trkpt lat="44.45555" lon="4.33719">
        <ele>122.2247314</ele>
        <time>2011-05-27T14:49:42Z</time>
      </trkpt>
      <trkpt lat="44.45554" lon="4.33734">
        <ele>122.2247314</ele>
        <time>2011-05-27T14:49:44Z</time>
      </trkpt>
      <trkpt lat="44.4555" lon="4.33748">
        <ele>122.2247314</ele>
        <time>2011-05-27T14:49:46Z</time>
      </trkpt>
      <trkpt lat="44.45544" lon="4.3376">
        <ele>121.7441406</ele>
        <time>2011-05-27T14:49:48Z</time>
      </trkpt>
      <trkpt lat="44.45539" lon="4.33773">
        <ele>121.7441406</ele>
        <time>2011-05-27T14:49:51Z</time>
      </trkpt>
      <trkpt lat="44.45535" lon="4.33785">
        <ele>121.7441406</ele>
        <time>2011-05-27T14:49:55Z</time>
      </trkpt>
      <trkpt lat="44.45543" lon="4.33774">
        <ele>121.2635498</ele>
        <time>2011-05-27T14:50:00Z</time>
      </trkpt>
      <trkpt lat="44.45549" lon="4.33761">
        <ele>121.7441406</ele>
        <time>2011-05-27T14:50:03Z</time>
      </trkpt>
      <trkpt lat="44.45554" lon="4.33747">
        <ele>120.7828369</ele>
        <time>2011-05-27T14:50:06Z</time>
      </trkpt>
      <trkpt lat="44.45558" lon="4.33733">
        <ele>121.7441406</ele>
        <time>2011-05-27T14:50:09Z</time>
      </trkpt>
      <trkpt lat="44.4556" lon="4.33716">
        <ele>122.2247314</ele>
        <time>2011-05-27T14:50:12Z</time>
      </trkpt>
      <trkpt lat="44.45558" lon="4.33699">
        <ele>122.7054443</ele>
        <time>2011-05-27T14:50:15Z</time>
      </trkpt>
      <trkpt lat="44.45556" lon="4.33682">
        <ele>122.7054443</ele>
        <time>2011-05-27T14:50:18Z</time>
      </trkpt>
      <trkpt lat="44.45554" lon="4.33668">
        <ele>123.1861572</ele>
        <time>2011-05-27T14:50:21Z</time>
      </trkpt>
      <trkpt lat="44.45548" lon="4.33653">
        <ele>123.1861572</ele>
        <time>2011-05-27T14:50:25Z</time>
      </trkpt>
      <trkpt lat="44.45537" lon="4.33652">
        <ele>122.7054443</ele>
        <time>2011-05-27T14:50:28Z</time>
      </trkpt>
      <trkpt lat="44.45525" lon="4.33644">
        <ele>122.2247314</ele>
        <time>2011-05-27T14:50:31Z</time>
      </trkpt>
      <trkpt lat="44.45515" lon="4.33637">
        <ele>121.2635498</ele>
        <time>2011-05-27T14:50:33Z</time>
      </trkpt>
      <trkpt lat="44.45504" lon="4.33629">
        <ele>120.302124</ele>
        <time>2011-05-27T14:50:35Z</time>
      </trkpt>
      <trkpt lat="44.45492" lon="4.33621">
        <ele>119.8214111</ele>
        <time>2011-05-27T14:50:37Z</time>
      </trkpt>
      <trkpt lat="44.4548" lon="4.33611">
        <ele>118.8601074</ele>
        <time>2011-05-27T14:50:39Z</time>
      </trkpt>
      <trkpt lat="44.45468" lon="4.336">
        <ele>118.3793945</ele>
        <time>2011-05-27T14:50:41Z</time>
      </trkpt>
      <trkpt lat="44.45459" lon="4.33585">
        <ele>117.8988037</ele>
        <time>2011-05-27T14:50:43Z</time>
      </trkpt>
      <trkpt lat="44.45455" lon="4.33568">
        <ele>117.8988037</ele>
        <time>2011-05-27T14:50:45Z</time>
      </trkpt>
      <trkpt lat="44.45453" lon="4.33555">
        <ele>117.4182129</ele>
        <time>2011-05-27T14:50:48Z</time>
      </trkpt>
      <trkpt lat="44.45455" lon="4.33541">
        <ele>116.4567871</ele>
        <time>2011-05-27T14:50:53Z</time>
      </trkpt>
      <trkpt lat="44.45456" lon="4.33552">
        <ele>117.4182129</ele>
        <time>2011-05-27T14:51:02Z</time>
      </trkpt>
      <trkpt lat="44.45457" lon="4.3357">
        <ele>117.4182129</ele>
        <time>2011-05-27T14:51:07Z</time>
      </trkpt>
      <trkpt lat="44.45461" lon="4.33584">
        <ele>118.3793945</ele>
        <time>2011-05-27T14:51:10Z</time>
      </trkpt>
      <trkpt lat="44.45468" lon="4.33599">
        <ele>117.4182129</ele>
        <time>2011-05-27T14:51:13Z</time>
      </trkpt>
      <trkpt lat="44.45476" lon="4.33609">
        <ele>118.8601074</ele>
        <time>2011-05-27T14:51:16Z</time>
      </trkpt>
      <trkpt lat="44.45485" lon="4.33615">
        <ele>118.8601074</ele>
        <time>2011-05-27T14:51:19Z</time>
      </trkpt>
      <trkpt lat="44.45494" lon="4.33621">
        <ele>119.3408203</ele>
        <time>2011-05-27T14:51:22Z</time>
      </trkpt>
      <trkpt lat="44.45503" lon="4.33628">
        <ele>119.8214111</ele>
        <time>2011-05-27T14:51:25Z</time>
      </trkpt>
      <trkpt lat="44.45511" lon="4.33634">
        <ele>120.7828369</ele>
        <time>2011-05-27T14:51:28Z</time>
      </trkpt>
      <trkpt lat="44.45522" lon="4.33642">
        <ele>122.2247314</ele>
        <time>2011-05-27T14:51:32Z</time>
      </trkpt>
      <trkpt lat="44.45531" lon="4.33649">
        <ele>122.7054443</ele>
        <time>2011-05-27T14:51:35Z</time>
      </trkpt>
      <trkpt lat="44.45539" lon="4.33656">
        <ele>123.1861572</ele>
        <time>2011-05-27T14:51:38Z</time>
      </trkpt>
      <trkpt lat="44.45547" lon="4.33663">
        <ele>123.666748</ele>
        <time>2011-05-27T14:51:41Z</time>
      </trkpt>
      <trkpt lat="44.45552" lon="4.33677">
        <ele>123.666748</ele>
        <time>2011-05-27T14:51:44Z</time>
      </trkpt>
      <trkpt lat="44.45554" lon="4.33689">
        <ele>122.7054443</ele>
        <time>2011-05-27T14:51:46Z</time>
      </trkpt>
      <trkpt lat="44.45556" lon="4.33713">
        <ele>122.7054443</ele>
        <time>2011-05-27T14:51:50Z</time>
      </trkpt>
      <trkpt lat="44.45555" lon="4.33731">
        <ele>122.7054443</ele>
        <time>2011-05-27T14:51:53Z</time>
      </trkpt>
      <trkpt lat="44.45549" lon="4.33748">
        <ele>122.7054443</ele>
        <time>2011-05-27T14:51:56Z</time>
      </trkpt>
      <trkpt lat="44.45542" lon="4.33764">
        <ele>122.2247314</ele>
        <time>2011-05-27T14:51:59Z</time>
      </trkpt>
      <trkpt lat="44.45536" lon="4.33781">
        <ele>122.7054443</ele>
        <time>2011-05-27T14:52:02Z</time>
      </trkpt>
      <trkpt lat="44.45525" lon="4.33805">
        <ele>122.7054443</ele>
        <time>2011-05-27T14:52:06Z</time>
      </trkpt>
      <trkpt lat="44.4552" lon="4.33818">
        <ele>121.7441406</ele>
        <time>2011-05-27T14:52:08Z</time>
      </trkpt>
      <trkpt lat="44.45515" lon="4.33831">
        <ele>121.7441406</ele>
        <time>2011-05-27T14:52:10Z</time>
      </trkpt>
      <trkpt lat="44.45507" lon="4.33849">
        <ele>121.7441406</ele>
        <time>2011-05-27T14:52:13Z</time>
      </trkpt>
      <trkpt lat="44.45502" lon="4.33861">
        <ele>122.2247314</ele>
        <time>2011-05-27T14:52:15Z</time>
      </trkpt>
      <trkpt lat="44.45497" lon="4.33874">
        <ele>122.2247314</ele>
        <time>2011-05-27T14:52:17Z</time>
      </trkpt>
      <trkpt lat="44.45493" lon="4.33887">
        <ele>122.7054443</ele>
        <time>2011-05-27T14:52:19Z</time>
      </trkpt>
      <trkpt lat="44.45488" lon="4.339">
        <ele>122.7054443</ele>
        <time>2011-05-27T14:52:21Z</time>
      </trkpt>
      <trkpt lat="44.45484" lon="4.3391">
        <ele>122.7054443</ele>
        <time>2011-05-27T14:52:23Z</time>
      </trkpt>
      <trkpt lat="44.45479" lon="4.33923">
        <ele>123.1861572</ele>
        <time>2011-05-27T14:52:26Z</time>
      </trkpt>
      <trkpt lat="44.45474" lon="4.33936">
        <ele>123.666748</ele>
        <time>2011-05-27T14:52:29Z</time>
      </trkpt>
      <trkpt lat="44.45468" lon="4.33951">
        <ele>124.1473389</ele>
        <time>2011-05-27T14:52:32Z</time>
      </trkpt>
      <trkpt lat="44.45461" lon="4.33964">
        <ele>124.1473389</ele>
        <time>2011-05-27T14:52:35Z</time>
      </trkpt>
      <trkpt lat="44.45455" lon="4.33978">
        <ele>124.1473389</ele>
        <time>2011-05-27T14:52:38Z</time>
      </trkpt>
      <trkpt lat="44.45449" lon="4.33992">
        <ele>124.6280518</ele>
        <time>2011-05-27T14:52:41Z</time>
      </trkpt>
      <trkpt lat="44.45443" lon="4.34004">
        <ele>125.1087646</ele>
        <time>2011-05-27T14:52:44Z</time>
      </trkpt>
      <trkpt lat="44.45439" lon="4.34021">
        <ele>126.0699463</ele>
        <time>2011-05-27T14:54:37Z</time>
      </trkpt>
      <trkpt lat="44.45428" lon="4.34018">
        <ele>125.5893555</ele>
        <time>2011-05-27T14:54:42Z</time>
      </trkpt>
      <trkpt lat="44.45418" lon="4.34014">
        <ele>125.5893555</ele>
        <time>2011-05-27T14:54:45Z</time>
      </trkpt>
      <trkpt lat="44.45408" lon="4.3401">
        <ele>124.6280518</ele>
        <time>2011-05-27T14:54:48Z</time>
      </trkpt>
      <trkpt lat="44.45399" lon="4.34007">
        <ele>124.1473389</ele>
        <time>2011-05-27T14:54:51Z</time>
      </trkpt>
      <trkpt lat="44.45396" lon="4.33995">
        <ele>125.1087646</ele>
        <time>2011-05-27T14:54:55Z</time>
      </trkpt>
      <trkpt lat="44.45402" lon="4.33984">
        <ele>124.1473389</ele>
        <time>2011-05-27T14:54:58Z</time>
      </trkpt>
      <trkpt lat="44.45409" lon="4.33971">
        <ele>125.1087646</ele>
        <time>2011-05-27T14:55:01Z</time>
      </trkpt>
      <trkpt lat="44.45418" lon="4.33958">
        <ele>125.5893555</ele>
        <time>2011-05-27T14:55:04Z</time>
      </trkpt>
      <trkpt lat="44.45427" lon="4.33945">
        <ele>126.0699463</ele>
        <time>2011-05-27T14:55:07Z</time>
      </trkpt>
      <trkpt lat="44.45433" lon="4.33933">
        <ele>125.5893555</ele>
        <time>2011-05-27T14:55:10Z</time>
      </trkpt>
      <trkpt lat="44.4544" lon="4.33921">
        <ele>126.0699463</ele>
        <time>2011-05-27T14:55:13Z</time>
      </trkpt>
      <trkpt lat="44.45446" lon="4.33906">
        <ele>125.1087646</ele>
        <time>2011-05-27T14:55:16Z</time>
      </trkpt>
      <trkpt lat="44.45444" lon="4.33894">
        <ele>125.5893555</ele>
        <time>2011-05-27T14:55:18Z</time>
      </trkpt>
      <trkpt lat="44.45437" lon="4.33879">
        <ele>125.1087646</ele>
        <time>2011-05-27T14:55:21Z</time>
      </trkpt>
      <trkpt lat="44.4543" lon="4.33866">
        <ele>124.6280518</ele>
        <time>2011-05-27T14:55:24Z</time>
      </trkpt>
      <trkpt lat="44.45422" lon="4.33859">
        <ele>124.6280518</ele>
        <time>2011-05-27T14:55:26Z</time>
      </trkpt>
      <trkpt lat="44.45412" lon="4.33853">
        <ele>123.666748</ele>
        <time>2011-05-27T14:55:28Z</time>
      </trkpt>
      <trkpt lat="44.454" lon="4.3385">
        <ele>123.1861572</ele>
        <time>2011-05-27T14:55:30Z</time>
      </trkpt>
      <trkpt lat="44.45388" lon="4.33852">
        <ele>121.7441406</ele>
        <time>2011-05-27T14:55:32Z</time>
      </trkpt>
      <trkpt lat="44.45377" lon="4.33856">
        <ele>121.2635498</ele>
        <time>2011-05-27T14:55:34Z</time>
      </trkpt>
      <trkpt lat="44.45367" lon="4.33855">
        <ele>120.302124</ele>
        <time>2011-05-27T14:55:36Z</time>
      </trkpt>
      <trkpt lat="44.45362" lon="4.33843">
        <ele>120.7828369</ele>
        <time>2011-05-27T14:55:38Z</time>
      </trkpt>
      <trkpt lat="44.4536" lon="4.33828">
        <ele>119.8214111</ele>
        <time>2011-05-27T14:55:40Z</time>
      </trkpt>
      <trkpt lat="44.45357" lon="4.33812">
        <ele>119.8214111</ele>
        <time>2011-05-27T14:55:42Z</time>
      </trkpt>
      <trkpt lat="44.45354" lon="4.33795">
        <ele>119.8214111</ele>
        <time>2011-05-27T14:55:44Z</time>
      </trkpt>
      <trkpt lat="44.45351" lon="4.33777">
        <ele>118.8601074</ele>
        <time>2011-05-27T14:55:46Z</time>
      </trkpt>
      <trkpt lat="44.45348" lon="4.33759">
        <ele>118.3793945</ele>
        <time>2011-05-27T14:55:48Z</time>
      </trkpt>
      <trkpt lat="44.45345" lon="4.33742">
        <ele>117.4182129</ele>
        <time>2011-05-27T14:55:50Z</time>
      </trkpt>
      <trkpt lat="44.45342" lon="4.33724">
        <ele>117.4182129</ele>
        <time>2011-05-27T14:55:52Z</time>
      </trkpt>
      <trkpt lat="44.45339" lon="4.33707">
        <ele>116.4567871</ele>
        <time>2011-05-27T14:55:54Z</time>
      </trkpt>
      <trkpt lat="44.45336" lon="4.33689">
        <ele>115.4956055</ele>
        <time>2011-05-27T14:55:56Z</time>
      </trkpt>
      <trkpt lat="44.45333" lon="4.33671">
        <ele>114.5341797</ele>
        <time>2011-05-27T14:55:58Z</time>
      </trkpt>
      <trkpt lat="44.45331" lon="4.33652">
        <ele>113.572998</ele>
        <time>2011-05-27T14:56:00Z</time>
      </trkpt>
      <trkpt lat="44.45328" lon="4.33633">
        <ele>113.572998</ele>
        <time>2011-05-27T14:56:02Z</time>
      </trkpt>
      <trkpt lat="44.45324" lon="4.33618">
        <ele>113.0922852</ele>
        <time>2011-05-27T14:56:04Z</time>
      </trkpt>
      <trkpt lat="44.45315" lon="4.33614">
        <ele>113.0922852</ele>
        <time>2011-05-27T14:56:06Z</time>
      </trkpt>
      <trkpt lat="44.45305" lon="4.33618">
        <ele>113.0922852</ele>
        <time>2011-05-27T14:56:08Z</time>
      </trkpt>
      <trkpt lat="44.45295" lon="4.33623">
        <ele>113.572998</ele>
        <time>2011-05-27T14:56:10Z</time>
      </trkpt>
      <trkpt lat="44.45285" lon="4.33629">
        <ele>113.0922852</ele>
        <time>2011-05-27T14:56:12Z</time>
      </trkpt>
      <trkpt lat="44.45275" lon="4.33636">
        <ele>114.0535889</ele>
        <time>2011-05-27T14:56:14Z</time>
      </trkpt>
      <trkpt lat="44.45265" lon="4.33642">
        <ele>114.0535889</ele>
        <time>2011-05-27T14:56:16Z</time>
      </trkpt>
      <trkpt lat="44.45254" lon="4.33649">
        <ele>114.5341797</ele>
        <time>2011-05-27T14:56:18Z</time>
      </trkpt>
      <trkpt lat="44.45244" lon="4.33655">
        <ele>115.0148926</ele>
        <time>2011-05-27T14:56:20Z</time>
      </trkpt>
      <trkpt lat="44.45233" lon="4.33662">
        <ele>115.4956055</ele>
        <time>2011-05-27T14:56:22Z</time>
      </trkpt>
      <trkpt lat="44.45223" lon="4.33668">
        <ele>115.4956055</ele>
        <time>2011-05-27T14:56:24Z</time>
      </trkpt>
      <trkpt lat="44.45212" lon="4.33674">
        <ele>115.0148926</ele>
        <time>2011-05-27T14:56:26Z</time>
      </trkpt>
      <trkpt lat="44.45201" lon="4.3368">
        <ele>115.0148926</ele>
        <time>2011-05-27T14:56:28Z</time>
      </trkpt>
      <trkpt lat="44.4519" lon="4.33687">
        <ele>114.5341797</ele>
        <time>2011-05-27T14:56:30Z</time>
      </trkpt>
      <trkpt lat="44.45179" lon="4.33694">
        <ele>114.5341797</ele>
        <time>2011-05-27T14:56:32Z</time>
      </trkpt>
      <trkpt lat="44.45169" lon="4.33702">
        <ele>115.0148926</ele>
        <time>2011-05-27T14:56:34Z</time>
      </trkpt>
      <trkpt lat="44.45158" lon="4.3371">
        <ele>115.0148926</ele>
        <time>2011-05-27T14:56:36Z</time>
      </trkpt>
      <trkpt lat="44.45149" lon="4.33718">
        <ele>115.0148926</ele>
        <time>2011-05-27T14:56:38Z</time>
      </trkpt>
      <trkpt lat="44.4514" lon="4.33727">
        <ele>115.0148926</ele>
        <time>2011-05-27T14:56:40Z</time>
      </trkpt>
      <trkpt lat="44.45131" lon="4.33737">
        <ele>114.5341797</ele>
        <time>2011-05-27T14:56:42Z</time>
      </trkpt>
      <trkpt lat="44.45123" lon="4.33747">
        <ele>114.0535889</ele>
        <time>2011-05-27T14:56:44Z</time>
      </trkpt>
      <trkpt lat="44.45115" lon="4.33759">
        <ele>114.0535889</ele>
        <time>2011-05-27T14:56:46Z</time>
      </trkpt>
      <trkpt lat="44.45107" lon="4.33771">
        <ele>115.0148926</ele>
        <time>2011-05-27T14:56:48Z</time>
      </trkpt>
      <trkpt lat="44.451" lon="4.33783">
        <ele>115.9761963</ele>
        <time>2011-05-27T14:56:50Z</time>
      </trkpt>
      <trkpt lat="44.45092" lon="4.33795">
        <ele>115.4956055</ele>
        <time>2011-05-27T14:56:52Z</time>
      </trkpt>
      <trkpt lat="44.45087" lon="4.33808">
        <ele>115.4956055</ele>
        <time>2011-05-27T14:56:54Z</time>
      </trkpt>
      <trkpt lat="44.45081" lon="4.33826">
        <ele>115.0148926</ele>
        <time>2011-05-27T14:56:56Z</time>
      </trkpt>
      <trkpt lat="44.45073" lon="4.33836">
        <ele>115.4956055</ele>
        <time>2011-05-27T14:56:58Z</time>
      </trkpt>
      <trkpt lat="44.45065" lon="4.33845">
        <ele>115.9761963</ele>
        <time>2011-05-27T14:57:00Z</time>
      </trkpt>
      <trkpt lat="44.45058" lon="4.33857">
        <ele>115.9761963</ele>
        <time>2011-05-27T14:57:02Z</time>
      </trkpt>
      <trkpt lat="44.45053" lon="4.33867">
        <ele>115.9761963</ele>
        <time>2011-05-27T14:57:04Z</time>
      </trkpt>
      <trkpt lat="44.45049" lon="4.33881">
        <ele>115.9761963</ele>
        <time>2011-05-27T14:57:06Z</time>
      </trkpt>
      <trkpt lat="44.45044" lon="4.33894">
        <ele>115.9761963</ele>
        <time>2011-05-27T14:57:08Z</time>
      </trkpt>
      <trkpt lat="44.45036" lon="4.339">
        <ele>115.0148926</ele>
        <time>2011-05-27T14:57:10Z</time>
      </trkpt>
      <trkpt lat="44.45025" lon="4.33899">
        <ele>114.5341797</ele>
        <time>2011-05-27T14:57:12Z</time>
      </trkpt>
      <trkpt lat="44.45014" lon="4.33898">
        <ele>114.5341797</ele>
        <time>2011-05-27T14:57:14Z</time>
      </trkpt>
      <trkpt lat="44.45002" lon="4.33898">
        <ele>115.0148926</ele>
        <time>2011-05-27T14:57:16Z</time>
      </trkpt>
      <trkpt lat="44.4499" lon="4.33897">
        <ele>114.5341797</ele>
        <time>2011-05-27T14:57:18Z</time>
      </trkpt>
      <trkpt lat="44.44978" lon="4.33897">
        <ele>114.5341797</ele>
        <time>2011-05-27T14:57:20Z</time>
      </trkpt>
      <trkpt lat="44.44966" lon="4.33896">
        <ele>115.0148926</ele>
        <time>2011-05-27T14:57:22Z</time>
      </trkpt>
      <trkpt lat="44.44953" lon="4.33895">
        <ele>115.0148926</ele>
        <time>2011-05-27T14:57:24Z</time>
      </trkpt>
      <trkpt lat="44.4494" lon="4.33894">
        <ele>114.5341797</ele>
        <time>2011-05-27T14:57:26Z</time>
      </trkpt>
      <trkpt lat="44.44927" lon="4.33895">
        <ele>114.5341797</ele>
        <time>2011-05-27T14:57:28Z</time>
      </trkpt>
      <trkpt lat="44.44913" lon="4.33896">
        <ele>114.5341797</ele>
        <time>2011-05-27T14:57:30Z</time>
      </trkpt>
      <trkpt lat="44.449" lon="4.33898">
        <ele>115.0148926</ele>
        <time>2011-05-27T14:57:32Z</time>
      </trkpt>
      <trkpt lat="44.44886" lon="4.33899">
        <ele>114.5341797</ele>
        <time>2011-05-27T14:57:34Z</time>
      </trkpt>
      <trkpt lat="44.44873" lon="4.339">
        <ele>114.0535889</ele>
        <time>2011-05-27T14:57:36Z</time>
      </trkpt>
      <trkpt lat="44.44859" lon="4.33901">
        <ele>114.0535889</ele>
        <time>2011-05-27T14:57:38Z</time>
      </trkpt>
      <trkpt lat="44.44845" lon="4.33903">
        <ele>114.0535889</ele>
        <time>2011-05-27T14:57:40Z</time>
      </trkpt>
      <trkpt lat="44.44832" lon="4.33905">
        <ele>114.5341797</ele>
        <time>2011-05-27T14:57:42Z</time>
      </trkpt>
      <trkpt lat="44.44819" lon="4.33908">
        <ele>113.572998</ele>
        <time>2011-05-27T14:57:44Z</time>
      </trkpt>
      <trkpt lat="44.44806" lon="4.33912">
        <ele>113.572998</ele>
        <time>2011-05-27T14:57:46Z</time>
      </trkpt>
      <trkpt lat="44.44793" lon="4.33919">
        <ele>114.0535889</ele>
        <time>2011-05-27T14:57:48Z</time>
      </trkpt>
      <trkpt lat="44.44781" lon="4.33925">
        <ele>114.0535889</ele>
        <time>2011-05-27T14:57:50Z</time>
      </trkpt>
      <trkpt lat="44.44769" lon="4.33931">
        <ele>114.0535889</ele>
        <time>2011-05-27T14:57:52Z</time>
      </trkpt>
      <trkpt lat="44.44757" lon="4.33938">
        <ele>113.572998</ele>
        <time>2011-05-27T14:57:54Z</time>
      </trkpt>
      <trkpt lat="44.44745" lon="4.33944">
        <ele>113.572998</ele>
        <time>2011-05-27T14:57:56Z</time>
      </trkpt>
      <trkpt lat="44.44734" lon="4.3395">
        <ele>114.5341797</ele>
        <time>2011-05-27T14:57:58Z</time>
      </trkpt>
      <trkpt lat="44.44723" lon="4.33955">
        <ele>113.0922852</ele>
        <time>2011-05-27T14:58:00Z</time>
      </trkpt>
      <trkpt lat="44.44711" lon="4.3396">
        <ele>113.0922852</ele>
        <time>2011-05-27T14:58:02Z</time>
      </trkpt>
      <trkpt lat="44.44699" lon="4.33964">
        <ele>113.572998</ele>
        <time>2011-05-27T14:58:04Z</time>
      </trkpt>
      <trkpt lat="44.44687" lon="4.33967">
        <ele>113.572998</ele>
        <time>2011-05-27T14:58:06Z</time>
      </trkpt>
      <trkpt lat="44.44675" lon="4.3397">
        <ele>113.572998</ele>
        <time>2011-05-27T14:58:08Z</time>
      </trkpt>
      <trkpt lat="44.44663" lon="4.33974">
        <ele>113.0922852</ele>
        <time>2011-05-27T14:58:10Z</time>
      </trkpt>
      <trkpt lat="44.44651" lon="4.33978">
        <ele>113.572998</ele>
        <time>2011-05-27T14:58:12Z</time>
      </trkpt>
      <trkpt lat="44.44638" lon="4.33981">
        <ele>114.0535889</ele>
        <time>2011-05-27T14:58:14Z</time>
      </trkpt>
      <trkpt lat="44.44625" lon="4.33984">
        <ele>114.5341797</ele>
        <time>2011-05-27T14:58:16Z</time>
      </trkpt>
      <trkpt lat="44.44612" lon="4.33987">
        <ele>114.5341797</ele>
        <time>2011-05-27T14:58:18Z</time>
      </trkpt>
      <trkpt lat="44.44599" lon="4.33988">
        <ele>114.0535889</ele>
        <time>2011-05-27T14:58:20Z</time>
      </trkpt>
      <trkpt lat="44.44587" lon="4.33988">
        <ele>113.572998</ele>
        <time>2011-05-27T14:58:22Z</time>
      </trkpt>
      <trkpt lat="44.44575" lon="4.33987">
        <ele>113.572998</ele>
        <time>2011-05-27T14:58:24Z</time>
      </trkpt>
      <trkpt lat="44.44563" lon="4.33987">
        <ele>114.0535889</ele>
        <time>2011-05-27T14:58:26Z</time>
      </trkpt>
      <trkpt lat="44.44552" lon="4.33986">
        <ele>113.572998</ele>
        <time>2011-05-27T14:58:28Z</time>
      </trkpt>
      <trkpt lat="44.44539" lon="4.33985">
        <ele>114.5341797</ele>
        <time>2011-05-27T14:58:30Z</time>
      </trkpt>
      <trkpt lat="44.44527" lon="4.33982">
        <ele>113.572998</ele>
        <time>2011-05-27T14:58:32Z</time>
      </trkpt>
      <trkpt lat="44.44514" lon="4.33979">
        <ele>113.572998</ele>
        <time>2011-05-27T14:58:34Z</time>
      </trkpt>
      <trkpt lat="44.44502" lon="4.33975">
        <ele>112.1309814</ele>
        <time>2011-05-27T14:58:36Z</time>
      </trkpt>
      <trkpt lat="44.44489" lon="4.33971">
        <ele>113.0922852</ele>
        <time>2011-05-27T14:58:38Z</time>
      </trkpt>
      <trkpt lat="44.44476" lon="4.33967">
        <ele>112.6115723</ele>
        <time>2011-05-27T14:58:40Z</time>
      </trkpt>
      <trkpt lat="44.44463" lon="4.33962">
        <ele>112.6115723</ele>
        <time>2011-05-27T14:58:42Z</time>
      </trkpt>
      <trkpt lat="44.44451" lon="4.33957">
        <ele>112.6115723</ele>
        <time>2011-05-27T14:58:44Z</time>
      </trkpt>
      <trkpt lat="44.44438" lon="4.33952">
        <ele>113.0922852</ele>
        <time>2011-05-27T14:58:46Z</time>
      </trkpt>
      <trkpt lat="44.44425" lon="4.33945">
        <ele>112.6115723</ele>
        <time>2011-05-27T14:58:48Z</time>
      </trkpt>
      <trkpt lat="44.44411" lon="4.33941">
        <ele>113.0922852</ele>
        <time>2011-05-27T14:58:50Z</time>
      </trkpt>
      <trkpt lat="44.44397" lon="4.3394">
        <ele>113.572998</ele>
        <time>2011-05-27T14:58:52Z</time>
      </trkpt>
      <trkpt lat="44.44384" lon="4.33941">
        <ele>113.572998</ele>
        <time>2011-05-27T14:58:54Z</time>
      </trkpt>
      <trkpt lat="44.4437" lon="4.33942">
        <ele>113.572998</ele>
        <time>2011-05-27T14:58:56Z</time>
      </trkpt>
      <trkpt lat="44.44357" lon="4.33944">
        <ele>113.572998</ele>
        <time>2011-05-27T14:58:58Z</time>
      </trkpt>
      <trkpt lat="44.44344" lon="4.33945">
        <ele>113.572998</ele>
        <time>2011-05-27T14:59:00Z</time>
      </trkpt>
      <trkpt lat="44.44332" lon="4.33946">
        <ele>113.0922852</ele>
        <time>2011-05-27T14:59:02Z</time>
      </trkpt>
      <trkpt lat="44.44321" lon="4.33947">
        <ele>113.572998</ele>
        <time>2011-05-27T14:59:04Z</time>
      </trkpt>
      <trkpt lat="44.44309" lon="4.33948">
        <ele>113.0922852</ele>
        <time>2011-05-27T14:59:06Z</time>
      </trkpt>
      <trkpt lat="44.44296" lon="4.33949">
        <ele>113.572998</ele>
        <time>2011-05-27T14:59:08Z</time>
      </trkpt>
      <trkpt lat="44.44284" lon="4.3395">
        <ele>113.0922852</ele>
        <time>2011-05-27T14:59:10Z</time>
      </trkpt>
      <trkpt lat="44.44271" lon="4.33952">
        <ele>113.572998</ele>
        <time>2011-05-27T14:59:12Z</time>
      </trkpt>
      <trkpt lat="44.44259" lon="4.33955">
        <ele>113.0922852</ele>
        <time>2011-05-27T14:59:14Z</time>
      </trkpt>
      <trkpt lat="44.44246" lon="4.33957">
        <ele>113.0922852</ele>
        <time>2011-05-27T14:59:16Z</time>
      </trkpt>
      <trkpt lat="44.44234" lon="4.3396">
        <ele>113.0922852</ele>
        <time>2011-05-27T14:59:18Z</time>
      </trkpt>
      <trkpt lat="44.44221" lon="4.33964">
        <ele>112.6115723</ele>
        <time>2011-05-27T14:59:20Z</time>
      </trkpt>
      <trkpt lat="44.44209" lon="4.33969">
        <ele>112.1309814</ele>
        <time>2011-05-27T14:59:22Z</time>
      </trkpt>
      <trkpt lat="44.44197" lon="4.33975">
        <ele>112.6115723</ele>
        <time>2011-05-27T14:59:24Z</time>
      </trkpt>
      <trkpt lat="44.44185" lon="4.33981">
        <ele>112.6115723</ele>
        <time>2011-05-27T14:59:26Z</time>
      </trkpt>
      <trkpt lat="44.44173" lon="4.33987">
        <ele>112.1309814</ele>
        <time>2011-05-27T14:59:28Z</time>
      </trkpt>
      <trkpt lat="44.44162" lon="4.33993">
        <ele>112.6115723</ele>
        <time>2011-05-27T14:59:30Z</time>
      </trkpt>
      <trkpt lat="44.4415" lon="4.34">
        <ele>112.1309814</ele>
        <time>2011-05-27T14:59:32Z</time>
      </trkpt>
      <trkpt lat="44.44139" lon="4.34009">
        <ele>112.6115723</ele>
        <time>2011-05-27T14:59:34Z</time>
      </trkpt>
      <trkpt lat="44.44129" lon="4.3402">
        <ele>112.1309814</ele>
        <time>2011-05-27T14:59:36Z</time>
      </trkpt>
      <trkpt lat="44.44119" lon="4.34034">
        <ele>111.6502686</ele>
        <time>2011-05-27T14:59:38Z</time>
      </trkpt>
      <trkpt lat="44.44109" lon="4.34048">
        <ele>111.6502686</ele>
        <time>2011-05-27T14:59:40Z</time>
      </trkpt>
      <trkpt lat="44.441" lon="4.34063">
        <ele>111.6502686</ele>
        <time>2011-05-27T14:59:42Z</time>
      </trkpt>
      <trkpt lat="44.4409" lon="4.34076">
        <ele>111.6502686</ele>
        <time>2011-05-27T14:59:44Z</time>
      </trkpt>
      <trkpt lat="44.44083" lon="4.34089">
        <ele>112.1309814</ele>
        <time>2011-05-27T14:59:46Z</time>
      </trkpt>
      <trkpt lat="44.44076" lon="4.34101">
        <ele>112.1309814</ele>
        <time>2011-05-27T14:59:48Z</time>
      </trkpt>
      <trkpt lat="44.4407" lon="4.34113">
        <ele>112.1309814</ele>
        <time>2011-05-27T14:59:50Z</time>
      </trkpt>
      <trkpt lat="44.44064" lon="4.34124">
        <ele>112.6115723</ele>
        <time>2011-05-27T14:59:52Z</time>
      </trkpt>
      <trkpt lat="44.44054" lon="4.3413">
        <ele>113.0922852</ele>
        <time>2011-05-27T14:59:55Z</time>
      </trkpt>
      <trkpt lat="44.44045" lon="4.34125">
        <ele>114.0535889</ele>
        <time>2011-05-27T14:59:58Z</time>
      </trkpt>
      <trkpt lat="44.44037" lon="4.34127">
        <ele>114.0535889</ele>
        <time>2011-05-27T15:00:02Z</time>
      </trkpt>
      <trkpt lat="44.44044" lon="4.34135">
        <ele>115.0148926</ele>
        <time>2011-05-27T15:00:06Z</time>
      </trkpt>
      <trkpt lat="44.44054" lon="4.34143">
        <ele>114.5341797</ele>
        <time>2011-05-27T15:00:10Z</time>
      </trkpt>
      <trkpt lat="44.44062" lon="4.34153">
        <ele>115.0148926</ele>
        <time>2011-05-27T15:00:14Z</time>
      </trkpt>
      <trkpt lat="44.44071" lon="4.34163">
        <ele>115.9761963</ele>
        <time>2011-05-27T15:00:18Z</time>
      </trkpt>
      <trkpt lat="44.44082" lon="4.34173">
        <ele>116.4567871</ele>
        <time>2011-05-27T15:00:22Z</time>
      </trkpt>
      <trkpt lat="44.4409" lon="4.3418">
        <ele>117.8988037</ele>
        <time>2011-05-27T15:00:25Z</time>
      </trkpt>
      <trkpt lat="44.441" lon="4.34186">
        <ele>118.8601074</ele>
        <time>2011-05-27T15:00:28Z</time>
      </trkpt>
      <trkpt lat="44.4411" lon="4.34194">
        <ele>118.8601074</ele>
        <time>2011-05-27T15:00:31Z</time>
      </trkpt>
      <trkpt lat="44.4412" lon="4.34203">
        <ele>118.8601074</ele>
        <time>2011-05-27T15:00:34Z</time>
      </trkpt>
      <trkpt lat="44.4413" lon="4.34212">
        <ele>118.3793945</ele>
        <time>2011-05-27T15:00:37Z</time>
      </trkpt>
      <trkpt lat="44.4414" lon="4.34223">
        <ele>119.3408203</ele>
        <time>2011-05-27T15:00:40Z</time>
      </trkpt>
      <trkpt lat="44.44151" lon="4.34233">
        <ele>118.3793945</ele>
        <time>2011-05-27T15:00:43Z</time>
      </trkpt>
      <trkpt lat="44.44162" lon="4.34244">
        <ele>118.3793945</ele>
        <time>2011-05-27T15:00:46Z</time>
      </trkpt>
      <trkpt lat="44.44173" lon="4.34255">
        <ele>117.8988037</ele>
        <time>2011-05-27T15:00:49Z</time>
      </trkpt>
      <trkpt lat="44.44182" lon="4.34262">
        <ele>117.4182129</ele>
        <time>2011-05-27T15:00:51Z</time>
      </trkpt>
      <trkpt lat="44.44191" lon="4.3427">
        <ele>118.3793945</ele>
        <time>2011-05-27T15:00:53Z</time>
      </trkpt>
      <trkpt lat="44.44201" lon="4.3428">
        <ele>118.8601074</ele>
        <time>2011-05-27T15:00:55Z</time>
      </trkpt>
      <trkpt lat="44.44212" lon="4.3429">
        <ele>119.3408203</ele>
        <time>2011-05-27T15:00:57Z</time>
      </trkpt>
      <trkpt lat="44.44225" lon="4.34298">
        <ele>117.8988037</ele>
        <time>2011-05-27T15:00:59Z</time>
      </trkpt>
      <trkpt lat="44.44237" lon="4.34307">
        <ele>119.3408203</ele>
        <time>2011-05-27T15:01:01Z</time>
      </trkpt>
      <trkpt lat="44.4425" lon="4.34316">
        <ele>119.3408203</ele>
        <time>2011-05-27T15:01:03Z</time>
      </trkpt>
      <trkpt lat="44.44262" lon="4.34326">
        <ele>120.302124</ele>
        <time>2011-05-27T15:01:05Z</time>
      </trkpt>
      <trkpt lat="44.44271" lon="4.3434">
        <ele>120.7828369</ele>
        <time>2011-05-27T15:01:07Z</time>
      </trkpt>
      <trkpt lat="44.44274" lon="4.34354">
        <ele>120.7828369</ele>
        <time>2011-05-27T15:01:09Z</time>
      </trkpt>
      <trkpt lat="44.44276" lon="4.34371">
        <ele>122.2247314</ele>
        <time>2011-05-27T15:01:12Z</time>
      </trkpt>
      <trkpt lat="44.44274" lon="4.34387">
        <ele>122.7054443</ele>
        <time>2011-05-27T15:01:16Z</time>
      </trkpt>
      <trkpt lat="44.44269" lon="4.34402">
        <ele>122.7054443</ele>
        <time>2011-05-27T15:01:20Z</time>
      </trkpt>
      <trkpt lat="44.44266" lon="4.34414">
        <ele>122.7054443</ele>
        <time>2011-05-27T15:01:23Z</time>
      </trkpt>
      <trkpt lat="44.44262" lon="4.34426">
        <ele>123.1861572</ele>
        <time>2011-05-27T15:01:26Z</time>
      </trkpt>
      <trkpt lat="44.44259" lon="4.34439">
        <ele>123.666748</ele>
        <time>2011-05-27T15:01:29Z</time>
      </trkpt>
      <trkpt lat="44.44261" lon="4.34453">
        <ele>124.1473389</ele>
        <time>2011-05-27T15:01:34Z</time>
      </trkpt>
      <trkpt lat="44.44271" lon="4.34461">
        <ele>125.1087646</ele>
        <time>2011-05-27T15:01:38Z</time>
      </trkpt>
      <trkpt lat="44.44281" lon="4.34468">
        <ele>124.6280518</ele>
        <time>2011-05-27T15:01:41Z</time>
      </trkpt>
      <trkpt lat="44.4429" lon="4.34476">
        <ele>126.0699463</ele>
        <time>2011-05-27T15:01:44Z</time>
      </trkpt>
      <trkpt lat="44.44299" lon="4.34485">
        <ele>126.0699463</ele>
        <time>2011-05-27T15:01:47Z</time>
      </trkpt>
      <trkpt lat="44.44308" lon="4.34494">
        <ele>127.0313721</ele>
        <time>2011-05-27T15:01:50Z</time>
      </trkpt>
      <trkpt lat="44.44317" lon="4.34503">
        <ele>127.0313721</ele>
        <time>2011-05-27T15:01:53Z</time>
      </trkpt>
      <trkpt lat="44.44326" lon="4.34512">
        <ele>127.0313721</ele>
        <time>2011-05-27T15:01:56Z</time>
      </trkpt>
      <trkpt lat="44.44334" lon="4.34521">
        <ele>127.0313721</ele>
        <time>2011-05-27T15:01:59Z</time>
      </trkpt>
      <trkpt lat="44.44344" lon="4.34531">
        <ele>127.5119629</ele>
        <time>2011-05-27T15:02:02Z</time>
      </trkpt>
      <trkpt lat="44.44354" lon="4.34541">
        <ele>127.5119629</ele>
        <time>2011-05-27T15:02:05Z</time>
      </trkpt>
      <trkpt lat="44.44365" lon="4.34551">
        <ele>127.9925537</ele>
        <time>2011-05-27T15:02:08Z</time>
      </trkpt>
      <trkpt lat="44.44374" lon="4.34561">
        <ele>127.9925537</ele>
        <time>2011-05-27T15:02:11Z</time>
      </trkpt>
      <trkpt lat="44.44384" lon="4.3457">
        <ele>127.5119629</ele>
        <time>2011-05-27T15:02:14Z</time>
      </trkpt>
      <trkpt lat="44.44396" lon="4.34581">
        <ele>127.9925537</ele>
        <time>2011-05-27T15:02:17Z</time>
      </trkpt>
      <trkpt lat="44.44404" lon="4.34589">
        <ele>128.4733887</ele>
        <time>2011-05-27T15:02:19Z</time>
      </trkpt>
      <trkpt lat="44.44412" lon="4.34597">
        <ele>127.9925537</ele>
        <time>2011-05-27T15:02:21Z</time>
      </trkpt>
      <trkpt lat="44.4442" lon="4.34605">
        <ele>127.9925537</ele>
        <time>2011-05-27T15:02:23Z</time>
      </trkpt>
      <trkpt lat="44.44428" lon="4.34613">
        <ele>127.9925537</ele>
        <time>2011-05-27T15:02:25Z</time>
      </trkpt>
      <trkpt lat="44.44436" lon="4.34621">
        <ele>127.9925537</ele>
        <time>2011-05-27T15:02:27Z</time>
      </trkpt>
      <trkpt lat="44.44444" lon="4.3463">
        <ele>127.9925537</ele>
        <time>2011-05-27T15:02:29Z</time>
      </trkpt>
      <trkpt lat="44.44453" lon="4.34638">
        <ele>127.0313721</ele>
        <time>2011-05-27T15:02:31Z</time>
      </trkpt>
      <trkpt lat="44.44461" lon="4.34646">
        <ele>127.5119629</ele>
        <time>2011-05-27T15:02:33Z</time>
      </trkpt>
      <trkpt lat="44.4447" lon="4.34655">
        <ele>127.5119629</ele>
        <time>2011-05-27T15:02:35Z</time>
      </trkpt>
      <trkpt lat="44.44479" lon="4.34663">
        <ele>127.5119629</ele>
        <time>2011-05-27T15:02:37Z</time>
      </trkpt>
      <trkpt lat="44.44488" lon="4.34672">
        <ele>127.5119629</ele>
        <time>2011-05-27T15:02:39Z</time>
      </trkpt>
      <trkpt lat="44.44497" lon="4.3468">
        <ele>127.5119629</ele>
        <time>2011-05-27T15:02:41Z</time>
      </trkpt>
      <trkpt lat="44.44506" lon="4.34689">
        <ele>127.5119629</ele>
        <time>2011-05-27T15:02:43Z</time>
      </trkpt>
      <trkpt lat="44.44515" lon="4.34699">
        <ele>127.5119629</ele>
        <time>2011-05-27T15:02:45Z</time>
      </trkpt>
      <trkpt lat="44.44524" lon="4.34707">
        <ele>127.0313721</ele>
        <time>2011-05-27T15:02:47Z</time>
      </trkpt>
      <trkpt lat="44.44533" lon="4.34716">
        <ele>127.0313721</ele>
        <time>2011-05-27T15:02:49Z</time>
      </trkpt>
      <trkpt lat="44.44542" lon="4.34723">
        <ele>127.0313721</ele>
        <time>2011-05-27T15:02:51Z</time>
      </trkpt>
      <trkpt lat="44.44551" lon="4.3473">
        <ele>126.5506592</ele>
        <time>2011-05-27T15:02:53Z</time>
      </trkpt>
      <trkpt lat="44.44557" lon="4.34739">
        <ele>126.5506592</ele>
        <time>2011-05-27T15:02:55Z</time>
      </trkpt>
      <trkpt lat="44.44556" lon="4.34753">
        <ele>127.0313721</ele>
        <time>2011-05-27T15:02:58Z</time>
      </trkpt>
      <trkpt lat="44.44552" lon="4.34766">
        <ele>127.5119629</ele>
        <time>2011-05-27T15:03:02Z</time>
      </trkpt>
      <trkpt lat="44.44549" lon="4.3478">
        <ele>127.9925537</ele>
        <time>2011-05-27T15:03:07Z</time>
      </trkpt>
      <trkpt lat="44.44545" lon="4.34791">
        <ele>127.5119629</ele>
        <time>2011-05-27T15:03:15Z</time>
      </trkpt>
      <trkpt lat="44.4454" lon="4.34805">
        <ele>129.4346924</ele>
        <time>2011-05-27T15:03:20Z</time>
      </trkpt>
      <trkpt lat="44.44534" lon="4.34816">
        <ele>128.4733887</ele>
        <time>2011-05-27T15:03:24Z</time>
      </trkpt>
      <trkpt lat="44.44528" lon="4.34826">
        <ele>127.5119629</ele>
        <time>2011-05-27T15:03:27Z</time>
      </trkpt>
      <trkpt lat="44.44518" lon="4.34834">
        <ele>126.0699463</ele>
        <time>2011-05-27T15:03:30Z</time>
      </trkpt>
      <trkpt lat="44.44506" lon="4.34833">
        <ele>126.5506592</ele>
        <time>2011-05-27T15:03:33Z</time>
      </trkpt>
      <trkpt lat="44.44497" lon="4.34837">
        <ele>126.5506592</ele>
        <time>2011-05-27T15:03:37Z</time>
      </trkpt>
      <trkpt lat="44.44503" lon="4.34846">
        <ele>127.9925537</ele>
        <time>2011-05-27T15:03:43Z</time>
      </trkpt>
      <trkpt lat="44.44507" lon="4.34856">
        <ele>127.9925537</ele>
        <time>2011-05-27T15:04:09Z</time>
      </trkpt>
      <trkpt lat="44.44514" lon="4.34865">
        <ele>127.5119629</ele>
        <time>2011-05-27T15:04:13Z</time>
      </trkpt>
      <trkpt lat="44.44519" lon="4.34875">
        <ele>127.9925537</ele>
        <time>2011-05-27T15:04:16Z</time>
      </trkpt>
      <trkpt lat="44.44518" lon="4.34889">
        <ele>127.5119629</ele>
        <time>2011-05-27T15:04:19Z</time>
      </trkpt>
      <trkpt lat="44.44513" lon="4.34903">
        <ele>127.5119629</ele>
        <time>2011-05-27T15:04:22Z</time>
      </trkpt>
      <trkpt lat="44.44508" lon="4.34919">
        <ele>127.5119629</ele>
        <time>2011-05-27T15:04:25Z</time>
      </trkpt>
      <trkpt lat="44.44502" lon="4.34937">
        <ele>127.9925537</ele>
        <time>2011-05-27T15:04:28Z</time>
      </trkpt>
      <trkpt lat="44.44498" lon="4.3495">
        <ele>127.9925537</ele>
        <time>2011-05-27T15:04:30Z</time>
      </trkpt>
      <trkpt lat="44.44495" lon="4.34963">
        <ele>127.9925537</ele>
        <time>2011-05-27T15:04:32Z</time>
      </trkpt>
      <trkpt lat="44.44491" lon="4.34977">
        <ele>127.9925537</ele>
        <time>2011-05-27T15:04:34Z</time>
      </trkpt>
      <trkpt lat="44.44486" lon="4.3499">
        <ele>127.9925537</ele>
        <time>2011-05-27T15:04:36Z</time>
      </trkpt>
      <trkpt lat="44.44483" lon="4.35004">
        <ele>128.4733887</ele>
        <time>2011-05-27T15:04:38Z</time>
      </trkpt>
      <trkpt lat="44.44479" lon="4.35017">
        <ele>127.9925537</ele>
        <time>2011-05-27T15:04:40Z</time>
      </trkpt>
      <trkpt lat="44.44475" lon="4.35031">
        <ele>127.9925537</ele>
        <time>2011-05-27T15:04:42Z</time>
      </trkpt>
      <trkpt lat="44.44471" lon="4.35046">
        <ele>127.9925537</ele>
        <time>2011-05-27T15:04:44Z</time>
      </trkpt>
      <trkpt lat="44.44466" lon="4.35059">
        <ele>127.5119629</ele>
        <time>2011-05-27T15:04:46Z</time>
      </trkpt>
      <trkpt lat="44.44463" lon="4.35072">
        <ele>127.5119629</ele>
        <time>2011-05-27T15:04:48Z</time>
      </trkpt>
      <trkpt lat="44.44466" lon="4.35087">
        <ele>127.9925537</ele>
        <time>2011-05-27T15:04:51Z</time>
      </trkpt>
      <trkpt lat="44.44475" lon="4.35099">
        <ele>127.5119629</ele>
        <time>2011-05-27T15:04:54Z</time>
      </trkpt>
      <trkpt lat="44.44482" lon="4.35108">
        <ele>127.9925537</ele>
        <time>2011-05-27T15:04:56Z</time>
      </trkpt>
      <trkpt lat="44.44489" lon="4.35117">
        <ele>128.4733887</ele>
        <time>2011-05-27T15:04:58Z</time>
      </trkpt>
      <trkpt lat="44.44495" lon="4.35126">
        <ele>127.9925537</ele>
        <time>2011-05-27T15:05:00Z</time>
      </trkpt>
      <trkpt lat="44.44505" lon="4.35139">
        <ele>128.9541016</ele>
        <time>2011-05-27T15:05:03Z</time>
      </trkpt>
      <trkpt lat="44.44514" lon="4.35151">
        <ele>129.4346924</ele>
        <time>2011-05-27T15:05:06Z</time>
      </trkpt>
      <trkpt lat="44.44523" lon="4.35163">
        <ele>129.9152832</ele>
        <time>2011-05-27T15:05:09Z</time>
      </trkpt>
      <trkpt lat="44.44532" lon="4.35174">
        <ele>129.9152832</ele>
        <time>2011-05-27T15:05:12Z</time>
      </trkpt>
      <trkpt lat="44.4454" lon="4.35185">
        <ele>130.876709</ele>
        <time>2011-05-27T15:05:15Z</time>
      </trkpt>
      <trkpt lat="44.44549" lon="4.35196">
        <ele>131.3572998</ele>
        <time>2011-05-27T15:05:18Z</time>
      </trkpt>
      <trkpt lat="44.44558" lon="4.35208">
        <ele>131.3572998</ele>
        <time>2011-05-27T15:05:21Z</time>
      </trkpt>
      <trkpt lat="44.44567" lon="4.3522">
        <ele>131.3572998</ele>
        <time>2011-05-27T15:05:24Z</time>
      </trkpt>
      <trkpt lat="44.44576" lon="4.35232">
        <ele>131.8378906</ele>
        <time>2011-05-27T15:05:27Z</time>
      </trkpt>
      <trkpt lat="44.44584" lon="4.35243">
        <ele>132.7993164</ele>
        <time>2011-05-27T15:05:30Z</time>
      </trkpt>
      <trkpt lat="44.44592" lon="4.35253">
        <ele>132.7993164</ele>
        <time>2011-05-27T15:05:33Z</time>
      </trkpt>
      <trkpt lat="44.44599" lon="4.35263">
        <ele>133.2799072</ele>
        <time>2011-05-27T15:05:36Z</time>
      </trkpt>
      <trkpt lat="44.44606" lon="4.35272">
        <ele>133.760498</ele>
        <time>2011-05-27T15:05:39Z</time>
      </trkpt>
      <trkpt lat="44.44612" lon="4.35281">
        <ele>133.760498</ele>
        <time>2011-05-27T15:05:42Z</time>
      </trkpt>
      <trkpt lat="44.44619" lon="4.3529">
        <ele>133.760498</ele>
        <time>2011-05-27T15:05:45Z</time>
      </trkpt>
      <trkpt lat="44.44626" lon="4.35299">
        <ele>134.7219238</ele>
        <time>2011-05-27T15:05:48Z</time>
      </trkpt>
      <trkpt lat="44.44632" lon="4.35308">
        <ele>134.7219238</ele>
        <time>2011-05-27T15:05:51Z</time>
      </trkpt>
      <trkpt lat="44.44641" lon="4.35319">
        <ele>135.6831055</ele>
        <time>2011-05-27T15:05:55Z</time>
      </trkpt>
      <trkpt lat="44.44649" lon="4.3533">
        <ele>135.6831055</ele>
        <time>2011-05-27T15:05:59Z</time>
      </trkpt>
      <trkpt lat="44.44658" lon="4.35341">
        <ele>136.6446533</ele>
        <time>2011-05-27T15:06:03Z</time>
      </trkpt>
      <trkpt lat="44.44666" lon="4.35352">
        <ele>138.5672607</ele>
        <time>2011-05-27T15:06:07Z</time>
      </trkpt>
      <trkpt lat="44.44674" lon="4.35362">
        <ele>138.0865479</ele>
        <time>2011-05-27T15:06:11Z</time>
      </trkpt>
      <trkpt lat="44.44684" lon="4.35362">
        <ele>139.5284424</ele>
        <time>2011-05-27T15:06:15Z</time>
      </trkpt>
      <trkpt lat="44.44692" lon="4.35353">
        <ele>138.0865479</ele>
        <time>2011-05-27T15:06:18Z</time>
      </trkpt>
      <trkpt lat="44.44701" lon="4.35342">
        <ele>138.0865479</ele>
        <time>2011-05-27T15:06:21Z</time>
      </trkpt>
      <trkpt lat="44.4471" lon="4.35331">
        <ele>138.0865479</ele>
        <time>2011-05-27T15:06:24Z</time>
      </trkpt>
      <trkpt lat="44.44721" lon="4.35318">
        <ele>137.1252441</ele>
        <time>2011-05-27T15:06:27Z</time>
      </trkpt>
      <trkpt lat="44.44731" lon="4.35307">
        <ele>136.6446533</ele>
        <time>2011-05-27T15:06:30Z</time>
      </trkpt>
      <trkpt lat="44.44742" lon="4.35295">
        <ele>136.1639404</ele>
        <time>2011-05-27T15:06:33Z</time>
      </trkpt>
      <trkpt lat="44.44749" lon="4.35287">
        <ele>135.6831055</ele>
        <time>2011-05-27T15:06:35Z</time>
      </trkpt>
      <trkpt lat="44.44756" lon="4.35279">
        <ele>135.6831055</ele>
        <time>2011-05-27T15:06:37Z</time>
      </trkpt>
      <trkpt lat="44.44763" lon="4.3527">
        <ele>134.2412109</ele>
        <time>2011-05-27T15:06:39Z</time>
      </trkpt>
      <trkpt lat="44.44771" lon="4.3526">
        <ele>134.2412109</ele>
        <time>2011-05-27T15:06:41Z</time>
      </trkpt>
      <trkpt lat="44.44779" lon="4.35249">
        <ele>133.2799072</ele>
        <time>2011-05-27T15:06:43Z</time>
      </trkpt>
      <trkpt lat="44.44788" lon="4.35237">
        <ele>131.8378906</ele>
        <time>2011-05-27T15:06:45Z</time>
      </trkpt>
      <trkpt lat="44.44795" lon="4.35224">
        <ele>132.3186035</ele>
        <time>2011-05-27T15:06:47Z</time>
      </trkpt>
      <trkpt lat="44.44802" lon="4.35213">
        <ele>131.3572998</ele>
        <time>2011-05-27T15:06:49Z</time>
      </trkpt>
      <trkpt lat="44.44811" lon="4.35201">
        <ele>130.3959961</ele>
        <time>2011-05-27T15:06:52Z</time>
      </trkpt>
      <trkpt lat="44.4482" lon="4.35198">
        <ele>129.4346924</ele>
        <time>2011-05-27T15:06:56Z</time>
      </trkpt>
      <trkpt lat="44.44816" lon="4.35209">
        <ele>129.4346924</ele>
        <time>2011-05-27T15:07:00Z</time>
      </trkpt>
      <trkpt lat="44.44808" lon="4.35218">
        <ele>129.9152832</ele>
        <time>2011-05-27T15:07:03Z</time>
      </trkpt>
      <trkpt lat="44.44801" lon="4.3523">
        <ele>130.3959961</ele>
        <time>2011-05-27T15:07:06Z</time>
      </trkpt>
      <trkpt lat="44.44797" lon="4.35244">
        <ele>130.3959961</ele>
        <time>2011-05-27T15:07:09Z</time>
      </trkpt>
      <trkpt lat="44.44795" lon="4.35259">
        <ele>130.3959961</ele>
        <time>2011-05-27T15:07:12Z</time>
      </trkpt>
      <trkpt lat="44.44795" lon="4.35273">
        <ele>131.8378906</ele>
        <time>2011-05-27T15:07:15Z</time>
      </trkpt>
      <trkpt lat="44.44796" lon="4.35287">
        <ele>131.8378906</ele>
        <time>2011-05-27T15:07:18Z</time>
      </trkpt>
      <trkpt lat="44.44795" lon="4.35303">
        <ele>133.2799072</ele>
        <time>2011-05-27T15:07:22Z</time>
      </trkpt>
      <trkpt lat="44.44793" lon="4.35317">
        <ele>133.760498</ele>
        <time>2011-05-27T15:07:26Z</time>
      </trkpt>
      <trkpt lat="44.4479" lon="4.35332">
        <ele>135.6831055</ele>
        <time>2011-05-27T15:07:30Z</time>
      </trkpt>
      <trkpt lat="44.44788" lon="4.35346">
        <ele>137.605835</ele>
        <time>2011-05-27T15:07:34Z</time>
      </trkpt>
      <trkpt lat="44.44783" lon="4.35359">
        <ele>138.0865479</ele>
        <time>2011-05-27T15:07:38Z</time>
      </trkpt>
      <trkpt lat="44.44774" lon="4.35367">
        <ele>138.5672607</ele>
        <time>2011-05-27T15:07:43Z</time>
      </trkpt>
      <trkpt lat="44.44765" lon="4.3537">
        <ele>139.0478516</ele>
        <time>2011-05-27T15:07:47Z</time>
      </trkpt>
      <trkpt lat="44.44755" lon="4.35373">
        <ele>140.4898682</ele>
        <time>2011-05-27T15:07:51Z</time>
      </trkpt>
      <trkpt lat="44.44745" lon="4.35376">
        <ele>141.4510498</ele>
        <time>2011-05-27T15:07:55Z</time>
      </trkpt>
      <trkpt lat="44.44735" lon="4.3538">
        <ele>142.4124756</ele>
        <time>2011-05-27T15:07:59Z</time>
      </trkpt>
      <trkpt lat="44.44725" lon="4.35384">
        <ele>143.8543701</ele>
        <time>2011-05-27T15:08:03Z</time>
      </trkpt>
      <trkpt lat="44.44717" lon="4.3539">
        <ele>145.7770996</ele>
        <time>2011-05-27T15:08:07Z</time>
      </trkpt>
      <trkpt lat="44.44708" lon="4.35397">
        <ele>145.7770996</ele>
        <time>2011-05-27T15:08:11Z</time>
      </trkpt>
      <trkpt lat="44.44701" lon="4.35407">
        <ele>147.2189941</ele>
        <time>2011-05-27T15:08:16Z</time>
      </trkpt>
      <trkpt lat="44.44694" lon="4.35417">
        <ele>147.699707</ele>
        <time>2011-05-27T15:08:21Z</time>
      </trkpt>
      <trkpt lat="44.44687" lon="4.35426">
        <ele>150.1030273</ele>
        <time>2011-05-27T15:08:26Z</time>
      </trkpt>
      <trkpt lat="44.44682" lon="4.35436">
        <ele>151.064209</ele>
        <time>2011-05-27T15:08:31Z</time>
      </trkpt>
      <trkpt lat="44.44676" lon="4.35446">
        <ele>152.9869385</ele>
        <time>2011-05-27T15:08:36Z</time>
      </trkpt>
      <trkpt lat="44.44671" lon="4.35458">
        <ele>152.9869385</ele>
        <time>2011-05-27T15:08:41Z</time>
      </trkpt>
      <trkpt lat="44.44667" lon="4.3547">
        <ele>154.9095459</ele>
        <time>2011-05-27T15:08:46Z</time>
      </trkpt>
      <trkpt lat="44.44662" lon="4.35481">
        <ele>154.9095459</ele>
        <time>2011-05-27T15:08:51Z</time>
      </trkpt>
      <trkpt lat="44.44657" lon="4.35493">
        <ele>156.3515625</ele>
        <time>2011-05-27T15:08:56Z</time>
      </trkpt>
      <trkpt lat="44.44652" lon="4.35506">
        <ele>159.2354736</ele>
        <time>2011-05-27T15:09:02Z</time>
      </trkpt>
      <trkpt lat="44.44647" lon="4.35517">
        <ele>159.7161865</ele>
        <time>2011-05-27T15:09:07Z</time>
      </trkpt>
      <trkpt lat="44.44643" lon="4.35532">
        <ele>160.1968994</ele>
        <time>2011-05-27T15:09:13Z</time>
      </trkpt>
      <trkpt lat="44.44638" lon="4.35543">
        <ele>161.1582031</ele>
        <time>2011-05-27T15:09:18Z</time>
      </trkpt>
      <trkpt lat="44.44631" lon="4.35553">
        <ele>162.1195068</ele>
        <time>2011-05-27T15:09:23Z</time>
      </trkpt>
      <trkpt lat="44.44625" lon="4.35563">
        <ele>164.0421143</ele>
        <time>2011-05-27T15:09:29Z</time>
      </trkpt>
      <trkpt lat="44.44618" lon="4.35573">
        <ele>165.003418</ele>
        <time>2011-05-27T15:09:35Z</time>
      </trkpt>
      <trkpt lat="44.44611" lon="4.35582">
        <ele>165.9647217</ele>
        <time>2011-05-27T15:09:41Z</time>
      </trkpt>
      <trkpt lat="44.44602" lon="4.35592">
        <ele>167.8873291</ele>
        <time>2011-05-27T15:09:47Z</time>
      </trkpt>
      <trkpt lat="44.44591" lon="4.35594">
        <ele>168.8487549</ele>
        <time>2011-05-27T15:09:52Z</time>
      </trkpt>
      <trkpt lat="44.4458" lon="4.35593">
        <ele>169.3294678</ele>
        <time>2011-05-27T15:09:57Z</time>
      </trkpt>
      <trkpt lat="44.44571" lon="4.35595">
        <ele>171.2520752</ele>
        <time>2011-05-27T15:10:01Z</time>
      </trkpt>
      <trkpt lat="44.44561" lon="4.35598">
        <ele>171.732666</ele>
        <time>2011-05-27T15:10:05Z</time>
      </trkpt>
      <trkpt lat="44.44552" lon="4.35601">
        <ele>171.732666</ele>
        <time>2011-05-27T15:10:09Z</time>
      </trkpt>
      <trkpt lat="44.44543" lon="4.35606">
        <ele>172.6939697</ele>
        <time>2011-05-27T15:10:13Z</time>
      </trkpt>
      <trkpt lat="44.44535" lon="4.35612">
        <ele>173.1746826</ele>
        <time>2011-05-27T15:10:17Z</time>
      </trkpt>
      <trkpt lat="44.44526" lon="4.35618">
        <ele>173.6552734</ele>
        <time>2011-05-27T15:10:21Z</time>
      </trkpt>
      <trkpt lat="44.44517" lon="4.35624">
        <ele>175.09729</ele>
        <time>2011-05-27T15:10:25Z</time>
      </trkpt>
      <trkpt lat="44.44507" lon="4.3563">
        <ele>175.09729</ele>
        <time>2011-05-27T15:10:29Z</time>
      </trkpt>
      <trkpt lat="44.44498" lon="4.35636">
        <ele>175.09729</ele>
        <time>2011-05-27T15:10:33Z</time>
      </trkpt>
      <trkpt lat="44.44489" lon="4.35642">
        <ele>175.09729</ele>
        <time>2011-05-27T15:10:37Z</time>
      </trkpt>
      <trkpt lat="44.4448" lon="4.3565">
        <ele>175.5778809</ele>
        <time>2011-05-27T15:10:41Z</time>
      </trkpt>
      <trkpt lat="44.44471" lon="4.35659">
        <ele>176.5393066</ele>
        <time>2011-05-27T15:10:45Z</time>
      </trkpt>
      <trkpt lat="44.44461" lon="4.35668">
        <ele>177.5006104</ele>
        <time>2011-05-27T15:10:49Z</time>
      </trkpt>
      <trkpt lat="44.44454" lon="4.35676">
        <ele>177.9812012</ele>
        <time>2011-05-27T15:10:52Z</time>
      </trkpt>
      <trkpt lat="44.44447" lon="4.35683">
        <ele>178.942627</ele>
        <time>2011-05-27T15:10:55Z</time>
      </trkpt>
      <trkpt lat="44.44439" lon="4.35691">
        <ele>178.942627</ele>
        <time>2011-05-27T15:10:58Z</time>
      </trkpt>
      <trkpt lat="44.44431" lon="4.35699">
        <ele>178.4619141</ele>
        <time>2011-05-27T15:11:01Z</time>
      </trkpt>
      <trkpt lat="44.44423" lon="4.35707">
        <ele>179.4232178</ele>
        <time>2011-05-27T15:11:04Z</time>
      </trkpt>
      <trkpt lat="44.44416" lon="4.35716">
        <ele>179.9038086</ele>
        <time>2011-05-27T15:11:07Z</time>
      </trkpt>
      <trkpt lat="44.4441" lon="4.35726">
        <ele>180.3845215</ele>
        <time>2011-05-27T15:11:10Z</time>
      </trkpt>
      <trkpt lat="44.44403" lon="4.35739">
        <ele>180.8652344</ele>
        <time>2011-05-27T15:11:14Z</time>
      </trkpt>
      <trkpt lat="44.44396" lon="4.35751">
        <ele>181.3458252</ele>
        <time>2011-05-27T15:11:18Z</time>
      </trkpt>
      <trkpt lat="44.4439" lon="4.35764">
        <ele>183.2684326</ele>
        <time>2011-05-27T15:11:22Z</time>
      </trkpt>
      <trkpt lat="44.44385" lon="4.35779">
        <ele>183.7490234</ele>
        <time>2011-05-27T15:11:26Z</time>
      </trkpt>
      <trkpt lat="44.44381" lon="4.35792">
        <ele>185.6717529</ele>
        <time>2011-05-27T15:11:30Z</time>
      </trkpt>
      <trkpt lat="44.44375" lon="4.35807">
        <ele>186.1524658</ele>
        <time>2011-05-27T15:11:34Z</time>
      </trkpt>
      <trkpt lat="44.4437" lon="4.35819">
        <ele>186.1524658</ele>
        <time>2011-05-27T15:11:37Z</time>
      </trkpt>
      <trkpt lat="44.44363" lon="4.35834">
        <ele>186.6331787</ele>
        <time>2011-05-27T15:11:41Z</time>
      </trkpt>
      <trkpt lat="44.44358" lon="4.35846">
        <ele>186.6331787</ele>
        <time>2011-05-27T15:11:44Z</time>
      </trkpt>
      <trkpt lat="44.44353" lon="4.35862">
        <ele>188.0750732</ele>
        <time>2011-05-27T15:11:48Z</time>
      </trkpt>
      <trkpt lat="44.44346" lon="4.35875">
        <ele>188.5557861</ele>
        <time>2011-05-27T15:11:52Z</time>
      </trkpt>
      <trkpt lat="44.44336" lon="4.35884">
        <ele>189.9976807</ele>
        <time>2011-05-27T15:11:56Z</time>
      </trkpt>
      <trkpt lat="44.44327" lon="4.3589">
        <ele>189.9976807</ele>
        <time>2011-05-27T15:11:59Z</time>
      </trkpt>
      <trkpt lat="44.44319" lon="4.35896">
        <ele>190.4783936</ele>
        <time>2011-05-27T15:12:02Z</time>
      </trkpt>
      <trkpt lat="44.4431" lon="4.35902">
        <ele>190.9589844</ele>
        <time>2011-05-27T15:12:05Z</time>
      </trkpt>
      <trkpt lat="44.443" lon="4.35906">
        <ele>190.4783936</ele>
        <time>2011-05-27T15:12:08Z</time>
      </trkpt>
      <trkpt lat="44.44291" lon="4.3591">
        <ele>190.9589844</ele>
        <time>2011-05-27T15:12:11Z</time>
      </trkpt>
      <trkpt lat="44.44282" lon="4.35915">
        <ele>190.9589844</ele>
        <time>2011-05-27T15:12:14Z</time>
      </trkpt>
      <trkpt lat="44.44272" lon="4.3592">
        <ele>190.9589844</ele>
        <time>2011-05-27T15:12:17Z</time>
      </trkpt>
      <trkpt lat="44.44263" lon="4.35924">
        <ele>192.401123</ele>
        <time>2011-05-27T15:12:20Z</time>
      </trkpt>
      <trkpt lat="44.44254" lon="4.35929">
        <ele>191.9202881</ele>
        <time>2011-05-27T15:12:23Z</time>
      </trkpt>
      <trkpt lat="44.44245" lon="4.35934">
        <ele>192.8817139</ele>
        <time>2011-05-27T15:12:26Z</time>
      </trkpt>
      <trkpt lat="44.44236" lon="4.3594">
        <ele>193.3623047</ele>
        <time>2011-05-27T15:12:29Z</time>
      </trkpt>
      <trkpt lat="44.44228" lon="4.35946">
        <ele>193.8430176</ele>
        <time>2011-05-27T15:12:32Z</time>
      </trkpt>
      <trkpt lat="44.44218" lon="4.35954">
        <ele>195.2849121</ele>
        <time>2011-05-27T15:12:36Z</time>
      </trkpt>
      <trkpt lat="44.4421" lon="4.3596">
        <ele>195.2849121</ele>
        <time>2011-05-27T15:12:39Z</time>
      </trkpt>
      <trkpt lat="44.44201" lon="4.35969">
        <ele>196.2463379</ele>
        <time>2011-05-27T15:12:43Z</time>
      </trkpt>
      <trkpt lat="44.44193" lon="4.35977">
        <ele>196.7269287</ele>
        <time>2011-05-27T15:12:47Z</time>
      </trkpt>
      <trkpt lat="44.44184" lon="4.35987">
        <ele>199.130127</ele>
        <time>2011-05-27T15:12:52Z</time>
      </trkpt>
      <trkpt lat="44.44178" lon="4.35996">
        <ele>199.130127</ele>
        <time>2011-05-27T15:12:57Z</time>
      </trkpt>
      <trkpt lat="44.44175" lon="4.36007">
        <ele>200.5722656</ele>
        <time>2011-05-27T15:13:03Z</time>
      </trkpt>
      <trkpt lat="44.44179" lon="4.36019">
        <ele>200.0916748</ele>
        <time>2011-05-27T15:13:10Z</time>
      </trkpt>
      <trkpt lat="44.44183" lon="4.36032">
        <ele>202.0142822</ele>
        <time>2011-05-27T15:13:19Z</time>
      </trkpt>
      <trkpt lat="44.44186" lon="4.36044">
        <ele>201.5335693</ele>
        <time>2011-05-27T15:13:26Z</time>
      </trkpt>
      <trkpt lat="44.44189" lon="4.36056">
        <ele>202.0142822</ele>
        <time>2011-05-27T15:13:32Z</time>
      </trkpt>
      <trkpt lat="44.44192" lon="4.3607">
        <ele>202.9754639</ele>
        <time>2011-05-27T15:13:39Z</time>
      </trkpt>
      <trkpt lat="44.44192" lon="4.36085">
        <ele>202.9754639</ele>
        <time>2011-05-27T15:13:44Z</time>
      </trkpt>
      <trkpt lat="44.44193" lon="4.36101">
        <ele>203.4561768</ele>
        <time>2011-05-27T15:13:49Z</time>
      </trkpt>
      <trkpt lat="44.44193" lon="4.36115">
        <ele>204.8980713</ele>
        <time>2011-05-27T15:13:54Z</time>
      </trkpt>
      <trkpt lat="44.44192" lon="4.36129">
        <ele>204.8980713</ele>
        <time>2011-05-27T15:13:59Z</time>
      </trkpt>
      <trkpt lat="44.44192" lon="4.36143">
        <ele>205.3787842</ele>
        <time>2011-05-27T15:14:04Z</time>
      </trkpt>
      <trkpt lat="44.44192" lon="4.36157">
        <ele>206.8206787</ele>
        <time>2011-05-27T15:14:09Z</time>
      </trkpt>
      <trkpt lat="44.44193" lon="4.36171">
        <ele>207.7821045</ele>
        <time>2011-05-27T15:14:14Z</time>
      </trkpt>
      <trkpt lat="44.44192" lon="4.36186">
        <ele>207.7821045</ele>
        <time>2011-05-27T15:14:19Z</time>
      </trkpt>
      <trkpt lat="44.4419" lon="4.362">
        <ele>207.3013916</ele>
        <time>2011-05-27T15:14:23Z</time>
      </trkpt>
      <trkpt lat="44.44188" lon="4.36214">
        <ele>208.2628174</ele>
        <time>2011-05-27T15:14:27Z</time>
      </trkpt>
      <trkpt lat="44.44186" lon="4.36228">
        <ele>208.2628174</ele>
        <time>2011-05-27T15:14:31Z</time>
      </trkpt>
      <trkpt lat="44.44184" lon="4.3624">
        <ele>208.7434082</ele>
        <time>2011-05-27T15:14:35Z</time>
      </trkpt>
      <trkpt lat="44.44182" lon="4.36254">
        <ele>209.704834</ele>
        <time>2011-05-27T15:14:39Z</time>
      </trkpt>
      <trkpt lat="44.44181" lon="4.36269">
        <ele>209.2241211</ele>
        <time>2011-05-27T15:14:43Z</time>
      </trkpt>
      <trkpt lat="44.4418" lon="4.36282">
        <ele>209.2241211</ele>
        <time>2011-05-27T15:14:46Z</time>
      </trkpt>
      <trkpt lat="44.44178" lon="4.36296">
        <ele>209.2241211</ele>
        <time>2011-05-27T15:14:49Z</time>
      </trkpt>
      <trkpt lat="44.44177" lon="4.36309">
        <ele>209.704834</ele>
        <time>2011-05-27T15:14:52Z</time>
      </trkpt>
      <trkpt lat="44.44176" lon="4.36323">
        <ele>209.2241211</ele>
        <time>2011-05-27T15:14:55Z</time>
      </trkpt>
      <trkpt lat="44.44174" lon="4.36337">
        <ele>209.704834</ele>
        <time>2011-05-27T15:14:58Z</time>
      </trkpt>
      <trkpt lat="44.44174" lon="4.3635">
        <ele>209.2241211</ele>
        <time>2011-05-27T15:15:01Z</time>
      </trkpt>
      <trkpt lat="44.44172" lon="4.36363">
        <ele>209.2241211</ele>
        <time>2011-05-27T15:15:04Z</time>
      </trkpt>
      <trkpt lat="44.44172" lon="4.36376">
        <ele>210.1854248</ele>
        <time>2011-05-27T15:15:07Z</time>
      </trkpt>
      <trkpt lat="44.4417" lon="4.3639">
        <ele>210.6660156</ele>
        <time>2011-05-27T15:15:10Z</time>
      </trkpt>
      <trkpt lat="44.4417" lon="4.36403">
        <ele>210.6660156</ele>
        <time>2011-05-27T15:15:13Z</time>
      </trkpt>
      <trkpt lat="44.4417" lon="4.36418">
        <ele>210.1854248</ele>
        <time>2011-05-27T15:15:17Z</time>
      </trkpt>
      <trkpt lat="44.44171" lon="4.36433">
        <ele>211.6274414</ele>
        <time>2011-05-27T15:15:22Z</time>
      </trkpt>
      <trkpt lat="44.44172" lon="4.36449">
        <ele>212.588623</ele>
        <time>2011-05-27T15:15:27Z</time>
      </trkpt>
      <trkpt lat="44.44173" lon="4.36464">
        <ele>213.0693359</ele>
        <time>2011-05-27T15:15:32Z</time>
      </trkpt>
      <trkpt lat="44.44176" lon="4.36479">
        <ele>212.588623</ele>
        <time>2011-05-27T15:15:37Z</time>
      </trkpt>
      <trkpt lat="44.44178" lon="4.36494">
        <ele>213.5500488</ele>
        <time>2011-05-27T15:15:41Z</time>
      </trkpt>
      <trkpt lat="44.4418" lon="4.36508">
        <ele>213.5500488</ele>
        <time>2011-05-27T15:15:45Z</time>
      </trkpt>
      <trkpt lat="44.44183" lon="4.36523">
        <ele>213.5500488</ele>
        <time>2011-05-27T15:15:49Z</time>
      </trkpt>
      <trkpt lat="44.44186" lon="4.36535">
        <ele>213.5500488</ele>
        <time>2011-05-27T15:15:52Z</time>
      </trkpt>
      <trkpt lat="44.44189" lon="4.36553">
        <ele>212.588623</ele>
        <time>2011-05-27T15:15:56Z</time>
      </trkpt>
      <trkpt lat="44.44187" lon="4.3657">
        <ele>212.1080322</ele>
        <time>2011-05-27T15:15:59Z</time>
      </trkpt>
      <trkpt lat="44.44185" lon="4.36585">
        <ele>211.1467285</ele>
        <time>2011-05-27T15:16:01Z</time>
      </trkpt>
      <trkpt lat="44.44184" lon="4.36599">
        <ele>210.6660156</ele>
        <time>2011-05-27T15:16:03Z</time>
      </trkpt>
      <trkpt lat="44.44184" lon="4.36616">
        <ele>209.704834</ele>
        <time>2011-05-27T15:16:06Z</time>
      </trkpt>
      <trkpt lat="44.4419" lon="4.36629">
        <ele>209.2241211</ele>
        <time>2011-05-27T15:16:09Z</time>
      </trkpt>
      <trkpt lat="44.44197" lon="4.36639">
        <ele>208.2628174</ele>
        <time>2011-05-27T15:16:11Z</time>
      </trkpt>
      <trkpt lat="44.44207" lon="4.36649">
        <ele>206.8206787</ele>
        <time>2011-05-27T15:16:13Z</time>
      </trkpt>
      <trkpt lat="44.44219" lon="4.3666">
        <ele>203.4561768</ele>
        <time>2011-05-27T15:16:15Z</time>
      </trkpt>
      <trkpt lat="44.44232" lon="4.36671">
        <ele>202.9754639</ele>
        <time>2011-05-27T15:16:17Z</time>
      </trkpt>
      <trkpt lat="44.44243" lon="4.36683">
        <ele>202.494873</ele>
        <time>2011-05-27T15:16:19Z</time>
      </trkpt>
      <trkpt lat="44.44253" lon="4.36692">
        <ele>202.494873</ele>
        <time>2011-05-27T15:16:21Z</time>
      </trkpt>
      <trkpt lat="44.44262" lon="4.36699">
        <ele>202.494873</ele>
        <time>2011-05-27T15:16:23Z</time>
      </trkpt>
      <trkpt lat="44.44272" lon="4.367">
        <ele>201.5335693</ele>
        <time>2011-05-27T15:16:25Z</time>
      </trkpt>
      <trkpt lat="44.44281" lon="4.36693">
        <ele>201.0528564</ele>
        <time>2011-05-27T15:16:27Z</time>
      </trkpt>
      <trkpt lat="44.44293" lon="4.36689">
        <ele>200.5722656</ele>
        <time>2011-05-27T15:16:30Z</time>
      </trkpt>
      <trkpt lat="44.44303" lon="4.367">
        <ele>199.6108398</ele>
        <time>2011-05-27T15:16:33Z</time>
      </trkpt>
      <trkpt lat="44.44311" lon="4.3671">
        <ele>200.0916748</ele>
        <time>2011-05-27T15:16:37Z</time>
      </trkpt>
      <trkpt lat="44.44318" lon="4.36701">
        <ele>199.6108398</ele>
        <time>2011-05-27T15:16:41Z</time>
      </trkpt>
      <trkpt lat="44.44326" lon="4.36692">
        <ele>198.6495361</ele>
        <time>2011-05-27T15:16:44Z</time>
      </trkpt>
      <trkpt lat="44.44334" lon="4.36683">
        <ele>198.1689453</ele>
        <time>2011-05-27T15:16:46Z</time>
      </trkpt>
      <trkpt lat="44.44342" lon="4.36673">
        <ele>196.7269287</ele>
        <time>2011-05-27T15:16:48Z</time>
      </trkpt>
      <trkpt lat="44.4435" lon="4.36663">
        <ele>196.2463379</ele>
        <time>2011-05-27T15:16:50Z</time>
      </trkpt>
      <trkpt lat="44.44358" lon="4.36655">
        <ele>194.8043213</ele>
        <time>2011-05-27T15:16:52Z</time>
      </trkpt>
      <trkpt lat="44.44365" lon="4.36642">
        <ele>194.3237305</ele>
        <time>2011-05-27T15:16:55Z</time>
      </trkpt>
      <trkpt lat="44.4437" lon="4.36627">
        <ele>195.765625</ele>
        <time>2011-05-27T15:16:59Z</time>
      </trkpt>
      <trkpt lat="44.44373" lon="4.36614">
        <ele>195.765625</ele>
        <time>2011-05-27T15:17:03Z</time>
      </trkpt>
      <trkpt lat="44.44373" lon="4.366">
        <ele>196.7269287</ele>
        <time>2011-05-27T15:17:09Z</time>
      </trkpt>
      <trkpt lat="44.44364" lon="4.36591">
        <ele>197.2075195</ele>
        <time>2011-05-27T15:17:14Z</time>
      </trkpt>
      <trkpt lat="44.4436" lon="4.36577">
        <ele>197.6882324</ele>
        <time>2011-05-27T15:17:19Z</time>
      </trkpt>
      <trkpt lat="44.44363" lon="4.36563">
        <ele>197.6882324</ele>
        <time>2011-05-27T15:17:23Z</time>
      </trkpt>
      <trkpt lat="44.44367" lon="4.36548">
        <ele>195.765625</ele>
        <time>2011-05-27T15:17:27Z</time>
      </trkpt>
      <trkpt lat="44.44371" lon="4.36535">
        <ele>196.2463379</ele>
        <time>2011-05-27T15:17:30Z</time>
      </trkpt>
      <trkpt lat="44.44375" lon="4.3652">
        <ele>194.8043213</ele>
        <time>2011-05-27T15:17:33Z</time>
      </trkpt>
      <trkpt lat="44.4438" lon="4.36508">
        <ele>191.9202881</ele>
        <time>2011-05-27T15:17:37Z</time>
      </trkpt>
      <trkpt lat="44.44386" lon="4.36515">
        <ele>192.401123</ele>
        <time>2011-05-27T15:17:44Z</time>
      </trkpt>
      <trkpt lat="44.44395" lon="4.36523">
        <ele>192.401123</ele>
        <time>2011-05-27T15:17:48Z</time>
      </trkpt>
      <trkpt lat="44.44404" lon="4.36531">
        <ele>193.3623047</ele>
        <time>2011-05-27T15:17:51Z</time>
      </trkpt>
      <trkpt lat="44.44412" lon="4.36537">
        <ele>192.8817139</ele>
        <time>2011-05-27T15:17:54Z</time>
      </trkpt>
      <trkpt lat="44.44422" lon="4.36541">
        <ele>190.9589844</ele>
        <time>2011-05-27T15:17:57Z</time>
      </trkpt>
      <trkpt lat="44.44434" lon="4.36538">
        <ele>190.9589844</ele>
        <time>2011-05-27T15:18:00Z</time>
      </trkpt>
      <trkpt lat="44.44443" lon="4.36539">
        <ele>190.9589844</ele>
        <time>2011-05-27T15:18:02Z</time>
      </trkpt>
      <trkpt lat="44.44452" lon="4.36542">
        <ele>190.9589844</ele>
        <time>2011-05-27T15:18:04Z</time>
      </trkpt>
      <trkpt lat="44.44462" lon="4.36547">
        <ele>190.9589844</ele>
        <time>2011-05-27T15:18:06Z</time>
      </trkpt>
      <trkpt lat="44.44472" lon="4.36552">
        <ele>190.9589844</ele>
        <time>2011-05-27T15:18:08Z</time>
      </trkpt>
      <trkpt lat="44.44481" lon="4.36556">
        <ele>190.9589844</ele>
        <time>2011-05-27T15:18:10Z</time>
      </trkpt>
      <trkpt lat="44.44493" lon="4.36562">
        <ele>189.5169678</ele>
        <time>2011-05-27T15:18:13Z</time>
      </trkpt>
      <trkpt lat="44.44503" lon="4.36563">
        <ele>189.5169678</ele>
        <time>2011-05-27T15:18:16Z</time>
      </trkpt>
      <trkpt lat="44.44512" lon="4.36555">
        <ele>187.5943604</ele>
        <time>2011-05-27T15:18:19Z</time>
      </trkpt>
      <trkpt lat="44.44524" lon="4.36551">
        <ele>187.1137695</ele>
        <time>2011-05-27T15:18:22Z</time>
      </trkpt>
      <trkpt lat="44.44535" lon="4.36556">
        <ele>187.5943604</ele>
        <time>2011-05-27T15:18:25Z</time>
      </trkpt>
      <trkpt lat="44.44545" lon="4.3656">
        <ele>187.5943604</ele>
        <time>2011-05-27T15:18:28Z</time>
      </trkpt>
      <trkpt lat="44.44556" lon="4.3656">
        <ele>188.0750732</ele>
        <time>2011-05-27T15:18:31Z</time>
      </trkpt>
      <trkpt lat="44.44567" lon="4.3656">
        <ele>187.5943604</ele>
        <time>2011-05-27T15:18:34Z</time>
      </trkpt>
      <trkpt lat="44.44578" lon="4.3656">
        <ele>187.5943604</ele>
        <time>2011-05-27T15:18:37Z</time>
      </trkpt>
      <trkpt lat="44.44587" lon="4.36565">
        <ele>186.6331787</ele>
        <time>2011-05-27T15:18:40Z</time>
      </trkpt>
      <trkpt lat="44.44589" lon="4.36577">
        <ele>187.1137695</ele>
        <time>2011-05-27T15:18:43Z</time>
      </trkpt>
      <trkpt lat="44.44584" lon="4.36592">
        <ele>187.5943604</ele>
        <time>2011-05-27T15:18:47Z</time>
      </trkpt>
      <trkpt lat="44.4458" lon="4.36604">
        <ele>188.5557861</ele>
        <time>2011-05-27T15:18:50Z</time>
      </trkpt>
      <trkpt lat="44.44577" lon="4.36617">
        <ele>189.036377</ele>
        <time>2011-05-27T15:18:53Z</time>
      </trkpt>
      <trkpt lat="44.44572" lon="4.36628">
        <ele>189.036377</ele>
        <time>2011-05-27T15:18:56Z</time>
      </trkpt>
      <trkpt lat="44.44565" lon="4.36637">
        <ele>189.5169678</ele>
        <time>2011-05-27T15:18:59Z</time>
      </trkpt>
      <trkpt lat="44.44554" lon="4.36641">
        <ele>189.5169678</ele>
        <time>2011-05-27T15:19:03Z</time>
      </trkpt>
      <trkpt lat="44.44543" lon="4.36642">
        <ele>189.9976807</ele>
        <time>2011-05-27T15:19:07Z</time>
      </trkpt>
      <trkpt lat="44.44533" lon="4.36643">
        <ele>190.9589844</ele>
        <time>2011-05-27T15:19:11Z</time>
      </trkpt>
      <trkpt lat="44.44523" lon="4.36642">
        <ele>191.4395752</ele>
        <time>2011-05-27T15:19:15Z</time>
      </trkpt>
      <trkpt lat="44.44513" lon="4.36642">
        <ele>190.9589844</ele>
        <time>2011-05-27T15:19:19Z</time>
      </trkpt>
      <trkpt lat="44.44502" lon="4.36642">
        <ele>190.9589844</ele>
        <time>2011-05-27T15:19:23Z</time>
      </trkpt>
      <trkpt lat="44.44492" lon="4.36642">
        <ele>190.9589844</ele>
        <time>2011-05-27T15:19:27Z</time>
      </trkpt>
      <trkpt lat="44.44481" lon="4.36645">
        <ele>191.4395752</ele>
        <time>2011-05-27T15:19:31Z</time>
      </trkpt>
      <trkpt lat="44.44474" lon="4.36656">
        <ele>190.4783936</ele>
        <time>2011-05-27T15:19:35Z</time>
      </trkpt>
      <trkpt lat="44.44472" lon="4.3667">
        <ele>189.5169678</ele>
        <time>2011-05-27T15:19:38Z</time>
      </trkpt>
      <trkpt lat="44.44469" lon="4.36687">
        <ele>189.036377</ele>
        <time>2011-05-27T15:19:42Z</time>
      </trkpt>
      <trkpt lat="44.44461" lon="4.36698">
        <ele>187.5943604</ele>
        <time>2011-05-27T15:19:46Z</time>
      </trkpt>
      <trkpt lat="44.4445" lon="4.36699">
        <ele>188.5557861</ele>
        <time>2011-05-27T15:19:50Z</time>
      </trkpt>
      <trkpt lat="44.44441" lon="4.36697">
        <ele>189.5169678</ele>
        <time>2011-05-27T15:19:54Z</time>
      </trkpt>
      <trkpt lat="44.44431" lon="4.36694">
        <ele>189.9976807</ele>
        <time>2011-05-27T15:19:58Z</time>
      </trkpt>
      <trkpt lat="44.44421" lon="4.36693">
        <ele>190.4783936</ele>
        <time>2011-05-27T15:20:02Z</time>
      </trkpt>
      <trkpt lat="44.44412" lon="4.36691">
        <ele>190.9589844</ele>
        <time>2011-05-27T15:20:06Z</time>
      </trkpt>
      <trkpt lat="44.44402" lon="4.36694">
        <ele>190.9589844</ele>
        <time>2011-05-27T15:20:10Z</time>
      </trkpt>
      <trkpt lat="44.44395" lon="4.36706">
        <ele>191.9202881</ele>
        <time>2011-05-27T15:20:14Z</time>
      </trkpt>
      <trkpt lat="44.44393" lon="4.3672">
        <ele>193.8430176</ele>
        <time>2011-05-27T15:20:19Z</time>
      </trkpt>
      <trkpt lat="44.44389" lon="4.36735">
        <ele>195.2849121</ele>
        <time>2011-05-27T15:20:25Z</time>
      </trkpt>
      <trkpt lat="44.4439" lon="4.36748">
        <ele>196.2463379</ele>
        <time>2011-05-27T15:20:31Z</time>
      </trkpt>
      <trkpt lat="44.44387" lon="4.36749">
        <ele>196.2463379</ele>
        <time>2011-05-27T15:20:48Z</time>
      </trkpt>
      <trkpt lat="44.44376" lon="4.36744">
        <ele>196.7269287</ele>
        <time>2011-05-27T15:20:54Z</time>
      </trkpt>
      <trkpt lat="44.44365" lon="4.36737">
        <ele>196.7269287</ele>
        <time>2011-05-27T15:20:58Z</time>
      </trkpt>
      <trkpt lat="44.44355" lon="4.36729">
        <ele>196.2463379</ele>
        <time>2011-05-27T15:21:01Z</time>
      </trkpt>
      <trkpt lat="44.44346" lon="4.3672">
        <ele>196.7269287</ele>
        <time>2011-05-27T15:21:04Z</time>
      </trkpt>
      <trkpt lat="44.44338" lon="4.36712">
        <ele>196.2463379</ele>
        <time>2011-05-27T15:21:07Z</time>
      </trkpt>
      <trkpt lat="44.4433" lon="4.3672">
        <ele>198.1689453</ele>
        <time>2011-05-27T15:21:11Z</time>
      </trkpt>
      <trkpt lat="44.44326" lon="4.36733">
        <ele>197.2075195</ele>
        <time>2011-05-27T15:21:15Z</time>
      </trkpt>
      <trkpt lat="44.44335" lon="4.36744">
        <ele>197.6882324</ele>
        <time>2011-05-27T15:21:19Z</time>
      </trkpt>
      <trkpt lat="44.44345" lon="4.36752">
        <ele>197.6882324</ele>
        <time>2011-05-27T15:21:22Z</time>
      </trkpt>
      <trkpt lat="44.44355" lon="4.36762">
        <ele>198.1689453</ele>
        <time>2011-05-27T15:21:25Z</time>
      </trkpt>
      <trkpt lat="44.44365" lon="4.3677">
        <ele>198.1689453</ele>
        <time>2011-05-27T15:21:28Z</time>
      </trkpt>
      <trkpt lat="44.44376" lon="4.36778">
        <ele>198.6495361</ele>
        <time>2011-05-27T15:21:31Z</time>
      </trkpt>
      <trkpt lat="44.44384" lon="4.36787">
        <ele>197.6882324</ele>
        <time>2011-05-27T15:21:34Z</time>
      </trkpt>
      <trkpt lat="44.44392" lon="4.36796">
        <ele>196.7269287</ele>
        <time>2011-05-27T15:21:37Z</time>
      </trkpt>
      <trkpt lat="44.44402" lon="4.36803">
        <ele>196.2463379</ele>
        <time>2011-05-27T15:21:40Z</time>
      </trkpt>
      <trkpt lat="44.44409" lon="4.36815">
        <ele>196.7269287</ele>
        <time>2011-05-27T15:21:43Z</time>
      </trkpt>
      <trkpt lat="44.4441" lon="4.36831">
        <ele>196.7269287</ele>
        <time>2011-05-27T15:21:46Z</time>
      </trkpt>
      <trkpt lat="44.44408" lon="4.36848">
        <ele>196.2463379</ele>
        <time>2011-05-27T15:21:49Z</time>
      </trkpt>
      <trkpt lat="44.44413" lon="4.36863">
        <ele>196.7269287</ele>
        <time>2011-05-27T15:21:52Z</time>
      </trkpt>
      <trkpt lat="44.44422" lon="4.36872">
        <ele>196.2463379</ele>
        <time>2011-05-27T15:21:55Z</time>
      </trkpt>
      <trkpt lat="44.44434" lon="4.36879">
        <ele>195.765625</ele>
        <time>2011-05-27T15:21:58Z</time>
      </trkpt>
      <trkpt lat="44.44446" lon="4.36886">
        <ele>194.8043213</ele>
        <time>2011-05-27T15:22:01Z</time>
      </trkpt>
      <trkpt lat="44.44458" lon="4.36895">
        <ele>195.765625</ele>
        <time>2011-05-27T15:22:04Z</time>
      </trkpt>
      <trkpt lat="44.44469" lon="4.36903">
        <ele>195.2849121</ele>
        <time>2011-05-27T15:22:07Z</time>
      </trkpt>
      <trkpt lat="44.44479" lon="4.36912">
        <ele>195.765625</ele>
        <time>2011-05-27T15:22:10Z</time>
      </trkpt>
      <trkpt lat="44.4449" lon="4.36921">
        <ele>195.765625</ele>
        <time>2011-05-27T15:22:13Z</time>
      </trkpt>
      <trkpt lat="44.44501" lon="4.36927">
        <ele>194.8043213</ele>
        <time>2011-05-27T15:22:16Z</time>
      </trkpt>
      <trkpt lat="44.44512" lon="4.36929">
        <ele>194.8043213</ele>
        <time>2011-05-27T15:22:19Z</time>
      </trkpt>
      <trkpt lat="44.44523" lon="4.36924">
        <ele>194.3237305</ele>
        <time>2011-05-27T15:22:22Z</time>
      </trkpt>
      <trkpt lat="44.44534" lon="4.36923">
        <ele>194.3237305</ele>
        <time>2011-05-27T15:22:25Z</time>
      </trkpt>
      <trkpt lat="44.44545" lon="4.36926">
        <ele>194.8043213</ele>
        <time>2011-05-27T15:22:28Z</time>
      </trkpt>
      <trkpt lat="44.44557" lon="4.36928">
        <ele>194.8043213</ele>
        <time>2011-05-27T15:22:32Z</time>
      </trkpt>
      <trkpt lat="44.44568" lon="4.36918">
        <ele>193.3623047</ele>
        <time>2011-05-27T15:22:36Z</time>
      </trkpt>
      <trkpt lat="44.44574" lon="4.36902">
        <ele>191.4395752</ele>
        <time>2011-05-27T15:22:39Z</time>
      </trkpt>
      <trkpt lat="44.44582" lon="4.36886">
        <ele>190.9589844</ele>
        <time>2011-05-27T15:22:42Z</time>
      </trkpt>
      <trkpt lat="44.44583" lon="4.36873">
        <ele>189.5169678</ele>
        <time>2011-05-27T15:22:45Z</time>
      </trkpt>
      <trkpt lat="44.44575" lon="4.36863">
        <ele>189.036377</ele>
        <time>2011-05-27T15:22:48Z</time>
      </trkpt>
      <trkpt lat="44.44572" lon="4.36846">
        <ele>188.5557861</ele>
        <time>2011-05-27T15:22:51Z</time>
      </trkpt>
      <trkpt lat="44.44577" lon="4.36826">
        <ele>187.5943604</ele>
        <time>2011-05-27T15:22:54Z</time>
      </trkpt>
      <trkpt lat="44.44579" lon="4.36811">
        <ele>187.1137695</ele>
        <time>2011-05-27T15:22:56Z</time>
      </trkpt>
      <trkpt lat="44.44578" lon="4.36795">
        <ele>186.1524658</ele>
        <time>2011-05-27T15:22:58Z</time>
      </trkpt>
      <trkpt lat="44.44578" lon="4.36781">
        <ele>184.2298584</ele>
        <time>2011-05-27T15:23:00Z</time>
      </trkpt>
      <trkpt lat="44.44579" lon="4.36765">
        <ele>183.7490234</ele>
        <time>2011-05-27T15:23:03Z</time>
      </trkpt>
      <trkpt lat="44.44579" lon="4.36749">
        <ele>183.7490234</ele>
        <time>2011-05-27T15:23:07Z</time>
      </trkpt>
      <trkpt lat="44.44575" lon="4.36735">
        <ele>181.826416</ele>
        <time>2011-05-27T15:23:11Z</time>
      </trkpt>
      <trkpt lat="44.44567" lon="4.36723">
        <ele>181.826416</ele>
        <time>2011-05-27T15:23:14Z</time>
      </trkpt>
      <trkpt lat="44.44558" lon="4.36713">
        <ele>181.3458252</ele>
        <time>2011-05-27T15:23:17Z</time>
      </trkpt>
      <trkpt lat="44.4455" lon="4.36705">
        <ele>181.3458252</ele>
        <time>2011-05-27T15:23:20Z</time>
      </trkpt>
      <trkpt lat="44.44551" lon="4.36692">
        <ele>179.4232178</ele>
        <time>2011-05-27T15:23:24Z</time>
      </trkpt>
      <trkpt lat="44.44561" lon="4.36691">
        <ele>178.4619141</ele>
        <time>2011-05-27T15:23:27Z</time>
      </trkpt>
      <trkpt lat="44.44572" lon="4.36694">
        <ele>177.9812012</ele>
        <time>2011-05-27T15:23:30Z</time>
      </trkpt>
      <trkpt lat="44.44584" lon="4.36696">
        <ele>176.5393066</ele>
        <time>2011-05-27T15:23:33Z</time>
      </trkpt>
      <trkpt lat="44.44594" lon="4.36695">
        <ele>176.0585938</ele>
        <time>2011-05-27T15:23:35Z</time>
      </trkpt>
      <trkpt lat="44.44603" lon="4.36689">
        <ele>175.09729</ele>
        <time>2011-05-27T15:23:37Z</time>
      </trkpt>
      <trkpt lat="44.44612" lon="4.36678">
        <ele>175.09729</ele>
        <time>2011-05-27T15:23:39Z</time>
      </trkpt>
      <trkpt lat="44.44619" lon="4.36665">
        <ele>175.09729</ele>
        <time>2011-05-27T15:23:41Z</time>
      </trkpt>
      <trkpt lat="44.44626" lon="4.36653">
        <ele>174.6165771</ele>
        <time>2011-05-27T15:23:43Z</time>
      </trkpt>
      <trkpt lat="44.44632" lon="4.36639">
        <ele>174.1358643</ele>
        <time>2011-05-27T15:23:45Z</time>
      </trkpt>
      <trkpt lat="44.44638" lon="4.36625">
        <ele>172.2132568</ele>
        <time>2011-05-27T15:23:47Z</time>
      </trkpt>
      <trkpt lat="44.44643" lon="4.3661">
        <ele>171.732666</ele>
        <time>2011-05-27T15:23:49Z</time>
      </trkpt>
      <trkpt lat="44.44649" lon="4.36596">
        <ele>169.8100586</ele>
        <time>2011-05-27T15:23:51Z</time>
      </trkpt>
      <trkpt lat="44.44654" lon="4.36582">
        <ele>169.3294678</ele>
        <time>2011-05-27T15:23:53Z</time>
      </trkpt>
      <trkpt lat="44.44659" lon="4.36568">
        <ele>169.3294678</ele>
        <time>2011-05-27T15:23:55Z</time>
      </trkpt>
      <trkpt lat="44.44664" lon="4.36554">
        <ele>168.8487549</ele>
        <time>2011-05-27T15:23:57Z</time>
      </trkpt>
      <trkpt lat="44.4467" lon="4.36541">
        <ele>167.4067383</ele>
        <time>2011-05-27T15:23:59Z</time>
      </trkpt>
      <trkpt lat="44.4468" lon="4.36535">
        <ele>166.4453125</ele>
        <time>2011-05-27T15:24:01Z</time>
      </trkpt>
      <trkpt lat="44.4469" lon="4.36536">
        <ele>166.4453125</ele>
        <time>2011-05-27T15:24:03Z</time>
      </trkpt>
      <trkpt lat="44.44698" lon="4.36547">
        <ele>168.8487549</ele>
        <time>2011-05-27T15:24:06Z</time>
      </trkpt>
      <trkpt lat="44.44702" lon="4.36561">
        <ele>168.8487549</ele>
        <time>2011-05-27T15:24:10Z</time>
      </trkpt>
      <trkpt lat="44.44707" lon="4.36573">
        <ele>169.3294678</ele>
        <time>2011-05-27T15:24:15Z</time>
      </trkpt>
      <trkpt lat="44.44714" lon="4.36583">
        <ele>170.7713623</ele>
        <time>2011-05-27T15:24:20Z</time>
      </trkpt>
      <trkpt lat="44.44721" lon="4.36593">
        <ele>171.2520752</ele>
        <time>2011-05-27T15:24:25Z</time>
      </trkpt>
      <trkpt lat="44.44728" lon="4.36603">
        <ele>172.2132568</ele>
        <time>2011-05-27T15:24:30Z</time>
      </trkpt>
      <trkpt lat="44.44734" lon="4.36614">
        <ele>173.1746826</ele>
        <time>2011-05-27T15:24:35Z</time>
      </trkpt>
      <trkpt lat="44.44739" lon="4.36624">
        <ele>173.6552734</ele>
        <time>2011-05-27T15:24:40Z</time>
      </trkpt>
      <trkpt lat="44.44745" lon="4.36634">
        <ele>174.6165771</ele>
        <time>2011-05-27T15:24:45Z</time>
      </trkpt>
      <trkpt lat="44.4475" lon="4.36648">
        <ele>176.5393066</ele>
        <time>2011-05-27T15:24:51Z</time>
      </trkpt>
      <trkpt lat="44.44755" lon="4.36661">
        <ele>177.5006104</ele>
        <time>2011-05-27T15:24:57Z</time>
      </trkpt>
      <trkpt lat="44.44759" lon="4.36675">
        <ele>178.4619141</ele>
        <time>2011-05-27T15:25:03Z</time>
      </trkpt>
      <trkpt lat="44.44764" lon="4.36688">
        <ele>178.942627</ele>
        <time>2011-05-27T15:25:09Z</time>
      </trkpt>
      <trkpt lat="44.44768" lon="4.36699">
        <ele>179.4232178</ele>
        <time>2011-05-27T15:25:15Z</time>
      </trkpt>
      <trkpt lat="44.44765" lon="4.36712">
        <ele>180.8652344</ele>
        <time>2011-05-27T15:25:22Z</time>
      </trkpt>
      <trkpt lat="44.44756" lon="4.36706">
        <ele>181.826416</ele>
        <time>2011-05-27T15:25:28Z</time>
      </trkpt>
      <trkpt lat="44.44748" lon="4.36698">
        <ele>182.7878418</ele>
        <time>2011-05-27T15:25:34Z</time>
      </trkpt>
      <trkpt lat="44.44739" lon="4.3669">
        <ele>183.2684326</ele>
        <time>2011-05-27T15:25:40Z</time>
      </trkpt>
      <trkpt lat="44.44729" lon="4.36685">
        <ele>183.7490234</ele>
        <time>2011-05-27T15:25:46Z</time>
      </trkpt>
      <trkpt lat="44.44719" lon="4.36683">
        <ele>185.6717529</ele>
        <time>2011-05-27T15:25:52Z</time>
      </trkpt>
      <trkpt lat="44.44709" lon="4.36686">
        <ele>187.1137695</ele>
        <time>2011-05-27T15:25:58Z</time>
      </trkpt>
      <trkpt lat="44.44701" lon="4.36691">
        <ele>187.1137695</ele>
        <time>2011-05-27T15:26:03Z</time>
      </trkpt>
      <trkpt lat="44.44693" lon="4.367">
        <ele>187.5943604</ele>
        <time>2011-05-27T15:26:08Z</time>
      </trkpt>
      <trkpt lat="44.44685" lon="4.36709">
        <ele>188.0750732</ele>
        <time>2011-05-27T15:26:13Z</time>
      </trkpt>
      <trkpt lat="44.44678" lon="4.36717">
        <ele>188.5557861</ele>
        <time>2011-05-27T15:26:18Z</time>
      </trkpt>
      <trkpt lat="44.4467" lon="4.36727">
        <ele>188.0750732</ele>
        <time>2011-05-27T15:26:23Z</time>
      </trkpt>
      <trkpt lat="44.44663" lon="4.36736">
        <ele>187.5943604</ele>
        <time>2011-05-27T15:26:28Z</time>
      </trkpt>
      <trkpt lat="44.44655" lon="4.36745">
        <ele>188.5557861</ele>
        <time>2011-05-27T15:26:35Z</time>
      </trkpt>
      <trkpt lat="44.44654" lon="4.36745">
        <ele>188.0750732</ele>
        <time>2011-05-27T15:27:09Z</time>
      </trkpt>
    </trkseg>
  </trk>
</gpx>